# Wetter Temperatur Luftdruck Luftfeuchtigkeit Sichtweite Windgeschwindigkeit Windrichtung Zeit
1 Smoke 33 1007 55 4000 5.66 300 12:19 22.04.2021
2 Smoke 33 1009 55 4000 5.66 300 11:45 22.04.2021
3 Smoke 33 1009 55 4000 5.66 300 11:45 22.04.2021
4 Smoke 33 1009 55 4000 5.66 300 11:22 22.04.2021
5 Smoke 33 1010 52 4000 4.63 300 10:44 22.04.2021
6 Smoke 33 1010 55 4000 5.14 300 10:21 22.04.2021
7 Smoke 33 1010 52 4000 4.12 300 09:42 22.04.2021
8 Smoke 33 1010 52 4000 4.12 300 09:19 22.04.2021
9 Smoke 33 1011 43 4000 3.09 320 08:38 22.04.2021
10 Smoke 33 1011 43 4000 3.09 320 08:18 22.04.2021
11 Smoke 33 1012 46 4000 1.54 220 07:40 22.04.2021
12 Smoke 33 1012 46 4000 1.54 220 07:20 22.04.2021
13 Haze 31 1012 66 3000 2.06 20 06:23 22.04.2021
14 Haze 29 1011 70 3000 2.57 240 05:25 22.04.2021
15 Smoke 28 1010 78 3000 2.57 50 03:31 22.04.2021
16 Haze 28 1009 83 2500 2.57 60 00:52 22.04.2021
17 Haze 28 1009 83 2500 1.54 360 23:47 21.04.2021
18 Haze 28 1010 83 2500 1.54 10 23:25 21.04.2021
19 Haze 28 1010 83 3000 1.54 40 22:42 21.04.2021
20 Haze 28 1010 83 3000 1.54 40 22:23 21.04.2021
21 Haze 28 1010 83 3000 2.06 360 21:42 21.04.2021
22 Haze 28 1010 83 3000 2.06 360 21:23 21.04.2021
23 Haze 29 1011 79 3000 3.83 318 20:43 21.04.2021
24 Haze 29 1011 79 3500 3.77 309 20:20 21.04.2021
25 Haze 29 1011 79 3500 2.57 310 19:43 21.04.2021
26 Haze 29 1011 79 3500 2.57 300 19:23 21.04.2021
27 Haze 29 1011 79 3500 2.57 300 18:46 21.04.2021
28 Haze 29 1011 79 3500 2.06 310 18:26 21.04.2021
29 Smoke 29 1010 79 3500 2.57 310 17:48 21.04.2021
30 Smoke 29 1010 79 3500 4.12 300 17:24 21.04.2021
31 Smoke 29 1010 79 3500 3.6 300 16:49 21.04.2021
32 Smoke 30 1009 74 5000 4.63 280 15:59 21.04.2021
33 Smoke 30 1009 74 5000 4.63 280 15:40 21.04.2021
34 Smoke 30 1009 74 5000 6.17 280 14:55 21.04.2021
35 Smoke 31 1009 70 4000 1.03 280 14:36 21.04.2021
36 Smoke 31 1009 70 5000 6.17 270 14:18 21.04.2021
37 Smoke 31 1009 74 5000 6.69 260 13:40 21.04.2021
38 Smoke 31 1009 74 5000 6.69 260 13:20 21.04.2021
39 Smoke 32 1009 62 4000 6.17 270 12:30 21.04.2021
40 Smoke 32 1010 62 4000 6.17 290 11:50 21.04.2021
41 Smoke 32 1010 62 4000 6.69 260 11:29 21.04.2021
42 Smoke 32 1010 62 4000 4.63 270 10:52 21.04.2021
43 Smoke 31 1011 66 4000 5.14 270 10:34 21.04.2021
44 Smoke 32 1011 66 4000 5.66 260 09:51 21.04.2021
45 Smoke 32 1012 62 4000 5.14 270 09:19 21.04.2021
46 Smoke 32 1012 62 4000 4.12 260 08:40 21.04.2021
47 Smoke 32 1012 62 4000 3.6 240 08:20 21.04.2021
48 Haze 32 1012 62 3500 3.09 240 07:31 21.04.2021
49 Haze 31 1012 62 3000 1.54 180 06:57 21.04.2021
50 Haze 29 1011 74 2500 2.06 100 05:22 21.04.2021
51 Haze 29 1009 74 3000 3.18 330 01:32 21.04.2021
52 Haze 29 1009 74 3000 3.24 321 23:51 20.04.2021
53 Haze 29 1009 74 3000 2.98 315 23:25 20.04.2021
54 Haze 29 1009 79 3000 1.54 290 22:41 20.04.2021
55 Haze 29 1009 79 3000 1.54 290 22:21 20.04.2021
56 Haze 29 1009 79 3000 1.54 300 21:47 20.04.2021
57 Haze 29 1010 79 3000 2.06 310 21:25 20.04.2021
58 Haze 29 1010 79 3000 2.06 330 20:44 20.04.2021
59 Haze 29 1010 79 3000 1.54 300 20:24 20.04.2021
60 Haze 29 1010 79 3000 2.57 300 19:57 20.04.2021
61 Haze 29 1010 79 3000 3.09 300 19:39 20.04.2021
62 Haze 29 1010 79 3000 3.09 300 19:39 20.04.2021
63 Haze 29 1009 79 3000 4.12 300 19:21 20.04.2021
64 Haze 29 1009 79 3000 4.12 290 18:36 20.04.2021
65 Haze 29 1009 79 3000 4.63 290 17:46 20.04.2021
66 Haze 29 1008 79 3500 5.14 280 17:28 20.04.2021
67 Haze 30 1008 74 3500 5.14 280 16:49 20.04.2021
68 Haze 30 1007 74 4000 4.12 280 15:53 20.04.2021
69 Haze 30 1007 74 5000 5.14 270 15:29 20.04.2021
70 Haze 30 1007 74 5000 5.66 270 14:58 20.04.2021
71 Haze 30 1007 70 4000 2.57 260 14:33 20.04.2021
72 Haze 31 1007 70 5000 5.14 290 13:48 20.04.2021
73 Haze 31 1006 70 5000 5.66 260 13:22 20.04.2021
74 Haze 32 1007 62 5000 5.14 270 12:44 20.04.2021
75 Haze 32 1007 62 5000 5.66 260 12:20 20.04.2021
76 Haze 32 1007 62 5000 5.14 270 11:44 20.04.2021
77 Haze 32 1008 62 5000 6.17 260 11:21 20.04.2021
78 Haze 32 1008 62 5000 6.17 260 10:44 20.04.2021
79 Haze 32 1008 62 4000 6.17 270 10:23 20.04.2021
80 Haze 32 1009 62 4000 6.17 260 09:36 20.04.2021
81 Haze 32 1010 62 3500 4.63 270 08:56 20.04.2021
82 Haze 32 1010 62 3500 4.63 270 08:22 20.04.2021
83 Haze 31 1010 66 3500 3.6 250 07:47 20.04.2021
84 Haze 31 1010 66 3000 1.54 240 06:45 20.04.2021
85 Haze 29 1010 74 2500 2.06 290 05:38 20.04.2021
86 Haze 29 1009 74 2500 2.57 290 04:42 20.04.2021
87 Mist 28 1008 78 3000 1.18 299 01:48 20.04.2021
88 Mist 28 1008 78 3000 1.49 295 00:37 20.04.2021
89 Mist 29 1008 74 3000 2.29 296 23:37 19.04.2021
90 Mist 29 1009 74 3000 2.57 240 22:57 19.04.2021
91 Mist 29 1009 79 3000 2.57 240 22:33 19.04.2021
92 Mist 29 1010 79 3000 3.09 250 21:51 19.04.2021
93 Mist 29 1010 79 3000 2.06 240 21:33 19.04.2021
94 Mist 29 1010 79 3000 2.57 230 20:55 19.04.2021
95 Haze 29 1010 79 3000 2.06 240 20:37 19.04.2021
96 Haze 29 1010 79 3000 2.06 240 20:19 19.04.2021
97 Haze 29 1010 79 3000 2.06 210 19:40 19.04.2021
98 Haze 29 1010 79 3000 2.57 230 19:22 19.04.2021
99 Haze 30 1010 74 3000 3.6 260 18:46 19.04.2021
100 Haze 30 1009 70 3000 3.6 260 18:22 19.04.2021
101 Haze 30 1009 66 3500 3.09 250 17:54 19.04.2021
102 Haze 30 1008 70 4000 4.12 280 17:29 19.04.2021
103 Haze 30 1008 74 4000 3.09 280 16:51 19.04.2021
104 Haze 30 1008 74 4000 4.12 300 16:33 19.04.2021
105 Haze 30 1008 74 4000 4.12 300 16:33 19.04.2021
106 Haze 30 1007 74 4000 4.12 310 15:52 19.04.2021
107 Smoke 31 1007 66 5000 4.63 280 15:29 19.04.2021
108 Smoke 31 1007 66 5000 5.66 270 14:53 19.04.2021
109 Haze 30 1007 66 4000 3.09 270 14:35 19.04.2021
110 Smoke 32 1007 66 5000 5.14 260 13:54 19.04.2021
111 Smoke 32 1007 66 5000 5.14 270 13:30 19.04.2021
112 Smoke 32 1007 62 5000 5.66 270 12:56 19.04.2021
113 Smoke 32 1008 66 5000 6.17 250 12:36 19.04.2021
114 Smoke 32 1008 66 5000 6.17 250 12:18 19.04.2021
115 Smoke 32 1008 66 5000 6.17 250 11:49 19.04.2021
116 Smoke 32 1008 66 5000 6.17 270 11:20 19.04.2021
117 Smoke 31 1009 66 5000 5.14 260 10:44 19.04.2021
118 Smoke 32 1009 66 5000 4.63 270 10:19 19.04.2021
119 Smoke 32 1010 66 4000 4.12 280 09:43 19.04.2021
120 Smoke 32 1010 66 4000 5.66 270 09:24 19.04.2021
121 Smoke 32 1011 66 4000 4.63 250 08:37 19.04.2021
122 Haze 32 1011 66 3500 5.14 240 07:50 19.04.2021
123 Haze 32 1011 66 3000 2.57 190 07:24 19.04.2021
124 Haze 31 1011 70 3000 2.57 260 06:52 19.04.2021
125 Haze 30 1011 74 3000 2.57 200 05:30 19.04.2021
126 Haze 28 1010 89 3000 2.82 352 01:49 19.04.2021
127 Haze 29 1009 84 3000 4.12 349 00:42 19.04.2021
128 Haze 29 1009 84 3000 1.54 310 23:22 18.04.2021
129 Haze 29 1009 84 3000 3.09 300 22:58 18.04.2021
130 Haze 29 1010 84 3000 3.09 310 22:34 18.04.2021
131 Haze 29 1010 84 3000 3.09 300 21:57 18.04.2021
132 Haze 29 1010 89 3000 2.57 300 21:29 18.04.2021
133 Haze 29 1010 84 3000 3.6 290 20:55 18.04.2021
134 Haze 30 1011 79 3000 4.12 280 20:37 18.04.2021
135 Haze 30 1011 79 3000 4.12 280 20:18 18.04.2021
136 Haze 31 1011 74 3500 3.09 310 19:41 18.04.2021
137 Haze 31 1011 74 3500 3.09 310 19:21 18.04.2021
138 Haze 31 1010 70 3500 3.09 250 18:45 18.04.2021
139 Haze 31 1010 70 3500 2.57 270 18:25 18.04.2021
140 Haze 31 1010 70 3000 2.06 290 17:46 18.04.2021
141 Haze 31 1009 70 3000 2.06 290 17:27 18.04.2021
142 Haze 32 1009 66 3000 2.06 320 16:52 18.04.2021
143 Haze 32 1009 66 3000 2.06 320 16:34 18.04.2021
144 Haze 32 1009 62 4000 2.57 300 15:49 18.04.2021
145 Haze 33 1008 58 4000 3.6 300 15:28 18.04.2021
146 Haze 33 1008 62 4000 3.6 300 14:52 18.04.2021
147 Smoke 32 1008 66 3000 8.03 303 14:28 18.04.2021
148 Smoke 33 1008 59 5000 5.14 280 13:56 18.04.2021
149 Smoke 33 1008 59 5000 5.14 280 13:38 18.04.2021
150 Smoke 34 1008 52 5000 5.14 280 13:18 18.04.2021
151 Smoke 34 1008 62 5000 5.66 270 12:32 18.04.2021
152 Smoke 34 1009 59 5000 6.17 270 11:45 18.04.2021
153 Smoke 33 1009 62 4000 6.17 270 11:22 18.04.2021
154 Haze 33 1010 66 4000 6.17 260 10:48 18.04.2021
155 Haze 33 1010 70 4000 6.69 270 10:28 18.04.2021
156 Haze 33 1011 70 3500 7.2 260 09:53 18.04.2021
157 Haze 33 1011 70 3500 7.2 260 09:53 18.04.2021
158 Haze 33 1011 70 3500 7.2 260 09:35 18.04.2021
159 Haze 33 1011 66 3500 5.14 260 08:58 18.04.2021
160 Haze 33 1011 66 3500 5.14 260 08:37 18.04.2021
161 Smoke 34 1012 52 3500 5.14 260 08:18 18.04.2021
162 Smoke 34 1012 52 3500 5.14 260 07:39 18.04.2021
163 Haze 31 1013 62 3000 2.57 310 05:45 18.04.2021
164 Haze 31 1013 62 3000 2.57 310 05:45 18.04.2021
165 Haze 30 1012 70 2500 2.57 300 05:24 18.04.2021
166 Haze 28 1011 83 3000 1.54 100 03:26 18.04.2021
167 Haze 28 1011 89 3500 2.06 20 02:22 18.04.2021
168 Haze 28 1010 89 3500 1.54 340 00:40 18.04.2021
169 Haze 29 1010 84 3000 2.06 320 23:39 17.04.2021
170 Haze 29 1010 84 3000 2.57 310 22:54 17.04.2021
171 Haze 29 1010 84 3000 2.57 320 22:31 17.04.2021
172 Haze 29 1010 84 3000 2.57 320 22:31 17.04.2021
173 Haze 29 1011 84 3000 3.09 310 21:51 17.04.2021
174 Haze 29 1011 84 3000 3.09 300 21:31 17.04.2021
175 Haze 29 1011 84 3000 2.57 310 20:59 17.04.2021
176 Haze 29 1011 84 3000 3.09 310 20:28 17.04.2021
177 Haze 30 1011 79 3500 3.09 310 19:46 17.04.2021
178 Haze 30 1011 79 3500 3.09 310 19:22 17.04.2021
179 Haze 30 1011 79 4000 2.57 290 18:57 17.04.2021
180 Haze 30 1011 79 4000 2.57 290 18:37 17.04.2021
181 Haze 30 1010 79 3000 3.09 320 17:58 17.04.2021
182 Haze 30 1010 79 3000 3.09 320 17:39 17.04.2021
183 Haze 30 1009 74 3500 2.57 300 16:54 17.04.2021
184 Haze 31 1009 70 4000 3.6 320 16:28 17.04.2021
185 Haze 31 1009 66 4000 4.12 310 15:50 17.04.2021
186 Haze 32 1008 58 5000 4.63 300 14:50 17.04.2021
187 Haze 32 1008 58 5000 4.63 300 14:50 17.04.2021
188 Haze 32 1008 62 5000 4.63 300 14:31 17.04.2021
189 Smoke 32 1008 58 5000 5.14 290 13:48 17.04.2021
190 Smoke 32 1008 55 5000 5.66 290 13:25 17.04.2021
191 Haze 32 1009 70 5000 6.69 270 12:42 17.04.2021
192 Haze 32 1009 70 5000 6.69 270 12:18 17.04.2021
193 Haze 33 1009 66 5000 5.14 290 11:41 17.04.2021
194 Haze 33 1009 66 5000 5.14 290 11:22 17.04.2021
195 Haze 33 1010 66 5000 6.69 280 10:43 17.04.2021
196 Haze 33 1010 66 5000 7.2 270 10:25 17.04.2021
197 Haze 33 1011 66 5000 5.66 260 09:27 17.04.2021
198 Smoke 32 1011 62 3500 4.12 290 08:40 17.04.2021
199 Smoke 32 1011 62 3500 4.12 290 08:21 17.04.2021
200 Haze 31 1012 62 2500 3.09 360 06:44 17.04.2021
201 Haze 27 1011 83 2500 1.54 110 03:53 17.04.2021
202 Haze 28 1010 74 3000 3.95 6 02:58 17.04.2021
203 Haze 28 1009 78 3000 2.06 350 00:46 17.04.2021
204 Haze 27 1009 83 3000 2.06 10 00:24 17.04.2021
205 Haze 28 1009 78 3000 2.06 30 23:46 16.04.2021
206 Haze 28 1009 78 3000 2.57 340 23:23 16.04.2021
207 Haze 28 1009 83 3000 2.06 310 22:43 16.04.2021
208 Haze 28 1009 78 3000 2.57 310 22:20 16.04.2021
209 Haze 28 1009 78 3000 2.06 320 21:50 16.04.2021
210 Haze 29 1010 74 3000 1.54 320 21:29 16.04.2021
211 Haze 29 1010 74 3000 1.54 300 20:50 16.04.2021
212 Haze 29 1010 74 3000 2.06 320 20:24 16.04.2021
213 Haze 29 1010 79 3000 3.09 290 19:50 16.04.2021
214 Haze 29 1010 74 3000 2.57 290 19:28 16.04.2021
215 Haze 29 1010 74 3000 2.57 310 18:36 16.04.2021
216 Haze 29 1009 79 3000 3.09 310 18:18 16.04.2021
217 Haze 29 1009 79 3000 3.09 310 17:36 16.04.2021
218 Haze 29 1009 74 4000 3.6 300 17:18 16.04.2021
219 Haze 29 1009 79 4000 3.09 300 16:41 16.04.2021
220 Haze 29 1008 79 4000 3.09 310 16:22 16.04.2021
221 Haze 29 1008 79 4000 3.09 290 15:43 16.04.2021
222 Haze 30 1008 74 5000 3.6 300 15:18 16.04.2021
223 Haze 30 1008 74 5000 3.6 300 14:41 16.04.2021
224 Haze 31 1008 70 5000 4.12 270 14:18 16.04.2021
225 Haze 31 1008 70 5000 5.66 280 13:42 16.04.2021
226 Haze 31 1008 66 5000 6.17 290 13:20 16.04.2021
227 Haze 31 1008 66 5000 5.66 280 12:47 16.04.2021
228 Haze 31 1008 66 5000 6.69 260 12:27 16.04.2021
229 Haze 32 1009 62 5000 6.69 280 11:49 16.04.2021
230 Haze 32 1009 62 5000 6.17 260 11:25 16.04.2021
231 Smoke 32 1009 62 5000 6.17 270 10:46 16.04.2021
232 Smoke 32 1009 62 5000 7.2 260 10:26 16.04.2021
233 Smoke 32 1010 58 5000 5.66 270 09:52 16.04.2021
234 Smoke 32 1010 62 5000 6.17 250 09:24 16.04.2021
235 Smoke 32 1011 62 4000 5.66 260 08:46 16.04.2021
236 Smoke 32 1011 58 4000 6.17 270 08:28 16.04.2021
237 Smoke 32 1011 58 4000 4.12 270 07:52 16.04.2021
238 Smoke 32 1011 55 3500 4.12 260 07:33 16.04.2021
239 Smoke 32 1012 37 3500 1.54 330 06:56 16.04.2021
240 Haze 29 1011 74 2500 1.54 330 05:33 16.04.2021
241 Haze 28 1010 78 2500 2.92 14 04:18 16.04.2021
242 Haze 28 1009 78 3000 4.08 354 00:49 16.04.2021
243 Haze 28 1009 83 3000 4.7 346 00:23 16.04.2021
244 Haze 28 1009 83 3000 4.64 346 23:59 15.04.2021
245 Haze 28 1009 83 3000 4.7 346 23:35 15.04.2021
246 Haze 28 1009 89 3000 2.06 310 22:53 15.04.2021
247 Haze 29 1009 84 3000 2.57 300 22:26 15.04.2021
248 Haze 29 1010 84 3000 1.54 310 21:56 15.04.2021
249 Haze 29 1010 84 3000 1.54 330 21:37 15.04.2021
250 Haze 29 1010 79 3000 2.57 280 21:19 15.04.2021
251 Haze 29 1010 79 3000 2.57 280 20:40 15.04.2021
252 Haze 29 1010 79 3000 2.06 230 20:21 15.04.2021
253 Haze 29 1010 79 3000 2.64 314 19:42 15.04.2021
254 Haze 29 1010 79 3000 2.38 307 19:23 15.04.2021
255 Haze 29 1010 79 3000 2.06 220 18:42 15.04.2021
256 Haze 29 1010 79 3000 2.06 220 18:20 15.04.2021
257 Haze 30 1009 74 3000 2.57 230 17:54 15.04.2021
258 Haze 30 1009 74 3000 2.57 230 17:36 15.04.2021
259 Haze 30 1009 74 3000 2.57 230 17:36 15.04.2021
260 Haze 30 1009 74 3000 2.57 230 16:47 15.04.2021
261 Haze 30 1009 79 3000 2.57 260 16:26 15.04.2021
262 Haze 30 1008 74 3000 4.12 290 15:59 15.04.2021
263 Haze 31 1008 70 5000 4.63 290 15:40 15.04.2021
264 Haze 31 1008 70 5000 4.63 290 15:22 15.04.2021
265 Haze 31 1008 70 5000 5.14 290 14:38 15.04.2021
266 Haze 31 1008 70 5000 5.14 290 14:20 15.04.2021
267 Smoke 31 1008 74 5000 6.69 260 13:41 15.04.2021
268 Smoke 31 1008 74 5000 6.69 260 13:18 15.04.2021
269 Smoke 32 1008 66 5000 3.09 250 12:39 15.04.2021
270 Smoke 32 1009 62 5000 6.69 260 12:20 15.04.2021
271 Smoke 32 1009 62 4000 6.69 250 11:44 15.04.2021
272 Smoke 33 1009 52 4000 3.6 260 11:22 15.04.2021
273 Smoke 33 1009 52 4000 3.6 260 11:22 15.04.2021
274 Smoke 33 1009 52 4000 3.6 260 11:22 15.04.2021
275 Smoke 34 1009 38 4000 6.17 270 10:49 15.04.2021
276 Smoke 34 1009 38 4000 6.17 270 10:49 15.04.2021
277 Smoke 34 1010 43 4000 3.6 240 10:27 15.04.2021
278 Smoke 34 1010 43 4000 6.69 250 09:46 15.04.2021
279 Smoke 34 1010 43 3500 4.63 280 09:18 15.04.2021
280 Smoke 34 1011 43 3000 2.06 200 08:42 15.04.2021
281 Smoke 33 1011 40 2500 2.06 140 07:52 15.04.2021
282 Haze 32 1012 62 2500 2.57 170 07:22 15.04.2021
283 Haze 31 1012 70 2500 1.54 140 06:39 15.04.2021
284 Haze 31 1012 70 2500 1.54 140 06:20 15.04.2021
285 Haze 29 1011 84 2200 2.57 120 04:51 15.04.2021
286 Haze 28 1009 89 3000 2.06 314 00:54 15.04.2021
287 Haze 29 1009 84 3000 2.57 240 23:41 14.04.2021
288 Haze 29 1009 84 3000 2.57 240 23:19 14.04.2021
289 Haze 29 1009 84 3000 1.54 220 22:43 14.04.2021
290 Haze 29 1009 84 3000 1.54 220 22:25 14.04.2021
291 Haze 29 1009 84 3000 1.54 220 22:25 14.04.2021
292 Haze 29 1010 84 3000 1.64 248 21:47 14.04.2021
293 Haze 29 1010 79 3000 1.54 190 21:28 14.04.2021
294 Haze 29 1010 79 3000 2.06 190 20:56 14.04.2021
295 Haze 30 1011 79 3000 2.06 200 20:34 14.04.2021
296 Haze 30 1011 79 3000 2.06 150 19:54 14.04.2021
297 Haze 30 1010 79 3000 3.09 190 19:20 14.04.2021
298 Haze 30 1010 79 3000 2.06 200 18:57 14.04.2021
299 Haze 30 1010 79 3000 2.57 190 18:22 14.04.2021
300 Haze 30 1010 79 3000 2.57 170 17:58 14.04.2021
301 Haze 30 1009 79 3000 2.06 260 17:28 14.04.2021
302 Haze 30 1009 79 3000 3.6 280 16:54 14.04.2021
303 Haze 30 1008 79 3000 3.09 300 16:27 14.04.2021
304 Haze 30 1008 79 4000 4.12 280 15:47 14.04.2021
305 Haze 30 1008 74 4000 4.63 300 15:27 14.04.2021
306 Haze 31 1007 70 4000 7.2 280 14:56 14.04.2021
307 Haze 31 1007 70 4000 7.2 280 14:37 14.04.2021
308 Haze 31 1007 70 4000 7.72 290 14:18 14.04.2021
309 Haze 31 1007 70 4000 8.23 280 13:44 14.04.2021
310 Smoke 33 1007 62 4000 6.69 280 12:40 14.04.2021
311 Smoke 33 1008 62 3500 6.69 270 12:18 14.04.2021
312 Smoke 33 1008 62 4000 3.09 260 11:39 14.04.2021
313 Smoke 33 1008 55 3500 4.12 270 11:19 14.04.2021
314 Smoke 34 1009 52 3500 4.63 270 10:33 14.04.2021
315 Smoke 33 1010 55 3500 4.12 260 09:43 14.04.2021
316 Smoke 33 1011 55 3000 2.06 290 09:23 14.04.2021
317 Smoke 33 1011 55 3000 3.6 250 08:48 14.04.2021
318 Smoke 33 1011 52 3000 2.06 260 08:23 14.04.2021
319 Smoke 33 1012 55 3000 3.6 140 07:27 14.04.2021
320 Haze 32 1012 66 3000 2.57 120 06:27 14.04.2021
321 Smoke 31 1012 70 3000 2.57 90 05:23 14.04.2021
322 Smoke 29 1010 79 3000 2.06 220 02:24 14.04.2021
323 Haze 29 1010 84 3000 2.57 250 00:49 14.04.2021
324 Haze 29 1010 84 3000 3.6 280 00:27 14.04.2021
325 Haze 29 1010 84 3000 3.6 220 23:31 13.04.2021
326 Haze 29 1010 84 3000 3.09 220 22:44 13.04.2021
327 Haze 29 1011 84 3000 3.09 230 22:20 13.04.2021
328 Haze 29 1011 84 3000 3.09 240 21:48 13.04.2021
329 Haze 29 1011 84 3000 2.06 240 21:30 13.04.2021
330 Haze 29 1011 84 3000 3.09 230 20:48 13.04.2021
331 Haze 29 1011 84 3000 2.57 240 20:24 13.04.2021
332 Haze 29 1011 84 3000 2.06 230 19:57 13.04.2021
333 Smoke 29 1011 89 3000 3.09 230 19:25 13.04.2021
334 Smoke 30 1011 79 3000 2.06 220 18:49 13.04.2021
335 Haze 30 1010 79 3000 2.57 230 18:30 13.04.2021
336 Haze 30 1010 79 3000 2.57 230 18:30 13.04.2021
337 Haze 30 1010 79 3000 2.57 230 18:30 13.04.2021
338 Haze 30 1009 79 3500 3.09 260 17:40 13.04.2021
339 Haze 30 1008 79 3500 4.12 270 17:19 13.04.2021
340 Haze 30 1008 79 3500 4.12 270 16:45 13.04.2021
341 Haze 30 1008 74 3500 4.12 280 16:26 13.04.2021
342 Haze 30 1008 74 3500 4.12 280 16:26 13.04.2021
343 Haze 31 1008 70 3500 4.63 270 15:55 13.04.2021
344 Haze 31 1008 70 3500 4.63 250 15:36 13.04.2021
345 Haze 31 1008 70 3500 3.6 230 14:54 13.04.2021
346 Haze 31 1007 70 3500 4.63 270 14:24 13.04.2021
347 Smoke 32 1007 66 4000 6.17 260 13:53 13.04.2021
348 Smoke 32 1007 66 4000 6.69 270 13:27 13.04.2021
349 Smoke 33 1007 62 4000 6.17 260 12:58 13.04.2021
350 Smoke 32 1007 66 5000 3.6 260 12:37 13.04.2021
351 Smoke 32 1008 70 4000 6.17 280 12:18 13.04.2021
352 Smoke 33 1009 49 4000 6.69 260 11:36 13.04.2021
353 Smoke 34 1009 59 4000 6.17 260 10:57 13.04.2021
354 Smoke 33 1010 66 4000 6.69 280 10:39 13.04.2021
355 Smoke 33 1010 66 4000 6.69 280 10:18 13.04.2021
356 Smoke 33 1011 59 4000 5.66 260 09:42 13.04.2021
357 Smoke 33 1011 59 4000 5.66 260 09:18 13.04.2021
358 Smoke 33 1011 59 4000 5.66 260 09:18 13.04.2021
359 Smoke 34 1011 59 3500 4.63 260 08:42 13.04.2021
360 Smoke 34 1011 59 3500 4.63 260 08:21 13.04.2021
361 Smoke 34 1011 59 3500 4.63 260 08:21 13.04.2021
362 Smoke 35 1012 38 3000 5.07 338 07:36 13.04.2021
363 Smoke 34 1012 49 3000 1.54 0 06:59 13.04.2021
364 Haze 31 1012 58 3000 2.06 310 05:53 13.04.2021
365 Haze 29 1010 70 3000 1.54 120 02:47 13.04.2021
366 Haze 30 1010 66 3000 2.06 340 01:27 13.04.2021
367 Haze 29 1010 74 3000 1.8 279 23:49 12.04.2021
368 Haze 30 1010 70 3000 1.54 0 23:27 12.04.2021
369 Haze 30 1010 70 3000 2.06 40 22:43 12.04.2021
370 Haze 30 1010 70 3000 3.6 330 22:23 12.04.2021
371 Haze 30 1010 66 3000 2.57 310 21:46 12.04.2021
372 Haze 30 1011 66 3000 3.09 300 21:23 12.04.2021
373 Haze 30 1011 66 3000 2.06 320 20:45 12.04.2021
374 Haze 30 1011 70 3000 2.57 290 20:26 12.04.2021
375 Smoke 31 1011 55 3000 3.3 322 19:58 12.04.2021
376 Smoke 31 1011 55 3000 1.54 290 19:38 12.04.2021
377 Smoke 31 1011 55 3000 1.54 290 19:19 12.04.2021
378 Smoke 32 1011 51 3000 2.84 304 18:46 12.04.2021
379 Smoke 32 1011 51 3000 2.97 264 18:27 12.04.2021
380 Smoke 32 1011 51 3000 1.54 140 17:45 12.04.2021
381 Smoke 32 1011 51 3000 2.57 180 17:24 12.04.2021
382 Smoke 32 1011 51 3000 3.09 180 16:49 12.04.2021
383 Smoke 32 1010 51 3000 5.66 170 16:28 12.04.2021
384 Smoke 33 1009 43 3000 5.66 140 15:54 12.04.2021
385 Smoke 33 1008 43 4000 3.6 290 15:33 12.04.2021
386 Smoke 33 1008 46 5000 4.63 320 14:55 12.04.2021
387 Smoke 33 1007 51 3000 4.12 290 14:36 12.04.2021
388 Smoke 33 1007 43 5000 6.17 310 13:53 12.04.2021
389 Smoke 33 1008 40 4500 6.17 320 13:31 12.04.2021
390 Smoke 33 1008 46 4000 5.14 310 12:56 12.04.2021
391 Smoke 33 1009 52 4000 5.14 310 12:36 12.04.2021
392 Smoke 33 1009 52 4000 5.14 310 12:18 12.04.2021
393 Smoke 33 1010 52 4000 6.17 270 11:25 12.04.2021
394 Smoke 33 1010 49 3500 6.17 290 10:49 12.04.2021
395 Smoke 34 1011 52 3500 6.17 270 10:27 12.04.2021
396 Smoke 34 1011 49 3000 4.12 290 09:51 12.04.2021
397 Haze 33 1012 58 3000 4.12 270 09:21 12.04.2021
398 Haze 33 1013 49 2500 1.54 30 08:40 12.04.2021
399 Haze 33 1013 66 2500 1.54 180 07:42 12.04.2021
400 Haze 33 1013 66 2500 1.54 180 07:22 12.04.2021
401 Haze 30 1013 74 2200 0.77 39 06:27 12.04.2021
402 Haze 29 1013 84 3000 0.77 39 05:42 12.04.2021
403 Haze 28 1011 89 3000 0.83 5 01:40 12.04.2021
404 Haze 28 1011 89 3000 0.85 5 01:40 12.04.2021
405 Haze 28 1011 89 3000 0.42 278 00:26 12.04.2021
406 Haze 28 1011 89 3000 2.06 200 23:49 11.04.2021
407 Haze 28 1011 89 3000 2.06 220 23:31 11.04.2021
408 Haze 29 1011 89 3000 2.06 210 22:48 11.04.2021
409 Haze 29 1011 89 3000 2.06 230 22:26 11.04.2021
410 Mist 29 1011 89 3000 2.06 250 21:52 11.04.2021
411 Mist 29 1011 84 3000 2.57 260 21:31 11.04.2021
412 Mist 29 1011 84 3000 2.36 261 20:59 11.04.2021
413 Mist 29 1011 84 3000 2.36 261 20:37 11.04.2021
414 Mist 29 1011 84 3000 2.13 264 20:18 11.04.2021
415 Haze 29 1011 84 3000 2.15 265 19:39 11.04.2021
416 Haze 29 1011 84 3000 1.84 245 19:19 11.04.2021
417 Haze 30 1011 79 3000 1.84 245 18:46 11.04.2021
418 Haze 30 1010 74 3000 2.04 213 18:26 11.04.2021
419 Haze 30 1010 79 3000 2.06 310 17:50 11.04.2021
420 Haze 30 1010 79 3000 2.06 310 17:29 11.04.2021
421 Haze 30 1009 79 3000 3.09 320 16:54 11.04.2021
422 Haze 30 1009 79 3000 4.12 310 16:28 11.04.2021
423 Haze 30 1009 79 3000 4.12 310 16:28 11.04.2021
424 Haze 30 1008 79 4000 4.12 300 15:59 11.04.2021
425 Haze 31 1008 70 4000 5.14 290 15:40 11.04.2021
426 Haze 31 1008 70 4000 5.14 290 15:22 11.04.2021
427 Haze 31 1008 70 5000 5.14 290 14:48 11.04.2021
428 Haze 31 1008 66 5000 5.14 280 14:19 11.04.2021
429 Smoke 33 1008 55 5000 6.17 260 13:40 11.04.2021
430 Smoke 33 1008 55 5000 6.17 260 13:22 11.04.2021
431 Smoke 33 1008 52 5000 5.66 280 12:26 11.04.2021
432 Smoke 33 1008 55 4000 5.66 260 11:53 11.04.2021
433 Smoke 33 1009 55 4000 6.17 270 11:33 11.04.2021
434 Smoke 33 1009 46 4000 6.17 270 10:58 11.04.2021
435 Smoke 33 1009 55 5000 4.63 280 10:39 11.04.2021
436 Smoke 33 1010 46 3000 6.17 260 10:20 11.04.2021
437 Smoke 33 1010 48 4000 4.12 270 09:40 11.04.2021
438 Smoke 33 1011 49 3000 5.14 250 09:22 11.04.2021
439 Smoke 34 1011 24 3000 2.06 30 08:39 11.04.2021
440 Smoke 33 1012 40 3000 2.57 10 07:38 11.04.2021
441 Smoke 32 1012 40 3000 2.57 10 07:19 11.04.2021
442 Haze 29 1012 74 2500 3.09 90 05:47 11.04.2021
443 Haze 29 1012 74 2500 3.09 80 05:22 11.04.2021
444 Haze 27 1011 83 2500 2.57 100 04:35 11.04.2021
445 Haze 27 1011 83 2500 2.57 100 04:35 11.04.2021
446 Haze 27 1010 89 3000 2.49 16 03:35 11.04.2021
447 Haze 28 1009 78 3000 5.67 357 00:55 11.04.2021
448 Haze 28 1008 78 3000 3.82 325 00:32 11.04.2021
449 Haze 28 1008 83 3000 3.87 325 23:45 10.04.2021
450 Haze 28 1009 83 3000 3.35 334 22:55 10.04.2021
451 Haze 28 1009 83 3000 1.87 314 22:28 10.04.2021
452 Haze 28 1009 83 3000 1.87 314 21:54 10.04.2021
453 Haze 28 1009 83 3000 2.18 262 21:25 10.04.2021
454 Haze 28 1010 83 3000 1.67 270 20:56 10.04.2021
455 Haze 29 1010 84 3000 2.06 310 20:36 10.04.2021
456 Haze 28 1010 83 3000 2.06 280 19:59 10.04.2021
457 Haze 28 1011 83 3000 2.06 230 19:41 10.04.2021
458 Haze 28 1011 83 3000 2.06 230 19:23 10.04.2021
459 Haze 29 1011 79 3000 2.57 170 18:41 10.04.2021
460 Haze 29 1011 79 3000 2.57 170 18:23 10.04.2021
461 Clouds 28 1010 83 3500 2.57 170 17:35 10.04.2021
462 Haze 30 1009 74 3500 4.63 240 16:43 10.04.2021
463 Haze 29 1009 79 3500 3.09 250 16:24 10.04.2021
464 Haze 29 1008 79 3500 4.63 260 15:48 10.04.2021
465 Haze 30 1007 70 5000 4.63 280 14:55 10.04.2021
466 Haze 30 1007 70 5000 4.63 280 14:34 10.04.2021
467 Smoke 31 1007 58 5000 5.66 290 13:56 10.04.2021
468 Smoke 31 1007 58 5000 5.66 290 13:36 10.04.2021
469 Haze 31 1007 62 4000 6.17 280 12:43 10.04.2021
470 Haze 31 1007 62 4000 6.17 280 12:43 10.04.2021
471 Haze 31 1007 62 4000 6.17 280 12:20 10.04.2021
472 Haze 31 1007 66 4000 6.69 270 11:45 10.04.2021
473 Haze 32 1008 62 4000 6.69 270 11:23 10.04.2021
474 Smoke 32 1008 58 4000 7.2 260 10:51 10.04.2021
475 Smoke 32 1008 58 3500 6.17 270 10:31 10.04.2021
476 Haze 32 1009 62 3500 5.66 270 09:45 10.04.2021
477 Haze 32 1010 62 3000 4.12 290 09:19 10.04.2021
478 Smoke 32 1010 58 3000 4.12 260 08:36 10.04.2021
479 Smoke 32 1010 58 3000 4.12 260 08:18 10.04.2021
480 Smoke 31 1010 48 3000 2.06 340 07:26 10.04.2021
481 Haze 30 1010 62 2500 1.54 280 06:42 10.04.2021
482 Smoke 28 1010 78 2200 1.54 140 05:36 10.04.2021
483 Smoke 27 1009 83 2200 3.09 100 03:42 10.04.2021
484 Smoke 27 1009 83 3000 2.57 120 02:48 10.04.2021
485 Smoke 27 1008 83 3000 1.54 110 01:43 10.04.2021
486 Haze 27 1007 83 3000 1.54 100 00:37 10.04.2021
487 Haze 28 1007 78 3000 2.06 350 23:58 09.04.2021
488 Haze 28 1008 78 3000 2.06 330 23:34 09.04.2021
489 Haze 28 1008 83 3000 3.07 318 22:56 09.04.2021
490 Haze 28 1008 83 3000 2.06 330 22:36 09.04.2021
491 Haze 28 1009 83 3000 2.06 310 21:41 09.04.2021
492 Haze 28 1009 83 3000 2.06 310 21:22 09.04.2021
493 Haze 28 1009 83 3000 1.54 290 20:59 09.04.2021
494 Haze 28 1009 83 3000 3.09 310 20:40 09.04.2021
495 Haze 28 1009 83 3000 3.09 310 20:21 09.04.2021
496 Haze 29 1009 79 3000 3.09 280 19:43 09.04.2021
497 Haze 29 1009 79 3000 3.09 300 19:22 09.04.2021
498 Haze 29 1009 79 3500 1.54 300 18:44 09.04.2021
499 Smoke 29 1009 79 3500 2.57 310 18:25 09.04.2021
500 Smoke 29 1008 79 3500 2.57 300 17:49 09.04.2021
501 Smoke 29 1008 74 3500 3.6 290 17:31 09.04.2021
502 Smoke 29 1007 74 3500 4.12 280 16:55 09.04.2021
503 Smoke 29 1007 74 3500 3.09 300 16:30 09.04.2021
504 Smoke 30 1007 70 3500 4.12 310 15:47 09.04.2021
505 Smoke 30 1006 70 5000 5.14 280 15:24 09.04.2021
506 Smoke 30 1006 70 5000 6.69 280 14:47 09.04.2021
507 Smoke 31 1006 66 5000 5.66 280 14:29 09.04.2021
508 Haze 31 1006 66 5000 6.69 270 13:49 09.04.2021
509 Haze 31 1006 66 5000 6.17 260 13:23 09.04.2021
510 Haze 31 1006 66 5000 6.17 260 12:48 09.04.2021
511 Haze 31 1006 66 5000 5.66 260 12:27 09.04.2021
512 Haze 31 1006 66 4000 6.17 270 11:44 09.04.2021
513 Haze 31 1007 66 4000 6.17 260 11:21 09.04.2021
514 Smoke 31 1007 66 4000 5.14 270 10:40 09.04.2021
515 Smoke 32 1008 62 4000 3.6 280 10:18 09.04.2021
516 Smoke 31 1009 66 4000 5.66 260 09:29 09.04.2021
517 Smoke 32 1009 62 4000 5.66 250 08:56 09.04.2021
518 Smoke 31 1010 66 3500 4.63 270 08:34 09.04.2021
519 Haze 31 1010 62 3500 2.06 90 07:35 09.04.2021
520 Haze 30 1010 70 2500 1.54 0 06:33 09.04.2021
521 Haze 29 1010 79 2500 2.06 70 05:45 09.04.2021
522 Haze 27 1008 89 2500 1.54 140 03:48 09.04.2021
523 Haze 27 1007 83 3000 1.51 336 00:40 09.04.2021
524 Haze 27 1007 83 3000 1.25 320 00:21 09.04.2021
525 Haze 27 1007 83 3000 1.27 320 23:57 08.04.2021
526 Haze 27 1008 89 3000 1.58 301 22:58 08.04.2021
527 Haze 27 1008 89 3000 1.58 301 22:38 08.04.2021
528 Haze 27 1008 89 3000 1.95 283 22:20 08.04.2021
529 Haze 28 1008 83 3000 1.95 283 21:54 08.04.2021
530 Haze 28 1008 83 3000 1.95 283 21:54 08.04.2021
531 Haze 28 1009 83 3000 3.09 230 21:36 08.04.2021
532 Haze 28 1009 83 3000 3.09 230 21:18 08.04.2021
533 Haze 28 1009 83 3000 2.57 230 20:42 08.04.2021
534 Haze 28 1009 83 3000 2.57 250 20:20 08.04.2021
535 Haze 28 1009 78 3000 2.06 220 19:41 08.04.2021
536 Haze 28 1009 78 3000 2.06 220 19:19 08.04.2021
537 Haze 28 1009 78 3000 2.57 220 18:44 08.04.2021
538 Haze 28 1009 78 3000 2.06 220 18:20 08.04.2021
539 Haze 29 1009 74 3000 2.57 250 17:48 08.04.2021
540 Haze 29 1008 74 3500 2.57 290 17:21 08.04.2021
541 Haze 29 1008 74 3500 3.6 280 16:45 08.04.2021
542 Haze 29 1007 74 4000 4.63 290 16:25 08.04.2021
543 Haze 29 1007 74 4000 4.63 290 15:47 08.04.2021
544 Haze 29 1007 74 5000 4.63 270 15:28 08.04.2021
545 Haze 30 1007 70 5000 4.12 280 14:44 08.04.2021
546 Haze 30 1006 70 5000 4.12 290 14:23 08.04.2021
547 Haze 30 1006 70 5000 4.63 270 13:54 08.04.2021
548 Haze 31 1006 66 5000 6.17 270 13:36 08.04.2021
549 Haze 31 1006 66 5000 6.17 270 13:18 08.04.2021
550 Haze 30 1007 70 4000 5.14 290 12:38 08.04.2021
551 Haze 30 1007 70 4000 5.66 280 11:59 08.04.2021
552 Haze 30 1008 70 4000 4.63 310 11:37 08.04.2021
553 Haze 30 1008 70 4000 4.63 270 10:56 08.04.2021
554 Haze 30 1009 74 4000 5.66 270 10:28 08.04.2021
555 Haze 31 1009 74 4000 4.12 270 09:51 08.04.2021
556 Haze 31 1009 74 4000 4.12 270 09:33 08.04.2021
557 Haze 31 1010 70 4000 3.6 240 08:45 08.04.2021
558 Haze 31 1010 70 4000 3.6 240 08:45 08.04.2021
559 Haze 31 1010 70 4000 3.6 240 08:45 08.04.2021
560 Haze 31 1010 70 4000 4.12 240 08:24 08.04.2021
561 Haze 31 1010 66 4000 3.6 220 07:53 08.04.2021
562 Haze 31 1011 66 3000 1.54 310 06:55 08.04.2021
563 Haze 28 1008 74 2500 2.58 340 02:34 08.04.2021
564 Haze 29 1007 70 3000 1.54 290 00:34 08.04.2021
565 Haze 29 1007 70 3000 1.54 350 23:56 07.04.2021
566 Haze 29 1007 74 3000 2.06 310 23:37 07.04.2021
567 Haze 29 1007 74 3000 2.06 310 23:18 07.04.2021
568 Haze 29 1008 74 3000 1.54 320 22:43 07.04.2021
569 Haze 29 1009 70 3000 2.57 300 22:22 07.04.2021
570 Haze 29 1009 70 3000 2.57 300 22:22 07.04.2021
571 Haze 29 1009 70 3000 3.6 340 21:42 07.04.2021
572 Haze 29 1009 70 3000 3.6 340 21:21 07.04.2021
573 Haze 30 1009 66 3000 2.57 290 20:42 07.04.2021
574 Haze 30 1009 66 3000 2.57 290 20:20 07.04.2021
575 Haze 30 1009 58 3000 2.06 300 19:42 07.04.2021
576 Haze 30 1009 58 3000 2.06 300 19:24 07.04.2021
577 Smoke 30 1009 54 3000 1.54 300 18:47 07.04.2021
578 Smoke 30 1009 54 3000 2.06 300 18:19 07.04.2021
579 Smoke 30 1009 54 3000 2.06 300 17:53 07.04.2021
580 Smoke 31 1009 51 3000 2.57 310 17:35 07.04.2021
581 Smoke 31 1008 51 3000 2.06 340 16:48 07.04.2021
582 Smoke 31 1008 51 3000 2.57 310 16:22 07.04.2021
583 Smoke 31 1008 48 3500 3.09 330 15:57 07.04.2021
584 Smoke 32 1008 45 4000 3.6 310 15:38 07.04.2021
585 Smoke 32 1008 45 4000 4.63 300 14:52 07.04.2021
586 Smoke 32 1007 46 4000 4.63 310 14:25 07.04.2021
587 Smoke 32 1008 40 4000 6.17 310 13:47 07.04.2021
588 Smoke 33 1008 40 5000 6.17 290 13:23 07.04.2021
589 Smoke 33 1008 40 5000 6.17 290 12:49 07.04.2021
590 Smoke 33 1008 38 5000 5.14 300 12:22 07.04.2021
591 Smoke 33 1008 43 4000 6.17 300 11:48 07.04.2021
592 Smoke 33 1009 43 4000 6.17 300 11:25 07.04.2021
593 Smoke 34 1009 52 4000 6.17 270 10:51 07.04.2021
594 Haze 33 1010 59 4000 6.17 280 09:57 07.04.2021
595 Haze 32 1011 66 4000 5.14 280 09:38 07.04.2021
596 Haze 32 1011 66 4000 5.14 280 09:19 07.04.2021
597 Smoke 31 1011 62 5000 3.09 280 08:33 07.04.2021
598 Smoke 31 1011 62 5000 3.09 280 08:33 07.04.2021
599 Smoke 32 1012 58 4000 4.12 270 07:58 07.04.2021
600 Smoke 32 1012 43 4000 2.57 250 07:30 07.04.2021
601 Smoke 32 1012 51 4000 2.06 20 06:59 07.04.2021
602 Smoke 31 1012 55 4000 1.54 330 06:21 07.04.2021
603 Haze 28 1011 78 2500 1.62 357 04:22 07.04.2021
604 Haze 28 1009 78 2500 2.06 50 00:19 07.04.2021
605 Haze 28 1009 78 2500 4.45 341 23:42 06.04.2021
606 Haze 28 1009 78 3000 1.54 20 23:18 06.04.2021
607 Haze 29 1009 74 3000 2.06 330 22:38 06.04.2021
608 Haze 29 1009 74 3000 2.06 330 22:18 06.04.2021
609 Haze 29 1010 70 3500 3.07 342 21:40 06.04.2021
610 Haze 29 1010 70 3500 2.57 360 21:21 06.04.2021
611 Haze 29 1010 70 3500 2.57 360 20:52 06.04.2021
612 Haze 30 1010 66 3500 1.54 360 20:22 06.04.2021
613 Haze 30 1010 66 3500 1.54 10 19:52 06.04.2021
614 Haze 30 1010 66 3500 2.06 340 19:33 06.04.2021
615 Haze 30 1010 62 3000 2.06 30 18:51 06.04.2021
616 Smoke 31 1010 55 3000 3.82 349 18:32 06.04.2021
617 Smoke 31 1009 58 3000 2.57 340 17:54 06.04.2021
618 Smoke 31 1009 62 3000 2.57 330 17:36 06.04.2021
619 Smoke 31 1009 62 3000 2.57 330 17:18 06.04.2021
620 Smoke 31 1008 62 3500 4.12 300 16:40 06.04.2021
621 Smoke 32 1007 51 5000 4.63 300 15:46 06.04.2021
622 Smoke 32 1007 51 5000 4.63 300 15:22 06.04.2021
623 Smoke 33 1007 38 5000 5.66 290 14:40 06.04.2021
624 Smoke 33 1007 38 5000 5.66 290 14:20 06.04.2021
625 Smoke 34 1007 26 5000 6.17 300 13:46 06.04.2021
626 Smoke 35 1007 28 5000 5.66 290 13:25 06.04.2021
627 Smoke 34 1007 38 5000 5.66 290 12:42 06.04.2021
628 Smoke 34 1007 38 5000 5.66 290 12:22 06.04.2021
629 Smoke 35 1007 38 5000 4.12 300 11:52 06.04.2021
630 Smoke 34 1007 49 5000 5.66 280 11:22 06.04.2021
631 Smoke 34 1008 59 5000 6.17 260 10:51 06.04.2021
632 Smoke 33 1008 62 4000 6.17 260 10:32 06.04.2021
633 Smoke 33 1009 62 4000 6.17 260 09:58 06.04.2021
634 Smoke 34 1009 55 4000 5.66 270 09:38 06.04.2021
635 Smoke 34 1010 44 4000 4.63 270 08:45 06.04.2021
636 Smoke 34 1010 28 4000 1.54 30 08:19 06.04.2021
637 Smoke 33 1011 35 4000 1.54 290 06:56 06.04.2021
638 Smoke 32 1011 37 4000 2.87 356 06:20 06.04.2021
639 Smoke 26 1009 50 3000 3.63 3 03:43 06.04.2021
640 Haze 28 1007 51 3000 4.08 360 00:47 06.04.2021
641 Haze 28 1007 51 3000 3.8 353 00:21 06.04.2021
642 Haze 28 1007 61 3000 2.06 10 23:48 05.04.2021
643 Haze 28 1008 57 3000 3.09 340 23:24 05.04.2021
644 Haze 28 1008 65 3000 3.6 340 22:53 05.04.2021
645 Haze 28 1009 65 3000 2.06 310 22:32 05.04.2021
646 Haze 28 1009 69 3000 3.5 355 21:45 05.04.2021
647 Haze 28 1009 69 3000 3.37 350 21:23 05.04.2021
648 Haze 29 1009 65 3000 1.54 350 20:48 05.04.2021
649 Haze 29 1010 65 3000 2.06 30 20:30 05.04.2021
650 Haze 29 1010 65 3000 1.54 320 19:44 05.04.2021
651 Haze 29 1010 61 3000 2.06 290 19:25 05.04.2021
652 Haze 29 1010 61 3000 2.57 320 18:55 05.04.2021
653 Haze 29 1010 61 3000 2.57 320 18:37 05.04.2021
654 Haze 29 1009 65 3000 2.06 360 18:18 05.04.2021
655 Haze 29 1009 70 3000 3.6 320 17:45 05.04.2021
656 Haze 30 1009 66 4000 3.09 330 17:21 05.04.2021
657 Haze 30 1008 62 5000 3.6 300 16:44 05.04.2021
658 Haze 30 1008 62 5000 3.6 300 16:21 05.04.2021
659 Clear 30 1008 62 6000 4.12 300 15:54 05.04.2021
660 Clear 30 1008 66 6000 3.09 310 15:30 05.04.2021
661 Clear 31 1008 55 7000 5.66 310 14:54 05.04.2021
662 Clear 31 1008 55 7000 5.66 310 14:35 05.04.2021
663 Clear 32 1008 55 7000 6.69 290 13:32 05.04.2021
664 Clear 32 1008 55 6000 6.17 280 12:57 05.04.2021
665 Clear 32 1008 58 6000 6.69 300 12:37 05.04.2021
666 Clear 32 1008 58 6000 6.69 300 12:19 05.04.2021
667 Clear 32 1008 58 6000 6.69 280 11:42 05.04.2021
668 Clear 32 1008 62 6000 6.17 290 11:22 05.04.2021
669 Clear 31 1009 66 6000 7.2 270 10:45 05.04.2021
670 Clear 32 1009 62 6000 6.69 260 10:27 05.04.2021
671 Clear 32 1010 62 6000 6.69 260 09:48 05.04.2021
672 Clear 31 1011 66 6000 6.17 260 09:24 05.04.2021
673 Haze 31 1011 66 5000 6.69 270 08:45 05.04.2021
674 Haze 31 1012 66 5000 5.14 260 08:26 05.04.2021
675 Haze 30 1012 70 3000 2.57 270 07:37 05.04.2021
676 Haze 29 1013 74 3000 1.54 280 06:32 05.04.2021
677 Haze 27 1010 83 3000 2.16 318 01:57 05.04.2021
678 Haze 27 1009 83 3000 2.06 340 00:50 05.04.2021
679 Haze 27 1009 83 3000 1.54 0 23:52 04.04.2021
680 Haze 27 1009 83 3000 2.06 290 23:28 04.04.2021
681 Haze 27 1010 83 3000 2.09 314 22:52 04.04.2021
682 Haze 28 1010 78 3000 2.57 300 22:30 04.04.2021
683 Haze 28 1011 78 3000 2.57 290 21:29 04.04.2021
684 Haze 28 1011 78 3000 2.06 300 20:58 04.04.2021
685 Haze 28 1011 78 3000 2.4 308 20:30 04.04.2021
686 Haze 28 1011 78 3000 2.06 260 19:58 04.04.2021
687 Haze 28 1011 78 3000 2.57 300 19:37 04.04.2021
688 Haze 28 1011 78 3000 2.57 330 19:18 04.04.2021
689 Clouds 27 1011 70 10000 2.4 308 18:45 04.04.2021
690 Haze 29 1010 74 3500 2.57 310 18:24 04.04.2021
691 Haze 29 1010 74 3500 2.57 310 17:45 04.04.2021
692 Haze 29 1010 74 3500 2.57 310 17:24 04.04.2021
693 Haze 29 1010 74 3500 3.09 300 16:47 04.04.2021
694 Haze 29 1010 74 3500 4.12 300 16:21 04.04.2021
695 Haze 29 1009 70 4000 5.66 280 15:36 04.04.2021
696 Haze 30 1008 66 5000 6.17 280 14:50 04.04.2021
697 Haze 30 1008 66 5000 6.69 270 14:28 04.04.2021
698 Haze 31 1008 62 5000 7.72 270 13:53 04.04.2021
699 Haze 31 1008 62 5000 7.72 260 13:25 04.04.2021
700 Haze 31 1008 62 5000 7.72 260 12:50 04.04.2021
701 Haze 31 1008 62 5000 5.66 280 12:27 04.04.2021
702 Haze 31 1009 62 5000 6.17 280 11:43 04.04.2021
703 Haze 31 1009 62 5000 6.17 280 11:25 04.04.2021
704 Haze 31 1009 62 5000 4.63 270 10:46 04.04.2021
705 Haze 31 1010 62 5000 5.66 260 10:19 04.04.2021
706 Haze 31 1011 62 4000 5.14 260 09:27 04.04.2021
707 Haze 31 1011 62 4000 5.66 260 08:59 04.04.2021
708 Smoke 31 1011 58 5000 4.12 250 08:41 04.04.2021
709 Haze 31 1012 62 3500 3.6 270 08:23 04.04.2021
710 Haze 29 1012 70 3000 1.03 242 06:39 04.04.2021
711 Haze 29 1012 70 3000 1.03 242 06:39 04.04.2021
712 Haze 29 1012 70 3000 0.65 150 05:34 04.04.2021
713 Haze 28 1009 74 3000 2.09 187 01:47 04.04.2021
714 Haze 28 1009 74 3000 2.8 191 00:25 04.04.2021
715 Haze 27 1009 78 3000 2.8 191 23:59 03.04.2021
716 Haze 27 1009 78 3000 2.8 191 23:39 03.04.2021
717 Haze 27 1009 78 3000 3.41 198 22:54 03.04.2021
718 Haze 27 1009 78 3000 1.54 210 22:24 03.04.2021
719 Haze 28 1010 74 3000 1.54 200 21:59 03.04.2021
720 Haze 28 1010 74 3000 1.54 210 21:39 03.04.2021
721 Haze 28 1010 74 3000 1.54 210 21:19 03.04.2021
722 Haze 28 1010 74 3000 2.06 220 20:38 03.04.2021
723 Haze 28 1010 74 3000 2.06 220 20:18 03.04.2021
724 Haze 28 1010 74 3000 2.06 230 19:43 03.04.2021
725 Haze 28 1010 74 3000 2.57 240 19:18 03.04.2021
726 Haze 28 1010 74 3000 2.57 230 18:44 03.04.2021
727 Haze 28 1010 74 3000 3.09 230 17:58 03.04.2021
728 Haze 28 1009 74 3000 4.12 230 17:28 03.04.2021
729 Haze 28 1009 74 3000 4.12 240 16:58 03.04.2021
730 Haze 28 1009 74 3000 4.12 220 16:31 03.04.2021
731 Haze 28 1008 74 4000 4.12 250 15:53 03.04.2021
732 Haze 29 1008 70 4000 5.14 240 15:32 03.04.2021
733 Haze 29 1008 70 5000 5.14 250 14:59 03.04.2021
734 Haze 29 1007 70 5000 6.17 240 14:37 03.04.2021
735 Haze 29 1007 70 5000 6.17 240 14:18 03.04.2021
736 Haze 29 1007 70 5000 4.63 250 13:40 03.04.2021
737 Haze 29 1007 70 5000 4.63 250 13:20 03.04.2021
738 Haze 30 1007 66 5000 3.6 250 12:41 03.04.2021
739 Haze 30 1007 66 5000 3.6 250 12:19 03.04.2021
740 Haze 30 1008 66 4500 3.6 250 11:32 03.04.2021
741 Haze 30 1008 66 4000 5.66 250 10:49 03.04.2021
742 Haze 30 1008 66 3500 6.17 250 10:30 03.04.2021
743 Haze 31 1009 62 3500 6.17 240 09:50 03.04.2021
744 Haze 30 1009 66 3500 6.17 250 09:27 03.04.2021
745 Haze 31 1010 62 3000 6.17 250 08:40 03.04.2021
746 Haze 31 1010 62 3000 6.17 250 08:21 03.04.2021
747 Haze 30 1010 66 2500 2.06 150 07:27 03.04.2021
748 Haze 28 1009 74 2500 1.54 0 05:33 03.04.2021
749 Haze 27 1007 74 3000 1.35 177 03:35 03.04.2021
750 Haze 27 1006 74 3000 1.54 210 02:38 03.04.2021
751 Haze 27 1006 74 3000 1.54 230 01:56 03.04.2021
752 Haze 27 1006 74 3000 1.54 220 00:20 03.04.2021
753 Haze 27 1006 74 3000 2.28 189 23:47 02.04.2021
754 Haze 27 1006 74 3000 2.16 197 23:24 02.04.2021
755 Haze 27 1006 74 3000 2.06 220 22:50 02.04.2021
756 Haze 27 1007 74 3000 2.16 197 22:32 02.04.2021
757 Haze 27 1007 74 3500 2.27 207 21:42 02.04.2021
758 Haze 27 1007 74 3500 2.69 213 21:23 02.04.2021
759 Haze 27 1007 74 3500 1.54 0 20:48 02.04.2021
760 Haze 28 1007 69 3500 2.06 220 20:27 02.04.2021
761 Haze 28 1007 69 3500 1.54 220 19:56 02.04.2021
762 Haze 28 1007 69 3500 1.54 200 19:37 02.04.2021
763 Haze 28 1007 69 3500 1.54 200 19:19 02.04.2021
764 Haze 28 1007 74 3500 2.57 230 18:38 02.04.2021
765 Haze 28 1007 74 3500 2.57 230 18:19 02.04.2021
766 Haze 28 1006 74 4000 2.57 270 17:37 02.04.2021
767 Haze 28 1006 69 4000 4.63 250 16:48 02.04.2021
768 Haze 28 1006 74 4000 3.6 260 16:22 02.04.2021
769 Smoke 29 1005 70 5000 4.12 280 15:32 02.04.2021
770 Smoke 29 1005 70 5000 4.63 280 14:55 02.04.2021
771 Smoke 30 1005 66 5000 5.66 270 14:29 02.04.2021
772 Smoke 30 1005 62 5000 6.17 270 13:42 02.04.2021
773 Smoke 30 1005 62 5000 6.17 270 13:20 02.04.2021
774 Smoke 31 1005 62 5000 6.17 280 12:41 02.04.2021
775 Smoke 31 1005 62 5000 6.17 280 12:41 02.04.2021
776 Smoke 31 1005 62 5000 6.17 280 12:20 02.04.2021
777 Smoke 31 1005 58 5000 7.2 240 11:54 02.04.2021
778 Smoke 31 1006 58 5000 6.17 240 11:20 02.04.2021
779 Smoke 31 1007 55 4000 1.03 220 10:46 02.04.2021
780 Smoke 31 1007 55 4000 1.03 220 10:28 02.04.2021
781 Smoke 31 1007 62 4000 5.66 240 09:53 02.04.2021
782 Smoke 31 1008 62 3000 5.14 260 09:27 02.04.2021
783 Smoke 31 1008 62 3000 5.66 260 08:51 02.04.2021
784 Smoke 31 1009 58 3000 3.09 220 08:29 02.04.2021
785 Haze 30 1009 62 2500 2.06 160 07:30 02.04.2021
786 Haze 30 1009 62 2500 2.06 180 06:47 02.04.2021
787 Haze 27 1009 78 2500 3.09 140 04:49 02.04.2021
788 Haze 27 1007 74 3000 2.67 197 02:27 02.04.2021
789 Haze 27 1007 74 3000 1.54 220 00:50 02.04.2021
790 Haze 28 1007 69 3000 2.57 240 00:18 02.04.2021
791 Haze 28 1007 69 3000 1.54 210 23:35 01.04.2021
792 Haze 28 1007 69 3000 2.06 230 22:57 01.04.2021
793 Haze 28 1007 69 3000 2.57 220 22:20 01.04.2021
794 Haze 28 1007 69 3000 3.6 230 21:50 01.04.2021
795 Haze 28 1007 74 3000 1.54 250 21:27 01.04.2021
796 Haze 28 1008 74 3000 2.06 260 20:47 01.04.2021
797 Haze 28 1008 74 3000 2.57 220 20:25 01.04.2021
798 Haze 28 1008 74 3000 3.6 220 19:56 01.04.2021
799 Haze 28 1008 74 3000 1.54 210 19:35 01.04.2021
800 Haze 28 1008 74 3000 1.54 210 19:35 01.04.2021
801 Haze 28 1008 74 3000 1.54 210 19:35 01.04.2021
802 Haze 28 1007 78 3000 3.09 250 18:45 01.04.2021
803 Haze 28 1007 78 3000 2.57 250 18:18 01.04.2021
804 Haze 28 1007 78 3000 2.57 250 18:18 01.04.2021
805 Haze 28 1007 78 3000 3.09 240 17:51 01.04.2021
806 Haze 28 1006 78 3000 3.09 250 17:32 01.04.2021
807 Haze 28 1006 78 3000 4.12 240 16:53 01.04.2021
808 Haze 29 1006 74 3000 4.63 250 16:30 01.04.2021
809 Haze 29 1006 74 3000 5.14 260 15:47 01.04.2021
810 Haze 29 1005 74 3500 4.63 270 15:20 01.04.2021
811 Haze 29 1005 74 4000 5.14 270 14:46 01.04.2021
812 Haze 30 1005 70 4000 5.66 260 14:26 01.04.2021
813 Haze 30 1005 70 4000 5.66 290 13:56 01.04.2021
814 Haze 30 1005 70 4000 5.66 260 13:31 01.04.2021
815 Haze 31 1005 66 4000 6.17 250 12:54 01.04.2021
816 Haze 31 1005 62 4000 6.17 250 12:32 01.04.2021
817 Haze 30 1005 66 4000 5.66 260 11:55 01.04.2021
818 Haze 30 1005 66 4000 5.66 260 11:37 01.04.2021
819 Haze 30 1006 66 3500 6.17 280 11:18 01.04.2021
820 Haze 31 1007 62 3500 6.17 270 10:42 01.04.2021
821 Haze 31 1007 62 3500 6.17 270 10:22 01.04.2021
822 Haze 31 1008 66 3500 6.17 260 09:30 01.04.2021
823 Haze 31 1008 66 3500 5.66 240 08:42 01.04.2021
824 Haze 32 1008 62 3000 3.6 230 08:24 01.04.2021
825 Haze 31 1009 66 3000 3.6 160 07:21 01.04.2021
826 Haze 30 1009 70 2500 2.06 220 06:54 01.04.2021
827 Mist 28 1008 78 1800 2.57 130 04:56 01.04.2021
828 Haze 27 1007 83 3000 1.54 200 02:29 01.04.2021
829 Haze 27 1006 83 3000 1.54 220 23:52 31.03.2021
830 Haze 27 1006 83 3000 2.57 220 23:33 31.03.2021
831 Haze 27 1007 83 3000 3.09 230 22:43 31.03.2021
832 Haze 27 1007 83 3000 3.09 250 22:21 31.03.2021
833 Haze 27 1007 83 3000 2.06 270 21:47 31.03.2021
834 Haze 27 1007 83 3000 2.57 260 21:24 31.03.2021
835 Haze 27 1007 83 3000 2.06 270 20:58 31.03.2021
836 Haze 27 1007 89 3000 3.09 260 20:40 31.03.2021
837 Haze 27 1007 89 3000 3.09 260 20:19 31.03.2021
838 Haze 27 1007 89 3000 2.57 220 19:42 31.03.2021
839 Haze 27 1007 89 3000 2.57 240 19:19 31.03.2021
840 Haze 27 1007 89 3000 2.57 240 18:53 31.03.2021
841 Haze 28 1007 83 3500 2.57 300 18:34 31.03.2021
842 Haze 28 1007 83 4000 2.06 300 17:38 31.03.2021
843 Haze 28 1007 83 4000 2.06 300 17:19 31.03.2021
844 Clouds 28 1006 83 4000 4.63 280 16:50 31.03.2021
845 Clouds 28 1006 83 4000 3.6 290 16:31 31.03.2021
846 Clouds 29 1006 79 4000 4.12 290 15:53 31.03.2021
847 Clouds 29 1006 74 6000 4.12 310 15:20 31.03.2021
848 Clouds 30 1005 66 6000 4.12 290 14:49 31.03.2021
849 Clear 30 1005 66 6000 5.66 290 14:24 31.03.2021
850 Clear 31 1005 58 6000 4.63 300 13:54 31.03.2021
851 Clear 31 1005 58 6000 6.17 280 13:23 31.03.2021
852 Smoke 31 1005 66 5000 2.06 280 12:40 31.03.2021
853 Smoke 31 1005 66 5000 2.06 280 12:40 31.03.2021
854 Haze 31 1006 66 6000 6.69 270 12:18 31.03.2021
855 Clear 32 1007 58 6000 7.2 260 11:23 31.03.2021
856 Clear 31 1007 62 6000 8.23 260 10:50 31.03.2021
857 Clear 31 1008 51 6000 7.2 260 10:27 31.03.2021
858 Clear 31 1008 51 6000 5.14 280 09:56 31.03.2021
859 Smoke 31 1009 51 4000 5.14 280 09:31 31.03.2021
860 Smoke 31 1009 58 4000 6.17 280 08:46 31.03.2021
861 Smoke 31 1009 58 3500 3.6 250 08:26 31.03.2021
862 Haze 31 1010 62 3000 2.06 320 07:37 31.03.2021
863 Haze 28 1009 74 2500 1.82 318 05:21 31.03.2021
864 Haze 25 1006 83 3000 1.62 326 02:37 31.03.2021
865 Haze 26 1006 78 3000 1.17 327 00:54 31.03.2021
866 Haze 26 1006 78 3000 1.6 326 00:25 31.03.2021
867 Haze 26 1006 78 3000 1.6 326 23:57 30.03.2021
868 Haze 26 1007 78 3000 1.66 311 23:25 30.03.2021
869 Haze 26 1007 78 3000 1.54 220 22:50 30.03.2021
870 Haze 26 1007 78 3000 1.66 311 22:31 30.03.2021
871 Haze 27 1007 74 3000 1.33 288 21:59 30.03.2021
872 Haze 27 1007 74 3000 1.33 288 21:31 30.03.2021
873 Haze 27 1007 74 3000 1.69 290 20:59 30.03.2021
874 Haze 28 1007 69 3000 1.54 310 20:40 30.03.2021
875 Haze 28 1007 69 3000 1.54 310 20:20 30.03.2021
876 Haze 28 1007 69 3000 2.06 320 19:43 30.03.2021
877 Haze 28 1007 69 3000 2.06 290 18:58 30.03.2021
878 Haze 28 1007 69 3000 1.54 290 18:30 30.03.2021
879 Haze 28 1007 69 3000 2.06 290 17:48 30.03.2021
880 Haze 28 1007 69 3000 1.54 300 17:30 30.03.2021
881 Haze 28 1006 69 3000 2.57 270 16:47 30.03.2021
882 Haze 28 1006 69 3000 3.09 290 16:28 30.03.2021
883 Haze 29 1006 65 4000 4.63 250 15:39 30.03.2021
884 Haze 29 1006 65 4000 4.63 250 15:19 30.03.2021
885 Haze 30 1006 58 4000 3.6 280 14:45 30.03.2021
886 Smoke 30 1006 58 5000 4.63 260 14:21 30.03.2021
887 Smoke 30 1006 58 5000 5.14 270 13:49 30.03.2021
888 Smoke 31 1006 55 5000 6.17 260 13:26 30.03.2021
889 Smoke 32 1007 48 5000 5.14 250 12:41 30.03.2021
890 Smoke 31 1008 51 5000 5.66 280 12:21 30.03.2021
891 Smoke 31 1008 51 5000 5.66 280 11:47 30.03.2021
892 Smoke 32 1008 51 5000 4.63 260 11:19 30.03.2021
893 Smoke 32 1009 51 4000 3.6 270 10:42 30.03.2021
894 Smoke 32 1009 51 4000 3.6 270 10:19 30.03.2021
895 Haze 31 1009 66 5000 4.12 230 09:41 30.03.2021
896 Haze 31 1010 66 4000 5.66 250 09:21 30.03.2021
897 Haze 31 1011 66 4000 5.14 240 08:43 30.03.2021
898 Haze 30 1011 66 4000 4.12 210 07:56 30.03.2021
899 Haze 30 1011 62 3500 3.09 230 07:31 30.03.2021
900 Haze 30 1011 62 3000 2.06 190 06:30 30.03.2021
901 Haze 28 1010 83 2200 2.06 200 05:25 30.03.2021
902 Haze 27 1007 83 2500 2.34 338 01:47 30.03.2021
903 Haze 27 1007 83 2500 2.15 307 23:55 29.03.2021
904 Haze 27 1007 83 2500 2.35 305 23:22 29.03.2021
905 Haze 27 1007 89 3000 1.54 240 22:43 29.03.2021
906 Haze 28 1008 78 3000 2.06 240 21:57 29.03.2021
907 Haze 28 1008 78 3000 2.06 240 21:35 29.03.2021
908 Haze 28 1008 83 3000 3.09 230 20:51 29.03.2021
909 Haze 28 1009 78 3000 2.06 250 20:33 29.03.2021
910 Haze 28 1009 83 3000 3.09 240 19:56 29.03.2021
911 Haze 28 1009 83 3000 2.06 230 19:32 29.03.2021
912 Haze 29 1008 74 3000 2.06 240 18:57 29.03.2021
913 Haze 29 1008 74 3000 2.23 318 18:38 29.03.2021
914 Haze 29 1008 74 3000 2.4 326 18:19 29.03.2021
915 Haze 29 1008 79 3000 1.54 290 17:36 29.03.2021
916 Haze 29 1007 79 3000 3.09 310 16:54 29.03.2021
917 Haze 29 1007 79 3000 3.09 310 16:34 29.03.2021
918 Haze 30 1006 70 4000 4.12 290 15:43 29.03.2021
919 Haze 30 1006 66 4000 4.12 300 15:24 29.03.2021
920 Smoke 31 1005 55 5000 5.14 290 14:48 29.03.2021
921 Smoke 31 1005 48 5000 4.12 290 14:23 29.03.2021
922 Smoke 31 1005 45 5000 5.14 290 13:45 29.03.2021
923 Smoke 32 1005 58 4000 6.69 290 13:19 29.03.2021
924 Smoke 32 1005 58 4000 6.69 290 12:49 29.03.2021
925 Smoke 31 1006 70 3500 6.17 290 11:49 29.03.2021
926 Smoke 31 1006 70 3500 6.17 290 11:29 29.03.2021
927 Smoke 32 1007 55 3500 5.66 270 10:51 29.03.2021
928 Smoke 33 1007 52 3000 5.14 290 10:31 29.03.2021
929 Smoke 33 1008 40 3000 4.63 280 09:33 29.03.2021
930 Smoke 33 1009 49 2500 4.63 260 08:51 29.03.2021
931 Smoke 33 1009 43 2500 1.54 240 08:27 29.03.2021
932 Haze 32 1010 58 2500 2.06 150 07:22 29.03.2021
933 Haze 30 1010 70 2100 3.09 120 06:26 29.03.2021
934 Haze 27 1008 89 2000 1.9 12 03:25 29.03.2021
935 Haze 27 1007 94 2500 2.06 250 00:55 29.03.2021
936 Haze 28 1007 89 2500 2.06 270 00:20 29.03.2021
937 Haze 28 1007 89 2500 0.9 348 23:30 28.03.2021
938 Haze 28 1007 89 2500 0.91 347 22:54 28.03.2021
939 Haze 28 1008 89 2500 2.06 230 22:35 28.03.2021
940 Haze 28 1008 83 3000 1.54 210 21:59 28.03.2021
941 Haze 28 1008 83 3000 0.32 293 21:40 28.03.2021
942 Haze 28 1008 83 3000 1.03 183 21:22 28.03.2021
943 Haze 28 1009 83 3000 1.02 184 20:47 28.03.2021
944 Haze 29 1009 74 3000 3.09 240 20:29 28.03.2021
945 Haze 29 1009 74 3000 2.06 220 19:43 28.03.2021
946 Haze 29 1009 74 3000 2.06 220 19:22 28.03.2021
947 Haze 29 1009 70 3000 2.57 190 18:58 28.03.2021
948 Haze 29 1008 74 3000 1.36 153 18:25 28.03.2021
949 Haze 30 1008 66 3000 1.34 154 17:47 28.03.2021
950 Haze 29 1008 74 3000 1.54 170 17:23 28.03.2021
951 Haze 29 1007 74 3000 2.57 220 16:46 28.03.2021
952 Haze 29 1007 79 3000 2.57 220 16:23 28.03.2021
953 Haze 30 1006 74 3000 4.12 270 15:26 28.03.2021
954 Haze 30 1006 70 4000 4.12 260 14:52 28.03.2021
955 Haze 29 1005 79 3000 3.09 260 14:30 28.03.2021
956 Smoke 31 1005 66 4000 5.14 260 13:43 28.03.2021
957 Smoke 31 1005 70 4000 5.14 270 13:21 28.03.2021
958 Smoke 32 1006 62 4000 5.14 250 12:50 28.03.2021
959 Haze 32 1006 66 4000 5.14 250 12:31 28.03.2021
960 Haze 32 1006 70 3000 5.14 240 11:43 28.03.2021
961 Haze 32 1007 66 3000 6.17 240 11:24 28.03.2021
962 Smoke 32 1007 62 3000 6.17 250 10:44 28.03.2021
963 Smoke 32 1007 55 3000 6.69 250 10:24 28.03.2021
964 Smoke 33 1008 52 3000 5.14 240 09:46 28.03.2021
965 Smoke 33 1008 52 3000 4.63 250 09:24 28.03.2021
966 Smoke 32 1009 55 3000 3.6 260 08:45 28.03.2021
967 Smoke 32 1010 46 3000 3.09 190 07:49 28.03.2021
968 Smoke 30 1010 62 3000 3.6 130 06:30 28.03.2021
969 Smoke 28 1008 44 3000 1.42 33 03:55 28.03.2021
970 Smoke 28 1007 61 3000 1.54 240 00:53 28.03.2021
971 Smoke 28 1007 61 3000 2.06 210 00:20 28.03.2021
972 Smoke 28 1007 57 3000 3.53 351 23:40 27.03.2021
973 Smoke 29 1007 54 3000 2.06 300 22:57 27.03.2021
974 Smoke 29 1007 37 3000 2.57 250 22:36 27.03.2021
975 Smoke 30 1007 30 3000 2.88 338 21:58 27.03.2021
976 Smoke 30 1007 30 3000 1.54 0 21:37 27.03.2021
977 Smoke 30 1007 30 3000 1.54 0 21:19 27.03.2021
978 Smoke 31 1008 27 3000 2.4 344 20:38 27.03.2021
979 Smoke 32 1008 25 3000 1.98 26 20:19 27.03.2021
980 Smoke 31 1008 29 3000 2 25 19:42 27.03.2021
981 Smoke 31 1008 29 3000 2.84 18 19:23 27.03.2021
982 Smoke 33 1008 24 3000 2.8 19 18:48 27.03.2021
983 Smoke 33 1008 24 3000 3.29 8 18:28 27.03.2021
984 Smoke 34 1008 18 3000 3.29 8 17:50 27.03.2021
985 Smoke 34 1008 20 3000 2.06 60 17:23 27.03.2021
986 Smoke 34 1008 17 3000 1.54 0 16:49 27.03.2021
987 Smoke 34 1008 17 3000 1.54 0 16:49 27.03.2021
988 Smoke 35 1008 16 3000 2.06 330 16:28 27.03.2021
989 Smoke 35 1007 15 3000 3.6 330 15:49 27.03.2021
990 Smoke 35 1007 16 3000 3.09 310 15:24 27.03.2021
991 Smoke 35 1006 18 3000 3.6 320 14:49 27.03.2021
992 Smoke 36 1006 19 4000 4.12 320 13:51 27.03.2021
993 Smoke 36 1005 19 4000 5.14 310 13:24 27.03.2021
994 Smoke 36 1005 22 4000 4.12 320 12:53 27.03.2021
995 Smoke 37 1005 20 4000 5.14 300 12:24 27.03.2021
996 Smoke 38 1005 23 4000 5.14 290 11:42 27.03.2021
997 Smoke 38 1005 18 4000 4.63 290 11:20 27.03.2021
998 Smoke 39 1006 15 4000 5.14 280 10:45 27.03.2021
999 Smoke 39 1006 15 3000 5.66 250 10:22 27.03.2021
1000 Smoke 39 1007 11 3000 2.06 100 09:28 27.03.2021
1001 Smoke 38 1008 11 3000 3.09 130 08:43 27.03.2021
1002 Smoke 38 1008 13 3000 3.6 80 08:21 27.03.2021
1003 Smoke 37 1009 13 3000 3.6 100 07:34 27.03.2021
1004 Smoke 36 1010 15 3000 3.09 130 06:43 27.03.2021
1005 Smoke 33 1010 22 2500 2.3 59 04:57 27.03.2021
1006 Smoke 32 1010 22 2500 2.3 59 04:39 27.03.2021
1007 Smoke 28 1007 44 3000 3.05 357 00:49 27.03.2021
1008 Smoke 28 1006 44 3000 3.2 345 00:29 27.03.2021
1009 Smoke 28 1006 44 3000 3.09 220 23:54 26.03.2021
1010 Smoke 29 1007 42 3000 2.66 343 22:56 26.03.2021
1011 Smoke 29 1007 42 3000 2.66 343 22:34 26.03.2021
1012 Smoke 28 1007 44 3000 2.91 23 21:25 26.03.2021
1013 Smoke 29 1008 39 3000 2.91 23 20:59 26.03.2021
1014 Smoke 30 1008 37 3000 2.93 22 20:33 26.03.2021
1015 Smoke 31 1008 35 3000 1.54 230 19:57 26.03.2021
1016 Smoke 32 1008 31 3000 3.12 7 19:39 26.03.2021
1017 Smoke 32 1008 31 3000 2.84 12 19:20 26.03.2021
1018 Smoke 32 1009 33 3000 2.84 12 18:42 26.03.2021
1019 Smoke 32 1009 33 3000 3.37 17 18:20 26.03.2021
1020 Smoke 33 1009 29 3000 1.54 30 17:45 26.03.2021
1021 Smoke 33 1008 33 3000 2.57 340 16:56 26.03.2021
1022 Smoke 34 1008 31 3500 2.06 310 16:32 26.03.2021
1023 Smoke 34 1008 29 3500 2.57 350 15:51 26.03.2021
1024 Smoke 34 1007 29 3500 2.06 310 15:21 26.03.2021
1025 Smoke 35 1007 24 4000 2.57 320 14:30 26.03.2021
1026 Smoke 35 1006 27 3000 3.09 320 13:34 26.03.2021
1027 Smoke 36 1006 19 5000 4.12 310 12:50 26.03.2021
1028 Smoke 36 1006 18 4000 3.09 300 12:24 26.03.2021
1029 Smoke 36 1006 19 4000 4.12 330 11:34 26.03.2021
1030 Smoke 37 1007 19 3500 4.12 300 10:55 26.03.2021
1031 Smoke 37 1007 17 3000 4.63 270 10:35 26.03.2021
1032 Smoke 36 1008 25 3000 5.66 260 09:44 26.03.2021
1033 Smoke 35 1009 26 3000 5.14 250 09:19 26.03.2021
1034 Smoke 35 1009 26 3000 5.66 240 08:40 26.03.2021
1035 Smoke 35 1009 26 3000 5.66 240 08:21 26.03.2021
1036 Smoke 36 1010 13 2500 1.54 350 07:23 26.03.2021
1037 Smoke 34 1011 16 2500 3.09 50 06:58 26.03.2021
1038 Smoke 34 1011 18 2500 2.06 40 06:32 26.03.2021
1039 Smoke 33 1011 22 2500 2.2 25 05:30 26.03.2021
1040 Smoke 27 1008 47 3000 3.55 7 01:59 26.03.2021
1041 Smoke 28 1008 39 3000 3.56 358 00:31 26.03.2021
1042 Smoke 27 1008 44 3000 2.77 4 23:44 25.03.2021
1043 Smoke 27 1008 41 3000 2.24 14 23:20 25.03.2021
1044 Smoke 29 1008 34 3000 1.54 240 22:36 25.03.2021
1045 Smoke 29 1008 32 3500 2.77 34 21:53 25.03.2021
1046 Smoke 29 1008 32 3500 2.77 34 21:34 25.03.2021
1047 Smoke 29 1009 32 3500 4.01 39 20:45 25.03.2021
1048 Smoke 30 1009 26 3500 4.51 35 20:25 25.03.2021
1049 Smoke 30 1010 25 3500 4.55 35 19:48 25.03.2021
1050 Smoke 31 1010 23 4000 4.55 35 19:30 25.03.2021
1051 Smoke 31 1010 23 4000 2.57 350 18:49 25.03.2021
1052 Smoke 32 1010 20 4000 2.57 310 18:27 25.03.2021
1053 Smoke 32 1010 22 4000 2.06 340 17:55 25.03.2021
1054 Smoke 32 1010 22 4000 4.97 360 17:36 25.03.2021
1055 Smoke 33 1009 21 4000 3.09 340 16:55 25.03.2021
1056 Smoke 34 1009 21 4000 4.12 340 16:32 25.03.2021
1057 Smoke 35 1009 14 4000 3.09 330 15:46 25.03.2021
1058 Smoke 36 1009 13 4000 3.6 330 15:23 25.03.2021
1059 Smoke 36 1008 12 4000 3.09 310 14:48 25.03.2021
1060 Smoke 37 1008 10 5000 3.6 330 14:18 25.03.2021
1061 Smoke 37 1007 10 5000 5.66 320 13:24 25.03.2021
1062 Smoke 38 1007 9 5000 6.17 320 12:46 25.03.2021
1063 Smoke 38 1007 10 5000 5.14 310 12:22 25.03.2021
1064 Smoke 38 1007 9 5000 4.12 310 11:53 25.03.2021
1065 Smoke 38 1007 9 5000 4.12 310 11:53 25.03.2021
1066 Smoke 38 1007 10 4000 5.66 310 11:33 25.03.2021
1067 Smoke 38 1008 18 4000 5.66 310 10:57 25.03.2021
1068 Smoke 37 1008 19 4000 7.2 290 10:39 25.03.2021
1069 Smoke 37 1008 19 4000 7.2 290 10:18 25.03.2021
1070 Smoke 35 1009 34 4000 5.14 310 09:43 25.03.2021
1071 Smoke 35 1009 23 4000 5.66 250 09:21 25.03.2021
1072 Smoke 37 1011 18 3500 2.06 20 08:30 25.03.2021
1073 Smoke 37 1011 15 3000 4.63 40 07:26 25.03.2021
1074 Smoke 35 1012 17 3000 3.6 70 06:42 25.03.2021
1075 Smoke 35 1012 17 3000 3.6 70 06:22 25.03.2021
1076 Smoke 33 1011 22 2500 4.12 50 04:50 25.03.2021
1077 Smoke 27 1009 47 2500 4.71 355 01:20 25.03.2021
1078 Smoke 28 1009 44 2500 3.97 356 00:19 25.03.2021
1079 Smoke 28 1009 44 2500 3.97 356 23:39 24.03.2021
1080 Smoke 29 1009 42 2500 1.54 10 23:18 24.03.2021
1081 Smoke 29 1009 45 2500 1.54 10 22:39 24.03.2021
1082 Smoke 29 1009 48 2500 1.54 340 21:51 24.03.2021
1083 Smoke 29 1010 51 2500 2.94 9 21:32 24.03.2021
1084 Smoke 29 1010 51 2500 2.86 21 20:56 24.03.2021
1085 Smoke 29 1010 51 2500 2.86 21 20:38 24.03.2021
1086 Smoke 29 1010 51 2500 3.22 21 20:18 24.03.2021
1087 Smoke 31 1011 45 3000 1.54 60 19:31 24.03.2021
1088 Smoke 31 1011 42 3000 3.09 120 18:53 24.03.2021
1089 Smoke 31 1011 42 3000 2.06 90 18:24 24.03.2021
1090 Smoke 31 1011 42 3000 2.06 90 18:24 24.03.2021
1091 Smoke 32 1010 40 3000 3.6 340 17:53 24.03.2021
1092 Smoke 32 1010 43 3000 4.12 10 17:32 24.03.2021
1093 Smoke 33 1009 38 3000 3.6 340 16:56 24.03.2021
1094 Smoke 33 1009 35 3000 4.12 330 16:38 24.03.2021
1095 Smoke 33 1009 35 3000 4.12 330 16:18 24.03.2021
1096 Smoke 33 1009 40 3000 4.12 330 15:33 24.03.2021
1097 Smoke 33 1008 40 4000 4.63 320 14:59 24.03.2021
1098 Smoke 33 1008 36 4000 4.63 310 14:29 24.03.2021
1099 Smoke 33 1008 38 4000 5.14 310 13:58 24.03.2021
1100 Smoke 34 1008 36 4000 5.14 310 13:28 24.03.2021
1101 Smoke 34 1008 36 4000 5.14 300 12:50 24.03.2021
1102 Smoke 34 1008 34 4000 5.14 300 12:29 24.03.2021
1103 Smoke 35 1008 34 4000 5.14 300 11:54 24.03.2021
1104 Smoke 35 1008 34 3000 5.14 290 11:35 24.03.2021
1105 Smoke 35 1008 34 3000 4.63 280 10:48 24.03.2021
1106 Smoke 34 1009 38 3000 5.14 280 10:28 24.03.2021
1107 Smoke 34 1009 36 3000 5.14 260 09:54 24.03.2021
1108 Smoke 34 1010 41 3000 5.14 260 09:29 24.03.2021
1109 Smoke 35 1011 34 3000 4.12 260 08:57 24.03.2021
1110 Smoke 35 1011 26 2500 2.06 60 08:34 24.03.2021
1111 Smoke 36 1012 26 2500 2.57 80 07:48 24.03.2021
1112 Smoke 36 1012 30 2500 4.12 130 07:18 24.03.2021
1113 Smoke 34 1013 33 2500 3.6 90 06:41 24.03.2021
1114 Smoke 29 1010 45 2500 2.06 20 01:26 24.03.2021
1115 Smoke 29 1009 45 3000 3.6 340 00:36 24.03.2021
1116 Smoke 29 1009 48 3000 3.09 330 23:43 23.03.2021
1117 Smoke 29 1009 48 3000 3.09 330 23:19 23.03.2021
1118 Smoke 29 1009 51 3000 3.6 350 22:47 23.03.2021
1119 Smoke 29 1010 54 3000 3.19 356 22:24 23.03.2021
1120 Smoke 28 1010 57 3000 1.54 290 21:45 23.03.2021
1121 Smoke 29 1010 51 3000 2.57 270 21:25 23.03.2021
1122 Smoke 30 1010 39 3000 4.87 348 20:44 23.03.2021
1123 Smoke 30 1010 39 3000 3.2 4 20:25 23.03.2021
1124 Smoke 30 1011 42 3000 3.2 4 19:47 23.03.2021
1125 Smoke 30 1011 39 3000 3.94 1 19:25 23.03.2021
1126 Smoke 31 1011 40 3000 3.93 355 18:43 23.03.2021
1127 Smoke 31 1011 35 3000 1.54 290 18:22 23.03.2021
1128 Smoke 32 1011 31 3000 4.34 352 17:45 23.03.2021
1129 Smoke 32 1011 33 3000 1.54 120 17:21 23.03.2021
1130 Smoke 32 1010 33 3000 5.09 349 16:42 23.03.2021
1131 Smoke 32 1010 33 3000 5.5 352 16:19 23.03.2021
1132 Smoke 32 1009 33 3000 4.12 330 15:40 23.03.2021
1133 Smoke 31 1009 33 3000 2.57 320 14:55 23.03.2021
1134 Smoke 31 1009 35 3500 4.12 310 14:21 23.03.2021
1135 Smoke 31 1009 35 3500 4.12 310 14:21 23.03.2021
1136 Smoke 31 1008 37 3500 3.09 320 13:55 23.03.2021
1137 Smoke 32 1008 40 4000 5.66 300 13:37 23.03.2021
1138 Smoke 32 1008 40 4000 5.66 300 13:18 23.03.2021
1139 Smoke 32 1008 51 5000 5.66 310 12:41 23.03.2021
1140 Smoke 32 1008 38 5000 5.14 310 12:20 23.03.2021
1141 Smoke 34 1008 31 4000 5.14 310 11:44 23.03.2021
1142 Smoke 33 1009 40 4000 5.66 300 10:44 23.03.2021
1143 Smoke 34 1009 33 3500 6.17 260 10:25 23.03.2021
1144 Smoke 34 1010 34 3000 4.63 290 09:58 23.03.2021
1145 Smoke 33 1010 36 3000 4.63 290 09:38 23.03.2021
1146 Smoke 33 1010 36 3000 4.63 290 09:19 23.03.2021
1147 Smoke 33 1011 33 3000 5.66 270 08:39 23.03.2021
1148 Smoke 33 1011 33 3000 5.66 270 08:21 23.03.2021
1149 Smoke 34 1012 29 3000 2.57 190 07:28 23.03.2021
1150 Smoke 33 1012 31 3000 2.06 220 06:59 23.03.2021
1151 Smoke 32 1013 31 2500 2.67 357 06:26 23.03.2021
1152 Haze 26 1011 57 2200 1.54 50 03:22 23.03.2021
1153 Haze 27 1011 65 2500 1.54 70 02:18 23.03.2021
1154 Haze 28 1009 57 3000 3.41 343 23:43 22.03.2021
1155 Haze 28 1009 57 3000 4 341 22:54 22.03.2021
1156 Haze 28 1009 57 3000 2.57 30 22:36 22.03.2021
1157 Haze 28 1009 57 3000 2.57 30 22:18 22.03.2021
1158 Haze 28 1010 57 3000 2.57 320 21:40 22.03.2021
1159 Haze 28 1010 57 3000 2.57 320 21:21 22.03.2021
1160 Haze 28 1011 69 3000 3.76 352 20:41 22.03.2021
1161 Haze 28 1011 69 3000 3.9 346 20:21 22.03.2021
1162 Haze 29 1010 65 3000 1.54 320 19:52 22.03.2021
1163 Haze 29 1011 65 3000 2.57 340 19:30 22.03.2021
1164 Haze 29 1011 65 3000 2.57 340 19:30 22.03.2021
1165 Haze 29 1011 61 3000 2.06 300 18:47 22.03.2021
1166 Haze 29 1011 61 3000 2.57 340 18:28 22.03.2021
1167 Haze 29 1011 65 3000 2.57 280 17:58 22.03.2021
1168 Haze 29 1011 65 3000 2.57 280 17:38 22.03.2021
1169 Haze 29 1011 65 3000 3.6 340 17:19 22.03.2021
1170 Haze 30 1011 62 3000 2.06 300 16:43 22.03.2021
1171 Haze 30 1010 62 3000 3.09 310 15:59 22.03.2021
1172 Haze 30 1009 62 3000 3.6 300 15:38 22.03.2021
1173 Haze 30 1009 62 3000 3.6 300 15:18 22.03.2021
1174 Haze 30 1009 62 3000 3.09 340 14:50 22.03.2021
1175 Smoke 30 1008 58 3500 4.12 300 14:31 22.03.2021
1176 Smoke 32 1008 48 4000 5.14 270 13:47 22.03.2021
1177 Smoke 32 1008 48 4000 5.14 270 13:25 22.03.2021
1178 Smoke 33 1007 38 4000 5.66 290 12:53 22.03.2021
1179 Smoke 33 1007 38 4000 5.66 290 12:24 22.03.2021
1180 Smoke 32 1008 49 4000 4.63 290 11:48 22.03.2021
1181 Smoke 32 1008 49 4000 4.63 290 11:25 22.03.2021
1182 Smoke 32 1009 46 4000 5.14 290 10:44 22.03.2021
1183 Smoke 32 1009 46 4000 5.14 290 10:24 22.03.2021
1184 Smoke 32 1009 51 4000 5.14 300 09:44 22.03.2021
1185 Smoke 31 1010 55 4000 5.14 270 09:23 22.03.2021
1186 Smoke 31 1010 55 4000 5.14 260 08:45 22.03.2021
1187 Smoke 31 1011 58 4000 5.66 260 08:25 22.03.2021
1188 Smoke 32 1011 43 4000 2.06 170 07:46 22.03.2021
1189 Smoke 32 1012 49 3000 2.3 334 06:57 22.03.2021
1190 Smoke 31 1012 58 2500 2.49 342 06:35 22.03.2021
1191 Haze 26 1010 83 3000 1.54 60 02:38 22.03.2021
1192 Haze 27 1008 83 3000 2.06 310 00:33 22.03.2021
1193 Haze 26 1008 89 3000 2.61 352 23:54 21.03.2021
1194 Haze 27 1009 83 3000 3.05 334 23:20 21.03.2021
1195 Haze 26 1009 89 3000 3.05 334 22:56 21.03.2021
1196 Haze 26 1009 89 3000 3.13 309 22:29 21.03.2021
1197 Haze 27 1009 83 3000 2.57 280 21:41 21.03.2021
1198 Haze 27 1009 83 3000 2.57 280 21:23 21.03.2021
1199 Haze 27 1009 78 3000 2.57 300 20:46 21.03.2021
1200 Haze 28 1009 74 3000 2.06 340 20:27 21.03.2021
1201 Haze 28 1009 74 3000 1.99 234 19:56 21.03.2021
1202 Haze 28 1009 74 3000 1.36 232 19:23 21.03.2021
1203 Haze 28 1009 74 3000 1.96 215 18:55 21.03.2021
1204 Haze 28 1009 69 3000 2.06 220 18:31 21.03.2021
1205 Haze 28 1009 74 3000 2.06 210 17:54 21.03.2021
1206 Haze 28 1008 74 3000 2.06 220 17:36 21.03.2021
1207 Haze 28 1008 74 3000 2.06 220 17:18 21.03.2021
1208 Haze 28 1008 69 3000 3.09 290 16:41 21.03.2021
1209 Haze 28 1008 69 3000 3.09 290 16:22 21.03.2021
1210 Haze 29 1007 65 3000 3.6 280 15:42 21.03.2021
1211 Haze 29 1007 65 3000 3.6 280 15:20 21.03.2021
1212 Haze 29 1007 65 3000 3.6 290 14:46 21.03.2021
1213 Haze 29 1006 61 3000 5.14 280 14:27 21.03.2021
1214 Smoke 30 1006 58 3000 4.63 260 13:55 21.03.2021
1215 Smoke 30 1006 58 3000 4.12 260 13:33 21.03.2021
1216 Smoke 31 1006 40 3000 5.14 270 12:42 21.03.2021
1217 Smoke 31 1006 40 3000 5.14 270 12:24 21.03.2021
1218 Smoke 32 1006 35 3500 5.14 250 11:41 21.03.2021
1219 Smoke 32 1006 35 3500 5.14 250 11:20 21.03.2021
1220 Smoke 32 1006 35 3500 5.14 250 11:20 21.03.2021
1221 Smoke 32 1007 38 3500 4.63 260 10:43 21.03.2021
1222 Smoke 32 1007 38 3500 5.14 250 10:25 21.03.2021
1223 Smoke 31 1008 40 3500 4.63 300 09:47 21.03.2021
1224 Smoke 31 1008 40 3500 4.12 260 09:29 21.03.2021
1225 Smoke 31 1009 40 3500 5.14 260 08:54 21.03.2021
1226 Smoke 31 1009 37 3000 4.12 270 08:28 21.03.2021
1227 Smoke 31 1010 48 4000 4.12 270 07:41 21.03.2021
1228 Smoke 32 1010 40 3000 5.14 260 07:21 21.03.2021
1229 Smoke 29 1010 61 3000 1.13 323 05:59 21.03.2021
1230 Haze 26 1008 78 2200 2.16 41 02:46 21.03.2021
1231 Haze 26 1007 83 2500 2.06 10 00:55 21.03.2021
1232 Haze 26 1007 83 2500 2.35 1 00:36 21.03.2021
1233 Haze 26 1007 83 2500 2.08 346 00:18 21.03.2021
1234 Haze 26 1006 83 2500 1.54 330 23:37 20.03.2021
1235 Haze 27 1007 78 2500 1.54 320 22:57 20.03.2021
1236 Haze 26 1007 83 2500 2.57 360 22:24 20.03.2021
1237 Haze 26 1007 83 3000 2.17 332 21:48 20.03.2021
1238 Haze 27 1007 78 3000 2.62 339 21:25 20.03.2021
1239 Haze 27 1008 78 3000 2.57 330 20:49 20.03.2021
1240 Haze 27 1008 78 3000 1.54 330 20:24 20.03.2021
1241 Haze 27 1008 78 3000 2.36 332 19:52 20.03.2021
1242 Haze 27 1008 78 3000 2.69 325 19:29 20.03.2021
1243 Haze 27 1008 78 3000 2.06 320 18:52 20.03.2021
1244 Haze 27 1008 78 3000 2.06 320 18:28 20.03.2021
1245 Haze 28 1008 74 3000 3.09 320 17:58 20.03.2021
1246 Haze 28 1008 69 3500 3.09 300 17:40 20.03.2021
1247 Haze 28 1007 69 3500 2.06 290 17:20 20.03.2021
1248 Haze 28 1007 69 3500 2.06 290 16:39 20.03.2021
1249 Haze 28 1007 69 3500 2.06 320 16:18 20.03.2021
1250 Haze 28 1006 65 3500 3.6 300 15:42 20.03.2021
1251 Haze 28 1006 65 3500 3.6 300 15:24 20.03.2021
1252 Smoke 29 1006 58 4000 5.66 280 14:32 20.03.2021
1253 Smoke 30 1006 37 4000 3.6 300 13:59 20.03.2021
1254 Smoke 30 1006 42 4000 5.14 300 13:31 20.03.2021
1255 Smoke 31 1006 33 4000 4.63 290 12:39 20.03.2021
1256 Smoke 31 1006 33 4000 4.63 290 12:20 20.03.2021
1257 Smoke 31 1006 37 4000 5.66 280 11:43 20.03.2021
1258 Smoke 31 1007 42 4000 5.66 290 11:22 20.03.2021
1259 Smoke 31 1007 42 4000 5.66 290 10:46 20.03.2021
1260 Smoke 31 1007 45 4000 5.66 290 10:24 20.03.2021
1261 Smoke 31 1007 45 4000 6.17 280 09:48 20.03.2021
1262 Smoke 31 1008 40 4000 5.66 270 09:23 20.03.2021
1263 Smoke 32 1008 40 4000 4.63 280 08:53 20.03.2021
1264 Smoke 31 1009 48 3500 3.6 290 08:27 20.03.2021
1265 Smoke 30 1010 58 3500 5.66 270 07:49 20.03.2021
1266 Smoke 30 1010 58 3500 5.66 270 07:29 20.03.2021
1267 Smoke 30 1011 45 3000 1.54 70 06:41 20.03.2021
1268 Haze 28 1011 65 2500 2.57 30 05:29 20.03.2021
1269 Haze 25 1010 83 2500 2.06 70 03:45 20.03.2021
1270 Haze 26 1009 78 3000 2.06 350 01:43 20.03.2021
1271 Haze 26 1008 83 3000 2.57 310 23:48 19.03.2021
1272 Haze 26 1009 83 3000 2.57 310 23:21 19.03.2021
1273 Haze 26 1009 83 3000 2.57 300 22:45 19.03.2021
1274 Haze 26 1009 83 3000 3.09 310 22:24 19.03.2021
1275 Haze 27 1009 69 3000 3.09 300 21:51 19.03.2021
1276 Haze 27 1009 69 3000 2.06 310 21:21 19.03.2021
1277 Haze 27 1010 69 3000 2.06 310 20:46 19.03.2021
1278 Haze 27 1010 74 3000 2.57 340 20:27 19.03.2021
1279 Haze 27 1010 74 3000 2.06 350 19:52 19.03.2021
1280 Haze 27 1010 74 3000 1.54 320 19:25 19.03.2021
1281 Haze 27 1010 74 3000 2.06 310 18:58 19.03.2021
1282 Haze 28 1010 69 3000 2.06 320 18:36 19.03.2021
1283 Haze 28 1010 69 3000 2.06 320 18:18 19.03.2021
1284 Haze 28 1010 65 3000 2.06 320 17:48 19.03.2021
1285 Haze 28 1009 65 3000 3.09 310 17:23 19.03.2021
1286 Haze 28 1009 65 3000 3.09 310 16:44 19.03.2021
1287 Haze 28 1009 65 3000 3.09 310 16:26 19.03.2021
1288 Smoke 29 1008 54 3000 4.12 300 15:34 19.03.2021
1289 Smoke 29 1008 54 3500 4.63 290 14:54 19.03.2021
1290 Smoke 30 1008 48 3500 5.66 290 14:35 19.03.2021
1291 Smoke 31 1008 40 3500 5.14 300 13:59 19.03.2021
1292 Smoke 32 1008 35 4000 4.63 300 13:24 19.03.2021
1293 Smoke 33 1008 35 4000 4.12 300 12:48 19.03.2021
1294 Smoke 33 1008 35 4000 4.12 300 12:29 19.03.2021
1295 Smoke 32 1008 38 4000 4.63 300 11:36 19.03.2021
1296 Smoke 32 1008 38 3500 5.14 290 10:53 19.03.2021
1297 Smoke 32 1009 38 3500 5.14 300 10:26 19.03.2021
1298 Smoke 32 1009 40 3500 5.66 280 09:47 19.03.2021
1299 Smoke 32 1010 40 3500 5.66 280 09:27 19.03.2021
1300 Smoke 31 1010 55 3000 6.17 270 08:53 19.03.2021
1301 Smoke 31 1011 48 3000 5.66 280 08:30 19.03.2021
1302 Smoke 32 1011 45 3000 4.63 280 07:52 19.03.2021
1303 Smoke 32 1011 38 3000 4.12 310 07:34 19.03.2021
1304 Smoke 32 1012 31 3000 1.54 340 06:36 19.03.2021
1305 Haze 27 1010 61 3000 2.06 43 02:45 19.03.2021
1306 Smoke 28 1009 54 3000 3.25 12 00:26 19.03.2021
1307 Smoke 28 1009 54 3000 3.25 12 23:30 18.03.2021
1308 Haze 28 1009 54 3000 1.54 10 22:58 18.03.2021
1309 Haze 28 1010 54 3000 1.54 20 22:38 18.03.2021
1310 Haze 28 1010 54 3000 1.54 20 22:18 18.03.2021
1311 Haze 28 1010 65 3000 1.54 30 21:39 18.03.2021
1312 Haze 28 1010 69 3000 1.54 60 20:43 18.03.2021
1313 Haze 28 1010 69 3000 2.06 360 20:24 18.03.2021
1314 Haze 28 1010 69 3000 4.01 334 19:45 18.03.2021
1315 Haze 28 1010 69 3000 2.57 320 19:25 18.03.2021
1316 Haze 28 1011 69 3000 2.06 290 18:55 18.03.2021
1317 Smoke 28 1010 69 3000 2.06 310 18:27 18.03.2021
1318 Smoke 29 1010 65 3000 3.6 300 17:50 18.03.2021
1319 Smoke 29 1010 58 3000 1.54 290 17:25 18.03.2021
1320 Smoke 30 1009 45 3000 2.06 330 16:47 18.03.2021
1321 Smoke 30 1009 45 3000 2.57 330 16:29 18.03.2021
1322 Smoke 30 1009 48 3000 2.06 340 15:46 18.03.2021
1323 Smoke 30 1008 51 3000 3.09 320 15:24 18.03.2021
1324 Smoke 30 1008 51 4000 4.63 320 14:53 18.03.2021
1325 Smoke 30 1008 54 4000 5.66 310 14:32 18.03.2021
1326 Smoke 30 1008 58 4000 4.63 290 13:53 18.03.2021
1327 Smoke 31 1007 51 4000 4.12 300 13:26 18.03.2021
1328 Smoke 31 1007 43 3500 4.63 300 12:44 18.03.2021
1329 Smoke 32 1007 43 3000 2.57 300 12:25 18.03.2021
1330 Smoke 32 1007 51 3000 6.17 280 11:53 18.03.2021
1331 Smoke 31 1008 51 4000 6.17 290 11:32 18.03.2021
1332 Smoke 32 1008 51 4000 5.14 290 10:46 18.03.2021
1333 Smoke 32 1008 51 4000 5.14 290 10:27 18.03.2021
1334 Smoke 32 1008 51 4000 4.12 290 09:54 18.03.2021
1335 Smoke 32 1008 46 4000 5.14 260 09:29 18.03.2021
1336 Smoke 32 1009 46 4000 5.14 250 08:50 18.03.2021
1337 Smoke 32 1009 46 4000 5.14 250 08:31 18.03.2021
1338 Smoke 31 1010 45 4000 2.57 250 07:53 18.03.2021
1339 Smoke 32 1010 40 4000 4.12 260 07:25 18.03.2021
1340 Smoke 31 1011 40 3000 1.54 270 06:29 18.03.2021
1341 Smoke 31 1011 37 2500 2.06 200 05:54 18.03.2021
1342 Smoke 28 1009 42 3000 2.06 360 02:35 18.03.2021
1343 Smoke 28 1009 42 3000 2.06 360 02:35 18.03.2021
1344 Smoke 28 1008 57 3000 1.54 340 23:59 17.03.2021
1345 Haze 28 1008 65 3000 2.57 330 22:56 17.03.2021
1346 Haze 28 1008 69 3000 3.09 340 22:36 17.03.2021
1347 Haze 28 1008 69 3000 3.09 340 22:18 17.03.2021
1348 Haze 29 1009 58 3000 2.06 300 21:42 17.03.2021
1349 Haze 29 1009 58 3000 2.06 300 21:23 17.03.2021
1350 Smoke 29 1009 54 3000 4.44 344 20:45 17.03.2021
1351 Smoke 29 1009 54 3000 2.64 336 20:25 17.03.2021
1352 Smoke 30 1009 42 3000 2.57 270 19:46 17.03.2021
1353 Smoke 32 1009 35 3000 1.26 357 19:25 17.03.2021
1354 Smoke 31 1009 40 3000 1.26 357 18:57 17.03.2021
1355 Smoke 32 1009 33 3000 2.57 130 18:38 17.03.2021
1356 Smoke 32 1009 37 3000 2.57 140 17:56 17.03.2021
1357 Smoke 31 1009 40 2500 1.54 40 17:27 17.03.2021
1358 Smoke 31 1008 40 3000 2.06 20 16:54 17.03.2021
1359 Smoke 32 1008 35 3000 2.57 350 16:36 17.03.2021
1360 Smoke 32 1008 35 3000 2.57 350 16:18 17.03.2021
1361 Smoke 32 1008 35 3000 4.63 330 15:37 17.03.2021
1362 Smoke 33 1007 35 3000 4.12 300 14:45 17.03.2021
1363 Smoke 33 1007 35 4000 3.6 310 14:27 17.03.2021
1364 Smoke 33 1006 31 4000 4.63 330 13:56 17.03.2021
1365 Smoke 33 1006 31 4000 4.63 310 13:32 17.03.2021
1366 Smoke 33 1006 29 4000 5.14 310 12:59 17.03.2021
1367 Smoke 33 1006 33 4000 5.14 310 12:34 17.03.2021
1368 Smoke 33 1006 38 4000 5.14 320 11:53 17.03.2021
1369 Smoke 34 1006 34 4000 3.6 300 11:24 17.03.2021
1370 Smoke 34 1007 29 4000 5.14 320 10:57 17.03.2021
1371 Smoke 33 1007 36 4000 4.12 290 10:34 17.03.2021
1372 Smoke 34 1008 36 4000 5.14 280 09:59 17.03.2021
1373 Smoke 34 1008 41 4000 5.14 260 09:41 17.03.2021
1374 Smoke 34 1008 41 4000 5.14 260 09:19 17.03.2021
1375 Smoke 34 1009 28 3000 4.63 240 08:39 17.03.2021
1376 Smoke 34 1009 28 3000 4.63 240 08:20 17.03.2021
1377 Smoke 34 1010 20 3000 3.09 280 07:36 17.03.2021
1378 Smoke 33 1011 24 2500 2.57 350 06:47 17.03.2021
1379 Smoke 29 1011 45 2200 2.06 200 04:27 17.03.2021
1380 Smoke 27 1010 50 2500 2.06 130 03:25 17.03.2021
1381 Haze 28 1008 57 2500 2.06 30 00:41 17.03.2021
1382 Haze 28 1008 57 2500 2.06 30 00:20 17.03.2021
1383 Haze 27 1008 65 2500 2.06 20 23:22 16.03.2021
1384 Haze 28 1009 69 2500 3.09 320 22:43 16.03.2021
1385 Haze 28 1009 69 2500 3.09 320 22:25 16.03.2021
1386 Smoke 28 1009 65 2500 3.09 310 21:42 16.03.2021
1387 Smoke 28 1009 65 2500 3.09 310 21:24 16.03.2021
1388 Smoke 29 1010 54 2500 2.06 320 20:47 16.03.2021
1389 Smoke 30 1010 37 2500 3.09 300 20:19 16.03.2021
1390 Smoke 30 1010 28 2500 4.11 339 19:46 16.03.2021
1391 Smoke 30 1010 28 2500 3.76 333 19:27 16.03.2021
1392 Smoke 29 1010 28 2500 3.76 333 18:52 16.03.2021
1393 Smoke 31 1010 27 2500 3.38 335 18:30 16.03.2021
1394 Smoke 32 1010 23 3000 1.54 50 17:51 16.03.2021
1395 Smoke 32 1010 25 3000 2.57 40 17:33 16.03.2021
1396 Smoke 32 1010 23 3000 2.57 350 16:54 16.03.2021
1397 Smoke 32 1010 23 3000 2.57 350 16:54 16.03.2021
1398 Smoke 32 1010 23 3000 2.57 350 16:54 16.03.2021
1399 Smoke 32 1010 23 3000 2.57 350 16:54 16.03.2021
1400 Smoke 32 1010 23 3000 2.57 350 16:54 16.03.2021
1401 Smoke 32 1010 23 3000 2.57 350 16:54 16.03.2021
1402 Smoke 32 1010 23 3000 2.57 350 16:54 16.03.2021
1403 Smoke 32 1009 23 3000 4.63 330 16:31 16.03.2021
1404 Smoke 32 1009 25 3000 5.14 330 15:59 16.03.2021
1405 Smoke 33 1009 25 3000 4.12 330 15:38 16.03.2021
1406 Smoke 33 1009 25 3000 4.12 330 15:19 16.03.2021
1407 Smoke 33 1008 25 4000 4.12 320 14:42 16.03.2021
1408 Smoke 33 1008 25 4000 4.12 320 14:22 16.03.2021
1409 Smoke 33 1008 26 4000 5.66 320 13:58 16.03.2021
1410 Smoke 34 1008 24 4000 8.66 321 13:29 16.03.2021
1411 Smoke 34 1008 24 4000 5.14 310 12:56 16.03.2021
1412 Smoke 34 1008 26 4000 5.14 310 12:37 16.03.2021
1413 Smoke 34 1008 26 4000 5.14 310 12:18 16.03.2021
1414 Smoke 34 1008 36 4000 5.66 300 11:35 16.03.2021
1415 Smoke 33 1009 36 4000 6.69 290 10:50 16.03.2021
1416 Smoke 33 1009 31 4000 5.66 300 10:21 16.03.2021
1417 Smoke 34 1010 36 4000 4.63 300 09:40 16.03.2021
1418 Smoke 34 1010 36 4000 4.63 300 09:20 16.03.2021
1419 Smoke 33 1010 40 3000 4.63 300 08:55 16.03.2021
1420 Smoke 34 1011 31 3000 4.63 300 08:36 16.03.2021
1421 Smoke 34 1012 23 3000 2.57 300 07:53 16.03.2021
1422 Smoke 34 1012 23 3000 3.09 340 07:27 16.03.2021
1423 Smoke 33 1013 25 3000 1.54 310 06:38 16.03.2021
1424 Smoke 31 1012 30 3000 3.6 350 05:37 16.03.2021
1425 Smoke 29 1012 39 2500 2.57 350 04:26 16.03.2021
1426 Smoke 27 1010 44 2200 2.69 7 02:26 16.03.2021
1427 Smoke 27 1009 54 2500 3.35 0 00:47 16.03.2021
1428 Smoke 28 1009 51 2500 3.09 330 23:54 15.03.2021
1429 Smoke 28 1009 47 2500 1.54 330 23:19 15.03.2021
1430 Smoke 28 1009 47 2500 3.97 358 22:43 15.03.2021
1431 Smoke 28 1009 44 2500 1.54 330 22:25 15.03.2021
1432 Smoke 28 1009 36 2500 1.54 270 21:51 15.03.2021
1433 Smoke 28 1010 42 2500 4.18 345 21:29 15.03.2021
1434 Smoke 28 1010 47 3000 2.06 270 20:55 15.03.2021
1435 Smoke 29 1010 34 3000 4.18 345 20:37 15.03.2021
1436 Smoke 29 1010 34 3000 3.28 357 20:19 15.03.2021
1437 Smoke 31 1010 25 3000 3.9 357 19:43 15.03.2021
1438 Smoke 31 1010 25 3000 3.88 353 19:24 15.03.2021
1439 Smoke 30 1010 26 3000 3.88 353 18:47 15.03.2021
1440 Smoke 31 1010 23 3000 3.68 344 18:23 15.03.2021
1441 Smoke 32 1010 20 3000 2.57 340 17:55 15.03.2021
1442 Smoke 32 1010 23 3000 1.54 360 17:28 15.03.2021
1443 Smoke 32 1010 25 3000 3.71 347 16:50 15.03.2021
1444 Smoke 32 1009 23 3000 3.71 347 16:31 15.03.2021
1445 Smoke 32 1009 22 3000 3.09 350 15:45 15.03.2021
1446 Smoke 33 1009 21 3000 5.14 330 15:25 15.03.2021
1447 Smoke 33 1008 25 4000 5.14 330 14:43 15.03.2021
1448 Smoke 33 1008 25 4000 5.14 330 14:22 15.03.2021
1449 Smoke 33 1008 24 4000 5.66 310 13:46 15.03.2021
1450 Smoke 33 1008 24 4000 5.66 310 13:46 15.03.2021
1451 Smoke 34 1008 23 4000 3.6 320 13:24 15.03.2021
1452 Smoke 34 1008 26 5000 5.14 320 12:47 15.03.2021
1453 Smoke 34 1008 26 5000 4.63 300 12:19 15.03.2021
1454 Smoke 34 1008 27 5000 5.66 300 11:48 15.03.2021
1455 Smoke 34 1008 29 5000 6.17 330 11:30 15.03.2021
1456 Smoke 34 1008 27 5000 5.14 310 10:49 15.03.2021
1457 Smoke 34 1009 33 5000 5.66 310 10:30 15.03.2021
1458 Smoke 33 1009 38 5000 4.63 320 09:52 15.03.2021
1459 Smoke 34 1009 34 5000 6.17 280 09:33 15.03.2021
1460 Smoke 33 1010 36 5000 4.63 300 08:52 15.03.2021
1461 Smoke 32 1010 43 4000 5.14 260 08:30 15.03.2021
1462 Smoke 32 1010 43 4000 5.14 260 08:30 15.03.2021
1463 Smoke 33 1011 38 4000 4.63 260 07:51 15.03.2021
1464 Smoke 33 1011 40 4000 4.63 240 07:31 15.03.2021
1465 Smoke 33 1012 31 3000 1.54 310 06:39 15.03.2021
1466 Smoke 31 1012 37 3000 1.54 360 05:31 15.03.2021
1467 Smoke 28 1009 54 3000 2.57 320 01:31 15.03.2021
1468 Smoke 28 1008 61 3000 3.09 340 23:54 14.03.2021
1469 Smoke 28 1009 54 3000 3.09 290 23:19 14.03.2021
1470 Smoke 28 1009 54 3000 3.09 290 22:46 14.03.2021
1471 Smoke 28 1009 54 3000 4.58 343 22:19 14.03.2021
1472 Smoke 28 1010 61 3000 4.48 344 21:45 14.03.2021
1473 Smoke 28 1010 61 3000 3.78 336 21:19 14.03.2021
1474 Smoke 30 1010 42 3000 3.78 336 20:43 14.03.2021
1475 Smoke 30 1010 42 3000 2.14 346 20:25 14.03.2021
1476 Smoke 30 1010 48 3000 2.14 346 19:43 14.03.2021
1477 Smoke 29 1010 48 3000 1.27 22 19:23 14.03.2021
1478 Smoke 30 1010 42 3000 0.77 52 18:48 14.03.2021
1479 Smoke 30 1010 45 3000 1.11 45 18:22 14.03.2021
1480 Smoke 30 1010 45 3000 1.54 360 17:40 14.03.2021
1481 Smoke 31 1009 40 3000 1.66 16 17:22 14.03.2021
1482 Smoke 31 1009 40 3000 1.66 16 16:46 14.03.2021
1483 Smoke 31 1009 40 3000 2.06 310 16:26 14.03.2021
1484 Smoke 31 1009 37 3000 2.4 358 15:52 14.03.2021
1485 Smoke 32 1009 35 3000 1.54 290 15:33 14.03.2021
1486 Smoke 32 1008 35 3000 3.09 320 14:41 14.03.2021
1487 Smoke 32 1008 33 4000 3.6 310 14:20 14.03.2021
1488 Smoke 32 1008 33 4000 3.6 310 13:49 14.03.2021
1489 Smoke 33 1008 29 4000 4.63 300 13:28 14.03.2021
1490 Smoke 33 1008 29 4000 4.63 300 13:28 14.03.2021
1491 Smoke 33 1008 27 4000 4.12 320 12:46 14.03.2021
1492 Smoke 34 1008 24 4000 5.14 320 12:28 14.03.2021
1493 Smoke 34 1008 26 4000 5.14 290 11:51 14.03.2021
1494 Smoke 34 1008 28 4000 5.14 320 11:33 14.03.2021
1495 Smoke 34 1009 28 4000 4.63 300 10:56 14.03.2021
1496 Smoke 34 1009 28 4000 4.63 300 10:36 14.03.2021
1497 Smoke 34 1009 29 3500 5.14 310 10:18 14.03.2021
1498 Smoke 34 1009 29 3500 5.14 310 10:18 14.03.2021
1499 Smoke 33 1010 33 3000 4.12 300 09:43 14.03.2021
1500 Smoke 33 1010 33 3000 4.12 300 09:22 14.03.2021
1501 Smoke 33 1010 40 3000 4.63 250 09:22 14.03.2021
1502 Smoke 33 1010 40 3000 4.63 250 08:43 14.03.2021
1503 Smoke 33 1011 38 3000 3.6 260 08:23 14.03.2021
1504 Smoke 33 1011 43 4000 4.12 280 07:37 14.03.2021
1505 Smoke 33 1012 27 3000 2.06 240 06:47 14.03.2021
1506 Smoke 30 1012 32 2500 2.06 50 04:51 14.03.2021
1507 Smoke 27 1010 41 3000 2.06 270 00:51 14.03.2021
1508 Smoke 27 1009 41 3000 3.09 330 00:19 14.03.2021
1509 Smoke 27 1009 47 2500 3.85 354 23:47 13.03.2021
1510 Smoke 28 1009 42 2500 4.73 347 23:25 13.03.2021
1511 Smoke 28 1010 44 2500 2.06 10 22:53 13.03.2021
1512 Smoke 28 1010 42 2500 2.06 320 22:27 13.03.2021
1513 Smoke 28 1010 39 2500 4.66 345 21:44 13.03.2021
1514 Smoke 28 1011 42 2500 3.36 351 21:25 13.03.2021
1515 Smoke 28 1011 44 3000 2.06 290 20:52 13.03.2021
1516 Smoke 28 1011 47 3000 3.6 250 20:31 13.03.2021
1517 Smoke 29 1011 39 3000 2.45 15 19:53 13.03.2021
1518 Smoke 29 1011 39 3000 2.45 15 19:30 13.03.2021
1519 Smoke 29 1012 39 3000 2.44 44 18:44 13.03.2021
1520 Smoke 30 1012 35 3000 3.1 26 18:23 13.03.2021
1521 Smoke 30 1012 37 3000 4.12 330 17:59 13.03.2021
1522 Smoke 30 1011 37 3000 2.57 30 17:40 13.03.2021
1523 Smoke 30 1011 37 3000 6.69 350 17:21 13.03.2021
1524 Smoke 30 1011 37 3000 6.69 350 16:43 13.03.2021
1525 Smoke 31 1010 37 3000 5.66 330 16:24 13.03.2021
1526 Smoke 31 1010 37 3000 5.66 330 15:39 13.03.2021
1527 Smoke 31 1010 40 3500 6.17 310 14:51 13.03.2021
1528 Smoke 31 1010 45 3500 5.66 310 14:28 13.03.2021
1529 Smoke 31 1010 37 4000 5.66 310 13:47 13.03.2021
1530 Smoke 32 1010 33 4000 5.66 320 13:24 13.03.2021
1531 Smoke 33 1009 33 4000 5.14 300 12:43 13.03.2021
1532 Smoke 33 1009 29 4000 5.66 290 12:20 13.03.2021
1533 Smoke 34 1010 29 4000 4.12 310 11:49 13.03.2021
1534 Smoke 34 1010 26 4000 7.2 270 11:28 13.03.2021
1535 Smoke 35 1010 26 4000 6.17 250 10:50 13.03.2021
1536 Smoke 34 1010 28 4000 4.63 260 10:29 13.03.2021
1537 Smoke 34 1011 34 4000 5.66 280 09:47 13.03.2021
1538 Smoke 35 1012 34 4000 1.54 310 09:19 13.03.2021
1539 Smoke 37 1013 15 5000 2.57 70 08:43 13.03.2021
1540 Smoke 36 1013 20 3500 3.09 70 08:19 13.03.2021
1541 Smoke 36 1014 19 3500 3.6 90 07:54 13.03.2021
1542 Smoke 34 1015 22 2500 4.12 40 06:51 13.03.2021
1543 Haze 26 1013 65 3000 2.57 360 02:55 13.03.2021
1544 Mist 26 1011 78 3000 1.54 350 00:57 13.03.2021
1545 Mist 26 1011 78 3000 2.06 340 23:59 12.03.2021
1546 Haze 26 1012 78 3000 4.43 19 23:32 12.03.2021
1547 Haze 27 1012 74 3000 3.09 340 22:43 12.03.2021
1548 Haze 27 1012 74 3000 3.09 330 22:23 12.03.2021
1549 Haze 27 1012 74 3000 3.6 330 21:45 12.03.2021
1550 Haze 27 1012 74 3000 3.6 330 21:45 12.03.2021
1551 Haze 27 1012 69 3000 2.57 340 21:26 12.03.2021
1552 Haze 28 1013 57 3000 2.57 350 20:56 12.03.2021
1553 Smoke 28 1012 54 3000 2.06 350 20:32 12.03.2021
1554 Smoke 28 1013 57 3000 1.54 20 19:59 12.03.2021
1555 Smoke 28 1013 57 3000 1.54 320 19:40 12.03.2021
1556 Smoke 28 1013 57 3000 1.54 320 19:40 12.03.2021
1557 Smoke 28 1013 57 3000 1.54 320 19:21 12.03.2021
1558 Smoke 29 1013 54 3000 4.53 334 18:36 12.03.2021
1559 Smoke 29 1012 54 3000 2.06 350 17:58 12.03.2021
1560 Smoke 30 1012 48 3000 1.54 10 17:38 12.03.2021
1561 Smoke 30 1012 48 3000 1.54 10 17:18 12.03.2021
1562 Smoke 31 1012 35 3000 1.54 320 16:40 12.03.2021
1563 Smoke 31 1011 35 3000 2.57 40 15:52 12.03.2021
1564 Smoke 31 1011 35 3500 1.54 350 15:32 12.03.2021
1565 Smoke 31 1011 37 3500 2.57 320 14:49 12.03.2021
1566 Smoke 31 1011 42 4000 3.09 300 14:21 12.03.2021
1567 Smoke 31 1010 45 4000 3.6 310 13:44 12.03.2021
1568 Smoke 31 1010 40 4000 5.66 330 13:24 12.03.2021
1569 Smoke 32 1010 40 4000 3.09 310 12:58 12.03.2021
1570 Smoke 32 1010 43 4000 5.66 290 12:38 12.03.2021
1571 Smoke 32 1010 43 4000 5.66 290 12:20 12.03.2021
1572 Smoke 32 1010 43 4000 5.66 290 11:50 12.03.2021
1573 Smoke 32 1010 58 5000 3.6 300 11:22 12.03.2021
1574 Smoke 32 1011 48 4000 5.14 320 10:53 12.03.2021
1575 Smoke 31 1012 51 4000 5.14 290 10:25 12.03.2021
1576 Smoke 32 1012 46 4000 5.66 300 09:54 12.03.2021
1577 Smoke 32 1012 46 4000 5.66 300 09:54 12.03.2021
1578 Smoke 32 1012 43 4000 4.63 310 09:24 12.03.2021
1579 Smoke 32 1013 40 4000 3.6 310 08:44 12.03.2021
1580 Smoke 31 1014 35 3000 3.6 290 07:58 12.03.2021
1581 Smoke 31 1014 62 5000 2.06 280 07:33 12.03.2021
1582 Smoke 31 1015 29 3000 2.06 360 06:51 12.03.2021
1583 Smoke 30 1015 30 3000 2.57 50 06:26 12.03.2021
1584 Haze 26 1013 73 3000 2.06 310 02:41 12.03.2021
1585 Haze 26 1011 69 3000 1.54 30 00:42 12.03.2021
1586 Haze 27 1011 65 3000 1.54 320 23:30 11.03.2021
1587 Haze 27 1011 65 3000 2.06 310 22:49 11.03.2021
1588 Haze 27 1012 69 3500 1.54 310 22:29 11.03.2021
1589 Haze 27 1012 69 3500 3.6 290 21:51 11.03.2021
1590 Haze 27 1012 69 3500 2.06 300 21:30 11.03.2021
1591 Haze 27 1012 65 3500 1.54 10 20:53 11.03.2021
1592 Haze 27 1012 69 3500 2.58 350 20:35 11.03.2021
1593 Haze 27 1012 69 3500 1.54 360 19:59 11.03.2021
1594 Haze 27 1013 69 3500 2.06 30 19:41 11.03.2021
1595 Haze 27 1013 69 3500 2.06 30 19:19 11.03.2021
1596 Haze 27 1013 69 3500 1.54 20 18:43 11.03.2021
1597 Haze 27 1013 69 4000 2.06 290 18:24 11.03.2021
1598 Haze 28 1012 65 4000 2.57 350 17:42 11.03.2021
1599 Haze 28 1012 65 4000 2.06 340 16:43 11.03.2021
1600 Haze 28 1012 65 4000 2.57 320 16:25 11.03.2021
1601 Haze 28 1011 69 3000 2.57 330 15:45 11.03.2021
1602 Haze 28 1011 69 3000 3.6 300 15:21 11.03.2021
1603 Haze 28 1010 65 3500 2.06 310 14:46 11.03.2021
1604 Haze 29 1010 58 3500 4.12 300 14:19 11.03.2021
1605 Haze 29 1010 62 4000 4.63 270 13:46 11.03.2021
1606 Smoke 30 1009 51 4000 5.66 300 13:24 11.03.2021
1607 Smoke 30 1009 54 4000 5.66 300 12:57 11.03.2021
1608 Haze 30 1009 65 5000 5.14 290 12:37 11.03.2021
1609 Smoke 30 1009 51 4000 3.6 280 12:19 11.03.2021
1610 Haze 31 1009 58 5000 3.09 290 11:42 11.03.2021
1611 Smoke 31 1010 48 4000 5.66 310 11:20 11.03.2021
1612 Smoke 31 1011 55 3500 6.69 280 10:30 11.03.2021
1613 Haze 30 1011 58 3000 6.17 270 09:57 11.03.2021
1614 Haze 31 1011 62 3000 6.17 280 09:37 11.03.2021
1615 Haze 31 1012 62 3000 6.69 270 09:18 11.03.2021
1616 Haze 31 1012 62 3000 6.69 270 08:44 11.03.2021
1617 Haze 30 1012 66 3000 7.2 260 08:18 11.03.2021
1618 Haze 30 1013 66 3000 5.66 260 07:28 11.03.2021
1619 Smoke 31 1014 40 2500 2.06 280 06:49 11.03.2021
1620 Smoke 31 1014 40 2500 2.06 280 06:24 11.03.2021
1621 Haze 26 1011 65 3000 3 19 02:49 11.03.2021
1622 Haze 27 1010 61 3000 2.06 340 00:54 11.03.2021
1623 Haze 27 1010 78 3000 3.6 320 23:27 10.03.2021
1624 Haze 27 1010 78 3000 2.57 340 22:51 10.03.2021
1625 Haze 27 1010 74 3000 3.09 350 22:28 10.03.2021
1626 Haze 27 1010 74 3000 3.09 350 22:27 10.03.2021
1627 Haze 27 1010 74 3000 3.09 350 22:26 10.03.2021
1628 Haze 27 1011 74 3000 2.57 10 21:45 10.03.2021
1629 Haze 27 1011 69 3000 1.54 60 21:23 10.03.2021
1630 Haze 28 1011 65 3000 2.57 330 20:46 10.03.2021
1631 Smoke 28 1011 57 3000 2.06 320 20:28 10.03.2021
1632 Smoke 28 1011 57 3000 2.57 290 19:50 10.03.2021
1633 Smoke 28 1011 57 3000 2.57 290 19:50 10.03.2021
1634 Smoke 28 1011 54 3000 2.57 300 19:28 10.03.2021
1635 Smoke 28 1012 57 3000 2.06 280 18:47 10.03.2021
1636 Smoke 29 1012 54 3000 1.54 270 18:28 10.03.2021
1637 Smoke 29 1012 48 3000 2.06 260 17:57 10.03.2021
1638 Smoke 30 1011 45 3000 1.54 0 17:37 10.03.2021
1639 Smoke 30 1011 45 3000 1.54 0 17:19 10.03.2021
1640 Smoke 29 1010 51 3000 2.57 330 16:44 10.03.2021
1641 Smoke 29 1010 51 3000 2.57 330 16:24 10.03.2021
1642 Smoke 29 1010 58 3000 3.6 310 15:47 10.03.2021
1643 Smoke 29 1010 58 3000 2.57 320 15:25 10.03.2021
1644 Smoke 29 1010 58 3000 2.57 320 15:25 10.03.2021
1645 Smoke 30 1009 54 3000 4.63 310 14:56 10.03.2021
1646 Smoke 31 1009 45 3000 3.6 310 14:21 10.03.2021
1647 Smoke 31 1009 40 3000 4.12 300 13:52 10.03.2021
1648 Smoke 31 1009 45 3000 4.12 300 13:31 10.03.2021
1649 Smoke 31 1009 51 3000 5.14 290 12:47 10.03.2021
1650 Smoke 32 1009 46 4000 4.63 300 12:23 10.03.2021
1651 Smoke 31 1009 55 4000 5.14 280 11:50 10.03.2021
1652 Smoke 31 1009 58 4000 5.66 280 11:22 10.03.2021
1653 Haze 31 1010 58 4000 6.69 270 10:50 10.03.2021
1654 Smoke 32 1010 55 3000 5.66 270 10:31 10.03.2021
1655 Smoke 31 1010 58 3000 5.66 260 09:55 10.03.2021
1656 Smoke 31 1011 55 3000 5.14 260 09:37 10.03.2021
1657 Smoke 31 1011 55 3000 5.14 260 09:18 10.03.2021
1658 Smoke 31 1012 55 3000 5.14 250 08:42 10.03.2021
1659 Smoke 31 1012 48 3000 4.12 260 08:23 10.03.2021
1660 Smoke 32 1013 40 3000 3.09 260 07:42 10.03.2021
1661 Smoke 32 1014 40 2500 4.63 250 07:21 10.03.2021
1662 Smoke 33 1014 27 2500 2.06 290 06:49 10.03.2021
1663 Haze 27 1012 57 2500 2.6 12 02:42 10.03.2021
1664 Haze 27 1010 69 3000 1.54 300 00:27 10.03.2021
1665 Haze 27 1011 74 3000 5.54 338 23:27 09.03.2021
1666 Haze 27 1011 74 3000 2.57 330 22:50 09.03.2021
1667 Haze 27 1011 69 3000 5.63 338 22:31 09.03.2021
1668 Haze 28 1011 65 3000 2.06 320 21:58 09.03.2021
1669 Smoke 28 1011 61 3000 2.57 290 21:37 09.03.2021
1670 Smoke 28 1011 61 3000 2.57 290 21:18 09.03.2021
1671 Smoke 28 1011 51 3000 3.6 280 20:45 09.03.2021
1672 Smoke 29 1012 42 3000 2.7 341 20:22 09.03.2021
1673 Smoke 28 1012 44 3000 2.63 341 19:57 09.03.2021
1674 Smoke 28 1012 44 3000 2.02 350 19:29 09.03.2021
1675 Smoke 29 1012 39 3000 2.96 346 18:54 09.03.2021
1676 Smoke 30 1012 39 3000 3.01 346 18:30 09.03.2021
1677 Smoke 31 1012 33 3000 1.54 140 17:58 09.03.2021
1678 Smoke 31 1012 37 3000 1.54 80 17:38 09.03.2021
1679 Smoke 31 1012 37 3000 1.54 80 17:19 09.03.2021
1680 Smoke 32 1011 33 3000 3.6 340 16:40 09.03.2021
1681 Smoke 32 1011 33 3000 3.6 340 16:20 09.03.2021
1682 Smoke 32 1010 33 3000 3.09 350 15:47 09.03.2021
1683 Smoke 31 1010 37 3500 3.09 320 15:24 09.03.2021
1684 Smoke 32 1010 35 4000 3.6 310 14:42 09.03.2021
1685 Smoke 32 1010 35 4000 3.6 310 14:22 09.03.2021
1686 Smoke 32 1009 40 5000 2.57 320 13:39 09.03.2021
1687 Smoke 33 1009 29 4000 5.66 300 13:21 09.03.2021
1688 Smoke 34 1009 29 4000 4.63 330 12:46 09.03.2021
1689 Smoke 34 1009 26 3500 5.66 320 12:27 09.03.2021
1690 Smoke 34 1009 31 3500 4.12 320 11:42 09.03.2021
1691 Smoke 34 1009 31 3500 4.12 320 11:22 09.03.2021
1692 Smoke 34 1010 36 3500 5.14 280 10:58 09.03.2021
1693 Smoke 34 1010 38 5000 5.14 310 10:39 09.03.2021
1694 Smoke 34 1010 36 3500 5.14 280 10:20 09.03.2021
1695 Smoke 34 1011 31 3500 4.12 300 09:45 09.03.2021
1696 Smoke 33 1011 38 3000 5.14 290 09:26 09.03.2021
1697 Smoke 33 1012 38 3000 5.14 290 08:49 09.03.2021
1698 Smoke 32 1012 40 3000 4.63 260 08:30 09.03.2021
1699 Smoke 33 1013 24 2500 3.91 323 07:46 09.03.2021
1700 Smoke 32 1013 33 2500 2.11 336 07:23 09.03.2021
1701 Smoke 32 1014 37 2500 2.06 20 06:44 09.03.2021
1702 Smoke 30 1014 42 2500 2.24 40 05:48 09.03.2021
1703 Haze 26 1010 69 3000 3.06 22 00:59 09.03.2021
1704 Haze 27 1010 69 3000 3.09 330 23:45 08.03.2021
1705 Haze 27 1010 69 3000 2.57 320 23:27 08.03.2021
1706 Haze 27 1010 74 3000 1.54 330 22:58 08.03.2021
1707 Haze 27 1011 74 3000 3.09 10 22:40 08.03.2021
1708 Haze 27 1011 74 3000 3.09 10 22:21 08.03.2021
1709 Haze 27 1011 78 3000 3.09 340 21:45 08.03.2021
1710 Haze 27 1011 78 3000 2.57 340 21:26 08.03.2021
1711 Haze 27 1012 74 3000 3.09 350 20:40 08.03.2021
1712 Haze 27 1012 74 3000 3.09 350 20:20 08.03.2021
1713 Haze 28 1012 61 3000 1.54 310 19:40 08.03.2021
1714 Haze 27 1012 69 3000 3.9 344 18:57 08.03.2021
1715 Haze 28 1012 65 3000 2.06 260 18:37 08.03.2021
1716 Haze 28 1012 65 3000 2.06 260 18:18 08.03.2021
1717 Haze 28 1012 61 3000 2.97 354 17:43 08.03.2021
1718 Haze 29 1011 58 3000 3.51 344 17:22 08.03.2021
1719 Smoke 29 1011 58 3500 3.09 290 16:41 08.03.2021
1720 Smoke 29 1011 58 3500 3.09 290 16:21 08.03.2021
1721 Smoke 29 1010 58 3500 2.06 270 15:41 08.03.2021
1722 Smoke 29 1010 61 3500 2.57 310 15:22 08.03.2021
1723 Smoke 30 1010 51 5000 4.63 300 14:21 08.03.2021
1724 Smoke 30 1009 48 5000 4.12 290 13:54 08.03.2021
1725 Smoke 31 1009 55 5000 5.66 280 13:23 08.03.2021
1726 Smoke 31 1009 55 5000 5.66 280 12:56 08.03.2021
1727 Smoke 32 1009 40 4000 5.66 300 12:29 08.03.2021
1728 Smoke 33 1009 40 4000 5.14 320 11:48 08.03.2021
1729 Smoke 32 1010 49 4000 5.14 310 11:29 08.03.2021
1730 Smoke 32 1010 46 4000 5.14 300 10:55 08.03.2021
1731 Smoke 32 1010 49 4000 5.66 290 10:37 08.03.2021
1732 Smoke 32 1010 49 4000 5.66 290 10:18 08.03.2021
1733 Smoke 33 1011 46 4000 5.66 260 09:26 08.03.2021
1734 Smoke 33 1011 46 4000 5.66 260 09:26 08.03.2021
1735 Smoke 32 1012 49 4000 4.12 280 08:52 08.03.2021
1736 Smoke 32 1012 49 4000 4.12 270 08:25 08.03.2021
1737 Smoke 33 1013 26 3500 2.06 350 07:21 08.03.2021
1738 Smoke 31 1014 30 2500 1.54 310 05:42 08.03.2021
1739 Smoke 26 1011 34 3000 3.15 17 02:24 08.03.2021
1740 Smoke 26 1010 41 3000 3.59 16 00:42 08.03.2021
1741 Smoke 25 1010 44 3000 3.82 7 23:53 07.03.2021
1742 Smoke 26 1010 31 3000 3.4 7 23:22 07.03.2021
1743 Smoke 25 1010 44 3000 3.4 7 22:48 07.03.2021
1744 Smoke 26 1010 36 3000 3.62 7 22:28 07.03.2021
1745 Smoke 26 1011 41 3000 3.62 7 21:53 07.03.2021
1746 Smoke 27 1011 36 3000 3.62 7 21:33 07.03.2021
1747 Smoke 28 1011 36 3000 3.48 0 20:59 07.03.2021
1748 Smoke 28 1012 39 3000 2.06 320 20:41 07.03.2021
1749 Smoke 28 1012 39 3000 3 354 20:19 07.03.2021
1750 Smoke 28 1012 42 3000 2.06 340 19:41 07.03.2021
1751 Smoke 28 1012 42 3000 2.06 340 19:22 07.03.2021
1752 Smoke 27 1012 44 3000 3.31 350 18:56 07.03.2021
1753 Smoke 28 1012 39 3500 2.06 330 18:38 07.03.2021
1754 Smoke 29 1012 39 3500 3.84 352 18:18 07.03.2021
1755 Smoke 29 1012 37 3500 2.06 320 17:39 07.03.2021
1756 Smoke 29 1012 37 3500 1.54 310 17:19 07.03.2021
1757 Smoke 29 1011 37 3500 2.57 350 16:43 07.03.2021
1758 Smoke 29 1011 37 3500 2.57 350 16:21 07.03.2021
1759 Smoke 30 1011 35 3500 2.06 340 15:51 07.03.2021
1760 Smoke 30 1011 35 3500 2.57 310 15:31 07.03.2021
1761 Smoke 30 1011 35 4000 3.6 310 14:56 07.03.2021
1762 Smoke 31 1010 30 4000 3.09 310 14:29 07.03.2021
1763 Smoke 31 1010 27 5000 5.66 300 13:51 07.03.2021
1764 Smoke 32 1010 24 5000 5.14 310 13:30 07.03.2021
1765 Smoke 33 1010 21 5000 5.14 310 12:59 07.03.2021
1766 Smoke 33 1010 21 5000 5.14 310 12:40 07.03.2021
1767 Smoke 33 1010 18 5000 5.66 310 12:20 07.03.2021
1768 Smoke 34 1010 24 5000 4.12 300 11:24 07.03.2021
1769 Smoke 34 1010 17 5000 5.14 340 10:56 07.03.2021
1770 Smoke 33 1010 51 5000 5.14 290 10:38 07.03.2021
1771 Smoke 33 1010 51 5000 5.14 290 10:38 07.03.2021
1772 Smoke 34 1011 16 5000 4.12 290 09:56 07.03.2021
1773 Smoke 34 1011 29 4000 4.12 300 09:30 07.03.2021
1774 Smoke 34 1012 19 4000 3.09 320 09:00 07.03.2021
1775 Smoke 34 1013 14 4000 3.6 300 08:40 07.03.2021
1776 Smoke 34 1013 14 4000 3.6 300 08:21 07.03.2021
1777 Smoke 32 1014 22 3000 1.54 40 06:51 07.03.2021
1778 Haze 24 1011 88 2500 2.35 53 02:40 07.03.2021
1779 Haze 25 1010 78 2500 2.29 52 00:35 07.03.2021
1780 Haze 25 1010 73 2500 2.32 27 23:41 06.03.2021
1781 Haze 25 1010 83 2500 2.33 6 23:20 06.03.2021
1782 Haze 26 1010 83 2500 1.54 60 22:46 06.03.2021
1783 Haze 26 1010 83 2500 1.76 358 22:24 06.03.2021
1784 Haze 26 1011 83 3000 1.54 100 21:49 06.03.2021
1785 Haze 27 1011 78 3000 1.12 346 21:21 06.03.2021
1786 Haze 27 1011 78 3000 1.15 345 20:44 06.03.2021
1787 Haze 27 1012 78 3000 1.13 333 20:19 06.03.2021
1788 Haze 27 1012 78 3000 1.54 220 19:40 06.03.2021
1789 Haze 27 1012 83 3000 0.6 286 19:18 06.03.2021
1790 Haze 27 1012 83 3000 1.54 170 18:43 06.03.2021
1791 Haze 27 1012 83 3000 1.54 170 18:22 06.03.2021
1792 Haze 27 1012 83 3000 1.54 260 17:55 06.03.2021
1793 Haze 27 1012 83 3000 2.57 260 17:33 06.03.2021
1794 Haze 28 1012 78 3000 3.6 280 16:59 06.03.2021
1795 Haze 28 1012 78 3000 3.6 280 16:37 06.03.2021
1796 Haze 28 1012 78 3000 3.6 280 16:18 06.03.2021
1797 Haze 28 1011 74 3000 5.14 280 15:41 06.03.2021
1798 Haze 28 1011 74 3000 5.14 280 15:23 06.03.2021
1799 Smoke 30 1011 58 3500 4.12 280 14:33 06.03.2021
1800 Smoke 30 1011 51 3500 4.63 280 13:56 06.03.2021
1801 Haze 30 1010 65 4000 2.57 290 13:37 06.03.2021
1802 Smoke 30 1010 66 3500 5.14 270 13:19 06.03.2021
1803 Smoke 30 1010 62 3500 5.66 260 12:43 06.03.2021
1804 Smoke 31 1010 51 3500 6.17 270 12:19 06.03.2021
1805 Smoke 31 1010 51 3500 6.17 270 11:47 06.03.2021
1806 Smoke 31 1011 55 3500 5.66 270 11:21 06.03.2021
1807 Smoke 31 1011 62 3500 5.14 260 10:45 06.03.2021
1808 Smoke 30 1012 66 3000 5.14 270 10:18 06.03.2021
1809 Haze 31 1013 62 2500 4.12 280 09:40 06.03.2021
1810 Haze 31 1013 62 2500 4.12 280 09:19 06.03.2021
1811 Haze 31 1013 62 2500 4.12 280 09:19 06.03.2021
1812 Haze 31 1014 62 2500 5.14 270 08:33 06.03.2021
1813 Haze 31 1014 55 2200 3.69 239 07:57 06.03.2021
1814 Haze 31 1015 58 2200 2.57 170 07:23 06.03.2021
1815 Haze 31 1015 66 2200 3.09 190 06:48 06.03.2021
1816 Haze 28 1015 78 1500 2.06 150 05:34 06.03.2021
1817 Mist 26 1012 89 2500 1.69 98 02:25 06.03.2021
1818 Mist 26 1012 94 2500 2.29 66 00:47 06.03.2021
1819 Mist 26 1011 94 2500 2.15 29 23:52 05.03.2021
1820 Mist 26 1011 89 2500 1.97 343 23:28 05.03.2021
1821 Haze 27 1012 83 2500 2.06 230 22:45 05.03.2021
1822 Haze 27 1012 83 2500 1.54 210 22:23 05.03.2021
1823 Haze 27 1012 83 2500 3.09 240 21:53 05.03.2021
1824 Haze 27 1012 83 3000 2.06 250 21:34 05.03.2021
1825 Haze 27 1012 78 3000 2.06 260 20:55 05.03.2021
1826 Haze 27 1012 78 3000 2.06 260 20:37 05.03.2021
1827 Haze 28 1012 74 3000 1.54 180 20:19 05.03.2021
1828 Haze 28 1012 74 3500 1.54 180 19:27 05.03.2021
1829 Haze 28 1012 69 3500 1.73 258 18:59 05.03.2021
1830 Haze 29 1012 61 3500 1.54 180 18:41 05.03.2021
1831 Haze 29 1012 61 3500 1.54 180 18:23 05.03.2021
1832 Smoke 29 1012 58 3500 2.06 180 17:37 05.03.2021
1833 Smoke 29 1012 58 3500 2.06 180 17:37 05.03.2021
1834 Smoke 29 1012 54 3500 1.54 230 16:58 05.03.2021
1835 Smoke 29 1011 51 3000 2.57 230 16:38 05.03.2021
1836 Smoke 29 1011 51 3000 2.57 230 16:20 05.03.2021
1837 Smoke 29 1011 51 3000 3.09 220 15:46 05.03.2021
1838 Smoke 30 1010 42 3000 2.57 300 15:23 05.03.2021
1839 Smoke 30 1010 42 4000 3.6 270 14:39 05.03.2021
1840 Smoke 30 1009 45 4000 4.12 290 13:59 05.03.2021
1841 Smoke 31 1009 55 5000 5.14 280 13:22 05.03.2021
1842 Smoke 31 1009 45 5000 5.66 280 13:00 05.03.2021
1843 Smoke 33 1009 31 5000 4.12 290 12:27 05.03.2021
1844 Smoke 33 1009 38 4000 4.12 270 11:37 05.03.2021
1845 Smoke 33 1009 38 4000 4.12 270 11:37 05.03.2021
1846 Smoke 33 1010 36 4000 4.63 270 11:18 05.03.2021
1847 Smoke 32 1010 38 3500 5.14 260 10:42 05.03.2021
1848 Smoke 32 1010 38 3500 5.14 260 10:24 05.03.2021
1849 Smoke 33 1011 36 3500 5.14 270 09:50 05.03.2021
1850 Smoke 33 1011 36 3000 5.14 260 09:27 05.03.2021
1851 Smoke 33 1012 33 3000 5.14 270 08:46 05.03.2021
1852 Smoke 33 1012 34 3000 5.14 260 08:27 05.03.2021
1853 Smoke 35 1013 10 3000 1.54 70 07:58 05.03.2021
1854 Smoke 34 1013 11 3000 3.6 40 07:29 05.03.2021
1855 Smoke 33 1014 15 3000 3.6 50 06:33 05.03.2021
1856 Smoke 32 1013 35 2100 1.54 0 05:32 05.03.2021
1857 Mist 25 1011 78 2500 1.93 55 00:49 05.03.2021
1858 Haze 26 1010 78 2500 2.49 2 23:44 04.03.2021
1859 Haze 26 1010 78 2500 1.19 356 23:19 04.03.2021
1860 Haze 27 1010 74 2500 0.57 73 22:28 04.03.2021
1861 Haze 27 1011 65 2500 0.57 73 21:52 04.03.2021
1862 Haze 27 1011 65 2500 1.54 160 21:29 04.03.2021
1863 Smoke 28 1011 57 2500 1.54 120 20:43 04.03.2021
1864 Smoke 28 1011 54 2500 1.92 79 20:24 04.03.2021
1865 Smoke 28 1011 57 2500 1.54 170 19:59 04.03.2021
1866 Smoke 28 1011 57 2500 2.06 180 19:40 04.03.2021
1867 Smoke 28 1011 57 2500 2.06 180 19:21 04.03.2021
1868 Smoke 30 1011 45 3000 1.65 68 18:45 04.03.2021
1869 Smoke 30 1011 45 3000 1.51 43 18:25 04.03.2021
1870 Smoke 31 1011 42 3000 2.06 140 17:46 04.03.2021
1871 Smoke 30 1011 45 3000 2.57 160 17:28 04.03.2021
1872 Smoke 31 1011 42 3000 2.36 23 16:48 04.03.2021
1873 Smoke 31 1010 40 3000 1.54 330 16:29 04.03.2021
1874 Smoke 31 1010 40 3000 2.06 340 15:50 04.03.2021
1875 Smoke 32 1010 35 3000 1.54 320 15:32 04.03.2021
1876 Smoke 32 1010 31 3000 4.63 280 14:50 04.03.2021
1877 Smoke 32 1009 29 3000 3.09 280 14:26 04.03.2021
1878 Smoke 33 1009 26 4000 4.63 320 13:50 04.03.2021
1879 Smoke 33 1009 27 4000 5.14 320 13:32 04.03.2021
1880 Smoke 33 1009 22 4000 5.66 310 12:53 04.03.2021
1881 Smoke 33 1008 35 5000 4.12 310 12:35 04.03.2021
1882 Smoke 34 1009 29 4000 5.14 310 11:47 04.03.2021
1883 Smoke 34 1009 31 4000 5.14 310 11:25 04.03.2021
1884 Smoke 33 1009 27 4000 5.66 290 10:55 04.03.2021
1885 Smoke 33 1010 27 3500 5.14 280 10:31 04.03.2021
1886 Smoke 33 1010 31 3500 5.14 280 09:44 04.03.2021
1887 Smoke 33 1010 38 3500 5.14 260 09:21 04.03.2021
1888 Smoke 34 1011 28 3000 4.12 260 08:35 04.03.2021
1889 Smoke 34 1012 17 3000 3.6 40 07:53 04.03.2021
1890 Smoke 34 1012 16 3000 2.57 100 07:29 04.03.2021
1891 Smoke 34 1012 21 2500 2.06 30 06:25 04.03.2021
1892 Smoke 32 1012 24 3000 2.57 70 05:39 04.03.2021
1893 Smoke 26 1009 57 3000 3.3 37 01:44 04.03.2021
1894 Smoke 26 1009 53 3000 3.28 38 01:44 04.03.2021
1895 Smoke 26 1009 53 3000 3.28 38 01:44 04.03.2021
1896 Smoke 26 1009 57 3000 3.3 37 01:44 04.03.2021
1897 Smoke 26 1009 53 3000 3.28 38 01:44 04.03.2021
1898 Smoke 27 1009 44 3000 1.54 340 22:45 03.03.2021
1899 Smoke 27 1009 44 3000 2.87 16 22:26 03.03.2021
1900 Smoke 27 1010 47 3000 2.06 320 21:45 03.03.2021
1901 Smoke 27 1010 47 3000 2.06 320 21:45 03.03.2021
1902 Smoke 27 1010 54 3000 1.54 330 21:24 03.03.2021
1903 Smoke 27 1010 54 3000 2.34 35 20:59 03.03.2021
1904 Haze 27 1011 61 3500 2.34 35 20:41 03.03.2021
1905 Haze 27 1011 61 3500 2.21 51 20:19 03.03.2021
1906 Haze 27 1011 61 3500 2.57 260 19:41 03.03.2021
1907 Haze 27 1011 65 3500 2.06 260 19:22 03.03.2021
1908 Smoke 27 1011 65 3500 2.96 30 18:48 03.03.2021
1909 Smoke 28 1011 57 3500 2.06 260 18:26 03.03.2021
1910 Smoke 28 1011 57 3500 1.54 310 17:54 03.03.2021
1911 Smoke 28 1011 57 3500 2.06 320 17:19 03.03.2021
1912 Smoke 29 1011 54 3500 3.09 10 16:44 03.03.2021
1913 Smoke 29 1010 54 3500 3.09 340 16:24 03.03.2021
1914 Smoke 29 1010 58 3000 2.06 270 15:35 03.03.2021
1915 Smoke 29 1009 58 3000 3.6 300 14:59 03.03.2021
1916 Smoke 29 1009 58 3000 3.6 300 14:31 03.03.2021
1917 Smoke 30 1009 48 4000 3.6 300 13:53 03.03.2021
1918 Smoke 31 1008 43 4000 2.57 290 13:33 03.03.2021
1919 Smoke 32 1008 38 4000 3.09 310 12:58 03.03.2021
1920 Smoke 32 1008 38 4000 3.09 310 12:39 03.03.2021
1921 Smoke 33 1008 40 4000 3.09 300 12:19 03.03.2021
1922 Smoke 35 1008 32 3000 3.6 290 11:42 03.03.2021
1923 Smoke 35 1008 32 3000 3.6 290 11:21 03.03.2021
1924 Smoke 36 1009 30 3000 6.17 260 10:41 03.03.2021
1925 Smoke 36 1009 28 3000 3.09 300 10:19 03.03.2021
1926 Smoke 34 1010 28 2500 4.12 280 09:40 03.03.2021
1927 Smoke 33 1011 31 2500 4.12 270 08:46 03.03.2021
1928 Smoke 34 1011 18 2500 1.54 220 08:23 03.03.2021
1929 Smoke 34 1012 18 2500 1.54 100 07:52 03.03.2021
1930 Smoke 32 1012 18 2500 3.09 20 06:55 03.03.2021
1931 Smoke 33 1013 19 2500 3.6 30 06:18 03.03.2021
1932 Smoke 30 1013 26 2500 3.6 30 05:30 03.03.2021
1933 Smoke 27 1012 34 2500 1.95 64 04:36 03.03.2021
1934 Smoke 26 1012 34 2500 2.06 80 03:52 03.03.2021
1935 Smoke 27 1011 28 3000 4.11 14 00:18 03.03.2021
1936 Smoke 27 1011 28 3000 2.57 300 23:32 02.03.2021
1937 Smoke 27 1011 29 3000 3.09 320 22:44 02.03.2021
1938 Smoke 27 1011 29 3000 3.6 330 22:21 02.03.2021
1939 Smoke 27 1011 39 3000 2.06 320 21:43 02.03.2021
1940 Smoke 27 1012 32 3000 3.6 290 21:23 02.03.2021
1941 Smoke 27 1012 29 3000 2.57 300 20:54 02.03.2021
1942 Smoke 28 1012 28 3000 1.54 310 20:36 02.03.2021
1943 Smoke 28 1012 28 3000 1.54 310 20:18 02.03.2021
1944 Smoke 28 1012 30 3000 1.54 30 19:42 02.03.2021
1945 Smoke 28 1012 26 3000 4.1 1 19:23 02.03.2021
1946 Smoke 30 1013 20 3000 1.54 20 18:41 02.03.2021
1947 Smoke 30 1013 21 3000 2.57 330 18:21 02.03.2021
1948 Smoke 30 1013 21 3000 2.57 330 17:50 02.03.2021
1949 Smoke 30 1013 20 3000 2.57 50 17:31 02.03.2021
1950 Smoke 30 1012 20 3000 2.57 340 16:58 02.03.2021
1951 Smoke 30 1012 20 3000 2.57 340 16:36 02.03.2021
1952 Smoke 30 1012 26 3000 3.6 330 15:52 02.03.2021
1953 Smoke 31 1011 30 3000 2.57 320 15:52 02.03.2021
1954 Smoke 31 1011 30 3000 2.57 320 15:25 02.03.2021
1955 Smoke 31 1010 30 3500 5.14 310 14:28 02.03.2021
1956 Smoke 31 1010 31 4000 4.12 310 13:59 02.03.2021
1957 Smoke 32 1010 31 4000 5.14 300 13:39 02.03.2021
1958 Smoke 33 1010 27 4000 5.14 320 13:20 02.03.2021
1959 Smoke 33 1010 27 4000 4.63 320 12:31 02.03.2021
1960 Smoke 33 1010 26 4000 6.69 330 11:57 02.03.2021
1961 Smoke 33 1010 37 5000 5.66 290 11:38 02.03.2021
1962 Smoke 34 1011 24 3000 5.66 320 11:18 02.03.2021
1963 Smoke 34 1011 23 3000 5.66 320 10:39 02.03.2021
1964 Smoke 34 1011 23 3000 5.66 320 10:20 02.03.2021
1965 Smoke 34 1012 40 5000 5.14 300 09:40 02.03.2021
1966 Smoke 34 1012 28 3000 4.12 300 09:19 02.03.2021
1967 Smoke 33 1013 40 3000 6.17 250 08:38 02.03.2021
1968 Smoke 33 1013 33 3000 5.66 250 07:58 02.03.2021
1969 Smoke 34 1013 55 4000 2.57 280 07:38 02.03.2021
1970 Smoke 32 1014 35 2500 2.06 150 06:34 02.03.2021
1971 Smoke 31 1014 37 2500 2.06 170 05:46 02.03.2021
1972 Smoke 30 1014 39 2500 2.06 180 05:27 02.03.2021
1973 Haze 26 1012 53 2500 2.54 41 01:44 02.03.2021
1974 Haze 26 1012 53 2500 2.54 41 01:44 02.03.2021
1975 Haze 26 1011 61 2500 2.86 34 01:26 02.03.2021
1976 Haze 26 1011 61 2500 4.52 7 00:28 02.03.2021
1977 Haze 26 1012 65 2500 1.54 200 23:26 01.03.2021
1978 Haze 27 1012 61 2500 1.54 340 22:42 01.03.2021
1979 Haze 28 1012 54 2500 1.54 0 22:21 01.03.2021
1980 Haze 28 1012 57 2500 5.3 349 21:45 01.03.2021
1981 Haze 28 1012 57 2500 4.48 339 21:23 01.03.2021
1982 Haze 28 1012 57 2500 4.56 339 21:23 01.03.2021
1983 Haze 28 1013 57 2500 1.54 210 20:47 01.03.2021
1984 Smoke 28 1013 57 3000 3.35 341 20:27 01.03.2021
1985 Smoke 29 1013 51 3000 3.35 341 19:54 01.03.2021
1986 Smoke 29 1013 51 3000 3.35 341 19:33 01.03.2021
1987 Smoke 29 1013 51 3000 3.36 337 18:46 01.03.2021
1988 Smoke 29 1013 51 3000 2.15 354 18:24 01.03.2021
1989 Smoke 30 1013 51 3500 3.09 340 17:53 01.03.2021
1990 Smoke 30 1013 51 3500 4.12 340 17:30 01.03.2021
1991 Smoke 30 1012 54 3500 3.09 10 16:59 01.03.2021
1992 Smoke 30 1012 54 3500 3.09 10 16:40 01.03.2021
1993 Smoke 30 1012 54 3500 2.06 340 16:22 01.03.2021
1994 Smoke 31 1011 45 3000 2.06 330 15:40 01.03.2021
1995 Smoke 31 1011 45 3000 2.06 330 15:19 01.03.2021
1996 Smoke 32 1011 40 3000 3.09 320 14:44 01.03.2021
1997 Smoke 32 1010 37 4000 4.63 320 14:26 01.03.2021
1998 Smoke 32 1010 40 4000 4.12 320 13:39 01.03.2021
1999 Smoke 33 1010 38 4000 5.14 330 13:20 01.03.2021
2000 Smoke 32 1010 38 4000 5.14 330 12:44 01.03.2021
2001 Smoke 33 1010 38 4000 6.17 310 12:26 01.03.2021
2002 Smoke 33 1010 38 4000 5.14 310 11:58 01.03.2021
2003 Smoke 34 1010 36 4000 5.66 310 11:32 01.03.2021
2004 Smoke 34 1010 40 4000 5.66 300 10:44 01.03.2021
2005 Smoke 34 1010 40 4000 5.66 300 10:44 01.03.2021
2006 Smoke 34 1011 38 4000 4.63 320 10:22 01.03.2021
2007 Smoke 33 1011 38 3000 5.66 300 09:56 01.03.2021
2008 Smoke 34 1011 36 3000 5.66 280 09:38 01.03.2021
2009 Smoke 34 1011 36 3000 5.66 280 09:19 01.03.2021
2010 Smoke 33 1012 46 3000 6.69 250 08:41 01.03.2021
2011 Smoke 34 1013 40 3000 4.12 260 07:44 01.03.2021
2012 Smoke 34 1013 36 3000 4.63 260 06:51 01.03.2021
2013 Smoke 26 1011 47 3000 3.21 26 02:47 01.03.2021
2014 Smoke 28 1010 42 3000 3.94 9 23:58 28.02.2021
2015 Smoke 28 1010 42 3000 2.57 340 23:22 28.02.2021
2016 Smoke 28 1010 42 3000 5.26 354 22:45 28.02.2021
2017 Smoke 29 1010 42 3000 2.57 330 22:21 28.02.2021
2018 Smoke 29 1010 42 3000 1.54 310 21:48 28.02.2021
2019 Smoke 29 1010 42 3000 2.06 320 21:25 28.02.2021
2020 Smoke 29 1011 42 3000 3.9 336 20:52 28.02.2021
2021 Smoke 29 1011 42 3000 3.98 336 20:34 28.02.2021
2022 Smoke 29 1011 37 3000 2.06 270 19:47 28.02.2021
2023 Smoke 30 1011 35 3000 2.84 348 19:28 28.02.2021
2024 Smoke 30 1011 37 3000 2.06 150 18:49 28.02.2021
2025 Smoke 30 1011 37 3000 2.06 150 18:28 28.02.2021
2026 Smoke 31 1011 35 3000 3.6 350 17:59 28.02.2021
2027 Smoke 31 1010 35 3000 2.57 320 17:40 28.02.2021
2028 Smoke 31 1010 35 3000 2.57 320 17:21 28.02.2021
2029 Smoke 31 1010 35 3000 2.57 350 16:48 28.02.2021
2030 Smoke 31 1009 35 3000 2.57 30 16:30 28.02.2021
2031 Smoke 31 1009 37 3000 4.63 340 15:52 28.02.2021
2032 Smoke 32 1008 35 3000 5.14 330 15:28 28.02.2021
2033 Smoke 31 1008 35 3000 3.6 330 14:58 28.02.2021
2034 Smoke 31 1008 35 3000 3.6 330 14:39 28.02.2021
2035 Smoke 31 1008 35 4000 4.12 330 14:19 28.02.2021
2036 Smoke 32 1007 35 4000 4.63 320 13:39 28.02.2021
2037 Smoke 32 1007 35 4000 5.14 330 13:19 28.02.2021
2038 Smoke 33 1007 31 4000 5.14 320 12:54 28.02.2021
2039 Smoke 33 1007 31 4000 5.14 320 12:35 28.02.2021
2040 Smoke 33 1007 36 3000 4.12 310 11:59 28.02.2021
2041 Smoke 33 1007 36 3000 4.63 320 11:41 28.02.2021
2042 Smoke 33 1007 36 3000 4.63 320 11:22 28.02.2021
2043 Smoke 33 1007 38 3000 5.66 280 10:43 28.02.2021
2044 Smoke 33 1008 31 3000 4.12 300 10:25 28.02.2021
2045 Smoke 33 1009 40 3000 5.66 260 09:40 28.02.2021
2046 Smoke 33 1009 40 3000 5.66 260 09:21 28.02.2021
2047 Smoke 33 1009 38 3000 5.14 250 08:45 28.02.2021
2048 Smoke 32 1010 40 3000 5.66 250 08:26 28.02.2021
2049 Smoke 34 1010 28 3000 3.6 280 07:46 28.02.2021
2050 Smoke 33 1011 26 3000 2.57 60 07:28 28.02.2021
2051 Smoke 33 1011 31 3000 3.6 10 06:24 28.02.2021
2052 Smoke 30 1011 42 2500 2.25 43 05:21 28.02.2021
2053 Haze 26 1009 50 3000 2.41 44 02:29 28.02.2021
2054 Haze 26 1008 53 3000 1.54 360 01:36 28.02.2021
2055 Haze 26 1008 61 3000 1.54 20 00:43 28.02.2021
2056 Haze 26 1008 61 3000 1.54 20 00:21 28.02.2021
2057 Haze 26 1008 61 3000 2.06 10 23:44 27.02.2021
2058 Haze 26 1008 61 3000 1.54 350 23:18 27.02.2021
2059 Haze 26 1008 65 3000 3.6 330 22:42 27.02.2021
2060 Haze 26 1008 65 3000 3.6 330 22:18 27.02.2021
2061 Smoke 27 1009 57 3000 2.06 320 21:38 27.02.2021
2062 Smoke 27 1009 57 3000 2.06 320 21:20 27.02.2021
2063 Smoke 27 1009 61 3000 2.06 310 20:46 27.02.2021
2064 Smoke 27 1010 57 3000 2.06 310 20:26 27.02.2021
2065 Smoke 28 1010 51 3000 2.57 320 19:45 27.02.2021
2066 Smoke 28 1010 47 3000 2.57 310 19:25 27.02.2021
2067 Smoke 28 1010 47 3000 3.6 280 18:43 27.02.2021
2068 Smoke 30 1010 35 3000 2.06 320 18:21 27.02.2021
2069 Smoke 31 1010 33 3000 3.6 340 17:54 27.02.2021
2070 Smoke 30 1009 37 3000 2.57 30 17:36 27.02.2021
2071 Smoke 30 1009 37 3000 2.57 30 17:18 27.02.2021
2072 Smoke 30 1009 37 4000 2.06 30 16:44 27.02.2021
2073 Smoke 31 1009 35 4000 3.09 10 16:25 27.02.2021
2074 Smoke 31 1008 37 4000 4.12 330 15:41 27.02.2021
2075 Smoke 30 1007 42 4000 3.09 320 14:56 27.02.2021
2076 Smoke 30 1007 42 4000 3.09 310 14:37 27.02.2021
2077 Smoke 31 1007 37 4000 3.6 310 13:56 27.02.2021
2078 Smoke 31 1007 35 4000 4.12 320 13:37 27.02.2021
2079 Smoke 32 1007 31 4000 4.63 310 12:58 27.02.2021
2080 Smoke 32 1007 33 4000 4.12 300 12:38 27.02.2021
2081 Smoke 32 1007 33 4000 4.12 300 12:19 27.02.2021
2082 Smoke 31 1008 48 4000 5.14 290 11:42 27.02.2021
2083 Smoke 31 1008 48 4000 5.14 290 11:24 27.02.2021
2084 Smoke 31 1008 48 4000 4.63 300 10:47 27.02.2021
2085 Smoke 31 1008 48 4000 6.17 280 10:28 27.02.2021
2086 Smoke 31 1009 51 3000 4.12 290 09:51 27.02.2021
2087 Smoke 31 1009 58 3000 6.69 270 09:26 27.02.2021
2088 Smoke 30 1010 58 3000 6.17 250 08:42 27.02.2021
2089 Smoke 30 1010 55 3000 5.66 250 08:21 27.02.2021
2090 Smoke 31 1011 45 3000 3.6 270 07:42 27.02.2021
2091 Smoke 30 1012 37 3000 1.95 16 06:21 27.02.2021
2092 Haze 24 1009 83 2500 3.18 2 01:18 27.02.2021
2093 Haze 25 1009 78 3000 2.06 360 23:58 26.02.2021
2094 Haze 25 1009 78 3000 2.57 360 23:40 26.02.2021
2095 Haze 25 1009 78 3000 2.57 360 23:18 26.02.2021
2096 Haze 26 1009 73 3000 2.06 340 22:30 26.02.2021
2097 Haze 26 1009 69 3000 2.57 340 21:49 26.02.2021
2098 Haze 26 1010 69 3000 2.57 310 21:30 26.02.2021
2099 Haze 26 1010 69 3000 3.6 320 20:45 26.02.2021
2100 Haze 26 1010 69 3000 2.57 320 20:24 26.02.2021
2101 Haze 26 1011 69 3000 2.57 320 19:52 26.02.2021
2102 Haze 27 1011 65 3000 2.57 310 19:25 26.02.2021
2103 Haze 27 1011 69 3000 3.09 300 18:48 26.02.2021
2104 Haze 27 1011 69 3000 2.57 310 18:24 26.02.2021
2105 Haze 27 1011 69 3000 3.09 300 17:48 26.02.2021
2106 Haze 27 1011 69 3000 2.57 290 17:30 26.02.2021
2107 Haze 27 1011 65 3000 3.09 310 16:57 26.02.2021
2108 Haze 27 1011 65 3000 3.09 310 16:38 26.02.2021
2109 Smoke 28 1010 57 3000 4.12 300 16:20 26.02.2021
2110 Smoke 28 1010 54 3000 3.6 310 15:43 26.02.2021
2111 Smoke 29 1009 48 3000 5.66 290 15:23 26.02.2021
2112 Smoke 29 1009 45 3000 5.66 280 14:51 26.02.2021
2113 Smoke 30 1009 37 4000 5.66 280 14:32 26.02.2021
2114 Smoke 30 1008 37 4000 4.12 280 13:47 26.02.2021
2115 Smoke 31 1008 37 4000 4.12 290 13:28 26.02.2021
2116 Smoke 31 1008 35 4000 4.63 300 12:48 26.02.2021
2117 Smoke 31 1008 33 4000 4.63 310 12:26 26.02.2021
2118 Smoke 32 1008 27 4000 4.63 310 11:39 26.02.2021
2119 Smoke 32 1009 31 5000 4.63 300 10:54 26.02.2021
2120 Smoke 32 1009 33 5000 5.66 300 10:21 26.02.2021
2121 Smoke 32 1010 35 4000 5.14 300 09:47 26.02.2021
2122 Smoke 32 1010 38 3500 5.14 330 09:27 26.02.2021
2123 Smoke 32 1012 22 3000 3.6 340 08:32 26.02.2021
2124 Smoke 32 1012 24 3000 3.6 320 07:54 26.02.2021
2125 Smoke 31 1013 23 3000 3.09 330 07:20 26.02.2021
2126 Smoke 30 1013 30 3000 1.54 20 05:40 26.02.2021
2127 Smoke 28 1012 36 2500 2.06 320 04:49 26.02.2021
2128 Haze 26 1011 57 2500 2.06 350 02:36 26.02.2021
2129 Haze 26 1009 78 2500 2.57 340 00:24 26.02.2021
2130 Haze 26 1009 78 2500 2.57 350 23:31 25.02.2021
2131 Haze 26 1010 78 3000 2.06 350 22:51 25.02.2021
2132 Haze 26 1010 78 3000 2.06 350 22:33 25.02.2021
2133 Haze 27 1010 74 3000 2.06 310 21:48 25.02.2021
2134 Haze 27 1011 69 3000 2.57 310 21:30 25.02.2021
2135 Haze 27 1011 61 3000 3.09 280 20:44 25.02.2021
2136 Smoke 27 1011 54 3000 2.06 280 20:25 25.02.2021
2137 Smoke 28 1011 47 3000 1.54 250 19:58 25.02.2021
2138 Smoke 29 1011 37 3000 2.91 354 19:39 25.02.2021
2139 Smoke 29 1011 37 3000 3.05 357 19:19 25.02.2021
2140 Smoke 29 1012 37 3000 2.43 5 18:39 25.02.2021
2141 Smoke 30 1012 35 3000 2.59 3 17:59 25.02.2021
2142 Smoke 30 1011 35 3000 3.09 40 17:31 25.02.2021
2143 Smoke 30 1011 35 3000 3.17 348 16:56 25.02.2021
2144 Smoke 30 1011 35 3000 2.57 330 16:33 25.02.2021
2145 Smoke 30 1010 35 3000 4.12 330 15:48 25.02.2021
2146 Smoke 30 1010 37 3000 3.09 320 15:28 25.02.2021
2147 Smoke 30 1010 40 3500 5.66 320 14:32 25.02.2021
2148 Smoke 30 1010 40 3500 5.66 320 13:59 25.02.2021
2149 Smoke 31 1010 35 3000 5.66 310 13:40 25.02.2021
2150 Smoke 31 1010 35 3000 5.66 310 13:20 25.02.2021
2151 Smoke 32 1009 40 3000 4.63 330 12:38 25.02.2021
2152 Smoke 32 1009 40 3000 4.63 330 12:20 25.02.2021
2153 Smoke 32 1009 45 4000 5.14 310 11:42 25.02.2021
2154 Smoke 32 1010 33 3000 5.66 320 10:51 25.02.2021
2155 Smoke 33 1010 33 3000 5.66 320 10:33 25.02.2021
2156 Smoke 32 1011 33 10000 5.14 300 09:45 25.02.2021
2157 Smoke 32 1011 33 10000 5.14 300 09:45 25.02.2021
2158 Smoke 33 1012 38 3000 4.63 250 09:23 25.02.2021
2159 Smoke 32 1012 38 2500 5.66 240 08:40 25.02.2021
2160 Smoke 32 1012 38 2500 5.66 240 08:21 25.02.2021
2161 Smoke 32 1013 27 2500 2.06 330 07:39 25.02.2021
2162 Smoke 33 1014 29 2500 2.06 310 06:57 25.02.2021
2163 Smoke 33 1014 29 2500 2.06 310 06:57 25.02.2021
2164 Smoke 29 1013 37 2500 2.57 20 05:28 25.02.2021
2165 Smoke 27 1010 44 2500 1.54 300 01:50 25.02.2021
2166 Smoke 27 1010 50 2500 1.54 10 00:48 25.02.2021
2167 Smoke 27 1010 54 2500 4.09 8 00:19 25.02.2021
2168 Haze 27 1010 54 2500 1.54 350 23:36 24.02.2021
2169 Haze 27 1010 57 2500 1.54 330 22:56 24.02.2021
2170 Haze 27 1010 61 2500 2.06 310 22:30 24.02.2021
2171 Smoke 27 1011 57 2500 1.54 280 21:50 24.02.2021
2172 Smoke 28 1011 57 3000 2.06 270 21:31 24.02.2021
2173 Smoke 28 1011 42 3000 4.26 337 20:50 24.02.2021
2174 Smoke 29 1011 39 3000 2.12 340 20:28 24.02.2021
2175 Smoke 30 1011 35 3000 2.17 340 19:47 24.02.2021
2176 Smoke 29 1012 39 3000 1.68 7 19:21 24.02.2021
2177 Smoke 30 1012 35 3000 1.68 7 18:54 24.02.2021
2178 Smoke 31 1012 33 3000 1.54 90 18:31 24.02.2021
2179 Smoke 31 1011 33 3000 2.57 140 17:45 24.02.2021
2180 Smoke 31 1011 33 3000 2.57 30 17:25 24.02.2021
2181 Smoke 31 1011 35 3000 2.06 40 16:48 24.02.2021
2182 Smoke 32 1010 31 3000 2.57 350 16:21 24.02.2021
2183 Smoke 32 1010 31 3000 4.63 330 15:55 24.02.2021
2184 Smoke 31 1010 35 3000 3.6 330 15:34 24.02.2021
2185 Smoke 31 1009 35 3000 3.09 330 14:50 24.02.2021
2186 Smoke 32 1009 33 3000 3.6 310 14:29 24.02.2021
2187 Smoke 32 1009 29 3000 3.6 310 13:44 24.02.2021
2188 Smoke 33 1009 29 3000 4.12 310 13:24 24.02.2021
2189 Smoke 33 1008 29 3000 3.6 300 12:58 24.02.2021
2190 Smoke 33 1008 29 3000 3.6 300 12:38 24.02.2021
2191 Smoke 33 1008 27 3000 4.63 280 12:20 24.02.2021
2192 Smoke 33 1008 31 3000 4.12 280 11:33 24.02.2021
2193 Smoke 32 1009 33 3000 4.12 270 10:43 24.02.2021
2194 Smoke 32 1009 31 2500 5.14 260 10:24 24.02.2021
2195 Smoke 33 1010 43 3000 4.14 300 09:26 24.02.2021
2196 Smoke 33 1011 36 2500 5.66 250 08:50 24.02.2021
2197 Smoke 34 1011 26 2500 3.6 210 08:32 24.02.2021
2198 Smoke 32 1012 29 2500 1.54 320 07:38 24.02.2021
2199 Smoke 32 1012 29 2500 1.54 320 07:18 24.02.2021
2200 Smoke 30 1012 42 2100 3.42 22 05:26 24.02.2021
2201 Smoke 26 1010 65 2500 2.06 20 01:59 24.02.2021
2202 Smoke 26 1009 61 2500 3.13 357 23:39 23.02.2021
2203 Smoke 26 1010 61 2500 2.78 356 22:46 23.02.2021
2204 Smoke 27 1010 57 2500 2.21 1 22:23 23.02.2021
2205 Smoke 27 1010 54 2500 2.21 1 21:48 23.02.2021
2206 Smoke 28 1011 51 2500 1.93 12 21:25 23.02.2021
2207 Smoke 28 1011 51 2500 1.93 12 20:57 23.02.2021
2208 Smoke 29 1012 42 3000 1.93 12 20:37 23.02.2021
2209 Smoke 29 1012 42 3000 2.02 17 20:19 23.02.2021
2210 Smoke 28 1012 47 3000 1.99 17 19:42 23.02.2021
2211 Smoke 28 1012 44 3000 1.65 20 19:24 23.02.2021
2212 Smoke 30 1012 37 3000 2.06 120 18:44 23.02.2021
2213 Smoke 30 1012 37 3000 1.54 140 18:24 23.02.2021
2214 Smoke 30 1012 37 3000 2.57 140 17:51 23.02.2021
2215 Smoke 30 1012 32 3000 1.54 80 17:27 23.02.2021
2216 Smoke 30 1011 35 3000 2.57 40 16:45 23.02.2021
2217 Smoke 30 1011 35 3000 2.57 40 16:23 23.02.2021
2218 Smoke 31 1011 35 3000 3.6 340 15:46 23.02.2021
2219 Smoke 30 1010 37 3000 3.6 340 15:28 23.02.2021
2220 Smoke 30 1010 42 3000 3.6 330 14:50 23.02.2021
2221 Smoke 30 1010 48 3000 3.6 310 14:28 23.02.2021
2222 Smoke 31 1009 51 3000 3.6 300 13:59 23.02.2021
2223 Smoke 31 1009 51 3000 3.6 300 13:35 23.02.2021
2224 Smoke 32 1009 38 3000 5.14 290 12:57 23.02.2021
2225 Smoke 32 1009 35 2500 4.63 280 12:28 23.02.2021
2226 Smoke 33 1009 33 2000 4.12 290 11:58 23.02.2021
2227 Smoke 32 1010 38 2000 4.63 270 11:26 23.02.2021
2228 Smoke 32 1010 38 1800 5.66 260 10:56 23.02.2021
2229 Smoke 32 1010 55 2500 3.09 260 10:38 23.02.2021
2230 Smoke 31 1011 45 2200 5.14 260 09:58 23.02.2021
2231 Smoke 31 1011 45 2200 5.14 260 09:38 23.02.2021
2232 Smoke 32 1012 43 2200 5.14 260 09:20 23.02.2021
2233 Smoke 32 1012 43 2200 5.14 260 09:20 23.02.2021
2234 Smoke 32 1012 31 2200 1.54 0 08:44 23.02.2021
2235 Smoke 32 1013 31 2500 2.06 50 08:20 23.02.2021
2236 Smoke 31 1015 42 2200 3.09 150 06:52 23.02.2021
2237 Smoke 29 1015 42 2200 3.09 140 05:25 23.02.2021
2238 Smoke 26 1012 53 3000 3.46 10 02:37 23.02.2021
2239 Smoke 26 1011 53 3000 3.19 7 01:55 23.02.2021
2240 Smoke 26 1011 50 3000 1.5 30 00:19 23.02.2021
2241 Smoke 27 1011 47 3000 1.59 61 23:28 22.02.2021
2242 Smoke 26 1012 50 3000 1.59 61 22:42 22.02.2021
2243 Smoke 27 1012 47 3000 1.86 32 22:22 22.02.2021
2244 Smoke 27 1012 47 3000 1.86 32 21:56 22.02.2021
2245 Smoke 28 1012 44 3000 1.87 31 21:38 22.02.2021
2246 Smoke 28 1012 44 3000 2.52 18 21:19 22.02.2021
2247 Smoke 28 1013 44 3000 2.52 18 20:43 22.02.2021
2248 Smoke 29 1013 42 3000 2.74 30 20:24 22.02.2021
2249 Smoke 29 1013 42 3000 2.74 30 19:44 22.02.2021
2250 Smoke 29 1014 39 3000 3.5 29 19:26 22.02.2021
2251 Smoke 29 1014 42 3000 3.5 29 18:47 22.02.2021
2252 Smoke 29 1014 42 3000 2.57 350 18:29 22.02.2021
2253 Smoke 29 1014 42 3000 3.2 14 17:48 22.02.2021
2254 Smoke 29 1014 42 3000 3.48 356 17:19 22.02.2021
2255 Smoke 29 1013 51 3000 3.09 340 16:48 22.02.2021
2256 Smoke 29 1013 51 3000 3.09 340 16:25 22.02.2021
2257 Smoke 30 1012 48 3000 3.6 350 15:31 22.02.2021
2258 Smoke 30 1012 48 3000 4.12 330 14:50 22.02.2021
2259 Smoke 30 1011 48 3000 4.12 310 14:32 22.02.2021
2260 Smoke 30 1011 42 4000 4.63 280 13:51 22.02.2021
2261 Smoke 31 1011 45 4000 5.66 280 13:29 22.02.2021
2262 Smoke 31 1011 43 5000 4.63 300 12:47 22.02.2021
2263 Smoke 31 1011 43 5000 5.14 280 12:22 22.02.2021
2264 Smoke 31 1011 45 5000 5.14 280 11:51 22.02.2021
2265 Smoke 32 1011 40 5000 5.14 270 11:29 22.02.2021
2266 Smoke 32 1011 40 4000 5.66 260 10:51 22.02.2021
2267 Smoke 32 1011 43 4000 5.66 270 10:33 22.02.2021
2268 Smoke 33 1012 38 4000 4.63 280 09:57 22.02.2021
2269 Smoke 33 1012 38 4000 4.63 280 09:36 22.02.2021
2270 Smoke 34 1012 29 4000 3.6 100 09:18 22.02.2021
2271 Smoke 34 1013 31 4000 2.06 140 08:40 22.02.2021
2272 Smoke 34 1014 33 3500 2.57 80 08:20 22.02.2021
2273 Smoke 32 1015 35 3000 2.57 170 07:39 22.02.2021
2274 Smoke 32 1015 35 3000 3.6 180 07:18 22.02.2021
2275 Smoke 32 1016 35 2500 2.57 80 06:24 22.02.2021
2276 Smoke 27 1015 44 3000 3.6 120 03:49 22.02.2021
2277 Smoke 27 1014 44 3000 2.06 160 03:20 22.02.2021
2278 Smoke 27 1012 41 3000 2.55 84 00:53 22.02.2021
2279 Smoke 27 1012 41 3000 2.56 53 00:28 22.02.2021
2280 Smoke 27 1012 44 3000 1.54 100 23:52 21.02.2021
2281 Smoke 28 1013 42 3000 1.54 80 22:59 21.02.2021
2282 Smoke 27 1013 44 3000 1.89 8 22:27 21.02.2021
2283 Smoke 26 1013 47 3000 1.89 8 21:52 21.02.2021
2284 Smoke 28 1013 39 3000 2.57 90 21:33 21.02.2021
2285 Smoke 27 1013 47 3000 2.49 357 20:57 21.02.2021
2286 Smoke 27 1013 47 3000 2.83 339 20:23 21.02.2021
2287 Smoke 27 1014 47 3000 2.83 339 19:59 21.02.2021
2288 Smoke 27 1014 47 3000 3.33 327 19:40 21.02.2021
2289 Smoke 28 1014 44 3000 3.69 316 19:21 21.02.2021
2290 Smoke 29 1014 37 3000 3.09 350 18:29 21.02.2021
2291 Smoke 29 1014 37 3000 2.57 350 17:58 21.02.2021
2292 Smoke 30 1013 35 3000 3.6 360 17:26 21.02.2021
2293 Smoke 30 1013 35 3000 3.6 10 16:53 21.02.2021
2294 Smoke 30 1013 37 3000 3.6 30 16:31 21.02.2021
2295 Smoke 30 1012 35 3000 3.6 360 15:47 21.02.2021
2296 Smoke 30 1012 39 3000 5.14 350 15:19 21.02.2021
2297 Smoke 30 1012 39 3000 5.66 340 14:41 21.02.2021
2298 Smoke 30 1011 45 3000 5.14 340 14:20 21.02.2021
2299 Smoke 30 1011 42 4000 3.6 320 13:45 21.02.2021
2300 Smoke 32 1011 35 4000 3.09 320 13:22 21.02.2021
2301 Smoke 31 1010 35 4000 4.63 300 12:29 21.02.2021
2302 Smoke 33 1010 33 5000 4.12 240 11:44 21.02.2021
2303 Smoke 33 1011 31 5000 1.54 130 10:58 21.02.2021
2304 Smoke 34 1011 27 5000 3.09 130 10:23 21.02.2021
2305 Smoke 34 1012 27 5000 3.6 120 09:55 21.02.2021
2306 Smoke 34 1012 26 5000 3.6 60 09:29 21.02.2021
2307 Smoke 33 1013 27 4000 6.69 100 08:54 21.02.2021
2308 Smoke 33 1014 29 4000 4.12 140 08:20 21.02.2021
2309 Smoke 32 1014 31 3000 3.6 130 07:35 21.02.2021
2310 Smoke 31 1015 33 3000 4.63 110 06:53 21.02.2021
2311 Smoke 25 1014 44 3000 2.57 70 03:36 21.02.2021
2312 Clouds 25 1013 44 3000 3.6 60 02:29 21.02.2021
2313 Smoke 27 1012 39 3000 2.06 50 00:43 21.02.2021
2314 Smoke 27 1012 39 3000 3.09 50 00:19 21.02.2021
2315 Smoke 28 1012 34 3000 2.57 50 23:25 20.02.2021
2316 Smoke 28 1012 34 3000 3.6 50 22:44 20.02.2021
2317 Smoke 28 1012 34 3000 4.12 50 22:25 20.02.2021
2318 Smoke 27 1012 36 3000 3.6 40 21:45 20.02.2021
2319 Smoke 27 1013 36 3000 3.09 30 21:24 20.02.2021
2320 Smoke 27 1013 39 3000 3.6 40 20:46 20.02.2021
2321 Smoke 27 1013 41 3000 2.57 50 20:22 20.02.2021
2322 Smoke 27 1013 44 3000 3.21 27 19:52 20.02.2021
2323 Smoke 27 1014 44 3000 1.54 80 19:30 20.02.2021
2324 Smoke 27 1014 50 3000 3.79 12 18:41 20.02.2021
2325 Smoke 27 1014 50 3000 5 359 18:21 20.02.2021
2326 Smoke 28 1014 51 3000 2.57 340 17:39 20.02.2021
2327 Smoke 28 1013 51 3000 1.54 340 16:57 20.02.2021
2328 Smoke 28 1013 47 3000 3.6 340 16:32 20.02.2021
2329 Smoke 28 1013 47 3000 3.6 330 15:55 20.02.2021
2330 Smoke 28 1013 47 3000 3.6 330 15:36 20.02.2021
2331 Smoke 29 1012 48 3000 4.12 330 14:48 20.02.2021
2332 Smoke 29 1012 48 4000 4.12 340 14:24 20.02.2021
2333 Smoke 29 1012 45 4000 5.14 330 13:48 20.02.2021
2334 Smoke 29 1011 42 4000 4.63 300 13:24 20.02.2021
2335 Smoke 29 1011 48 4000 6.17 300 12:50 20.02.2021
2336 Smoke 30 1011 37 5000 6.17 270 12:24 20.02.2021
2337 Smoke 31 1011 37 5000 6.17 270 11:44 20.02.2021
2338 Smoke 32 1011 33 5000 2.57 280 11:25 20.02.2021
2339 Smoke 33 1011 24 5000 2.06 130 10:50 20.02.2021
2340 Smoke 32 1012 25 5000 5.14 130 09:55 20.02.2021
2341 Smoke 32 1013 27 5000 5.14 110 09:30 20.02.2021
2342 Smoke 32 1013 27 5000 5.66 100 08:48 20.02.2021
2343 Smoke 31 1014 29 4000 3.6 90 08:18 20.02.2021
2344 Smoke 23 1015 47 3000 3.09 50 03:33 20.02.2021
2345 Smoke 24 1013 53 2500 4.12 80 02:28 20.02.2021
2346 Smoke 24 1013 53 2500 2.57 50 01:49 20.02.2021
2347 Smoke 24 1013 60 2500 1.54 80 00:45 20.02.2021
2348 Smoke 24 1013 57 2500 1.54 50 00:23 20.02.2021
2349 Haze 25 1013 57 2500 1.54 120 23:19 19.02.2021
2350 Haze 25 1013 65 2500 2.57 110 22:28 19.02.2021
2351 Haze 25 1013 65 2500 3.09 120 21:58 19.02.2021
2352 Haze 26 1014 61 2500 2.06 90 21:32 19.02.2021
2353 Haze 26 1014 61 2500 2.06 80 20:57 19.02.2021
2354 Haze 26 1014 61 2500 2.06 80 20:37 19.02.2021
2355 Haze 26 1014 61 2500 3.6 120 20:18 19.02.2021
2356 Haze 26 1014 61 2500 2.06 100 19:41 19.02.2021
2357 Smoke 27 1014 54 2500 2.06 90 19:19 19.02.2021
2358 Smoke 27 1015 54 2500 4.04 86 18:42 19.02.2021
2359 Smoke 27 1015 50 2500 2.06 40 18:23 19.02.2021
2360 Smoke 28 1014 44 2500 3.09 340 17:24 19.02.2021
2361 Smoke 28 1014 44 2500 2.06 320 16:39 19.02.2021
2362 Smoke 28 1014 44 2500 2.06 320 16:20 19.02.2021
2363 Smoke 28 1014 47 2500 4.12 70 15:47 19.02.2021
2364 Smoke 28 1013 54 2500 3.09 310 15:27 19.02.2021
2365 Smoke 28 1012 54 2500 3.6 330 14:44 19.02.2021
2366 Smoke 28 1012 54 2500 3.09 310 14:26 19.02.2021
2367 Smoke 28 1012 57 3000 3.6 300 13:53 19.02.2021
2368 Smoke 29 1012 54 3000 5.14 330 13:25 19.02.2021
2369 Smoke 29 1012 54 3000 3.09 290 12:52 19.02.2021
2370 Smoke 29 1011 48 3000 6.17 290 12:24 19.02.2021
2371 Smoke 30 1011 42 3000 4.63 290 11:53 19.02.2021
2372 Smoke 30 1012 40 3000 5.14 260 11:26 19.02.2021
2373 Smoke 30 1012 42 3000 5.66 270 10:54 19.02.2021
2374 Smoke 31 1012 31 3000 3.6 305 10:30 19.02.2021
2375 Smoke 31 1013 33 3000 1.54 50 09:51 19.02.2021
2376 Smoke 32 1013 33 3000 3.09 140 09:26 19.02.2021
2377 Smoke 31 1014 35 3000 2.57 80 08:54 19.02.2021
2378 Smoke 31 1014 35 3000 4.12 100 08:25 19.02.2021
2379 Smoke 30 1015 39 2500 3.6 110 07:49 19.02.2021
2380 Smoke 29 1015 39 2500 5.66 120 07:31 19.02.2021
2381 Smoke 29 1015 42 2500 3.6 110 06:54 19.02.2021
2382 Smoke 27 1015 41 3000 3.09 70 05:41 19.02.2021
2383 Smoke 25 1015 53 2500 3.6 280 04:41 19.02.2021
2384 Haze 24 1013 60 3000 3.09 40 01:48 19.02.2021
2385 Smoke 23 1012 60 3000 3.09 80 00:37 19.02.2021
2386 Smoke 23 1012 60 3000 4.12 80 23:56 18.02.2021
2387 Smoke 24 1012 57 3000 3.6 110 23:35 18.02.2021
2388 Smoke 24 1012 60 3000 3.09 120 22:51 18.02.2021
2389 Smoke 24 1012 60 3000 2.57 110 22:30 18.02.2021
2390 Smoke 24 1012 57 3000 3.6 100 21:56 18.02.2021
2391 Smoke 25 1012 53 3000 2.06 100 21:28 18.02.2021
2392 Smoke 25 1012 50 3000 2.06 140 20:57 18.02.2021
2393 Haze 25 1013 50 3000 3.42 26 20:38 18.02.2021
2394 Haze 25 1013 50 3000 2.57 100 20:18 18.02.2021
2395 Clouds 24 1013 57 3000 3.09 140 19:41 18.02.2021
2396 Clouds 24 1013 57 3000 3.09 140 19:19 18.02.2021
2397 Clouds 24 1014 60 3000 3.09 80 18:43 18.02.2021
2398 Clouds 23 1014 68 2500 3.09 110 18:25 18.02.2021
2399 Clouds 23 1014 68 2500 4.63 110 17:43 18.02.2021
2400 Clouds 23 1014 68 2500 4.63 110 17:23 18.02.2021
2401 Drizzle 24 1014 60 2500 3.6 130 16:42 18.02.2021
2402 Haze 27 1014 54 2500 4.63 110 16:22 18.02.2021
2403 Haze 28 1013 61 2500 2.57 100 15:41 18.02.2021
2404 Haze 28 1012 61 2500 3.09 20 15:22 18.02.2021
2405 Haze 28 1011 65 2500 2.06 290 14:50 18.02.2021
2406 Haze 28 1010 61 2500 4.12 260 14:29 18.02.2021
2407 Smoke 29 1009 58 2500 4.12 240 13:46 18.02.2021
2408 Smoke 29 1009 58 2500 3.6 270 13:20 18.02.2021
2409 Smoke 29 1009 54 3000 4.12 260 12:53 18.02.2021
2410 Smoke 30 1009 51 3000 5.14 250 12:25 18.02.2021
2411 Smoke 30 1009 51 3000 4.63 270 11:47 18.02.2021
2412 Smoke 30 1009 51 3000 4.63 270 11:47 18.02.2021
2413 Smoke 30 1009 51 3000 4.63 270 11:27 18.02.2021
2414 Smoke 30 1009 48 3000 4.12 270 10:52 18.02.2021
2415 Smoke 30 1009 48 3000 4.12 270 10:34 18.02.2021
2416 Smoke 30 1010 51 3000 4.63 250 09:51 18.02.2021
2417 Smoke 30 1011 48 3000 5.14 250 09:27 18.02.2021
2418 Smoke 31 1011 35 3000 4.46 302 08:48 18.02.2021
2419 Smoke 31 1012 37 3000 2.57 110 08:29 18.02.2021
2420 Smoke 30 1013 40 2500 1.54 120 07:42 18.02.2021
2421 Smoke 30 1013 42 2500 2.57 70 07:18 18.02.2021
2422 Haze 27 1013 54 2200 2.06 80 05:29 18.02.2021
2423 Haze 24 1010 78 2200 2.71 346 23:57 17.02.2021
2424 Haze 24 1010 78 2200 2.71 346 23:38 17.02.2021
2425 Haze 24 1010 83 2200 1.54 40 22:57 17.02.2021
2426 Haze 24 1010 83 2200 1.54 40 22:38 17.02.2021
2427 Haze 25 1010 73 2200 2.06 80 22:18 17.02.2021
2428 Haze 25 1010 73 2200 1.54 60 21:41 17.02.2021
2429 Haze 25 1010 73 2200 1.54 60 21:19 17.02.2021
2430 Haze 25 1011 69 2500 1.53 0 20:40 17.02.2021
2431 Haze 25 1011 69 2500 1.27 16 19:56 17.02.2021
2432 Haze 25 1011 69 3000 1.27 16 19:36 17.02.2021
2433 Haze 25 1011 69 3000 1.35 339 18:57 17.02.2021
2434 Haze 25 1011 69 3000 1.35 339 18:34 17.02.2021
2435 Haze 26 1011 65 3000 1.54 320 17:47 17.02.2021
2436 Haze 26 1011 65 3000 2.57 20 17:22 17.02.2021
2437 Haze 26 1011 65 3000 2.57 20 16:52 17.02.2021
2438 Haze 26 1011 65 3000 2.57 320 16:29 17.02.2021
2439 Smoke 26 1010 65 3000 2.57 300 15:56 17.02.2021
2440 Smoke 26 1010 65 3000 3.09 20 15:37 17.02.2021
2441 Smoke 26 1010 65 3000 3.09 20 15:19 17.02.2021
2442 Smoke 26 1010 65 3000 3.09 300 14:41 17.02.2021
2443 Smoke 27 1009 61 3000 5.14 290 14:23 17.02.2021
2444 Smoke 27 1009 65 4000 4.12 300 13:42 17.02.2021
2445 Smoke 28 1009 61 4000 6.17 290 12:59 17.02.2021
2446 Smoke 27 1009 65 4000 4.63 310 12:26 17.02.2021
2447 Smoke 27 1009 65 4000 4.63 310 12:26 17.02.2021
2448 Smoke 28 1009 61 4000 5.14 300 11:49 17.02.2021
2449 Smoke 28 1009 58 3500 5.14 280 11:30 17.02.2021
2450 Smoke 28 1009 54 3500 6.17 290 10:59 17.02.2021
2451 Smoke 28 1010 61 3000 4.63 280 10:40 17.02.2021
2452 Smoke 28 1010 61 3000 4.63 280 10:20 17.02.2021
2453 Smoke 29 1011 58 3000 7.2 280 09:41 17.02.2021
2454 Smoke 29 1011 58 3000 7.2 280 09:18 17.02.2021
2455 Smoke 28 1011 61 3000 6.17 280 08:42 17.02.2021
2456 Smoke 28 1012 61 3000 6.69 260 08:20 17.02.2021
2457 Smoke 29 1013 51 3000 1.54 280 07:25 17.02.2021
2458 Mist 23 1013 83 2200 2.06 340 03:55 17.02.2021
2459 Haze 23 1012 83 2500 2.06 350 02:33 17.02.2021
2460 Haze 23 1011 83 2500 2.06 10 01:49 17.02.2021
2461 Haze 23 1011 83 2500 3.53 353 00:32 17.02.2021
2462 Haze 23 1011 83 2500 2.57 340 23:53 16.02.2021
2463 Haze 23 1011 83 2500 2.57 340 23:34 16.02.2021
2464 Haze 23 1011 83 3000 2.06 10 22:42 16.02.2021
2465 Haze 23 1011 83 3000 2.06 10 22:23 16.02.2021
2466 Haze 24 1011 78 3000 1.54 360 21:42 16.02.2021
2467 Haze 24 1012 73 3000 2.06 350 21:22 16.02.2021
2468 Haze 24 1012 73 3000 1.54 20 20:58 16.02.2021
2469 Haze 24 1012 73 3000 1.54 20 20:39 16.02.2021
2470 Haze 24 1012 73 3000 2.06 10 20:20 16.02.2021
2471 Haze 24 1012 73 3000 2.06 10 19:40 16.02.2021
2472 Haze 25 1013 69 3000 1.54 360 19:22 16.02.2021
2473 Haze 25 1013 69 3000 1.54 310 18:40 16.02.2021
2474 Haze 25 1013 69 3000 1.54 310 18:21 16.02.2021
2475 Haze 25 1013 69 3000 2.57 300 17:49 16.02.2021
2476 Haze 25 1012 73 3000 2.57 310 17:25 16.02.2021
2477 Haze 25 1012 73 3000 3.09 320 16:51 16.02.2021
2478 Haze 25 1012 73 3000 3.09 310 16:27 16.02.2021
2479 Haze 25 1011 73 3000 3.09 300 15:47 16.02.2021
2480 Haze 25 1011 78 2500 3.6 320 15:26 16.02.2021
2481 Haze 25 1011 73 2500 4.12 300 14:50 16.02.2021
2482 Haze 25 1010 73 3000 5.66 300 14:32 16.02.2021
2483 Haze 26 1010 69 4000 5.14 290 13:58 16.02.2021
2484 Haze 26 1010 69 4000 5.14 290 13:34 16.02.2021
2485 Haze 27 1009 65 4000 6.17 290 12:47 16.02.2021
2486 Haze 27 1009 65 4000 6.69 280 12:26 16.02.2021
2487 Haze 27 1009 65 3500 5.14 290 11:50 16.02.2021
2488 Haze 27 1009 65 3500 6.17 290 11:24 16.02.2021
2489 Haze 28 1010 65 3500 5.66 300 10:57 16.02.2021
2490 Haze 28 1010 65 3500 5.66 300 10:38 16.02.2021
2491 Haze 28 1010 65 3500 7.2 290 10:20 16.02.2021
2492 Haze 28 1011 65 3000 5.14 260 09:47 16.02.2021
2493 Haze 27 1011 69 3000 5.14 250 09:26 16.02.2021
2494 Haze 28 1012 65 3000 5.14 260 08:45 16.02.2021
2495 Haze 28 1012 65 3000 5.14 260 08:45 16.02.2021
2496 Haze 27 1012 69 3000 4.63 260 08:22 16.02.2021
2497 Haze 27 1013 69 3000 4.12 270 07:27 16.02.2021
2498 Haze 27 1014 69 3000 1.54 260 06:21 16.02.2021
2499 Haze 23 1011 88 3000 4.22 354 01:21 16.02.2021
2500 Haze 23 1011 88 3000 2.06 20 23:46 15.02.2021
2501 Haze 24 1011 83 3000 1.54 20 23:24 15.02.2021
2502 Haze 24 1011 83 3000 1.54 20 22:44 15.02.2021
2503 Haze 24 1011 83 3000 1.54 350 22:23 15.02.2021
2504 Haze 24 1012 78 3000 3.61 347 21:42 15.02.2021
2505 Haze 24 1012 78 3000 3.61 349 21:22 15.02.2021
2506 Haze 24 1012 78 3000 1.54 310 20:49 15.02.2021
2507 Haze 25 1012 73 3000 3.83 349 20:29 15.02.2021
2508 Haze 25 1012 73 3000 1.54 350 19:48 15.02.2021
2509 Haze 25 1012 73 3000 2.06 340 19:24 15.02.2021
2510 Haze 25 1012 73 3000 2.06 340 19:24 15.02.2021
2511 Haze 25 1012 73 3000 3.6 340 18:47 15.02.2021
2512 Haze 25 1012 69 3000 1.54 320 18:26 15.02.2021
2513 Haze 25 1012 69 3000 2.57 330 17:44 15.02.2021
2514 Haze 25 1012 69 3000 2.57 340 17:26 15.02.2021
2515 Haze 26 1012 61 3000 2.57 340 16:57 15.02.2021
2516 Haze 26 1011 65 3000 2.57 340 16:28 15.02.2021
2517 Haze 26 1011 65 2500 3.09 320 15:58 15.02.2021
2518 Haze 26 1010 69 2500 2.57 310 15:40 15.02.2021
2519 Haze 26 1010 69 2500 2.57 310 15:18 15.02.2021
2520 Haze 26 1010 69 2500 3.6 310 14:39 15.02.2021
2521 Haze 26 1010 69 3000 4.63 300 14:19 15.02.2021
2522 Haze 27 1010 61 3000 5.14 300 13:47 15.02.2021
2523 Haze 27 1010 65 3000 5.14 340 13:20 15.02.2021
2524 Haze 28 1010 61 3500 6.17 280 12:45 15.02.2021
2525 Smoke 28 1010 51 3500 4.12 300 12:21 15.02.2021
2526 Haze 28 1010 58 3500 5.66 280 11:45 15.02.2021
2527 Haze 28 1010 61 4000 5.66 300 11:22 15.02.2021
2528 Haze 28 1010 61 4000 5.66 300 11:22 15.02.2021
2529 Haze 28 1011 61 4000 5.66 280 10:49 15.02.2021
2530 Smoke 28 1011 61 4000 5.14 260 10:25 15.02.2021
2531 Smoke 28 1011 61 4000 5.14 260 10:25 15.02.2021
2532 Smoke 29 1011 58 4000 6.17 260 09:55 15.02.2021
2533 Smoke 29 1011 58 4000 6.17 260 09:33 15.02.2021
2534 Smoke 29 1012 54 4000 6.17 250 08:50 15.02.2021
2535 Smoke 29 1013 51 3500 3.09 280 07:49 15.02.2021
2536 Smoke 28 1014 54 3500 2.57 270 06:59 15.02.2021
2537 Smoke 28 1014 54 3500 2.57 270 06:39 15.02.2021
2538 Haze 24 1012 69 3000 1.54 360 02:32 15.02.2021
2539 Haze 24 1012 69 3000 1.54 360 02:32 15.02.2021
2540 Haze 24 1012 69 3000 4.4 1 00:46 15.02.2021
2541 Smoke 24 1012 64 3000 4.9 353 23:42 14.02.2021
2542 Smoke 24 1012 64 3000 4.81 346 23:22 14.02.2021
2543 Smoke 25 1012 61 3000 2.06 10 22:39 14.02.2021
2544 Smoke 25 1012 61 3000 2.06 10 22:19 14.02.2021
2545 Smoke 25 1012 61 3000 1.54 360 21:48 14.02.2021
2546 Smoke 25 1012 57 3000 1.54 0 21:29 14.02.2021
2547 Smoke 26 1013 50 3000 3.6 330 20:46 14.02.2021
2548 Smoke 26 1013 47 3000 2.06 320 20:26 14.02.2021
2549 Smoke 26 1013 50 3000 2.57 320 19:47 14.02.2021
2550 Smoke 26 1013 57 3000 2.06 350 18:52 14.02.2021
2551 Smoke 26 1013 57 3000 2.06 350 18:34 14.02.2021
2552 Smoke 26 1013 61 3000 2.57 350 17:56 14.02.2021
2553 Smoke 26 1013 61 3000 2.57 350 17:35 14.02.2021
2554 Smoke 27 1013 50 3000 4.63 340 16:55 14.02.2021
2555 Smoke 27 1012 54 3000 2.06 300 16:29 14.02.2021
2556 Smoke 27 1012 54 3000 2.06 320 15:49 14.02.2021
2557 Haze 27 1012 61 3000 3.09 300 15:31 14.02.2021
2558 Haze 27 1011 61 3000 3.6 300 14:48 14.02.2021
2559 Smoke 28 1011 54 3000 3.09 320 14:27 14.02.2021
2560 Smoke 28 1011 57 3000 3.6 310 13:49 14.02.2021
2561 Haze 27 1010 65 4000 4.12 310 13:27 14.02.2021
2562 Smoke 29 1010 54 3000 4.12 310 12:38 14.02.2021
2563 Smoke 29 1010 51 3000 6.17 280 12:19 14.02.2021
2564 Smoke 29 1010 51 3000 6.17 280 11:49 14.02.2021
2565 Haze 29 1010 61 3000 7.2 260 11:21 14.02.2021
2566 Smoke 29 1011 58 3000 5.66 260 10:35 14.02.2021
2567 Smoke 29 1011 54 3000 4.63 250 09:55 14.02.2021
2568 Smoke 29 1012 54 3000 5.14 260 09:37 14.02.2021
2569 Smoke 29 1012 54 3000 5.14 260 09:19 14.02.2021
2570 Smoke 28 1012 58 3000 4.63 260 08:35 14.02.2021
2571 Smoke 29 1014 42 3000 1.54 330 07:54 14.02.2021
2572 Smoke 28 1015 47 2500 2.06 310 06:37 14.02.2021
2573 Haze 25 1014 61 1800 2.71 30 04:52 14.02.2021
2574 Haze 23 1013 64 2500 1.54 140 03:23 14.02.2021
2575 Haze 24 1013 69 2500 2.06 10 01:33 14.02.2021
2576 Haze 24 1013 73 2500 1.54 350 00:45 14.02.2021
2577 Haze 24 1012 73 2500 3.7 354 23:59 13.02.2021
2578 Haze 24 1012 73 2500 3.76 354 23:37 13.02.2021
2579 Haze 24 1013 73 2500 3.63 359 23:19 13.02.2021
2580 Haze 25 1013 69 2500 2.06 360 22:32 13.02.2021
2581 Haze 25 1013 69 3000 3.09 350 21:53 13.02.2021
2582 Haze 25 1013 69 3000 3.09 350 21:34 13.02.2021
2583 Haze 25 1013 69 3000 1.54 280 20:49 13.02.2021
2584 Haze 25 1013 69 3000 3.04 323 20:28 13.02.2021
2585 Haze 25 1014 69 3000 2.06 350 19:49 13.02.2021
2586 Haze 25 1014 69 3000 2.06 330 19:24 13.02.2021
2587 Haze 26 1014 69 3000 2.06 330 18:50 13.02.2021
2588 Haze 26 1014 69 3000 1.54 300 18:28 13.02.2021
2589 Haze 26 1014 69 3000 2.06 330 17:44 13.02.2021
2590 Haze 26 1014 65 3000 2.57 20 17:25 13.02.2021
2591 Haze 26 1013 69 3000 3.6 340 16:55 13.02.2021
2592 Haze 26 1013 69 3000 3.6 340 16:37 13.02.2021
2593 Haze 26 1013 73 3000 2.06 300 15:46 13.02.2021
2594 Haze 27 1012 69 3000 3.09 310 15:26 13.02.2021
2595 Haze 27 1011 69 4000 4.63 280 14:41 13.02.2021
2596 Smoke 28 1011 61 4000 5.14 290 13:54 13.02.2021
2597 Smoke 29 1011 54 5000 5.66 280 13:29 13.02.2021
2598 Smoke 29 1011 54 5000 5.66 280 12:57 13.02.2021
2599 Smoke 29 1011 54 5000 5.66 260 12:23 13.02.2021
2600 Smoke 29 1011 54 5000 5.14 280 11:58 13.02.2021
2601 Smoke 29 1011 51 5000 6.69 260 11:39 13.02.2021
2602 Smoke 29 1011 51 5000 6.69 260 11:18 13.02.2021
2603 Smoke 30 1011 45 4000 5.14 290 10:43 13.02.2021
2604 Smoke 30 1011 45 4000 5.14 290 10:43 13.02.2021
2605 Smoke 30 1011 42 4000 5.66 270 10:22 13.02.2021
2606 Smoke 29 1011 45 4000 5.66 250 09:46 13.02.2021
2607 Smoke 30 1012 37 4000 4.12 280 09:28 13.02.2021
2608 Smoke 30 1012 33 3500 4.12 280 08:47 13.02.2021
2609 Smoke 29 1013 32 3500 3.6 260 08:19 13.02.2021
2610 Smoke 29 1013 28 3500 4.12 260 07:23 13.02.2021
2611 Smoke 29 1014 26 3000 1.54 310 06:24 13.02.2021
2612 Smoke 24 1013 38 3000 3.02 34 04:31 13.02.2021
2613 Smoke 24 1012 43 3000 3.08 359 02:41 13.02.2021
2614 Smoke 24 1011 41 3000 2.58 358 00:57 13.02.2021
2615 Smoke 24 1011 41 3000 2.58 358 00:57 13.02.2021
2616 Smoke 25 1011 33 3000 1.54 10 00:19 13.02.2021
2617 Smoke 25 1011 38 3000 2.35 9 23:45 12.02.2021
2618 Smoke 25 1011 36 3000 1.54 10 23:19 12.02.2021
2619 Smoke 24 1011 50 3000 2.52 359 22:32 12.02.2021
2620 Smoke 24 1012 53 3000 2.2 356 21:59 12.02.2021
2621 Smoke 24 1012 53 3000 2.2 356 21:40 12.02.2021
2622 Smoke 25 1012 50 3000 1.55 3 21:21 12.02.2021
2623 Smoke 26 1012 50 3000 1.55 3 20:41 12.02.2021
2624 Smoke 26 1012 50 3000 1.16 24 20:23 12.02.2021
2625 Haze 25 1012 57 3000 1.54 270 19:54 12.02.2021
2626 Haze 25 1013 65 3000 1.54 310 19:29 12.02.2021
2627 Haze 26 1013 61 3000 2.06 300 18:35 12.02.2021
2628 Haze 26 1013 65 2500 2.06 30 17:56 12.02.2021
2629 Haze 26 1013 65 2500 2.06 30 17:38 12.02.2021
2630 Haze 27 1012 61 2500 2.06 310 16:53 12.02.2021
2631 Haze 27 1011 61 2500 3.6 310 16:18 12.02.2021
2632 Haze 27 1011 61 2500 3.6 290 15:43 12.02.2021
2633 Haze 27 1010 61 2500 4.12 300 15:20 12.02.2021
2634 Smoke 27 1010 54 2500 4.12 310 14:36 12.02.2021
2635 Smoke 28 1010 51 3000 4.12 300 13:49 12.02.2021
2636 Smoke 28 1009 51 3000 4.63 290 13:29 12.02.2021
2637 Smoke 29 1009 37 3000 6.17 280 12:53 12.02.2021
2638 Smoke 30 1009 42 3000 3.6 300 12:35 12.02.2021
2639 Smoke 30 1009 35 3000 4.63 300 11:48 12.02.2021
2640 Smoke 30 1009 35 2500 3.6 280 11:22 12.02.2021
2641 Smoke 30 1009 42 2500 3.6 280 10:48 12.02.2021
2642 Smoke 29 1010 48 2500 4.63 260 10:19 12.02.2021
2643 Smoke 29 1011 48 2500 3.6 260 09:42 12.02.2021
2644 Smoke 29 1011 48 2500 3.6 260 09:23 12.02.2021
2645 Smoke 29 1011 48 2500 5.14 260 08:45 12.02.2021
2646 Smoke 30 1012 40 2200 4.12 270 08:22 12.02.2021
2647 Smoke 30 1012 31 2200 2.38 309 07:52 12.02.2021
2648 Smoke 29 1012 35 2200 2.06 100 07:24 12.02.2021
2649 Smoke 29 1013 37 1800 3.09 110 06:53 12.02.2021
2650 Smoke 28 1013 44 2200 2.06 120 05:37 12.02.2021
2651 Smoke 24 1011 53 2200 2.29 21 03:35 12.02.2021
2652 Haze 24 1010 64 2500 3.09 100 00:32 12.02.2021
2653 Haze 24 1010 60 2500 2.77 1 23:38 11.02.2021
2654 Haze 24 1010 60 2500 2.6 349 23:18 11.02.2021
2655 Haze 24 1010 60 2500 2.54 349 22:42 11.02.2021
2656 Haze 24 1010 64 2500 1.66 353 22:23 11.02.2021
2657 Haze 24 1010 60 2500 1.68 352 21:43 11.02.2021
2658 Haze 24 1011 64 2500 1.01 32 21:24 11.02.2021
2659 Haze 24 1011 69 2500 1.01 32 20:56 11.02.2021
2660 Haze 24 1011 69 2500 1.01 32 20:37 11.02.2021
2661 Haze 25 1011 69 2500 1.81 24 20:18 11.02.2021
2662 Smoke 25 1011 69 3000 1.81 24 19:46 11.02.2021
2663 Smoke 26 1011 61 3000 2.26 2 19:25 11.02.2021
2664 Smoke 26 1011 53 3000 3.07 3 18:41 11.02.2021
2665 Smoke 26 1011 47 3000 2.92 358 18:19 11.02.2021
2666 Smoke 26 1011 53 3000 2.92 358 17:43 11.02.2021
2667 Smoke 27 1011 50 3000 2.06 220 17:20 11.02.2021
2668 Smoke 27 1010 50 3000 1.54 320 16:44 11.02.2021
2669 Smoke 27 1010 54 3500 2.57 290 16:25 11.02.2021
2670 Smoke 27 1009 47 3500 2.06 290 15:45 11.02.2021
2671 Smoke 28 1009 39 3500 1.54 270 15:26 11.02.2021
2672 Smoke 28 1009 39 3500 1.54 270 15:26 11.02.2021
2673 Smoke 28 1009 39 3500 2.06 300 14:53 11.02.2021
2674 Smoke 28 1008 39 3500 3.09 310 14:31 11.02.2021
2675 Smoke 29 1008 35 3500 3.6 320 13:42 11.02.2021
2676 Smoke 29 1008 37 3500 4.12 320 13:20 11.02.2021
2677 Smoke 30 1008 35 3500 4.63 290 12:56 11.02.2021
2678 Smoke 30 1007 30 3000 4.12 300 12:33 11.02.2021
2679 Smoke 31 1007 42 3000 4.12 270 11:48 11.02.2021
2680 Smoke 30 1008 45 3000 5.14 250 11:27 11.02.2021
2681 Smoke 30 1008 51 3000 5.14 260 10:45 11.02.2021
2682 Smoke 31 1008 31 3000 4.63 240 10:26 11.02.2021
2683 Smoke 32 1009 35 3000 4.63 260 09:59 11.02.2021
2684 Smoke 31 1009 35 3000 4.63 260 09:36 11.02.2021
2685 Smoke 32 1010 17 3000 2.06 100 09:18 11.02.2021
2686 Smoke 32 1010 18 2500 2.57 130 08:43 11.02.2021
2687 Smoke 30 1012 25 2500 3.6 350 07:43 11.02.2021
2688 Smoke 29 1012 30 2200 3.09 20 06:43 11.02.2021
2689 Clouds 26 1013 36 10000 2.02 36 05:54 11.02.2021
2690 Haze 24 1012 53 1800 1.54 30 03:43 11.02.2021
2691 Haze 22 1011 64 2500 2.85 22 02:21 11.02.2021
2692 Haze 23 1010 68 2500 2.64 18 00:23 11.02.2021
2693 Haze 23 1010 64 2500 2.64 18 23:48 10.02.2021
2694 Haze 23 1010 68 2500 2.17 24 23:19 10.02.2021
2695 Haze 23 1010 68 2500 2.19 23 22:43 10.02.2021
2696 Haze 24 1011 64 2500 2.11 44 22:23 10.02.2021
2697 Haze 23 1011 68 2500 2.11 44 21:39 10.02.2021
2698 Haze 24 1011 64 2500 1.92 49 21:20 10.02.2021
2699 Haze 24 1011 64 2500 1.92 49 21:20 10.02.2021
2700 Haze 24 1011 69 2500 1.92 49 20:50 10.02.2021
2701 Haze 25 1012 61 2500 1.67 40 20:28 10.02.2021
2702 Haze 25 1012 57 2500 1.67 40 19:50 10.02.2021
2703 Haze 25 1012 57 2500 1.82 28 19:27 10.02.2021
2704 Haze 25 1012 57 2500 1.82 28 18:48 10.02.2021
2705 Haze 25 1012 61 2500 1.72 37 18:26 10.02.2021
2706 Haze 25 1012 65 2500 2.57 340 17:59 10.02.2021
2707 Haze 26 1012 61 2500 2.57 360 17:27 10.02.2021
2708 Haze 26 1011 57 2500 4.12 350 16:59 10.02.2021
2709 Haze 26 1011 57 2500 4.12 350 16:41 10.02.2021
2710 Haze 26 1011 57 2500 4.12 350 16:41 10.02.2021
2711 Haze 27 1011 50 2500 1.54 330 16:22 10.02.2021
2712 Haze 27 1010 57 2200 2.57 320 15:24 10.02.2021
2713 Haze 27 1010 61 2200 2.57 300 14:53 10.02.2021
2714 Haze 27 1010 61 2200 2.57 300 14:34 10.02.2021
2715 Smoke 28 1010 54 3500 3.6 300 13:55 10.02.2021
2716 Smoke 29 1010 48 3500 3.6 320 13:30 10.02.2021
2717 Smoke 29 1009 39 3500 4.12 280 12:54 10.02.2021
2718 Smoke 29 1009 42 3500 4.63 250 12:31 10.02.2021
2719 Smoke 29 1009 37 3500 5.14 250 11:58 10.02.2021
2720 Smoke 29 1009 39 3500 5.14 250 11:39 10.02.2021
2721 Smoke 29 1009 39 3500 5.14 250 11:21 10.02.2021
2722 Smoke 30 1010 32 3500 4.63 250 10:25 10.02.2021
2723 Smoke 30 1010 37 3000 4.63 260 09:57 10.02.2021
2724 Smoke 30 1011 35 3000 5.14 260 09:33 10.02.2021
2725 Smoke 29 1011 32 3000 4.12 260 08:56 10.02.2021
2726 Smoke 30 1012 33 3000 4.12 270 08:35 10.02.2021
2727 Smoke 30 1013 23 2500 1.54 40 07:39 10.02.2021
2728 Smoke 29 1013 26 2500 2.57 40 06:22 10.02.2021
2729 Haze 22 1011 64 2500 2.97 35 01:37 10.02.2021
2730 Smoke 23 1011 56 2500 3.57 3 00:23 10.02.2021
2731 Smoke 23 1011 56 2500 3.57 3 00:23 10.02.2021
2732 Smoke 22 1011 56 2500 3.57 3 23:34 09.02.2021
2733 Smoke 23 1011 49 2500 3.2 359 22:53 09.02.2021
2734 Smoke 23 1011 53 2500 2.36 11 22:24 09.02.2021
2735 Smoke 24 1012 50 2500 2.4 11 21:52 09.02.2021
2736 Smoke 24 1012 50 2500 2.14 17 21:27 09.02.2021
2737 Smoke 24 1012 46 2500 2.14 17 20:46 09.02.2021
2738 Smoke 24 1012 46 2500 2.58 7 20:26 09.02.2021
2739 Smoke 25 1012 44 3000 2.62 7 19:55 09.02.2021
2740 Smoke 26 1013 36 3000 2.62 7 19:31 09.02.2021
2741 Smoke 26 1013 38 3000 1.89 11 18:58 09.02.2021
2742 Smoke 26 1013 36 3000 1.89 11 18:36 09.02.2021
2743 Smoke 27 1013 36 3000 2.09 23 17:57 09.02.2021
2744 Smoke 27 1013 36 3000 2.09 23 17:37 09.02.2021
2745 Smoke 27 1013 36 3000 3.01 16 17:18 09.02.2021
2746 Smoke 28 1012 34 3000 1.54 320 16:40 09.02.2021
2747 Smoke 28 1012 34 3000 1.54 320 16:18 09.02.2021
2748 Smoke 28 1011 34 3000 1.54 320 15:48 09.02.2021
2749 Smoke 28 1011 36 3000 3.09 300 15:24 09.02.2021
2750 Smoke 28 1011 36 3000 2.57 310 14:53 09.02.2021
2751 Smoke 29 1010 30 3500 3.09 310 14:26 09.02.2021
2752 Smoke 29 1010 32 3500 3.6 300 13:50 09.02.2021
2753 Smoke 30 1010 32 3500 4.12 300 13:21 09.02.2021
2754 Smoke 30 1010 27 3500 5.14 290 12:49 09.02.2021
2755 Smoke 30 1010 32 3500 4.63 280 12:31 09.02.2021
2756 Smoke 30 1010 30 3000 4.63 260 11:54 09.02.2021
2757 Smoke 31 1011 30 3000 5.14 270 11:36 09.02.2021
2758 Smoke 31 1011 30 3000 5.14 270 11:18 09.02.2021
2759 Smoke 30 1011 30 3000 5.66 260 10:41 09.02.2021
2760 Smoke 31 1011 35 3000 5.66 260 10:18 09.02.2021
2761 Smoke 32 1012 13 3000 2.06 140 09:42 09.02.2021
2762 Smoke 32 1012 13 3000 2.06 140 09:23 09.02.2021
2763 Smoke 33 1014 15 3000 2.57 130 08:37 09.02.2021
2764 Smoke 33 1014 17 2500 4.12 130 08:18 09.02.2021
2765 Smoke 31 1015 20 2500 3.6 100 06:18 09.02.2021
2766 Smoke 23 1014 43 2100 2.43 74 03:51 09.02.2021
2767 Smoke 22 1013 43 2500 2.63 81 02:31 09.02.2021
2768 Smoke 23 1012 43 2500 2.57 130 00:33 09.02.2021
2769 Smoke 23 1012 43 2500 1.54 110 23:57 08.02.2021
2770 Smoke 24 1012 38 2500 1.54 110 23:20 08.02.2021
2771 Smoke 24 1012 41 2500 2.57 120 22:43 08.02.2021
2772 Smoke 23 1012 53 2500 1.54 120 22:24 08.02.2021
2773 Smoke 24 1013 50 2500 2.06 90 21:54 08.02.2021
2774 Smoke 24 1013 43 2500 2.06 80 21:32 08.02.2021
2775 Smoke 25 1013 36 3000 2.06 110 20:59 08.02.2021
2776 Smoke 25 1013 36 3000 2.67 21 20:38 08.02.2021
2777 Smoke 25 1013 36 3000 2.86 12 20:20 08.02.2021
2778 Smoke 25 1014 33 3000 2.81 13 19:42 08.02.2021
2779 Smoke 25 1014 33 3000 3.07 5 19:22 08.02.2021
2780 Smoke 25 1014 31 3000 3.07 5 18:48 08.02.2021
2781 Smoke 27 1014 28 3000 3.8 357 18:23 08.02.2021
2782 Smoke 27 1014 29 3000 2.57 350 17:45 08.02.2021
2783 Smoke 27 1014 29 3000 2.57 350 17:25 08.02.2021
2784 Smoke 27 1013 32 3000 4.12 330 16:44 08.02.2021
2785 Smoke 27 1013 32 3000 4.12 330 16:21 08.02.2021
2786 Smoke 28 1013 32 3000 4.63 330 15:48 08.02.2021
2787 Smoke 28 1013 32 3000 5.66 330 15:20 08.02.2021
2788 Smoke 28 1012 34 3000 3.6 320 14:52 08.02.2021
2789 Smoke 29 1012 30 3000 4.63 320 14:32 08.02.2021
2790 Smoke 30 1012 30 4000 4.12 320 13:57 08.02.2021
2791 Smoke 30 1012 30 4000 4.12 320 13:38 08.02.2021
2792 Smoke 30 1011 29 4000 4.63 310 13:20 08.02.2021
2793 Smoke 31 1011 25 4000 6.69 280 12:37 08.02.2021
2794 Smoke 32 1011 27 4000 3.6 300 11:51 08.02.2021
2795 Smoke 32 1011 15 4000 2.57 320 11:22 08.02.2021
2796 Smoke 34 1012 16 4000 1.54 70 10:45 08.02.2021
2797 Smoke 33 1012 17 4000 3.09 340 10:24 08.02.2021
2798 Smoke 33 1013 16 4000 5.14 20 09:54 08.02.2021
2799 Smoke 33 1013 16 4000 5.14 20 09:36 08.02.2021
2800 Smoke 33 1014 18 3000 2.57 100 08:50 08.02.2021
2801 Smoke 32 1015 19 3000 3.6 80 08:21 08.02.2021
2802 Smoke 30 1016 23 3000 3.6 120 07:36 08.02.2021
2803 Smoke 28 1016 26 2500 4.12 90 06:30 08.02.2021
2804 Smoke 24 1015 38 2500 2.57 90 03:58 08.02.2021
2805 Smoke 24 1013 35 2500 2.57 80 01:50 08.02.2021
2806 Smoke 24 1013 41 2500 2.57 90 00:23 08.02.2021
2807 Smoke 24 1013 41 2500 2.57 90 23:52 07.02.2021
2808 Smoke 24 1013 41 2500 2.06 120 23:27 07.02.2021
2809 Smoke 24 1013 41 2500 2.57 110 22:46 07.02.2021
2810 Smoke 25 1013 36 2500 1.54 130 22:28 07.02.2021
2811 Smoke 24 1013 46 3000 3.19 31 21:57 07.02.2021
2812 Smoke 24 1013 46 3000 3.19 31 21:39 07.02.2021
2813 Smoke 25 1013 44 3000 3.39 16 21:19 07.02.2021
2814 Smoke 24 1013 46 3000 3.39 16 20:44 07.02.2021
2815 Smoke 25 1013 41 3000 3.72 8 20:26 07.02.2021
2816 Smoke 26 1014 36 3000 3.72 8 19:42 07.02.2021
2817 Smoke 26 1014 36 3000 3.79 6 19:22 07.02.2021
2818 Smoke 27 1014 34 3000 3.85 6 18:43 07.02.2021
2819 Smoke 28 1014 30 3000 3.09 10 18:25 07.02.2021
2820 Smoke 28 1014 30 3000 3.6 20 17:44 07.02.2021
2821 Smoke 28 1014 34 3000 2.57 350 17:22 07.02.2021
2822 Smoke 29 1014 32 3000 4.12 340 16:57 07.02.2021
2823 Smoke 29 1013 32 3000 3.6 340 16:36 07.02.2021
2824 Smoke 29 1013 32 3000 3.6 340 16:18 07.02.2021
2825 Smoke 29 1013 30 3000 2.57 340 15:41 07.02.2021
2826 Smoke 29 1012 30 3000 2.57 340 15:21 07.02.2021
2827 Smoke 29 1012 32 3500 2.57 330 14:42 07.02.2021
2828 Smoke 29 1012 32 3500 2.57 330 14:24 07.02.2021
2829 Smoke 29 1011 30 3500 3.09 310 13:40 07.02.2021
2830 Smoke 30 1011 29 3500 4.63 310 13:22 07.02.2021
2831 Smoke 30 1011 30 3500 4.63 310 12:39 07.02.2021
2832 Smoke 31 1011 29 3500 3.6 300 12:20 07.02.2021
2833 Smoke 31 1011 29 3500 3.6 300 12:20 07.02.2021
2834 Smoke 31 1011 27 4000 4.12 300 11:41 07.02.2021
2835 Smoke 32 1011 24 4000 4.63 270 11:23 07.02.2021
2836 Smoke 33 1012 19 4000 2.06 10 10:29 07.02.2021
2837 Smoke 33 1012 19 4000 2.57 70 09:55 07.02.2021
2838 Smoke 33 1012 19 4000 2.57 70 09:37 07.02.2021
2839 Smoke 33 1013 21 4000 2.57 100 09:18 07.02.2021
2840 Smoke 30 1015 25 3000 4.63 80 07:56 07.02.2021
2841 Smoke 28 1016 26 3000 4.63 50 06:25 07.02.2021
2842 Smoke 26 1015 29 3000 4.12 30 04:36 07.02.2021
2843 Smoke 25 1013 31 3000 2.06 50 02:31 07.02.2021
2844 Smoke 25 1012 31 3000 4.12 40 00:38 07.02.2021
2845 Smoke 26 1012 31 3000 3.6 40 23:53 06.02.2021
2846 Smoke 26 1012 31 3000 4.12 40 22:59 06.02.2021
2847 Smoke 27 1012 29 3000 4.63 40 22:21 06.02.2021
2848 Smoke 27 1012 32 3000 3.6 60 21:37 06.02.2021
2849 Smoke 27 1012 32 3000 4.12 40 21:19 06.02.2021
2850 Smoke 27 1012 32 3000 4.12 40 20:44 06.02.2021
2851 Smoke 27 1012 32 3000 4.63 40 20:22 06.02.2021
2852 Smoke 28 1013 30 3000 5.14 40 19:46 06.02.2021
2853 Smoke 27 1013 34 3000 2.06 40 19:25 06.02.2021
2854 Smoke 28 1013 32 3000 2.06 50 18:45 06.02.2021
2855 Smoke 28 1013 34 3000 3.6 30 18:26 06.02.2021
2856 Smoke 28 1013 39 3000 4.12 10 17:41 06.02.2021
2857 Smoke 28 1013 39 3000 4.12 10 17:21 06.02.2021
2858 Smoke 29 1012 37 3000 4.12 350 16:55 06.02.2021
2859 Smoke 29 1012 39 3000 4.12 340 16:30 06.02.2021
2860 Smoke 28 1012 42 3000 3.6 340 15:53 06.02.2021
2861 Smoke 29 1011 39 3000 3.09 350 15:34 06.02.2021
2862 Smoke 29 1011 37 3000 3.6 340 14:59 06.02.2021
2863 Smoke 29 1011 37 4000 5.14 340 14:39 06.02.2021
2864 Smoke 29 1011 37 4000 5.14 340 14:21 06.02.2021
2865 Smoke 29 1010 39 4000 4.63 330 13:45 06.02.2021
2866 Smoke 30 1010 37 4000 4.63 320 12:47 06.02.2021
2867 Smoke 30 1010 37 4000 3.6 320 12:20 06.02.2021
2868 Smoke 31 1010 35 4000 4.63 290 11:40 06.02.2021
2869 Smoke 32 1010 22 4000 3.09 320 11:20 06.02.2021
2870 Smoke 32 1010 31 4000 3.6 140 10:53 06.02.2021
2871 Smoke 31 1011 22 3500 3.09 10 10:27 06.02.2021
2872 Smoke 33 1012 24 3500 4.63 40 09:38 06.02.2021
2873 Smoke 32 1012 25 3000 2.06 60 09:19 06.02.2021
2874 Smoke 31 1013 27 3000 2.57 80 08:59 06.02.2021
2875 Smoke 30 1014 28 3000 3.6 50 08:29 06.02.2021
2876 Smoke 30 1015 21 2500 3.09 80 07:20 06.02.2021
2877 Smoke 27 1015 32 2500 3.6 50 05:42 06.02.2021
2878 Smoke 22 1013 43 2500 4.36 42 02:52 06.02.2021
2879 Smoke 21 1012 46 3000 5.38 13 01:30 06.02.2021
2880 Smoke 22 1012 43 3000 2.06 130 00:45 06.02.2021
2881 Smoke 22 1012 49 3000 5.63 7 00:18 06.02.2021
2882 Smoke 23 1012 38 3000 5.56 7 23:41 05.02.2021
2883 Smoke 24 1012 35 3000 4.91 9 23:23 05.02.2021
2884 Smoke 24 1012 38 3000 4.91 9 22:43 05.02.2021
2885 Smoke 24 1012 35 3000 3.98 17 22:18 05.02.2021
2886 Smoke 24 1012 35 3000 2.06 350 21:40 05.02.2021
2887 Smoke 25 1013 33 3000 3.09 290 20:59 05.02.2021
2888 Smoke 25 1013 36 3000 2.57 340 20:38 05.02.2021
2889 Smoke 25 1014 36 3000 2.57 10 19:48 05.02.2021
2890 Smoke 25 1014 38 3000 2.06 20 19:19 05.02.2021
2891 Smoke 25 1014 41 3000 2.06 30 18:45 05.02.2021
2892 Smoke 26 1014 38 3000 2.57 80 18:19 05.02.2021
2893 Smoke 26 1014 41 3000 3.09 50 17:43 05.02.2021
2894 Smoke 27 1013 41 3000 3.09 20 17:21 05.02.2021
2895 Smoke 27 1013 41 3000 3.09 20 17:21 05.02.2021
2896 Smoke 27 1013 39 3000 3.6 340 16:46 05.02.2021
2897 Smoke 27 1013 39 3000 3.6 340 16:23 05.02.2021
2898 Smoke 27 1013 41 3000 3.09 340 15:53 05.02.2021
2899 Smoke 27 1012 39 3000 3.6 320 15:26 05.02.2021
2900 Smoke 28 1012 34 3000 4.63 320 14:40 05.02.2021
2901 Smoke 28 1012 34 3000 4.63 320 14:22 05.02.2021
2902 Smoke 29 1012 34 4000 4.63 320 13:58 05.02.2021
2903 Smoke 29 1012 34 4000 4.63 320 13:35 05.02.2021
2904 Smoke 29 1011 30 4000 5.66 300 12:49 05.02.2021
2905 Smoke 29 1011 30 4000 5.14 320 12:27 05.02.2021
2906 Smoke 29 1012 35 3500 5.14 300 11:41 05.02.2021
2907 Smoke 29 1012 35 3500 5.14 300 11:21 05.02.2021
2908 Smoke 29 1012 39 3000 5.14 310 10:57 05.02.2021
2909 Smoke 30 1012 35 3000 5.66 300 10:27 05.02.2021
2910 Smoke 30 1013 35 3000 4.12 290 09:47 05.02.2021
2911 Smoke 30 1013 35 3000 4.12 310 09:28 05.02.2021
2912 Smoke 29 1014 37 3000 5.14 280 08:53 05.02.2021
2913 Smoke 29 1014 45 3000 4.12 230 08:22 05.02.2021
2914 Smoke 28 1015 42 3000 4.63 220 07:36 05.02.2021
2915 Smoke 28 1016 34 3000 3.09 50 06:52 05.02.2021
2916 Smoke 26 1016 44 2500 3.3 22 05:37 05.02.2021
2917 Smoke 22 1014 60 3000 4.48 14 03:18 05.02.2021
2918 Smoke 23 1013 68 3000 2.57 50 02:24 05.02.2021
2919 Smoke 23 1013 73 3000 3.09 330 00:40 05.02.2021
2920 Smoke 23 1013 73 3000 4.12 330 00:20 05.02.2021
2921 Haze 24 1013 64 2500 3.09 280 23:57 04.02.2021
2922 Haze 24 1013 64 2500 3.09 280 23:39 04.02.2021
2923 Haze 24 1013 64 2500 3.6 330 23:20 04.02.2021
2924 Haze 24 1013 64 2500 3.6 330 23:20 04.02.2021
2925 Haze 24 1013 60 2500 3.09 340 22:51 04.02.2021
2926 Haze 24 1013 60 2500 3.09 340 22:51 04.02.2021
2927 Haze 24 1013 60 2500 2.57 340 22:26 04.02.2021
2928 Haze 25 1013 57 2500 2.57 320 21:42 04.02.2021
2929 Haze 24 1013 60 2500 1.54 280 21:20 04.02.2021
2930 Haze 24 1013 60 2500 1.54 0 20:49 04.02.2021
2931 Smoke 25 1014 57 2500 4.48 345 20:30 04.02.2021
2932 Smoke 25 1014 57 2500 3.14 354 20:30 04.02.2021
2933 Smoke 25 1014 57 2500 4.48 345 20:30 04.02.2021
2934 Smoke 25 1014 57 2500 4.48 345 20:30 04.02.2021
2935 Smoke 26 1014 50 2500 3.15 354 19:43 04.02.2021
2936 Smoke 25 1014 57 2500 2.98 6 18:57 04.02.2021
2937 Smoke 26 1014 53 2500 3.35 18 18:26 04.02.2021
2938 Smoke 26 1014 57 2500 2.57 340 17:53 04.02.2021
2939 Smoke 26 1014 57 2500 2.57 340 17:53 04.02.2021
2940 Smoke 26 1014 57 2500 4.14 4 17:28 04.02.2021
2941 Smoke 27 1014 54 2500 1.54 330 16:57 04.02.2021
2942 Smoke 26 1013 57 2500 2.57 330 16:39 04.02.2021
2943 Smoke 26 1013 57 2500 2.57 330 16:18 04.02.2021
2944 Smoke 26 1013 57 2500 2.57 300 15:40 04.02.2021
2945 Smoke 27 1012 50 2500 3.09 290 15:20 04.02.2021
2946 Smoke 27 1012 50 3000 3.09 290 14:48 04.02.2021
2947 Smoke 27 1012 47 3000 2.57 290 14:21 04.02.2021
2948 Smoke 27 1012 44 3000 3.09 300 13:48 04.02.2021
2949 Smoke 28 1012 42 3000 5.14 290 13:28 04.02.2021
2950 Smoke 29 1011 39 3000 3.09 300 12:54 04.02.2021
2951 Smoke 30 1011 33 3000 3.6 290 11:57 04.02.2021
2952 Smoke 30 1012 35 3000 4.12 300 11:37 04.02.2021
2953 Smoke 30 1012 35 3000 4.12 300 11:18 04.02.2021
2954 Smoke 30 1012 39 3000 3.6 290 10:36 04.02.2021
2955 Smoke 30 1013 42 3000 4.63 270 09:46 04.02.2021
2956 Smoke 30 1013 35 4000 4.63 260 09:23 04.02.2021
2957 Smoke 31 1013 20 4000 2.06 330 08:58 04.02.2021
2958 Smoke 30 1014 23 4000 1.54 320 08:27 04.02.2021
2959 Smoke 30 1015 25 3000 1.54 0 07:58 04.02.2021
2960 Smoke 29 1015 26 3000 2.06 20 07:35 04.02.2021
2961 Smoke 29 1015 28 3000 3.09 50 06:54 04.02.2021
2962 Smoke 29 1015 34 2500 2.57 80 06:34 04.02.2021
2963 Haze 23 1014 60 2500 2.57 80 02:43 04.02.2021
2964 Haze 23 1014 64 2500 1.54 30 02:24 04.02.2021
2965 Smoke 24 1013 57 3000 1.54 320 00:31 04.02.2021
2966 Smoke 24 1013 57 3000 2.91 26 23:39 03.02.2021
2967 Smoke 23 1013 60 3000 2.32 46 22:41 03.02.2021
2968 Smoke 25 1013 50 3000 2 55 22:21 03.02.2021
2969 Smoke 25 1013 53 3000 2 55 21:55 03.02.2021
2970 Smoke 25 1014 53 3000 1.78 69 21:25 03.02.2021
2971 Smoke 25 1014 53 3000 1.78 69 20:58 03.02.2021
2972 Smoke 25 1014 53 3000 1.78 69 20:37 03.02.2021
2973 Smoke 26 1014 53 3000 1.86 80 19:57 03.02.2021
2974 Smoke 26 1014 50 3000 1.86 80 19:36 03.02.2021
2975 Smoke 26 1014 50 3000 1.77 65 19:18 03.02.2021
2976 Smoke 27 1015 50 3000 2.57 40 18:39 03.02.2021
2977 Smoke 27 1015 47 3000 1.54 40 18:19 03.02.2021
2978 Smoke 27 1015 50 3000 2.57 80 17:48 03.02.2021
2979 Smoke 28 1014 47 3000 3.5 13 17:29 03.02.2021
2980 Smoke 28 1014 44 3000 1.54 240 16:51 03.02.2021
2981 Smoke 28 1014 44 3000 1.54 320 16:26 03.02.2021
2982 Smoke 29 1013 42 3000 1.54 310 15:41 03.02.2021
2983 Smoke 28 1013 51 3000 2.06 300 15:23 03.02.2021
2984 Smoke 28 1012 51 3000 2.57 270 14:53 03.02.2021
2985 Smoke 29 1012 42 3000 3.09 290 14:25 03.02.2021
2986 Smoke 29 1012 39 3500 4.63 260 13:53 03.02.2021
2987 Smoke 30 1012 35 3500 5.66 260 13:21 03.02.2021
2988 Smoke 30 1011 30 4000 6.17 250 12:47 03.02.2021
2989 Smoke 31 1011 27 4000 5.66 260 12:24 03.02.2021
2990 Smoke 31 1011 23 4000 5.14 250 11:49 03.02.2021
2991 Smoke 32 1012 22 4000 5.14 240 11:28 03.02.2021
2992 Smoke 32 1012 22 4000 5.14 240 10:53 03.02.2021
2993 Smoke 32 1012 22 3500 5.14 260 10:21 03.02.2021
2994 Smoke 32 1013 21 3500 5.14 210 09:47 03.02.2021
2995 Smoke 32 1013 21 3500 4.12 220 09:28 03.02.2021
2996 Smoke 33 1014 21 3500 4.63 90 08:53 03.02.2021
2997 Smoke 32 1014 19 3500 3.09 180 08:27 03.02.2021
2998 Smoke 31 1015 27 3000 3.09 110 07:39 03.02.2021
2999 Smoke 30 1016 32 3000 2.57 80 06:41 03.02.2021
3000 Smoke 26 1015 53 2200 2.87 57 04:54 03.02.2021
3001 Haze 24 1015 57 2000 2.06 140 04:29 03.02.2021
3002 Haze 23 1014 73 1800 2.79 39 03:18 03.02.2021
3003 Haze 23 1014 73 2500 2.7 28 02:26 03.02.2021
3004 Haze 24 1013 73 2500 2.35 35 00:36 03.02.2021
3005 Haze 23 1013 73 2500 1.54 100 23:53 02.02.2021
3006 Haze 23 1013 73 2500 2.12 41 23:29 02.02.2021
3007 Haze 24 1013 64 2500 2.12 41 22:59 02.02.2021
3008 Haze 25 1014 57 3000 2.4 30 22:22 02.02.2021
3009 Haze 25 1014 57 3000 2.4 30 21:57 02.02.2021
3010 Haze 25 1014 53 3000 2.4 30 21:31 02.02.2021
3011 Haze 25 1014 50 3000 2.34 25 20:59 02.02.2021
3012 Haze 25 1014 50 3000 2.32 25 20:59 02.02.2021
3013 Haze 25 1014 50 3000 2.34 25 20:41 02.02.2021
3014 Haze 25 1014 57 3000 2.6 24 20:19 02.02.2021
3015 Haze 26 1014 53 3000 2.6 24 19:47 02.02.2021
3016 Haze 26 1015 50 3000 3.09 300 19:29 02.02.2021
3017 Haze 26 1015 61 3000 2.06 280 18:44 02.02.2021
3018 Haze 27 1015 54 3000 2.57 330 18:25 02.02.2021
3019 Haze 26 1015 65 3000 2.06 270 17:50 02.02.2021
3020 Smoke 27 1015 54 3000 1.54 30 17:23 02.02.2021
3021 Smoke 27 1015 57 3000 3.09 310 16:57 02.02.2021
3022 Smoke 27 1015 57 3000 3.09 310 16:38 02.02.2021
3023 Smoke 28 1014 47 3000 3.09 300 15:59 02.02.2021
3024 Smoke 28 1014 44 3000 3.09 330 15:41 02.02.2021
3025 Smoke 28 1014 44 3000 3.09 330 15:21 02.02.2021
3026 Smoke 29 1013 42 3000 4.12 300 14:41 02.02.2021
3027 Smoke 29 1013 45 3500 2.57 300 14:18 02.02.2021
3028 Smoke 29 1013 45 3500 2.57 300 13:46 02.02.2021
3029 Smoke 29 1012 45 3500 5.66 280 13:28 02.02.2021
3030 Smoke 30 1012 45 3500 4.12 280 12:57 02.02.2021
3031 Smoke 32 1012 22 4000 3.09 290 12:27 02.02.2021
3032 Smoke 35 1012 15 4000 2.06 300 11:41 02.02.2021
3033 Smoke 35 1012 14 4000 4.64 286 11:20 02.02.2021
3034 Smoke 35 1013 16 3500 3.09 140 10:51 02.02.2021
3035 Smoke 34 1013 18 3500 0.51 20 10:27 02.02.2021
3036 Smoke 35 1014 15 3500 1.03 160 09:46 02.02.2021
3037 Smoke 34 1014 20 3500 4.63 60 09:25 02.02.2021
3038 Smoke 35 1015 20 3500 3.6 50 08:48 02.02.2021
3039 Smoke 34 1016 22 3500 4.12 100 08:21 02.02.2021
3040 Smoke 32 1017 27 3000 5.14 100 07:28 02.02.2021
3041 Smoke 30 1017 30 2500 5.14 80 06:41 02.02.2021
3042 Smoke 30 1017 30 2500 4.63 90 05:51 02.02.2021
3043 Smoke 27 1016 39 2100 2.94 88 04:37 02.02.2021
3044 Smoke 24 1014 53 2500 2.06 220 02:25 02.02.2021
3045 Smoke 25 1014 53 2500 1.54 220 01:28 02.02.2021
3046 Smoke 26 1014 47 2500 3.41 62 00:31 02.02.2021
3047 Haze 25 1014 57 2500 3.05 48 23:18 01.02.2021
3048 Haze 25 1014 57 2500 1.54 0 22:40 01.02.2021
3049 Haze 25 1014 61 2500 3.46 22 22:21 01.02.2021
3050 Haze 25 1014 61 2200 3.46 22 21:48 01.02.2021
3051 Haze 26 1014 57 2200 1.54 110 21:26 01.02.2021
3052 Haze 25 1014 69 2200 1.54 200 20:47 01.02.2021
3053 Haze 25 1014 69 2200 1.54 200 20:25 01.02.2021
3054 Haze 26 1015 61 2500 3.04 3 19:59 01.02.2021
3055 Haze 26 1015 61 2500 3.04 3 19:59 01.02.2021
3056 Haze 26 1015 61 2500 1.54 170 19:37 01.02.2021
3057 Haze 26 1015 61 2500 1.54 170 19:18 01.02.2021
3058 Haze 26 1015 61 2500 1.54 210 18:43 01.02.2021
3059 Haze 27 1015 61 2500 2.06 270 18:25 01.02.2021
3060 Haze 27 1015 61 2500 3.92 357 17:46 01.02.2021
3061 Haze 27 1015 61 2500 2.06 270 17:22 01.02.2021
3062 Haze 27 1014 61 2500 1.54 290 16:46 01.02.2021
3063 Haze 26 1014 65 2500 2.57 270 16:28 01.02.2021
3064 Smoke 27 1014 61 2500 2.57 280 15:42 01.02.2021
3065 Smoke 28 1014 54 2500 2.57 290 15:19 01.02.2021
3066 Smoke 28 1013 54 2500 2.06 300 14:51 01.02.2021
3067 Smoke 29 1013 51 2500 3.09 310 14:24 01.02.2021
3068 Smoke 29 1013 51 2500 3.09 310 13:46 01.02.2021
3069 Smoke 30 1013 45 2500 4.12 340 13:26 01.02.2021
3070 Smoke 30 1013 45 2500 3.09 310 12:45 01.02.2021
3071 Smoke 30 1013 45 3000 3.6 280 12:25 01.02.2021
3072 Smoke 30 1013 45 3000 3.6 280 12:25 01.02.2021
3073 Smoke 31 1013 40 3000 5.14 280 11:47 01.02.2021
3074 Smoke 30 1013 48 3000 4.12 290 11:21 01.02.2021
3075 Smoke 31 1013 45 3000 4.63 270 10:52 01.02.2021
3076 Smoke 32 1014 36 3000 5.14 250 10:22 01.02.2021
3077 Smoke 33 1014 28 3000 1.54 160 09:54 01.02.2021
3078 Smoke 33 1014 28 3000 1.54 160 09:54 01.02.2021
3079 Smoke 32 1014 31 3000 2.57 140 09:35 01.02.2021
3080 Smoke 33 1015 35 3000 3.6 110 08:56 01.02.2021
3081 Smoke 33 1015 33 3000 3.09 80 08:26 01.02.2021
3082 Smoke 31 1017 35 2500 3.09 80 06:59 01.02.2021
3083 Smoke 25 1016 39 2500 1.54 0 04:33 01.02.2021
3084 Smoke 26 1015 41 2500 1.54 30 02:40 01.02.2021
3085 Smoke 24 1013 50 3000 2.9 40 00:18 01.02.2021
3086 Smoke 23 1013 64 3000 2.87 36 22:57 31.01.2021
3087 Smoke 24 1013 60 3000 2.87 36 22:38 31.01.2021
3088 Smoke 24 1013 60 3000 2.63 40 22:19 31.01.2021
3089 Smoke 24 1013 60 3000 2.63 40 21:46 31.01.2021
3090 Smoke 24 1013 60 3000 2.83 35 21:19 31.01.2021
3091 Smoke 24 1014 60 3000 2.83 35 20:43 31.01.2021
3092 Smoke 24 1014 60 3000 2.76 24 20:20 31.01.2021
3093 Smoke 24 1014 60 3000 1.54 270 19:39 31.01.2021
3094 Smoke 24 1014 60 3000 1.54 270 19:21 31.01.2021
3095 Smoke 24 1014 60 3000 1.54 270 19:21 31.01.2021
3096 Smoke 24 1014 57 4000 2.93 20 18:55 31.01.2021
3097 Smoke 25 1014 53 4000 2.57 210 18:37 31.01.2021
3098 Smoke 25 1014 53 4000 2.57 210 18:18 31.01.2021
3099 Smoke 26 1014 41 4000 1.54 280 17:41 31.01.2021
3100 Smoke 27 1014 36 4000 1.54 310 17:21 31.01.2021
3101 Smoke 27 1014 36 4000 2.06 10 16:42 31.01.2021
3102 Smoke 27 1014 36 4000 2.06 30 16:20 31.01.2021
3103 Smoke 27 1013 39 3500 2.57 350 15:50 31.01.2021
3104 Smoke 27 1013 41 3500 4.12 340 15:26 31.01.2021
3105 Smoke 27 1012 44 4000 4.12 340 14:39 31.01.2021
3106 Smoke 28 1012 44 4000 3.09 290 14:18 31.01.2021
3107 Smoke 28 1012 42 4000 2.57 300 13:46 31.01.2021
3108 Smoke 28 1012 42 4000 4.63 290 13:19 31.01.2021
3109 Smoke 29 1012 42 5000 4.12 320 12:47 31.01.2021
3110 Smoke 29 1012 39 5000 5.14 280 12:21 31.01.2021
3111 Smoke 30 1011 35 5000 5.66 270 11:40 31.01.2021
3112 Smoke 30 1011 33 4500 4.63 290 11:21 31.01.2021
3113 Smoke 30 1012 33 4000 4.63 300 10:48 31.01.2021
3114 Smoke 30 1012 33 4000 6.17 270 10:29 31.01.2021
3115 Smoke 30 1012 35 3500 5.14 270 09:47 31.01.2021
3116 Smoke 30 1013 35 3500 4.63 250 08:55 31.01.2021
3117 Smoke 30 1014 33 3500 2.06 220 08:31 31.01.2021
3118 Smoke 29 1015 30 2500 2.57 40 06:54 31.01.2021
3119 Smoke 26 1015 38 2200 1.54 150 05:30 31.01.2021
3120 Smoke 22 1012 56 2500 2.14 43 00:40 31.01.2021
3121 Smoke 22 1012 60 2500 2.02 51 00:21 31.01.2021
3122 Smoke 23 1012 53 2500 1.97 60 23:28 30.01.2021
3123 Smoke 22 1012 56 2500 1.97 60 22:49 30.01.2021
3124 Smoke 23 1012 53 2500 1.97 45 22:28 30.01.2021
3125 Smoke 23 1012 56 2500 1.97 45 21:39 30.01.2021
3126 Smoke 23 1012 56 2500 2.15 20 21:20 30.01.2021
3127 Smoke 23 1012 53 2500 2.15 20 20:44 30.01.2021
3128 Smoke 24 1013 46 3000 2.16 15 20:26 30.01.2021
3129 Smoke 25 1013 41 3000 2.14 15 19:43 30.01.2021
3130 Smoke 25 1013 41 3000 2.97 26 19:24 30.01.2021
3131 Smoke 25 1013 41 3000 2.86 25 18:41 30.01.2021
3132 Smoke 25 1013 41 3000 2.86 25 18:41 30.01.2021
3133 Smoke 25 1013 41 3000 3.83 23 18:21 30.01.2021
3134 Smoke 26 1013 38 3000 3.83 23 17:54 30.01.2021
3135 Smoke 26 1013 41 3000 2.06 50 17:19 30.01.2021
3136 Smoke 26 1013 38 3000 2.06 350 16:44 30.01.2021
3137 Smoke 26 1013 41 3000 2.06 340 16:24 30.01.2021
3138 Smoke 27 1012 39 3000 1.54 320 15:54 30.01.2021
3139 Smoke 27 1012 39 3000 1.54 320 15:36 30.01.2021
3140 Smoke 27 1012 47 4000 2.06 320 15:18 30.01.2021
3141 Smoke 27 1012 47 4000 2.06 320 14:41 30.01.2021
3142 Smoke 27 1011 47 4000 3.09 310 14:19 30.01.2021
3143 Smoke 28 1011 42 4000 3.6 300 13:29 30.01.2021
3144 Smoke 29 1011 37 4000 5.14 290 12:48 30.01.2021
3145 Smoke 30 1011 25 4000 4.12 300 12:28 30.01.2021
3146 Smoke 31 1011 23 4000 4.12 290 11:56 30.01.2021
3147 Smoke 31 1011 17 4000 4.12 310 11:26 30.01.2021
3148 Smoke 31 1011 27 4000 5.14 270 10:47 30.01.2021
3149 Smoke 31 1011 27 3000 4.63 260 09:48 30.01.2021
3150 Smoke 31 1012 29 3000 3.09 280 09:26 30.01.2021
3151 Smoke 31 1012 22 3000 2.57 330 08:47 30.01.2021
3152 Smoke 30 1014 29 3000 3.6 120 07:48 30.01.2021
3153 Smoke 29 1015 37 3000 3.09 100 06:49 30.01.2021
3154 Smoke 24 1014 53 2200 1.54 40 04:59 30.01.2021
3155 Haze 22 1014 64 2200 2.99 45 03:35 30.01.2021
3156 Haze 22 1013 60 2200 2.19 27 02:24 30.01.2021
3157 Haze 22 1012 60 2200 1.78 40 01:29 30.01.2021
3158 Haze 22 1012 64 2200 2.06 100 00:39 30.01.2021
3159 Haze 22 1012 64 2200 2.06 100 00:20 30.01.2021
3160 Haze 21 1012 78 2200 1.54 130 23:45 29.01.2021
3161 Haze 21 1012 78 2200 1.81 49 23:21 29.01.2021
3162 Haze 22 1012 73 2200 1.8 49 22:44 29.01.2021
3163 Haze 22 1012 73 2200 1.87 37 22:19 29.01.2021
3164 Haze 22 1013 73 2500 2.37 20 21:28 29.01.2021
3165 Haze 22 1013 73 2500 2.37 20 20:45 29.01.2021
3166 Haze 23 1013 73 2500 2.98 11 20:26 29.01.2021
3167 Haze 23 1014 73 2500 2.98 11 19:57 29.01.2021
3168 Haze 23 1014 73 2500 2.98 11 19:38 29.01.2021
3169 Haze 23 1014 73 2500 2.06 260 19:18 29.01.2021
3170 Haze 24 1014 69 2500 4.88 0 18:21 29.01.2021
3171 Haze 25 1014 61 2500 1.54 340 17:39 29.01.2021
3172 Haze 25 1014 61 2500 4.97 349 17:20 29.01.2021
3173 Haze 25 1014 61 2500 4.97 349 16:45 29.01.2021
3174 Haze 25 1014 65 2500 1.54 290 16:23 29.01.2021
3175 Haze 25 1013 65 2500 2.06 280 15:48 29.01.2021
3176 Haze 25 1013 61 2500 2.57 240 15:27 29.01.2021
3177 Smoke 27 1013 47 3000 2.06 270 14:32 29.01.2021
3178 Smoke 27 1012 44 3000 2.06 320 13:59 29.01.2021
3179 Smoke 27 1012 53 2500 5.76 329 13:39 29.01.2021
3180 Smoke 27 1012 50 3000 3.09 320 13:19 29.01.2021
3181 Smoke 29 1012 42 3500 4.12 300 12:25 29.01.2021
3182 Smoke 29 1012 42 3500 4.12 300 11:49 29.01.2021
3183 Smoke 29 1012 45 3000 5.14 270 11:20 29.01.2021
3184 Smoke 28 1012 48 3000 5.14 270 10:51 29.01.2021
3185 Smoke 28 1013 51 3000 5.14 270 10:31 29.01.2021
3186 Smoke 28 1013 44 3000 4.12 280 09:49 29.01.2021
3187 Smoke 28 1013 42 3000 4.63 250 08:59 29.01.2021
3188 Smoke 29 1014 35 3000 2.57 310 08:38 29.01.2021
3189 Smoke 28 1015 37 2500 2.06 310 08:19 29.01.2021
3190 Smoke 27 1015 41 2500 1.54 30 07:41 29.01.2021
3191 Smoke 27 1015 41 2500 1.54 30 07:20 29.01.2021
3192 Smoke 24 1015 53 2100 1.54 160 05:23 29.01.2021
3193 Haze 19 1014 68 1700 1.54 0 03:50 29.01.2021
3194 Haze 21 1012 64 2500 4.51 22 00:44 29.01.2021
3195 Haze 20 1012 68 2500 4.63 14 00:22 29.01.2021
3196 Haze 20 1012 73 2200 4.63 14 23:44 28.01.2021
3197 Haze 21 1012 68 2200 4.43 15 23:25 28.01.2021
3198 Haze 21 1012 68 2100 4.43 15 22:49 28.01.2021
3199 Haze 20 1012 73 2100 4.36 10 22:28 28.01.2021
3200 Haze 21 1012 68 2100 4.36 10 21:58 28.01.2021
3201 Haze 21 1012 68 2100 4.42 9 21:38 28.01.2021
3202 Haze 22 1013 68 2100 4.08 7 21:20 28.01.2021
3203 Haze 21 1013 73 2200 4.14 7 20:39 28.01.2021
3204 Haze 22 1013 68 2200 3.94 12 20:18 28.01.2021
3205 Haze 22 1013 68 2500 3.94 12 19:47 28.01.2021
3206 Haze 23 1013 64 2500 1.54 10 19:24 28.01.2021
3207 Haze 23 1014 64 2500 2.06 30 18:48 28.01.2021
3208 Haze 23 1014 64 2500 2.57 330 18:28 28.01.2021
3209 Haze 23 1014 64 2500 2.57 330 17:47 28.01.2021
3210 Haze 23 1014 68 2500 2.06 330 17:29 28.01.2021
3211 Haze 24 1014 64 2500 3.6 340 16:46 28.01.2021
3212 Haze 24 1013 64 2500 2.57 340 16:25 28.01.2021
3213 Haze 24 1013 64 2500 1.54 310 15:56 28.01.2021
3214 Haze 24 1012 64 2500 3.09 290 15:24 28.01.2021
3215 Haze 25 1012 65 2500 3.6 300 14:44 28.01.2021
3216 Haze 25 1012 65 2500 3.6 300 14:23 28.01.2021
3217 Haze 26 1011 61 3500 4.63 300 13:54 28.01.2021
3218 Smoke 26 1012 57 3500 5.66 300 13:23 28.01.2021
3219 Smoke 27 1011 44 3500 4.63 330 12:48 28.01.2021
3220 Smoke 29 1011 37 3500 4.63 290 12:23 28.01.2021
3221 Smoke 29 1011 37 3500 4.63 290 11:44 28.01.2021
3222 Smoke 29 1011 37 3000 4.63 290 11:21 28.01.2021
3223 Smoke 29 1011 42 3000 5.14 280 10:57 28.01.2021
3224 Smoke 29 1011 42 3000 5.14 280 10:39 28.01.2021
3225 Smoke 29 1012 45 2500 5.14 270 10:20 28.01.2021
3226 Smoke 29 1012 45 2500 5.14 260 09:36 28.01.2021
3227 Smoke 28 1013 51 2500 5.14 260 09:18 28.01.2021
3228 Smoke 27 1013 51 2200 4.63 260 08:40 28.01.2021
3229 Smoke 28 1014 39 2200 1.54 10 07:49 28.01.2021
3230 Smoke 27 1014 42 2100 1.54 320 07:18 28.01.2021
3231 Smoke 27 1015 44 2100 1.54 0 06:44 28.01.2021
3232 Haze 21 1014 73 1500 4.07 24 04:30 28.01.2021
3233 Haze 18 1012 72 1500 5.38 7 02:33 28.01.2021
3234 Haze 19 1011 77 2200 3.13 7 00:29 28.01.2021
3235 Haze 21 1012 73 2200 2.75 16 23:25 27.01.2021
3236 Haze 21 1012 73 2200 2.79 16 22:44 27.01.2021
3237 Haze 21 1012 78 2200 3.2 15 22:26 27.01.2021
3238 Haze 21 1012 78 2200 3.2 15 22:26 27.01.2021
3239 Haze 22 1012 73 2200 3.2 15 21:59 27.01.2021
3240 Haze 22 1012 73 2200 3.2 15 21:40 27.01.2021
3241 Haze 21 1012 78 2200 3.73 9 21:22 27.01.2021
3242 Haze 23 1012 68 1600 1.54 300 20:41 27.01.2021
3243 Haze 23 1013 68 1600 3.94 6 19:58 27.01.2021
3244 Haze 23 1013 68 1600 3.94 6 19:39 27.01.2021
3245 Haze 23 1013 68 1600 3.97 9 19:20 27.01.2021
3246 Haze 23 1013 68 1600 3.97 9 19:20 27.01.2021
3247 Haze 22 1013 73 1800 3.97 9 18:43 27.01.2021
3248 Haze 23 1013 73 2500 1.54 330 18:23 27.01.2021
3249 Haze 24 1013 64 2500 1.54 350 17:46 27.01.2021
3250 Haze 24 1013 64 2500 3.09 330 17:21 27.01.2021
3251 Smoke 24 1012 60 2500 2.06 320 16:48 27.01.2021
3252 Smoke 25 1012 53 2500 1.54 300 16:28 27.01.2021
3253 Smoke 25 1012 53 2500 2.06 330 15:51 27.01.2021
3254 Smoke 25 1012 57 2500 2.57 310 15:32 27.01.2021
3255 Haze 25 1011 61 2500 2.57 290 14:45 27.01.2021
3256 Smoke 26 1011 57 2500 3.09 300 14:22 27.01.2021
3257 Smoke 26 1011 53 2500 4.12 290 13:48 27.01.2021
3258 Smoke 27 1011 50 3000 3.6 310 13:19 27.01.2021
3259 Smoke 28 1011 44 3000 4.12 320 12:40 27.01.2021
3260 Smoke 28 1010 42 3000 4.12 310 12:21 27.01.2021
3261 Smoke 28 1010 39 3000 4.63 290 11:44 27.01.2021
3262 Smoke 28 1011 39 3000 4.12 280 11:22 27.01.2021
3263 Smoke 28 1011 39 3000 4.12 280 11:22 27.01.2021
3264 Smoke 28 1011 42 3000 4.63 270 10:40 27.01.2021
3265 Smoke 28 1011 42 3000 4.63 270 10:21 27.01.2021
3266 Smoke 28 1012 45 3000 5.14 270 09:47 27.01.2021
3267 Smoke 28 1013 42 2500 4.63 270 08:59 27.01.2021
3268 Smoke 28 1013 44 2500 5.14 260 08:31 27.01.2021
3269 Smoke 28 1013 44 2200 4.63 260 07:43 27.01.2021
3270 Smoke 28 1013 44 2200 4.63 260 07:43 27.01.2021
3271 Smoke 27 1014 44 2100 1.72 350 07:19 27.01.2021
3272 Smoke 24 1014 50 2100 1.54 340 06:19 27.01.2021
3273 Haze 23 1014 56 1800 2.13 15 05:43 27.01.2021
3274 Haze 20 1013 73 1800 2.06 100 03:35 27.01.2021
3275 Haze 21 1012 68 2500 1.54 120 02:23 27.01.2021
3276 Haze 21 1011 68 2500 2.81 25 01:50 27.01.2021
3277 Haze 21 1011 73 2500 3.78 17 00:34 27.01.2021
3278 Haze 21 1011 73 2500 4.2 11 23:49 26.01.2021
3279 Haze 21 1011 73 2500 1.54 50 23:30 26.01.2021
3280 Haze 21 1012 73 2500 1.54 60 22:50 26.01.2021
3281 Haze 21 1012 73 2500 1.03 10 22:24 26.01.2021
3282 Haze 22 1012 73 2500 1.03 30 21:54 26.01.2021
3283 Haze 22 1012 68 2500 3.51 13 21:34 26.01.2021
3284 Haze 23 1012 64 2500 3.76 14 20:58 26.01.2021
3285 Haze 23 1012 64 2500 1.54 290 20:40 26.01.2021
3286 Haze 23 1012 64 2500 1.54 290 20:21 26.01.2021
3287 Haze 22 1013 73 2500 4.01 8 19:45 26.01.2021
3288 Haze 22 1013 73 2500 4.15 359 19:24 26.01.2021
3289 Haze 23 1013 64 2500 4.22 359 18:49 26.01.2021
3290 Haze 23 1013 68 2500 1.03 30 18:28 26.01.2021
3291 Haze 23 1013 68 2500 1.54 30 17:55 26.01.2021
3292 Haze 23 1013 68 2500 3.09 360 17:37 26.01.2021
3293 Haze 24 1012 64 3000 2.06 350 16:56 26.01.2021
3294 Haze 24 1012 64 3000 2.57 330 16:37 26.01.2021
3295 Haze 24 1012 64 3000 2.57 330 16:19 26.01.2021
3296 Haze 24 1012 69 3000 3.6 310 15:46 26.01.2021
3297 Haze 24 1012 64 3000 2.06 310 15:24 26.01.2021
3298 Smoke 25 1011 65 3000 3.09 310 14:46 26.01.2021
3299 Smoke 25 1011 61 3000 3.09 300 14:28 26.01.2021
3300 Smoke 26 1011 47 3000 4.12 300 13:37 26.01.2021
3301 Smoke 26 1011 47 3000 4.12 300 13:18 26.01.2021
3302 Smoke 26 1011 47 3000 4.12 300 13:18 26.01.2021
3303 Smoke 27 1011 47 3000 4.12 310 12:42 26.01.2021
3304 Smoke 28 1010 47 3000 4.63 300 12:22 26.01.2021
3305 Smoke 28 1010 47 3000 4.63 280 11:51 26.01.2021
3306 Smoke 28 1011 37 3000 3.6 310 11:30 26.01.2021
3307 Smoke 28 1011 36 3000 4.63 300 10:44 26.01.2021
3308 Smoke 28 1011 39 3000 5.14 290 10:25 26.01.2021
3309 Smoke 28 1012 42 2500 4.63 280 09:40 26.01.2021
3310 Smoke 28 1012 42 2500 4.63 260 09:22 26.01.2021
3311 Smoke 28 1013 42 2500 3.6 260 08:50 26.01.2021
3312 Smoke 28 1013 44 2500 4.12 260 08:21 26.01.2021
3313 Smoke 27 1014 42 2200 2.57 250 07:27 26.01.2021
3314 Smoke 25 1015 50 2100 1.54 310 05:58 26.01.2021
3315 Smoke 24 1015 53 1900 1.54 40 05:40 26.01.2021
3316 Haze 21 1014 68 1800 3.61 18 03:51 26.01.2021
3317 Haze 21 1013 68 2500 3.57 15 02:19 26.01.2021
3318 Haze 21 1012 68 2500 4.19 9 00:49 26.01.2021
3319 Haze 22 1012 64 2500 1.54 360 23:36 25.01.2021
3320 Haze 22 1013 64 2500 2.57 20 22:56 25.01.2021
3321 Haze 22 1013 64 2500 2.06 340 22:35 25.01.2021
3322 Haze 22 1013 64 2500 1.54 20 21:49 25.01.2021
3323 Haze 23 1013 60 2500 1.54 340 21:23 25.01.2021
3324 Haze 23 1013 60 2500 2.06 340 20:50 25.01.2021
3325 Smoke 23 1014 60 2500 2.06 330 20:32 25.01.2021
3326 Smoke 23 1014 64 2500 2.06 310 19:51 25.01.2021
3327 Smoke 23 1014 64 2500 2.57 340 19:31 25.01.2021
3328 Smoke 23 1014 64 2500 2.06 340 18:48 25.01.2021
3329 Smoke 24 1014 57 2500 3.09 350 18:28 25.01.2021
3330 Haze 24 1014 53 2500 2.06 310 17:58 25.01.2021
3331 Haze 24 1014 60 2500 1.54 280 17:39 25.01.2021
3332 Haze 24 1014 60 2500 1.54 280 17:20 25.01.2021
3333 Haze 24 1013 69 3000 3.09 300 16:41 25.01.2021
3334 Haze 24 1013 69 3000 3.09 300 16:21 25.01.2021
3335 Haze 25 1013 65 3000 3.09 310 15:48 25.01.2021
3336 Haze 25 1013 61 3000 2.57 290 15:29 25.01.2021
3337 Haze 25 1012 69 3000 3.6 280 14:46 25.01.2021
3338 Smoke 26 1012 53 3000 3.09 290 14:19 25.01.2021
3339 Smoke 26 1012 47 3000 2.57 310 13:52 25.01.2021
3340 Smoke 27 1012 39 3000 4.63 290 13:28 25.01.2021
3341 Smoke 28 1012 36 4000 4.12 320 12:46 25.01.2021
3342 Smoke 29 1011 34 4000 4.12 310 12:20 25.01.2021
3343 Smoke 29 1011 30 4000 5.66 280 11:48 25.01.2021
3344 Smoke 29 1012 30 4000 5.14 330 11:19 25.01.2021
3345 Smoke 29 1012 34 3500 5.14 290 10:41 25.01.2021
3346 Smoke 29 1012 37 3500 4.63 300 10:19 25.01.2021
3347 Smoke 30 1012 37 3000 5.14 280 09:45 25.01.2021
3348 Smoke 29 1013 37 2500 4.12 230 09:27 25.01.2021
3349 Smoke 28 1014 34 2500 3.6 260 08:29 25.01.2021
3350 Smoke 28 1015 39 2200 2.06 350 07:32 25.01.2021
3351 Smoke 27 1015 41 1800 2.06 280 06:55 25.01.2021
3352 Haze 22 1014 60 1800 2.79 31 04:18 25.01.2021
3353 Haze 22 1012 60 3000 2.99 33 01:33 25.01.2021
3354 Haze 21 1012 64 3000 2.97 24 23:51 24.01.2021
3355 Haze 22 1012 56 3000 2.81 26 23:19 24.01.2021
3356 Haze 23 1012 56 3000 2.06 350 22:43 24.01.2021
3357 Haze 23 1012 56 3000 2.06 40 22:21 24.01.2021
3358 Haze 23 1013 60 3000 2.79 32 21:49 24.01.2021
3359 Haze 23 1013 60 3000 3.14 14 21:24 24.01.2021
3360 Haze 23 1013 60 3000 3.09 15 21:24 24.01.2021
3361 Haze 23 1013 60 3000 2.06 20 20:46 24.01.2021
3362 Haze 24 1013 57 3000 1.54 330 20:22 24.01.2021
3363 Haze 24 1013 60 3000 2.57 340 19:53 24.01.2021
3364 Haze 24 1014 60 3000 1.54 340 19:28 24.01.2021
3365 Haze 24 1014 57 3000 1.54 270 18:59 24.01.2021
3366 Haze 24 1014 57 3000 1.54 270 18:40 24.01.2021
3367 Haze 24 1014 60 3000 2.06 290 18:21 24.01.2021
3368 Haze 25 1014 61 3000 2.57 300 17:51 24.01.2021
3369 Haze 25 1013 61 3000 4.36 348 17:30 24.01.2021
3370 Smoke 25 1013 65 3000 1.54 310 16:59 24.01.2021
3371 Smoke 25 1013 65 3000 1.54 310 16:39 24.01.2021
3372 Smoke 26 1013 57 3000 2.06 340 16:19 24.01.2021
3373 Smoke 26 1013 57 3000 2.06 330 15:44 24.01.2021
3374 Smoke 26 1012 53 3000 2.06 290 15:19 24.01.2021
3375 Smoke 27 1012 50 3000 1.54 310 14:43 24.01.2021
3376 Smoke 27 1012 44 3500 2.57 300 13:52 24.01.2021
3377 Smoke 27 1011 57 4000 3.09 300 13:34 24.01.2021
3378 Smoke 28 1011 39 4000 4.63 300 12:51 24.01.2021
3379 Smoke 29 1011 51 3500 5.14 290 12:22 24.01.2021
3380 Smoke 29 1011 51 3500 5.14 290 11:54 24.01.2021
3381 Smoke 29 1011 51 3500 5.14 280 11:25 24.01.2021
3382 Smoke 29 1011 45 3500 4.63 290 10:59 24.01.2021
3383 Smoke 29 1011 42 3500 4.63 300 10:30 24.01.2021
3384 Smoke 30 1012 42 3500 4.63 290 09:47 24.01.2021
3385 Smoke 30 1013 33 3000 2.57 320 09:19 24.01.2021
3386 Smoke 30 1013 35 2500 2.06 300 08:37 24.01.2021
3387 Haze 22 1013 60 2200 1.54 160 03:51 24.01.2021
3388 Haze 23 1012 68 2500 4.05 357 02:19 24.01.2021
3389 Mist 22 1011 73 2500 4.2 354 00:56 24.01.2021
3390 Mist 23 1011 73 2500 3.75 351 00:21 24.01.2021
3391 Mist 23 1011 78 2500 3.75 351 23:41 23.01.2021
3392 Haze 23 1011 78 2500 3.15 355 23:19 23.01.2021
3393 Haze 23 1012 78 2500 3.1 355 22:41 23.01.2021
3394 Haze 23 1012 78 2500 2.88 1 22:20 23.01.2021
3395 Haze 23 1012 73 2500 1.54 260 21:24 23.01.2021
3396 Haze 23 1012 78 2500 1.54 260 20:58 23.01.2021
3397 Haze 23 1012 78 2500 1.54 260 20:38 23.01.2021
3398 Haze 24 1012 69 3000 1.54 270 20:20 23.01.2021
3399 Haze 25 1012 65 3000 1.54 280 19:43 23.01.2021
3400 Smoke 26 1012 57 3000 1.54 190 19:20 23.01.2021
3401 Smoke 26 1012 61 3000 3.57 347 18:43 23.01.2021
3402 Smoke 26 1012 57 3000 1.54 300 18:23 23.01.2021
3403 Smoke 26 1012 57 3000 1.54 290 17:43 23.01.2021
3404 Smoke 27 1012 54 3000 1.54 320 17:24 23.01.2021
3405 Smoke 27 1012 54 3000 1.54 310 16:45 23.01.2021
3406 Smoke 27 1011 54 3000 1.54 290 15:58 23.01.2021
3407 Smoke 27 1011 54 3000 2.06 310 15:30 23.01.2021
3408 Smoke 27 1011 57 3000 2.06 300 14:46 23.01.2021
3409 Smoke 27 1010 54 3000 3.09 290 14:25 23.01.2021
3410 Smoke 28 1010 48 2500 3.6 290 13:50 23.01.2021
3411 Smoke 28 1010 48 2500 4.12 300 13:26 23.01.2021
3412 Smoke 29 1009 45 2500 4.63 290 12:46 23.01.2021
3413 Smoke 30 1009 42 2500 4.12 290 12:25 23.01.2021
3414 Smoke 31 1009 37 2500 4.12 280 11:44 23.01.2021
3415 Smoke 31 1009 37 2500 4.12 280 11:18 23.01.2021
3416 Smoke 31 1010 43 2500 4.63 280 10:27 23.01.2021
3417 Smoke 30 1011 45 2500 5.66 250 09:54 23.01.2021
3418 Smoke 30 1011 45 2500 5.14 250 09:32 23.01.2021
3419 Smoke 31 1012 40 2500 3.6 250 08:45 23.01.2021
3420 Smoke 30 1013 40 2200 2.57 350 07:57 23.01.2021
3421 Smoke 29 1013 45 2200 2.57 40 07:18 23.01.2021
3422 Haze 24 1012 57 2200 3.13 12 03:35 23.01.2021
3423 Haze 24 1010 69 2200 1.54 320 00:34 23.01.2021
3424 Haze 24 1010 73 2200 3.22 350 23:38 22.01.2021
3425 Haze 24 1010 73 2200 3.16 350 23:38 22.01.2021
3426 Haze 23 1010 78 2200 2.85 350 22:46 22.01.2021
3427 Haze 23 1011 78 2200 2.36 358 22:22 22.01.2021
3428 Haze 24 1011 73 2200 2.36 358 21:45 22.01.2021
3429 Haze 24 1011 69 2200 2.34 359 21:26 22.01.2021
3430 Haze 24 1011 69 2200 1.54 260 20:55 22.01.2021
3431 Haze 25 1011 61 2200 2.34 359 20:33 22.01.2021
3432 Smoke 26 1011 57 2500 1.54 10 19:48 22.01.2021
3433 Smoke 25 1011 57 2500 3.6 341 19:21 22.01.2021
3434 Smoke 25 1011 57 2500 3.6 341 18:55 22.01.2021
3435 Smoke 26 1011 53 2500 3.53 332 18:28 22.01.2021
3436 Smoke 26 1011 53 2500 3.53 332 17:58 22.01.2021
3437 Smoke 27 1011 50 2500 3.53 332 17:39 22.01.2021
3438 Haze 27 1011 50 2200 2.06 320 16:59 22.01.2021
3439 Haze 27 1011 50 2200 2.06 300 16:36 22.01.2021
3440 Haze 27 1010 54 2200 2.06 300 15:55 22.01.2021
3441 Haze 27 1010 54 2200 2.57 300 15:26 22.01.2021
3442 Haze 27 1010 57 2200 2.57 300 14:43 22.01.2021
3443 Smoke 27 1010 65 2100 2.57 320 14:25 22.01.2021
3444 Smoke 28 1009 54 2200 3.6 300 13:46 22.01.2021
3445 Smoke 28 1009 57 2500 3.6 300 13:27 22.01.2021
3446 Smoke 29 1009 54 2500 4.63 290 12:42 22.01.2021
3447 Smoke 29 1009 48 2500 3.6 310 12:19 22.01.2021
3448 Smoke 29 1009 48 2500 3.6 310 11:42 22.01.2021
3449 Smoke 30 1010 48 2500 5.66 250 10:49 22.01.2021
3450 Smoke 30 1010 48 2200 5.14 250 10:29 22.01.2021
3451 Smoke 30 1011 45 2200 5.14 250 09:55 22.01.2021
3452 Smoke 29 1011 45 2200 4.63 260 09:20 22.01.2021
3453 Smoke 29 1012 45 2200 4.12 260 08:45 22.01.2021
3454 Smoke 29 1012 42 2200 4.12 260 08:22 22.01.2021
3455 Smoke 28 1013 42 2200 2.06 300 07:23 22.01.2021
3456 Haze 22 1012 68 2200 2.06 80 02:38 22.01.2021
3457 Haze 22 1011 68 2200 3.16 13 00:37 22.01.2021
3458 Haze 23 1011 64 2200 3.02 8 23:50 21.01.2021
3459 Haze 23 1011 68 2200 2.8 3 23:29 21.01.2021
3460 Haze 23 1012 68 2200 1.03 360 22:48 21.01.2021
3461 Haze 23 1012 68 2200 1.54 320 22:21 21.01.2021
3462 Haze 24 1012 64 2200 1.54 360 21:43 21.01.2021
3463 Haze 24 1012 64 2200 1.54 360 21:19 21.01.2021
3464 Haze 24 1012 64 2200 1.03 40 20:47 21.01.2021
3465 Haze 24 1012 64 2200 1.03 40 20:26 21.01.2021
3466 Haze 24 1013 69 2200 1.54 360 19:51 21.01.2021
3467 Haze 24 1013 69 2200 1.54 360 19:28 21.01.2021
3468 Haze 24 1013 69 2200 2.06 360 18:54 21.01.2021
3469 Haze 25 1013 69 2200 2.57 330 18:36 21.01.2021
3470 Haze 25 1013 69 2200 2.57 330 18:18 21.01.2021
3471 Haze 25 1013 69 2200 2.57 350 17:42 21.01.2021
3472 Haze 25 1013 69 2200 2.06 300 17:18 21.01.2021
3473 Haze 25 1013 69 2200 2.06 300 16:41 21.01.2021
3474 Haze 25 1012 69 2200 3.6 310 16:23 21.01.2021
3475 Haze 25 1012 69 2200 3.6 310 15:58 21.01.2021
3476 Haze 26 1012 61 2200 3.6 310 15:33 21.01.2021
3477 Smoke 26 1011 50 2500 3.6 310 14:52 21.01.2021
3478 Smoke 27 1011 47 2500 3.6 300 14:31 21.01.2021
3479 Smoke 27 1011 44 3000 4.12 310 13:48 21.01.2021
3480 Smoke 28 1011 44 3500 4.12 290 13:27 21.01.2021
3481 Smoke 29 1010 26 3500 3.6 320 12:47 21.01.2021
3482 Smoke 29 1010 32 3500 4.12 310 12:27 21.01.2021
3483 Smoke 30 1010 20 3000 3.09 310 11:59 21.01.2021
3484 Smoke 30 1010 20 3000 3.09 310 11:41 21.01.2021
3485 Smoke 29 1011 24 3000 3.6 290 11:22 21.01.2021
3486 Smoke 28 1011 36 3000 5.14 270 10:43 21.01.2021
3487 Smoke 29 1011 32 3000 4.63 280 10:24 21.01.2021
3488 Smoke 29 1011 37 2500 5.14 270 09:40 21.01.2021
3489 Smoke 29 1011 37 2500 5.14 270 09:20 21.01.2021
3490 Smoke 28 1012 39 2500 5.14 260 08:35 21.01.2021
3491 Smoke 28 1013 39 2200 3.6 250 07:48 21.01.2021
3492 Smoke 28 1013 39 2200 2.57 270 07:26 21.01.2021
3493 Smoke 26 1014 44 2200 1.54 180 06:37 21.01.2021
3494 Smoke 24 1014 50 1800 2.87 26 04:56 21.01.2021
3495 Smoke 22 1013 60 2500 2.57 340 02:19 21.01.2021
3496 Smoke 23 1012 49 2500 3.09 340 00:42 21.01.2021
3497 Smoke 23 1011 49 2500 1.54 310 23:50 20.01.2021
3498 Smoke 23 1011 46 2500 3.92 346 23:27 20.01.2021
3499 Smoke 23 1012 46 2500 3.86 346 22:53 20.01.2021
3500 Smoke 24 1012 43 2500 1.54 320 22:32 20.01.2021
3501 Smoke 24 1012 46 2500 1.54 340 21:55 20.01.2021
3502 Smoke 24 1012 46 3000 2.74 349 21:23 20.01.2021
3503 Smoke 24 1012 43 3000 2.74 349 20:54 20.01.2021
3504 Smoke 25 1013 41 3000 2.06 300 20:24 20.01.2021
3505 Smoke 24 1013 43 3000 1.54 270 19:55 20.01.2021
3506 Smoke 25 1013 36 3000 2.06 250 19:37 20.01.2021
3507 Smoke 25 1013 36 3000 2.06 250 19:18 20.01.2021
3508 Smoke 26 1014 34 3000 3.03 358 18:41 20.01.2021
3509 Smoke 26 1014 36 3000 2.06 310 17:56 20.01.2021
3510 Smoke 26 1014 36 3000 2.06 310 17:36 20.01.2021
3511 Smoke 27 1013 39 3000 3.09 330 16:52 20.01.2021
3512 Smoke 27 1013 44 3000 3.09 340 16:30 20.01.2021
3513 Smoke 27 1013 41 3000 2.06 310 15:48 20.01.2021
3514 Smoke 27 1013 39 3000 2.57 290 15:19 20.01.2021
3515 Smoke 28 1012 36 3000 2.57 310 14:46 20.01.2021
3516 Smoke 28 1012 36 3500 3.09 290 14:22 20.01.2021
3517 Smoke 29 1011 44 2500 3.6 310 13:42 20.01.2021
3518 Smoke 29 1011 37 3500 3.6 300 13:21 20.01.2021
3519 Smoke 30 1011 40 3500 4.12 300 12:39 20.01.2021
3520 Smoke 30 1011 40 3500 4.12 280 11:56 20.01.2021
3521 Smoke 31 1011 37 3500 4.12 290 11:35 20.01.2021
3522 Smoke 31 1011 40 3500 4.12 300 10:56 20.01.2021
3523 Smoke 31 1011 40 3500 3.6 290 10:32 20.01.2021
3524 Smoke 32 1011 38 3500 3.6 270 09:54 20.01.2021
3525 Smoke 31 1012 42 3000 4.12 260 09:26 20.01.2021
3526 Smoke 30 1013 40 2500 4.12 260 08:55 20.01.2021
3527 Smoke 30 1013 40 2500 4.63 240 08:30 20.01.2021
3528 Smoke 31 1013 29 2500 1.54 60 07:57 20.01.2021
3529 Smoke 30 1013 51 3000 1.54 260 07:35 20.01.2021
3530 Smoke 28 1015 42 2200 2.39 16 05:51 20.01.2021
3531 Haze 24 1012 60 2200 1.54 10 03:28 20.01.2021
3532 Haze 24 1011 64 2500 4.08 350 01:19 20.01.2021
3533 Haze 24 1011 64 2500 4.15 350 00:46 20.01.2021
3534 Haze 23 1011 73 2500 3.12 355 23:49 19.01.2021
3535 Haze 24 1011 69 2500 2.51 359 23:26 19.01.2021
3536 Haze 25 1011 65 2500 2.51 359 22:57 19.01.2021
3537 Haze 25 1011 65 2500 2.51 359 22:37 19.01.2021
3538 Smoke 25 1011 61 2500 2.09 12 22:19 19.01.2021
3539 Smoke 26 1011 57 2500 2.09 12 21:50 19.01.2021
3540 Smoke 26 1011 57 2500 1.54 140 21:26 19.01.2021
3541 Smoke 26 1011 53 2500 2.22 21 20:44 19.01.2021
3542 Smoke 27 1012 50 2500 2.83 16 20:24 19.01.2021
3543 Smoke 27 1012 54 2500 2.83 16 19:53 19.01.2021
3544 Smoke 27 1012 57 2500 3.41 5 19:28 19.01.2021
3545 Smoke 27 1012 54 2500 2.06 300 18:49 19.01.2021
3546 Smoke 28 1012 47 3000 2.57 350 18:27 19.01.2021
3547 Smoke 27 1013 57 3000 2.06 50 17:46 19.01.2021
3548 Smoke 28 1012 54 3000 1.54 330 17:27 19.01.2021
3549 Smoke 27 1012 57 3000 1.54 330 16:50 19.01.2021
3550 Smoke 27 1012 57 3000 2.57 280 16:29 19.01.2021
3551 Smoke 28 1011 51 3000 2.57 290 15:59 19.01.2021
3552 Smoke 28 1011 51 3000 2.57 290 15:40 19.01.2021
3553 Smoke 28 1011 51 3000 2.57 300 15:19 19.01.2021
3554 Smoke 28 1011 48 2500 3.09 290 14:41 19.01.2021
3555 Smoke 28 1011 48 2500 3.09 290 14:22 19.01.2021
3556 Smoke 29 1010 45 2500 2.57 300 13:41 19.01.2021
3557 Smoke 29 1010 45 2500 4.12 310 13:21 19.01.2021
3558 Smoke 29 1010 45 2500 4.12 310 13:21 19.01.2021
3559 Smoke 30 1010 40 2500 4.12 280 12:48 19.01.2021
3560 Smoke 31 1010 37 2500 4.63 290 12:29 19.01.2021
3561 Smoke 31 1010 40 2500 3.6 270 11:44 19.01.2021
3562 Smoke 31 1010 37 2500 5.14 250 11:26 19.01.2021
3563 Smoke 31 1010 37 2500 5.66 250 10:51 19.01.2021
3564 Smoke 31 1010 42 2500 5.66 260 10:32 19.01.2021
3565 Smoke 31 1011 40 2500 5.14 260 09:53 19.01.2021
3566 Smoke 31 1011 40 2500 3.6 260 09:30 19.01.2021
3567 Smoke 31 1012 37 2500 3.6 250 08:56 19.01.2021
3568 Smoke 30 1012 40 2500 3.6 250 08:24 19.01.2021
3569 Smoke 30 1013 37 2500 2.93 329 07:47 19.01.2021
3570 Smoke 29 1014 39 2500 1.54 140 06:54 19.01.2021
3571 Haze 24 1011 53 3000 4.22 359 02:33 19.01.2021
3572 Haze 23 1010 60 3000 4 349 01:27 19.01.2021
3573 Haze 24 1010 57 3000 2.78 349 23:58 18.01.2021
3574 Haze 25 1010 57 3000 2.73 349 23:34 18.01.2021
3575 Haze 25 1010 57 3000 2.06 320 22:51 18.01.2021
3576 Haze 24 1010 53 3000 1.94 352 22:26 18.01.2021
3577 Haze 24 1010 53 3000 1.9 352 21:58 18.01.2021
3578 Haze 24 1010 53 3000 1.94 352 21:39 18.01.2021
3579 Haze 25 1010 50 3000 1.93 7 21:20 18.01.2021
3580 Haze 26 1011 44 3000 1.54 0 20:43 18.01.2021
3581 Haze 26 1011 44 3000 1.54 0 20:24 18.01.2021
3582 Haze 26 1011 44 3000 1.54 260 19:51 18.01.2021
3583 Haze 26 1011 41 3000 2.55 4 19:32 18.01.2021
3584 Haze 26 1012 38 3000 2.62 6 18:47 18.01.2021
3585 Haze 26 1012 41 3000 3.18 0 18:23 18.01.2021
3586 Haze 27 1012 41 3000 2.06 360 17:45 18.01.2021
3587 Haze 27 1012 41 3000 2.57 330 17:22 18.01.2021
3588 Haze 27 1012 50 3000 2.06 350 16:46 18.01.2021
3589 Haze 27 1011 57 3000 3.09 330 16:22 18.01.2021
3590 Haze 27 1011 65 3000 3.6 310 15:48 18.01.2021
3591 Haze 27 1011 65 3000 3.6 300 15:25 18.01.2021
3592 Haze 27 1010 61 3000 3.09 300 14:44 18.01.2021
3593 Smoke 28 1010 47 4000 3.6 310 14:26 18.01.2021
3594 Smoke 29 1010 45 4000 3.6 300 13:47 18.01.2021
3595 Smoke 30 1009 35 4000 3.09 310 13:28 18.01.2021
3596 Smoke 30 1009 39 3000 4.12 280 12:55 18.01.2021
3597 Smoke 31 1009 48 3000 4.63 270 12:21 18.01.2021
3598 Smoke 30 1009 48 3000 4.12 260 11:57 18.01.2021
3599 Smoke 30 1009 48 3000 4.63 260 11:39 18.01.2021
3600 Smoke 30 1009 48 3000 4.63 260 11:20 18.01.2021
3601 Smoke 28 1010 57 3000 3.09 260 10:44 18.01.2021
3602 Smoke 29 1011 54 3000 4.12 260 09:50 18.01.2021
3603 Smoke 29 1011 54 3000 5.66 250 09:32 18.01.2021
3604 Smoke 30 1011 45 3000 3.09 260 08:54 18.01.2021
3605 Smoke 29 1012 51 3000 4.12 250 08:18 18.01.2021
3606 Smoke 29 1013 35 3000 1.54 50 07:37 18.01.2021
3607 Haze 26 1014 69 2500 2.57 360 05:45 18.01.2021
3608 Mist 25 1013 78 2200 2.57 360 04:39 18.01.2021
3609 Mist 24 1013 83 2200 2.06 40 04:18 18.01.2021
3610 Mist 24 1012 83 2200 3.09 340 03:42 18.01.2021
3611 Haze 24 1012 78 2500 2.57 10 03:20 18.01.2021
3612 Haze 24 1011 73 3000 3.09 340 02:40 18.01.2021
3613 Haze 24 1011 69 3000 2.06 320 01:39 18.01.2021
3614 Haze 24 1010 69 3000 2.57 350 00:35 18.01.2021
3615 Haze 24 1010 73 3000 2.06 320 23:49 17.01.2021
3616 Haze 24 1010 73 3000 2.06 340 23:22 17.01.2021
3617 Haze 24 1010 73 3000 1.54 340 22:46 17.01.2021
3618 Haze 24 1010 73 3000 2.96 337 22:22 17.01.2021
3619 Haze 24 1011 78 3000 1.54 10 21:42 17.01.2021
3620 Haze 24 1011 78 3000 1.54 10 21:24 17.01.2021
3621 Haze 24 1011 73 3000 2.87 330 20:49 17.01.2021
3622 Haze 25 1011 69 3000 2.87 330 20:30 17.01.2021
3623 Haze 25 1011 69 3000 1.54 0 19:44 17.01.2021
3624 Haze 25 1011 69 3000 2.93 325 19:26 17.01.2021
3625 Haze 25 1011 69 3000 1.54 300 18:51 17.01.2021
3626 Haze 26 1011 61 3000 2.06 300 18:28 17.01.2021
3627 Haze 26 1012 61 3000 2.06 310 17:49 17.01.2021
3628 Haze 26 1011 61 3000 1.54 320 17:28 17.01.2021
3629 Haze 26 1011 65 3000 2.06 60 16:45 17.01.2021
3630 Haze 26 1011 65 3000 2.06 310 16:24 17.01.2021
3631 Haze 26 1010 69 3000 2.57 300 15:44 17.01.2021
3632 Haze 26 1010 69 3000 2.57 330 15:26 17.01.2021
3633 Smoke 26 1010 65 3000 3.6 310 14:53 17.01.2021
3634 Smoke 27 1009 57 4000 3.6 300 14:27 17.01.2021
3635 Smoke 28 1009 51 4000 3.6 290 13:58 17.01.2021
3636 Smoke 28 1009 57 4000 3.6 290 13:40 17.01.2021
3637 Smoke 28 1008 48 4000 4.12 270 13:21 17.01.2021
3638 Smoke 29 1008 54 4000 3.09 280 12:41 17.01.2021
3639 Smoke 29 1008 37 4000 4.12 260 12:22 17.01.2021
3640 Smoke 29 1008 37 4000 3.6 260 11:25 17.01.2021
3641 Smoke 29 1008 37 3500 3.6 240 10:51 17.01.2021
3642 Smoke 29 1008 39 3500 4.12 260 10:24 17.01.2021
3643 Smoke 29 1009 42 3000 4.63 260 09:48 17.01.2021
3644 Smoke 29 1009 48 2500 4.12 280 08:48 17.01.2021
3645 Smoke 29 1010 51 2500 5.14 250 08:26 17.01.2021
3646 Haze 24 1010 73 1700 2.85 358 04:29 17.01.2021
3647 Haze 23 1009 73 2100 2.52 356 02:50 17.01.2021
3648 Haze 23 1008 68 2200 2.31 3 00:56 17.01.2021
3649 Haze 23 1008 68 2200 2.52 360 00:21 17.01.2021
3650 Haze 23 1008 68 2500 2.52 360 23:52 16.01.2021
3651 Haze 23 1009 68 2500 2.82 352 23:21 16.01.2021
3652 Haze 23 1009 73 2500 2.77 352 22:53 16.01.2021
3653 Haze 24 1009 64 2500 3.26 340 22:19 16.01.2021
3654 Haze 24 1009 69 2500 3.26 340 21:45 16.01.2021
3655 Haze 24 1009 73 2500 3.02 331 21:22 16.01.2021
3656 Haze 24 1009 73 2500 3.08 331 20:47 16.01.2021
3657 Haze 24 1009 73 2500 2.57 331 20:23 16.01.2021
3658 Haze 24 1010 73 2500 2.57 331 19:49 16.01.2021
3659 Haze 24 1010 69 3000 2.06 343 19:29 16.01.2021
3660 Haze 25 1010 65 3000 2 344 18:46 16.01.2021
3661 Haze 25 1010 61 3000 2.08 353 18:27 16.01.2021
3662 Haze 25 1010 61 3000 2.06 340 17:50 16.01.2021
3663 Haze 25 1010 61 3000 2.06 340 17:30 16.01.2021
3664 Haze 25 1009 65 3000 2.06 350 16:51 16.01.2021
3665 Haze 25 1009 65 3000 2.06 350 16:33 16.01.2021
3666 Smoke 25 1009 69 3000 2.57 290 15:56 16.01.2021
3667 Smoke 25 1009 69 3000 2.57 290 15:37 16.01.2021
3668 Smoke 26 1008 53 3500 3.09 310 14:31 16.01.2021
3669 Smoke 27 1008 54 4000 4.12 290 13:52 16.01.2021
3670 Smoke 27 1008 54 4000 4.12 290 13:52 16.01.2021
3671 Smoke 27 1007 51 4000 4.12 300 13:30 16.01.2021
3672 Smoke 28 1007 47 4000 5.14 290 12:47 16.01.2021
3673 Smoke 28 1007 47 4000 4.12 300 12:23 16.01.2021
3674 Smoke 29 1007 48 4000 5.14 290 11:55 16.01.2021
3675 Smoke 29 1007 42 4000 5.14 270 11:26 16.01.2021
3676 Smoke 29 1007 45 4000 5.66 280 10:54 16.01.2021
3677 Smoke 29 1007 45 4000 5.66 280 10:35 16.01.2021
3678 Smoke 29 1007 37 4000 5.14 260 09:54 16.01.2021
3679 Smoke 29 1008 39 4000 4.63 260 09:19 16.01.2021
3680 Smoke 29 1010 35 4000 3.09 290 08:18 16.01.2021
3681 Clouds 26 1011 42 10000 1.17 8 06:49 16.01.2021
3682 Haze 25 1011 50 2200 1.93 43 04:53 16.01.2021
3683 Haze 21 1010 68 2500 3.51 21 03:18 16.01.2021
3684 Haze 22 1009 64 3000 3.51 21 02:37 16.01.2021
3685 Haze 23 1009 56 3000 2.06 10 00:45 16.01.2021
3686 Smoke 23 1009 56 3000 2.06 360 00:21 16.01.2021
3687 Smoke 23 1009 53 3000 1.54 20 23:36 15.01.2021
3688 Smoke 24 1009 53 3000 4.08 352 22:38 15.01.2021
3689 Smoke 23 1010 60 3000 3.7 346 22:18 15.01.2021
3690 Smoke 23 1010 56 3000 3.7 346 21:42 15.01.2021
3691 Smoke 23 1010 56 3000 3.26 329 20:48 15.01.2021
3692 Smoke 23 1010 60 3000 2.78 310 20:23 15.01.2021
3693 Smoke 24 1010 53 3000 1.54 120 19:48 15.01.2021
3694 Smoke 24 1010 57 3000 2.67 309 19:28 15.01.2021
3695 Smoke 25 1011 50 3000 1.54 340 18:47 15.01.2021
3696 Smoke 25 1011 53 3000 2.06 330 18:21 15.01.2021
3697 Smoke 25 1011 57 3000 3.09 330 17:59 15.01.2021
3698 Smoke 25 1011 61 3000 3.09 330 17:40 15.01.2021
3699 Smoke 25 1011 61 3000 3.09 330 17:21 15.01.2021
3700 Smoke 25 1011 61 3000 3.09 330 17:21 15.01.2021
3701 Smoke 25 1010 61 3000 2.06 310 16:44 15.01.2021
3702 Smoke 26 1010 61 3000 2.57 340 16:23 15.01.2021
3703 Smoke 26 1010 57 3000 1.54 330 15:41 15.01.2021
3704 Smoke 26 1010 57 3000 2.06 320 15:21 15.01.2021
3705 Smoke 27 1010 50 3500 3.09 310 14:44 15.01.2021
3706 Smoke 28 1009 44 3500 4.12 290 14:25 15.01.2021
3707 Smoke 28 1009 39 4000 2.06 280 13:42 15.01.2021
3708 Smoke 29 1009 34 4000 2.06 320 13:22 15.01.2021
3709 Smoke 29 1009 37 4000 3.6 320 12:51 15.01.2021
3710 Smoke 29 1009 37 4000 4.63 310 12:31 15.01.2021
3711 Smoke 28 1009 47 4000 4.12 310 11:46 15.01.2021
3712 Smoke 28 1009 51 3000 5.14 300 11:27 15.01.2021
3713 Smoke 28 1009 44 3000 6.17 300 10:56 15.01.2021
3714 Smoke 28 1009 44 3000 6.17 300 10:37 15.01.2021
3715 Smoke 28 1009 48 3000 6.17 290 09:54 15.01.2021
3716 Smoke 29 1010 54 3000 6.17 270 09:34 15.01.2021
3717 Smoke 28 1011 54 3000 4.63 260 08:42 15.01.2021
3718 Smoke 28 1011 54 3000 4.63 260 08:19 15.01.2021
3719 Smoke 28 1011 65 3000 3.09 260 07:41 15.01.2021
3720 Haze 28 1011 45 2500 4.12 250 07:19 15.01.2021
3721 Haze 25 1011 69 2100 2.06 280 04:35 15.01.2021
3722 Mist 23 1009 83 2500 4 353 01:48 15.01.2021
3723 Haze 24 1009 73 3000 2.57 350 23:55 14.01.2021
3724 Haze 24 1009 69 3000 2.57 330 23:23 14.01.2021
3725 Haze 24 1009 69 3000 2.57 330 22:44 14.01.2021
3726 Haze 24 1009 73 3000 2.06 330 22:25 14.01.2021
3727 Haze 24 1010 78 3000 1.54 320 21:48 14.01.2021
3728 Haze 24 1010 78 3000 2.57 320 21:21 14.01.2021
3729 Haze 24 1010 78 3000 2.57 310 20:51 14.01.2021
3730 Haze 24 1010 78 3000 2.06 280 20:26 14.01.2021
3731 Haze 24 1010 73 3000 3.09 270 19:48 14.01.2021
3732 Haze 25 1011 65 3000 1.54 280 19:29 14.01.2021
3733 Haze 25 1011 65 3000 2.57 280 18:55 14.01.2021
3734 Haze 26 1011 61 3000 2.06 330 18:31 14.01.2021
3735 Haze 25 1011 69 3000 1.54 30 17:53 14.01.2021
3736 Haze 26 1011 65 3000 2.06 20 17:27 14.01.2021
3737 Haze 26 1011 61 3000 3.09 340 16:46 14.01.2021
3738 Haze 26 1010 69 3000 2.57 340 16:26 14.01.2021
3739 Haze 26 1010 69 3000 3.09 310 15:46 14.01.2021
3740 Haze 26 1009 69 3000 4.12 300 15:23 14.01.2021
3741 Smoke 28 1009 54 3000 4.63 290 14:39 14.01.2021
3742 Smoke 28 1009 54 3000 4.63 290 14:20 14.01.2021
3743 Smoke 28 1009 42 3000 3.6 300 13:54 14.01.2021
3744 Smoke 29 1008 37 3000 3.6 320 13:23 14.01.2021
3745 Smoke 30 1008 39 3000 5.14 320 12:54 14.01.2021
3746 Smoke 30 1008 42 2500 5.14 290 12:21 14.01.2021
3747 Smoke 29 1008 51 2500 4.12 310 11:53 14.01.2021
3748 Smoke 30 1008 45 2500 5.14 270 11:21 14.01.2021
3749 Smoke 30 1008 45 2500 5.14 270 10:57 14.01.2021
3750 Smoke 30 1009 54 2200 4.12 300 10:38 14.01.2021
3751 Smoke 30 1009 54 2200 4.12 300 10:18 14.01.2021
3752 Smoke 30 1009 54 2200 5.66 250 09:41 14.01.2021
3753 Smoke 30 1009 54 2200 5.66 250 09:19 14.01.2021
3754 Smoke 30 1011 51 2200 3.09 260 08:28 14.01.2021
3755 Smoke 29 1011 58 2200 4.12 260 07:51 14.01.2021
3756 Smoke 29 1012 48 2100 3.09 270 07:28 14.01.2021
3757 Smoke 31 1013 37 2200 2.57 130 06:24 14.01.2021
3758 Smoke 25 1012 50 2200 1.54 40 04:24 14.01.2021
3759 Haze 25 1011 69 2500 2.9 16 23:57 13.01.2021
3760 Haze 26 1011 61 2500 2.78 16 23:24 13.01.2021
3761 Haze 25 1011 69 2500 2.78 16 22:48 13.01.2021
3762 Haze 25 1011 69 2500 2.9 22 22:20 13.01.2021
3763 Haze 25 1011 69 2500 2.9 22 22:20 13.01.2021
3764 Haze 24 1011 78 2500 1.54 260 21:43 13.01.2021
3765 Smoke 25 1012 69 2500 1.54 280 21:20 13.01.2021
3766 Smoke 25 1012 65 2500 2.06 290 20:51 13.01.2021
3767 Smoke 27 1012 50 2500 1.54 330 20:23 13.01.2021
3768 Smoke 26 1012 53 2500 1.54 360 19:48 13.01.2021
3769 Smoke 27 1012 50 2500 1.54 320 19:24 13.01.2021
3770 Smoke 27 1012 54 2500 3.6 340 18:46 13.01.2021
3771 Smoke 26 1012 65 2500 3.09 30 18:25 13.01.2021
3772 Smoke 27 1012 54 3000 2.06 320 17:42 13.01.2021
3773 Smoke 28 1011 47 3000 3.09 320 17:18 13.01.2021
3774 Smoke 28 1011 47 3000 3.09 320 16:42 13.01.2021
3775 Smoke 29 1011 42 3000 2.57 310 16:21 13.01.2021
3776 Smoke 29 1011 34 3000 2.06 330 15:41 13.01.2021
3777 Smoke 29 1011 32 3000 3.6 340 15:20 13.01.2021
3778 Smoke 29 1010 32 3000 3.6 310 14:28 13.01.2021
3779 Smoke 29 1009 35 3500 3.6 320 13:47 13.01.2021
3780 Smoke 30 1009 35 3500 5.14 310 13:25 13.01.2021
3781 Smoke 31 1009 35 3500 4.63 300 12:46 13.01.2021
3782 Smoke 31 1009 35 3500 4.12 300 12:25 13.01.2021
3783 Smoke 31 1009 37 3000 4.63 310 11:51 13.01.2021
3784 Smoke 32 1009 40 3000 3.6 310 11:33 13.01.2021
3785 Smoke 32 1009 46 3000 4.12 310 10:49 13.01.2021
3786 Smoke 32 1009 43 3000 5.14 290 10:29 13.01.2021
3787 Smoke 32 1010 46 3000 3.6 300 09:49 13.01.2021
3788 Smoke 31 1010 55 3000 5.66 250 09:26 13.01.2021
3789 Smoke 32 1011 27 3000 2.06 50 08:46 13.01.2021
3790 Smoke 32 1012 33 3000 2.06 330 08:23 13.01.2021
3791 Smoke 32 1012 38 2500 2.57 30 07:29 13.01.2021
3792 Smoke 31 1013 45 2500 2.57 30 06:26 13.01.2021
3793 Haze 27 1012 57 2200 2.84 34 04:19 13.01.2021
3794 Haze 27 1012 61 2500 2.06 90 03:44 13.01.2021
3795 Haze 27 1012 61 2500 3.12 29 03:23 13.01.2021
3796 Haze 26 1010 69 2500 3.21 36 00:54 13.01.2021
3797 Haze 26 1010 78 2500 3.26 37 23:44 12.01.2021
3798 Haze 26 1011 78 2500 3.42 27 23:19 12.01.2021
3799 Haze 27 1011 74 2500 3.42 27 22:39 12.01.2021
3800 Haze 27 1011 74 2500 3.69 15 22:20 12.01.2021
3801 Mist 27 1011 74 2500 3.69 15 21:44 12.01.2021
3802 Mist 27 1011 78 2500 3.78 8 21:26 12.01.2021
3803 Mist 27 1011 78 2500 2.06 250 20:48 12.01.2021
3804 Haze 27 1011 78 2500 1.54 250 20:27 12.01.2021
3805 Haze 27 1012 78 2500 1.54 270 19:47 12.01.2021
3806 Haze 29 1012 65 2500 3.39 10 19:26 12.01.2021
3807 Haze 29 1012 65 2500 1.54 350 18:41 12.01.2021
3808 Haze 29 1012 65 2500 1.54 350 18:22 12.01.2021
3809 Haze 29 1012 65 2500 3.09 340 17:37 12.01.2021
3810 Haze 29 1012 65 2500 3.09 340 17:19 12.01.2021
3811 Haze 29 1012 65 2500 1.54 360 16:43 12.01.2021
3812 Haze 29 1011 65 2500 2.57 350 16:22 12.01.2021
3813 Smoke 30 1010 58 2500 2.57 320 15:29 12.01.2021
3814 Smoke 30 1010 51 2500 3.09 320 14:59 12.01.2021
3815 Smoke 30 1010 51 2500 3.09 320 14:41 12.01.2021
3816 Smoke 29 1010 54 2500 1.54 310 14:19 12.01.2021
3817 Smoke 30 1010 51 2500 3.09 300 13:50 12.01.2021
3818 Smoke 30 1009 55 2500 4.12 290 12:50 12.01.2021
3819 Smoke 31 1009 51 2500 4.12 270 12:21 12.01.2021
3820 Smoke 31 1009 58 3000 3.09 300 11:40 12.01.2021
3821 Smoke 32 1009 52 2500 5.66 270 10:50 12.01.2021
3822 Smoke 32 1010 49 2500 5.66 230 10:21 12.01.2021
3823 Smoke 32 1010 49 2500 6.17 250 09:57 12.01.2021
3824 Smoke 33 1011 31 2500 1.54 330 09:28 12.01.2021
3825 Smoke 33 1011 31 2500 2.65 321 08:51 12.01.2021
3826 Smoke 33 1012 31 2500 3.09 330 08:25 12.01.2021
3827 Smoke 31 1012 62 3000 1.54 260 07:36 12.01.2021
3828 Smoke 32 1014 48 2200 2.06 30 06:35 12.01.2021
3829 Haze 29 1013 61 2100 3.09 50 05:33 12.01.2021
3830 Haze 27 1012 74 2200 3.6 30 03:26 12.01.2021
3831 Haze 26 1011 78 2200 2.83 34 02:19 12.01.2021
3832 Haze 26 1011 78 2500 2.97 26 01:28 12.01.2021
3833 Haze 27 1011 74 2500 3.29 24 23:57 11.01.2021
3834 Haze 27 1011 74 2500 3.32 23 23:36 11.01.2021
3835 Haze 27 1011 74 2500 3.09 31 23:18 11.01.2021
3836 Haze 27 1011 74 2500 3.09 31 22:44 11.01.2021
3837 Haze 27 1011 74 2500 3.16 21 22:26 11.01.2021
3838 Haze 27 1011 74 2500 3.16 21 21:39 11.01.2021
3839 Haze 27 1012 74 2500 3.33 11 21:21 11.01.2021
3840 Haze 27 1012 78 2500 3.52 1 20:41 11.01.2021
3841 Haze 28 1012 74 2500 1.54 230 20:23 11.01.2021
3842 Haze 27 1012 78 2500 3.51 3 19:56 11.01.2021
3843 Haze 27 1012 83 2500 1.54 240 19:30 11.01.2021
3844 Haze 27 1013 78 2500 4.08 357 18:46 11.01.2021
3845 Haze 28 1013 74 3000 2.06 250 18:27 11.01.2021
3846 Smoke 29 1013 61 3000 1.54 290 17:56 11.01.2021
3847 Smoke 30 1013 54 3000 2.57 350 17:37 11.01.2021
3848 Smoke 30 1013 54 3000 2.57 350 17:19 11.01.2021
3849 Smoke 30 1012 58 3000 3.6 360 16:39 11.01.2021
3850 Smoke 30 1012 58 3000 2.06 350 16:20 11.01.2021
3851 Smoke 30 1012 54 3000 2.57 340 15:47 11.01.2021
3852 Smoke 30 1011 54 3000 2.06 320 15:26 11.01.2021
3853 Smoke 30 1010 54 3000 2.57 310 14:40 11.01.2021
3854 Smoke 30 1010 54 3000 4.12 320 13:53 11.01.2021
3855 Smoke 30 1010 55 3000 4.63 290 13:27 11.01.2021
3856 Smoke 31 1009 55 3000 3.6 310 12:52 11.01.2021
3857 Smoke 31 1009 51 3000 4.12 290 12:32 11.01.2021
3858 Smoke 31 1009 51 3000 4.12 280 11:56 11.01.2021
3859 Smoke 32 1009 52 3000 3.6 280 11:36 11.01.2021
3860 Smoke 31 1010 55 3000 4.12 280 10:53 11.01.2021
3861 Smoke 31 1010 58 2500 4.63 280 10:26 11.01.2021
3862 Smoke 30 1010 66 2500 4.12 270 09:44 11.01.2021
3863 Smoke 31 1011 58 2500 5.66 260 09:22 11.01.2021
3864 Smoke 31 1011 58 2500 5.14 270 08:46 11.01.2021
3865 Smoke 32 1011 46 3000 1.54 120 08:19 11.01.2021
3866 Smoke 31 1012 46 3000 3.09 30 07:29 11.01.2021
3867 Smoke 35 1013 49 3000 2.06 130 06:59 11.01.2021
3868 Smoke 32 1013 51 3000 2.06 30 06:23 11.01.2021
3869 Mist 26 1009 83 1600 2.27 36 01:46 11.01.2021
3870 Mist 27 1009 78 1800 2.66 22 00:38 11.01.2021
3871 Mist 27 1009 78 1500 2.25 28 23:36 10.01.2021
3872 Mist 27 1010 83 1500 2.23 34 22:49 10.01.2021
3873 Mist 27 1010 83 1500 2.32 31 22:27 10.01.2021
3874 Mist 27 1010 83 1500 1.54 330 21:46 10.01.2021
3875 Mist 26 1010 89 1500 1.54 250 21:21 10.01.2021
3876 Mist 26 1010 89 1500 2.06 250 20:57 10.01.2021
3877 Mist 27 1010 83 1800 1.54 260 20:33 10.01.2021
3878 Mist 27 1011 83 1800 1.85 9 19:59 10.01.2021
3879 Mist 27 1011 83 1800 1.85 9 19:38 10.01.2021
3880 Mist 27 1011 83 1800 2.57 260 19:20 10.01.2021
3881 Haze 29 1011 65 2100 1.73 26 18:42 10.01.2021
3882 Haze 29 1011 65 2100 2.36 9 18:19 10.01.2021
3883 Haze 29 1011 65 2100 2.97 0 17:22 10.01.2021
3884 Haze 29 1010 65 2100 2.06 30 16:43 10.01.2021
3885 Haze 29 1010 65 2100 2.06 30 16:25 10.01.2021
3886 Haze 29 1009 65 2100 3.6 330 15:26 10.01.2021
3887 Haze 29 1009 65 2100 3.6 330 14:52 10.01.2021
3888 Haze 29 1009 65 2100 3.6 330 14:34 10.01.2021
3889 Haze 29 1008 65 1800 3.6 320 13:55 10.01.2021
3890 Haze 29 1007 62 2100 3.6 310 13:37 10.01.2021
3891 Haze 29 1007 62 2100 3.6 310 13:19 10.01.2021
3892 Haze 29 1007 66 2100 3.6 300 12:50 10.01.2021
3893 Haze 30 1007 62 2100 3.09 290 12:32 10.01.2021
3894 Haze 30 1007 62 2100 4.12 270 11:48 10.01.2021
3895 Haze 30 1008 62 1800 4.63 260 11:20 10.01.2021
3896 Haze 30 1008 62 1800 4.63 270 10:45 10.01.2021
3897 Haze 30 1008 66 1700 4.63 260 10:22 10.01.2021
3898 Haze 30 1009 66 1700 5.14 270 09:36 10.01.2021
3899 Smoke 32 1010 52 2200 2.06 100 08:23 10.01.2021
3900 Smoke 31 1011 58 2200 1.54 0 07:37 10.01.2021
3901 Haze 30 1012 66 2100 3.6 60 06:21 10.01.2021
3902 Haze 29 1012 66 2100 4.12 90 05:41 10.01.2021
3903 Mist 25 1010 83 1500 1.54 40 03:57 10.01.2021
3904 Mist 26 1009 83 1800 1.54 40 01:30 10.01.2021
3905 Mist 26 1009 83 1800 2.74 19 23:59 09.01.2021
3906 Mist 26 1009 83 1800 2.06 340 23:41 09.01.2021
3907 Mist 25 1009 88 1800 1.54 300 22:57 09.01.2021
3908 Mist 25 1009 83 1800 1.54 190 22:19 09.01.2021
3909 Mist 25 1010 83 1800 2.57 190 21:58 09.01.2021
3910 Mist 25 1010 83 1800 2.57 190 21:39 09.01.2021
3911 Mist 25 1009 88 1800 1.54 270 21:20 09.01.2021
3912 Mist 26 1010 83 1800 1.54 320 20:46 09.01.2021
3913 Mist 26 1010 83 1800 1.54 270 20:27 09.01.2021
3914 Mist 26 1010 83 1800 2.29 0 19:39 09.01.2021
3915 Haze 27 1010 78 1800 1.54 270 19:19 09.01.2021
3916 Haze 27 1010 78 1800 1.54 300 18:36 09.01.2021
3917 Haze 27 1010 78 1800 1.54 330 17:51 09.01.2021
3918 Haze 27 1010 78 1800 3.41 352 17:32 09.01.2021
3919 Haze 27 1010 78 1800 1.54 280 16:55 09.01.2021
3920 Haze 27 1010 74 1800 2.06 280 16:22 09.01.2021
3921 Haze 27 1009 74 2100 2.57 280 15:41 09.01.2021
3922 Haze 28 1008 69 1700 2.06 310 14:56 09.01.2021
3923 Haze 28 1008 69 1700 2.57 310 14:36 09.01.2021
3924 Haze 28 1008 69 1700 2.57 310 14:18 09.01.2021
3925 Haze 28 1007 69 1700 3.09 320 13:43 09.01.2021
3926 Haze 28 1007 65 1700 2.57 290 13:24 09.01.2021
3927 Haze 29 1007 65 2100 3.09 320 12:28 09.01.2021
3928 Haze 29 1007 70 1700 3.09 280 11:58 09.01.2021
3929 Haze 28 1007 70 1700 4.12 270 11:37 09.01.2021
3930 Haze 29 1007 66 1500 3.6 270 10:57 09.01.2021
3931 Smoke 29 1007 69 2500 2.57 290 10:38 09.01.2021
3932 Haze 29 1008 70 1500 4.12 250 10:19 09.01.2021
3933 Haze 29 1008 66 1500 4.63 250 09:43 09.01.2021
3934 Haze 30 1008 62 1500 5.14 240 09:19 09.01.2021
3935 Haze 30 1010 58 2100 3.09 120 07:48 09.01.2021
3936 Smoke 28 1010 69 2000 1.33 63 06:42 09.01.2021
3937 Haze 28 1011 70 1700 2.57 80 06:23 09.01.2021
3938 Mist 24 1010 88 1000 2.67 33 03:49 09.01.2021
3939 Mist 25 1009 88 2100 2.55 24 02:40 09.01.2021
3940 Mist 25 1009 88 2100 2.55 25 02:22 09.01.2021
3941 Mist 25 1008 88 1800 3.66 28 01:24 09.01.2021
3942 Mist 25 1008 88 1800 1.54 20 00:33 09.01.2021
3943 Mist 25 1008 88 1800 2.06 340 23:45 08.01.2021
3944 Haze 25 1008 88 1800 1.54 0 22:43 08.01.2021
3945 Haze 26 1009 83 2100 2.06 340 21:53 08.01.2021
3946 Haze 26 1009 83 2100 3.92 360 21:19 08.01.2021
3947 Haze 26 1009 83 2200 3.92 360 20:37 08.01.2021
3948 Haze 26 1009 78 2200 4.13 355 19:58 08.01.2021
3949 Haze 27 1009 74 2200 2.06 360 19:25 08.01.2021
3950 Haze 27 1010 74 2200 2.57 360 18:54 08.01.2021
3951 Haze 27 1010 74 2200 2.57 360 18:54 08.01.2021
3952 Haze 27 1010 74 2200 1.54 350 18:32 08.01.2021
3953 Haze 27 1010 74 2200 2.06 330 17:54 08.01.2021
3954 Haze 27 1010 74 2500 2.06 330 17:25 08.01.2021
3955 Haze 27 1010 74 2500 3.09 340 16:48 08.01.2021
3956 Haze 27 1009 74 2500 2.06 300 15:49 08.01.2021
3957 Haze 27 1009 74 2500 2.06 290 15:29 08.01.2021
3958 Haze 28 1008 74 2100 3.09 310 14:40 08.01.2021
3959 Haze 28 1007 74 2100 2.06 330 13:55 08.01.2021
3960 Haze 28 1007 74 2200 2.57 310 13:22 08.01.2021
3961 Haze 28 1007 74 2200 2.57 320 12:52 08.01.2021
3962 Haze 28 1007 69 2100 2.57 290 12:22 08.01.2021
3963 Haze 28 1007 69 2100 2.57 290 12:22 08.01.2021
3964 Haze 28 1007 69 2100 2.57 290 12:22 08.01.2021
3965 Haze 28 1007 65 2100 3.6 290 11:50 08.01.2021
3966 Haze 28 1007 69 2100 3.09 270 11:30 08.01.2021
3967 Haze 28 1007 69 2100 2.57 230 10:57 08.01.2021
3968 Haze 28 1007 69 2100 2.57 230 10:38 08.01.2021
3969 Drizzle 28 1008 69 2100 3.09 250 09:53 08.01.2021
3970 Drizzle 28 1008 69 2100 3.09 250 09:35 08.01.2021
3971 Haze 28 1009 74 2000 4.12 240 08:42 08.01.2021
3972 Mist 27 1010 78 1200 1.54 280 07:29 08.01.2021
3973 Mist 27 1011 78 1500 2.06 240 06:43 08.01.2021
3974 Mist 26 1007 78 1800 2.23 7 00:35 08.01.2021
3975 Mist 26 1006 78 1800 2.06 20 23:42 07.01.2021
3976 Mist 26 1007 78 1500 1.54 10 22:51 07.01.2021
3977 Mist 26 1007 83 1500 1.54 0 22:33 07.01.2021
3978 Mist 26 1007 78 1500 1.88 52 21:49 07.01.2021
3979 Mist 26 1008 78 1500 1.54 200 21:29 07.01.2021
3980 Drizzle 26 1008 83 1500 1.77 47 20:51 07.01.2021
3981 Drizzle 26 1008 83 1500 2.05 25 20:29 07.01.2021
3982 Haze 26 1008 78 2000 2.06 210 19:47 07.01.2021
3983 Haze 26 1008 78 2000 2.06 210 19:47 07.01.2021
3984 Haze 27 1008 69 2500 2.57 280 19:24 07.01.2021
3985 Haze 28 1008 61 2300 2.42 2 18:46 07.01.2021
3986 Haze 28 1009 61 2500 4.11 337 18:20 07.01.2021
3987 Haze 28 1009 61 2500 1.54 110 17:34 07.01.2021
3988 Haze 28 1009 57 2500 2.06 130 16:56 07.01.2021
3989 Haze 28 1008 57 2500 2.57 340 16:32 07.01.2021
3990 Smoke 28 1008 57 2500 2.57 340 15:52 07.01.2021
3991 Smoke 28 1008 57 2500 3.09 340 15:30 07.01.2021
3992 Smoke 27 1007 57 1800 2.57 320 14:32 07.01.2021
3993 Smoke 27 1007 61 1800 2.57 300 13:58 07.01.2021
3994 Smoke 28 1007 57 1800 2.57 300 13:30 07.01.2021
3995 Smoke 28 1006 54 1800 3.09 310 12:55 07.01.2021
3996 Smoke 29 1006 55 1800 4.1 290 12:23 07.01.2021
3997 Smoke 29 1006 55 1800 4.1 280 11:43 07.01.2021
3998 Smoke 29 1006 55 1800 4.1 280 11:25 07.01.2021
3999 Smoke 29 1006 55 2100 5.1 270 10:38 07.01.2021
4000 Smoke 29 1007 51 2100 4.6 250 10:19 07.01.2021
4001 Smoke 29 1007 51 2100 4.1 250 09:41 07.01.2021
4002 Smoke 28 1009 54 2100 4.6 250 08:51 07.01.2021
4003 Smoke 28 1009 54 2100 5.1 260 08:23 07.01.2021
4004 Smoke 29 1010 51 2100 2.87 305 07:43 07.01.2021
4005 Haze 27 1011 54 2100 2.1 30 06:50 07.01.2021
4006 Haze 23 1009 69 2100 2.09 29 03:18 07.01.2021
4007 Haze 24 1008 64 2500 4.75 12 00:25 07.01.2021
4008 Haze 24 1009 64 2500 4.82 12 23:35 06.01.2021
4009 Haze 24 1009 64 2500 1.5 320 22:36 06.01.2021
4010 Haze 24 1010 64 2200 2.1 330 21:42 06.01.2021
4011 Haze 24 1010 69 2200 2.6 290 21:22 06.01.2021
4012 Haze 24 1010 69 2200 2.6 290 20:50 06.01.2021
4013 Haze 24 1011 69 2200 3.26 359 20:22 06.01.2021
4014 Haze 24 1011 69 2200 2.1 300 19:49 06.01.2021
4015 Haze 25 1011 65 2200 2.1 320 19:29 06.01.2021
4016 Haze 25 1011 65 2200 2.1 320 18:52 06.01.2021
4017 Haze 25 1011 69 2200 1.5 310 18:34 06.01.2021
4018 Haze 25 1011 69 2200 2.1 280 17:59 06.01.2021
4019 Haze 25 1011 69 2200 2.1 280 17:41 06.01.2021
4020 Haze 25 1011 69 2200 2.1 280 17:21 06.01.2021
4021 Haze 26 1011 61 2200 2.6 290 16:38 06.01.2021
4022 Haze 26 1011 61 2200 2.6 290 16:38 06.01.2021
4023 Haze 26 1011 61 2100 2.6 340 16:18 06.01.2021
4024 Haze 26 1010 61 2100 2.1 290 15:46 06.01.2021
4025 Haze 26 1010 61 1800 2.6 290 15:24 06.01.2021
4026 Haze 26 1009 61 1600 2.1 320 14:36 06.01.2021
4027 Smoke 26 1009 61 1600 3.6 300 13:56 06.01.2021
4028 Smoke 26 1009 61 1500 4.1 310 13:36 06.01.2021
4029 Smoke 27 1008 57 1600 4.6 290 13:18 06.01.2021
4030 Smoke 27 1008 54 1600 4.1 290 12:42 06.01.2021
4031 Smoke 28 1008 51 2100 4.1 290 11:46 06.01.2021
4032 Smoke 28 1008 51 2100 4.1 290 11:23 06.01.2021
4033 Smoke 29 1008 48 1800 3.6 290 10:44 06.01.2021
4034 Smoke 29 1009 48 1800 4.6 270 09:52 06.01.2021
4035 Smoke 29 1009 45 1800 3.6 250 09:33 06.01.2021
4036 Smoke 28 1010 51 1400 4.1 250 08:54 06.01.2021
4037 Smoke 28 1011 51 1400 2.1 130 08:20 06.01.2021
4038 Smoke 28 1011 51 1400 2.1 130 07:53 06.01.2021
4039 Haze 26 1013 54 1400 2.1 360 06:44 06.01.2021
4040 Haze 24 1013 57 1400 2.1 340 05:30 06.01.2021
4041 Haze 22 1012 64 1500 2.1 350 04:21 06.01.2021
4042 Haze 22 1011 60 2200 2.6 360 02:44 06.01.2021
4043 Haze 22 1011 64 2200 2.1 360 02:21 06.01.2021
4044 Haze 23 1011 64 2100 3.1 340 23:57 05.01.2021
4045 Haze 23 1011 73 2100 1.5 300 22:57 05.01.2021
4046 Haze 24 1011 69 2100 2.1 310 22:39 05.01.2021
4047 Haze 24 1011 69 2100 2.1 310 22:19 05.01.2021
4048 Haze 24 1011 69 2100 2.1 310 21:34 05.01.2021
4049 Haze 24 1012 69 2100 4.64 3 20:31 05.01.2021
4050 Haze 24 1012 69 2100 1.5 260 19:59 05.01.2021
4051 Haze 25 1012 65 2200 4.5 5 19:40 05.01.2021
4052 Haze 25 1012 65 2200 4.53 7 19:20 05.01.2021
4053 Haze 25 1013 61 2500 3.1 340 18:42 05.01.2021
4054 Haze 25 1013 61 2500 2.1 330 18:19 05.01.2021
4055 Haze 25 1012 61 2500 2.6 340 17:42 05.01.2021
4056 Haze 25 1012 61 2200 1.5 330 17:21 05.01.2021
4057 Haze 25 1012 61 2200 3.6 340 16:45 05.01.2021
4058 Haze 25 1012 65 1800 4.1 340 16:21 05.01.2021
4059 Haze 25 1011 65 1800 3.1 300 15:49 05.01.2021
4060 Haze 25 1011 65 1600 3.1 320 14:49 05.01.2021
4061 Haze 25 1010 61 1800 4.1 310 14:25 05.01.2021
4062 Haze 26 1010 57 1800 4.1 290 13:46 05.01.2021
4063 Smoke 27 1010 54 1800 4.1 300 13:22 05.01.2021
4064 Smoke 27 1009 51 1800 4.1 310 12:47 05.01.2021
4065 Smoke 27 1010 54 1800 4.6 290 12:24 05.01.2021
4066 Smoke 27 1010 54 1800 3.6 290 11:39 05.01.2021
4067 Smoke 28 1010 51 1800 3.6 280 10:55 05.01.2021
4068 Smoke 28 1010 51 1800 3.6 280 10:36 05.01.2021
4069 Smoke 28 1011 54 1800 3.6 290 09:50 05.01.2021
4070 Smoke 28 1011 54 1800 3.6 290 09:29 05.01.2021
4071 Smoke 28 1012 51 1800 2.6 290 08:27 05.01.2021
4072 Smoke 28 1013 51 1800 3.1 10 07:45 05.01.2021
4073 Haze 24 1013 60 2100 2.1 360 04:58 05.01.2021
4074 Haze 23 1011 64 2500 2.6 340 00:59 05.01.2021
4075 Haze 23 1010 64 2500 2.24 26 23:59 04.01.2021
4076 Haze 24 1011 60 2500 3.1 320 23:36 04.01.2021
4077 Haze 24 1011 60 2500 3.1 320 23:18 04.01.2021
4078 Haze 24 1011 60 2500 2.6 330 22:41 04.01.2021
4079 Haze 24 1011 60 2500 3.6 340 21:54 04.01.2021
4080 Haze 24 1011 64 2500 3.1 330 21:35 04.01.2021
4081 Haze 24 1012 64 2500 4.1 340 20:51 04.01.2021
4082 Haze 24 1012 64 2500 4.1 340 20:31 04.01.2021
4083 Haze 24 1012 60 2500 4.6 340 19:53 04.01.2021
4084 Haze 24 1012 60 2500 4.6 340 19:29 04.01.2021
4085 Haze 24 1012 64 2500 3.6 320 18:58 04.01.2021
4086 Haze 25 1012 53 2500 4.6 330 18:29 04.01.2021
4087 Haze 25 1012 50 2500 3.1 310 17:44 04.01.2021
4088 Haze 25 1011 61 2500 2.6 320 17:26 04.01.2021
4089 Haze 25 1011 65 2500 2.6 300 16:48 04.01.2021
4090 Haze 25 1011 65 2500 2.6 300 16:27 04.01.2021
4091 Haze 25 1011 69 2200 2.6 300 15:51 04.01.2021
4092 Haze 25 1010 69 2100 2.6 310 15:32 04.01.2021
4093 Haze 25 1010 65 2100 2.6 320 14:48 04.01.2021
4094 Haze 26 1009 61 2100 4.1 310 13:51 04.01.2021
4095 Smoke 27 1009 57 2500 5.1 280 13:26 04.01.2021
4096 Smoke 28 1009 48 2500 4.1 280 12:49 04.01.2021
4097 Smoke 28 1008 48 2500 2.1 280 11:59 04.01.2021
4098 Smoke 27 1009 51 2500 3.1 300 11:31 04.01.2021
4099 Smoke 27 1009 51 2500 3.1 300 10:56 04.01.2021
4100 Smoke 27 1009 54 2500 3.1 260 10:37 04.01.2021
4101 Smoke 27 1009 51 2500 3.6 250 10:18 04.01.2021
4102 Smoke 28 1010 51 2500 3.1 290 09:23 04.01.2021
4103 Smoke 28 1010 54 2100 4.1 250 08:48 04.01.2021
4104 Smoke 27 1011 57 1700 3.6 270 08:21 04.01.2021
4105 Smoke 27 1011 57 1700 3.6 250 07:45 04.01.2021
4106 Haze 24 1012 69 1800 1.5 180 05:35 04.01.2021
4107 Haze 24 1011 73 1700 2.56 8 04:44 04.01.2021
4108 Haze 23 1009 69 2200 1.5 30 01:26 04.01.2021
4109 Haze 24 1009 64 2200 4.13 352 23:51 03.01.2021
4110 Haze 24 1009 69 2200 2.1 320 23:26 03.01.2021
4111 Haze 24 1009 69 2200 2.1 320 22:57 03.01.2021
4112 Haze 24 1009 69 2200 2.1 320 22:38 03.01.2021
4113 Haze 24 1010 64 2200 2.1 230 22:18 03.01.2021
4114 Haze 24 1010 64 2500 1.5 180 21:30 03.01.2021
4115 Haze 24 1010 64 2500 1.5 140 20:53 03.01.2021
4116 Haze 24 1010 64 2500 1.5 100 20:34 03.01.2021
4117 Haze 24 1011 60 2500 2.1 70 19:58 03.01.2021
4118 Clouds 25 1011 61 2200 1.5 50 19:37 03.01.2021
4119 Haze 24 1011 64 2200 3.01 358 19:18 03.01.2021
4120 Haze 24 1011 64 2500 1.5 20 18:41 03.01.2021
4121 Haze 24 1011 60 2500 2.6 350 18:20 03.01.2021
4122 Haze 24 1011 60 2500 2.1 340 17:48 03.01.2021
4123 Haze 24 1011 60 2500 3.6 340 17:23 03.01.2021
4124 Haze 24 1010 60 2500 2.6 340 16:44 03.01.2021
4125 Haze 25 1010 57 2500 2.6 320 16:20 03.01.2021
4126 Haze 25 1010 61 2500 3.1 300 15:47 03.01.2021
4127 Haze 25 1009 61 2500 3.6 310 15:28 03.01.2021
4128 Haze 25 1009 61 2500 3.6 310 14:57 03.01.2021
4129 Haze 25 1009 65 2500 4.1 310 14:29 03.01.2021
4130 Smoke 26 1008 57 2500 4.1 310 13:42 03.01.2021
4131 Smoke 27 1008 54 2500 4.1 290 13:23 03.01.2021
4132 Smoke 27 1008 57 2100 4.6 290 12:36 03.01.2021
4133 Smoke 27 1008 58 2100 4.6 250 11:42 03.01.2021
4134 Smoke 28 1009 51 1700 4.1 250 11:24 03.01.2021
4135 Smoke 28 1009 51 1700 4.1 250 10:45 03.01.2021
4136 Haze 27 1009 57 1700 4.6 250 10:18 03.01.2021
4137 Haze 27 1010 54 1700 3.6 270 09:41 03.01.2021
4138 Haze 27 1010 58 1700 2.6 300 09:22 03.01.2021
4139 Haze 28 1012 58 1500 3.1 270 07:42 03.01.2021
4140 Haze 26 1012 65 1400 3.1 40 05:58 03.01.2021
4141 Haze 23 1010 78 1800 3.96 7 02:28 03.01.2021
4142 Haze 23 1010 78 1800 2.1 360 01:45 03.01.2021
4143 Haze 23 1010 78 1800 1.5 340 00:20 03.01.2021
4144 Haze 24 1010 73 1800 2.1 10 23:30 02.01.2021
4145 Haze 24 1010 73 2200 2.1 330 22:56 02.01.2021
4146 Haze 24 1011 73 2200 2.1 280 22:32 02.01.2021
4147 Haze 24 1011 73 2200 3.48 350 21:52 02.01.2021
4148 Haze 24 1011 73 2200 3.48 350 21:32 02.01.2021
4149 Haze 24 1012 73 2500 1.5 260 20:55 02.01.2021
4150 Haze 24 1012 73 2500 2.1 260 20:36 02.01.2021
4151 Haze 25 1012 69 2500 1.5 350 20:18 02.01.2021
4152 Haze 25 1012 69 2500 2.1 340 19:20 02.01.2021
4153 Haze 25 1012 69 2500 1.5 330 18:58 02.01.2021
4154 Haze 25 1012 69 2500 1.5 330 18:39 02.01.2021
4155 Haze 26 1012 65 2500 2.6 310 18:19 02.01.2021
4156 Haze 26 1012 65 2500 3.1 360 17:43 02.01.2021
4157 Haze 26 1012 65 2500 3.1 330 16:59 02.01.2021
4158 Haze 25 1012 73 2500 2.6 300 16:23 02.01.2021
4159 Haze 25 1012 73 2500 2.6 300 15:54 02.01.2021
4160 Haze 26 1011 65 2500 2.6 300 15:33 02.01.2021
4161 Haze 26 1011 65 2500 2.6 300 14:58 02.01.2021
4162 Haze 26 1011 69 2100 2.6 310 14:36 02.01.2021
4163 Haze 26 1011 69 2100 3.6 330 13:54 02.01.2021
4164 Haze 27 1011 65 2100 4.1 310 13:26 02.01.2021
4165 Haze 27 1010 65 2100 3.6 300 12:52 02.01.2021
4166 Haze 27 1010 65 2100 3.6 300 12:31 02.01.2021
4167 Haze 28 1011 65 2100 4.6 310 11:45 02.01.2021
4168 Haze 28 1011 65 2100 4.1 280 11:22 02.01.2021
4169 Haze 28 1011 65 2100 3.6 290 10:46 02.01.2021
4170 Haze 28 1011 65 2100 3.6 290 10:28 02.01.2021
4171 Haze 28 1012 65 1900 4.1 270 09:43 02.01.2021
4172 Haze 28 1012 65 1700 4.1 270 09:23 02.01.2021
4173 Haze 28 1013 65 1400 4.1 250 08:49 02.01.2021
4174 Haze 28 1013 66 1200 3.6 220 08:24 02.01.2021
4175 Haze 28 1014 66 1200 2.6 170 07:44 02.01.2021
4176 Haze 28 1014 70 1000 2.1 180 07:21 02.01.2021
4177 Haze 27 1014 74 800 3.1 120 06:40 02.01.2021
4178 Mist 27 1014 74 1200 1.12 6 05:28 02.01.2021
4179 Mist 25 1011 83 1800 2.6 340 00:56 02.01.2021
4180 Mist 25 1011 83 1800 2.6 340 00:35 02.01.2021
4181 Mist 25 1011 78 1800 3.1 340 23:54 01.01.2021
4182 Haze 25 1011 83 1800 2.1 310 23:21 01.01.2021
4183 Haze 25 1011 83 2100 2.6 270 22:47 01.01.2021
4184 Haze 26 1011 78 1800 3.63 345 22:24 01.01.2021
4185 Haze 26 1011 78 2200 1.5 270 21:44 01.01.2021
4186 Haze 26 1012 78 2200 1.5 270 21:22 01.01.2021
4187 Haze 26 1012 74 2500 2.1 270 20:53 01.01.2021
4188 Haze 27 1012 69 2200 2.85 353 20:22 01.01.2021
4189 Haze 27 1012 69 2200 2.85 353 19:43 01.01.2021
4190 Haze 27 1012 69 2200 2.91 352 19:24 01.01.2021
4191 Haze 27 1012 69 2200 2.91 352 18:59 01.01.2021
4192 Haze 27 1012 69 2200 3.01 352 18:40 01.01.2021
4193 Haze 27 1012 69 2500 1.5 360 18:19 01.01.2021
4194 Haze 27 1012 69 2500 2.1 30 17:42 01.01.2021
4195 Haze 27 1012 69 2500 2.1 340 17:18 01.01.2021
4196 Haze 27 1012 69 2500 3.1 340 16:40 01.01.2021
4197 Haze 28 1011 69 2100 2.1 320 15:56 01.01.2021
4198 Haze 28 1011 69 2100 2.1 320 15:37 01.01.2021
4199 Haze 28 1010 69 2100 3.1 310 14:42 01.01.2021
4200 Haze 28 1010 62 2100 2.6 300 14:19 01.01.2021
4201 Haze 29 1010 62 2100 4.1 290 13:37 01.01.2021
4202 Smoke 29 1010 55 2100 4.1 270 12:48 01.01.2021
4203 Smoke 29 1010 55 2100 4.1 260 12:25 01.01.2021
4204 Smoke 30 1009 48 2100 5.1 240 11:39 01.01.2021
4205 Smoke 31 1010 46 2200 5.1 240 11:18 01.01.2021
4206 Smoke 31 1010 49 2200 5.1 240 10:51 01.01.2021
4207 Smoke 31 1010 46 2500 4.6 220 09:53 01.01.2021
4208 Smoke 31 1011 43 2500 4.1 200 09:24 01.01.2021
4209 Smoke 31 1011 46 2500 1.5 100 08:30 01.01.2021
4210 Smoke 29 1013 54 2100 2.1 100 06:24 01.01.2021
4211 Haze 26 1012 65 2100 2.06 58 04:49 01.01.2021
4212 Haze 24 1010 73 2200 2 39 01:42 01.01.2021
4213 Haze 24 1010 78 1800 2.72 36 00:32 01.01.2021
4214 Haze 24 1010 78 1700 2.72 36 23:40 31.12.2020
4215 Haze 24 1010 83 1800 3.04 19 23:20 31.12.2020
4216 Haze 25 1010 78 1800 3.04 19 22:42 31.12.2020
4217 Haze 25 1011 78 1500 3.07 5 22:22 31.12.2020
4218 Haze 25 1011 78 1500 3.07 5 21:56 31.12.2020
4219 Haze 24 1011 83 1500 3.07 5 21:36 31.12.2020
4220 Haze 26 1011 69 2100 2.1 270 20:58 31.12.2020
4221 Haze 26 1011 69 2100 2.1 270 20:30 31.12.2020
4222 Haze 26 1011 69 2100 2.1 270 20:30 31.12.2020
4223 Haze 27 1012 54 2200 1.5 320 19:51 31.12.2020
4224 Haze 27 1012 54 2200 1.5 320 19:33 31.12.2020
4225 Haze 27 1012 57 2200 1.5 350 18:55 31.12.2020
4226 Haze 27 1012 57 2200 2.6 340 18:25 31.12.2020
4227 Haze 27 1011 57 2200 2.1 340 17:48 31.12.2020
4228 Haze 27 1011 61 2200 1.5 350 17:28 31.12.2020
4229 Haze 27 1011 61 2200 1.5 350 16:57 31.12.2020
4230 Haze 27 1011 61 2200 2.1 330 16:37 31.12.2020
4231 Haze 28 1011 61 2200 2.6 340 16:19 31.12.2020
4232 Haze 28 1010 61 2200 2.6 340 15:42 31.12.2020
4233 Smoke 28 1010 58 2200 2.6 330 15:19 31.12.2020
4234 Smoke 29 1010 54 2200 3.1 310 14:41 31.12.2020
4235 Smoke 29 1009 54 2500 3.1 310 14:22 31.12.2020
4236 Smoke 29 1009 54 2500 3.1 310 13:57 31.12.2020
4237 Smoke 29 1009 45 2500 3.1 280 13:36 31.12.2020
4238 Smoke 30 1009 40 2500 3.6 270 13:18 31.12.2020
4239 Smoke 30 1008 40 2500 3.6 280 12:45 31.12.2020
4240 Smoke 30 1008 40 2500 3.6 280 12:27 31.12.2020
4241 Smoke 30 1009 45 2500 4.1 270 11:47 31.12.2020
4242 Smoke 30 1009 45 2500 4.1 270 11:47 31.12.2020
4243 Smoke 30 1009 45 2500 4.1 270 11:47 31.12.2020
4244 Smoke 32 1009 36 2500 2.6 60 11:28 31.12.2020
4245 Smoke 32 1009 36 2500 2.6 60 11:28 31.12.2020
4246 Smoke 32 1009 36 2500 2.6 60 11:28 31.12.2020
4247 Smoke 30 1009 45 2500 4.1 270 11:28 31.12.2020
4248 Smoke 32 1009 36 2500 2.6 60 11:28 31.12.2020
4249 Smoke 30 1009 45 2500 4.1 270 11:28 31.12.2020
4250 Smoke 32 1010 33 2500 3.1 40 10:41 31.12.2020
4251 Smoke 32 1010 35 2500 2.6 100 10:23 31.12.2020
4252 Smoke 32 1011 38 2500 4.1 140 09:48 31.12.2020
4253 Smoke 32 1011 38 2500 3.6 100 09:24 31.12.2020
4254 Smoke 31 1012 40 2500 4.6 120 08:47 31.12.2020
4255 Smoke 31 1012 40 2500 4.6 120 08:29 31.12.2020
4256 Smoke 30 1013 42 2500 3.1 90 07:54 31.12.2020
4257 Smoke 29 1013 45 2500 4.1 100 07:24 31.12.2020
4258 Smoke 25 1013 57 2200 3.6 50 05:30 31.12.2020
4259 Haze 23 1011 69 2200 3.84 47 03:33 31.12.2020
4260 Haze 23 1011 69 2200 1.5 130 02:36 31.12.2020
4261 Haze 22 1010 73 2200 2.1 180 01:55 31.12.2020
4262 Haze 22 1010 73 2200 2.1 180 01:34 31.12.2020
4263 Haze 23 1010 69 2200 2.1 60 00:57 31.12.2020
4264 Haze 22 1010 73 2200 1.5 50 00:26 31.12.2020
4265 Haze 23 1010 73 2200 2.71 45 23:36 30.12.2020
4266 Haze 23 1010 73 2200 1.5 10 23:18 30.12.2020
4267 Haze 23 1010 73 2200 3.07 35 22:35 30.12.2020
4268 Haze 23 1011 73 2200 1.5 260 21:54 30.12.2020
4269 Haze 23 1011 73 2200 1.5 260 21:54 30.12.2020
4270 Haze 23 1011 73 2200 1.5 260 21:27 30.12.2020
4271 Haze 24 1011 69 2200 2.99 20 20:53 30.12.2020
4272 Haze 24 1011 69 2500 2.97 25 20:29 30.12.2020
4273 Haze 24 1011 69 2500 2.97 25 19:58 30.12.2020
4274 Haze 24 1011 69 2500 2.97 25 19:37 30.12.2020
4275 Haze 24 1011 69 2500 2.97 25 19:37 30.12.2020
4276 Haze 24 1012 69 2500 1.5 0 19:18 30.12.2020
4277 Haze 24 1012 69 2500 3.5 20 18:39 30.12.2020
4278 Haze 25 1012 65 2500 1.5 360 18:20 30.12.2020
4279 Haze 25 1012 65 2500 1.5 360 17:48 30.12.2020
4280 Haze 25 1011 65 2500 2.1 330 17:29 30.12.2020
4281 Haze 26 1011 65 2500 1.5 360 16:45 30.12.2020
4282 Haze 26 1011 65 2500 1.5 340 16:20 30.12.2020
4283 Haze 26 1011 65 2500 3.1 340 15:42 30.12.2020
4284 Smoke 26 1010 61 3000 2.6 320 15:24 30.12.2020
4285 Smoke 26 1010 57 3000 3.6 330 14:42 30.12.2020
4286 Smoke 26 1010 54 3000 4.1 340 14:19 30.12.2020
4287 Smoke 27 1009 58 3500 2.6 310 13:20 30.12.2020
4288 Smoke 28 1009 51 3500 4.1 290 12:27 30.12.2020
4289 Smoke 29 1009 51 3500 3.6 300 11:49 30.12.2020
4290 Smoke 29 1009 48 3500 4.1 270 11:23 30.12.2020
4291 Smoke 29 1009 48 3500 4.1 270 10:59 30.12.2020
4292 Smoke 28 1010 51 3500 3.6 270 10:39 30.12.2020
4293 Smoke 28 1010 51 3000 4.6 260 10:20 30.12.2020
4294 Smoke 28 1010 51 3000 4.1 250 09:44 30.12.2020
4295 Smoke 28 1011 54 3000 2.1 290 08:55 30.12.2020
4296 Smoke 28 1012 45 3000 1.5 290 07:59 30.12.2020
4297 Smoke 28 1013 42 2500 1.5 130 07:28 30.12.2020
4298 Smoke 26 1013 50 2500 2.6 20 06:42 30.12.2020
4299 Smoke 25 1013 53 2500 2.6 40 05:50 30.12.2020
4300 Smoke 25 1013 53 2500 2.6 40 05:30 30.12.2020
4301 Haze 21 1012 68 1800 1.5 150 03:44 30.12.2020
4302 Haze 21 1011 68 2100 3.13 46 03:24 30.12.2020
4303 Haze 20 1011 77 2200 1.5 50 02:36 30.12.2020
4304 Haze 21 1011 68 2500 3.25 35 01:49 30.12.2020
4305 Haze 21 1011 68 2500 3.46 23 01:30 30.12.2020
4306 Haze 21 1011 73 2500 3.46 23 00:46 30.12.2020
4307 Haze 21 1011 73 2500 3.64 19 00:26 30.12.2020
4308 Haze 22 1011 68 2500 3.64 19 23:52 29.12.2020
4309 Haze 22 1011 68 2500 3.64 19 23:34 29.12.2020
4310 Haze 22 1011 73 2500 4.12 14 22:50 29.12.2020
4311 Haze 22 1011 73 2500 4.12 14 22:31 29.12.2020
4312 Haze 22 1011 73 2500 3.84 10 21:56 29.12.2020
4313 Haze 22 1011 73 2500 3.84 10 21:37 29.12.2020
4314 Haze 22 1011 73 2500 2.65 29 21:19 29.12.2020
4315 Haze 23 1012 69 2500 1.5 350 20:42 29.12.2020
4316 Haze 23 1012 69 2500 2.1 350 20:22 29.12.2020
4317 Haze 23 1012 69 2500 2.37 33 19:45 29.12.2020
4318 Haze 23 1012 69 2500 2.51 24 19:21 29.12.2020
4319 Haze 23 1012 69 2500 2.51 24 19:21 29.12.2020
4320 Haze 24 1012 64 2500 1.5 30 18:50 29.12.2020
4321 Haze 24 1012 64 2500 2.1 360 18:28 29.12.2020
4322 Haze 24 1012 64 3000 1.5 0 17:47 29.12.2020
4323 Haze 25 1012 61 3000 1.5 340 17:23 29.12.2020
4324 Haze 25 1011 61 3000 1.5 330 16:55 29.12.2020
4325 Smoke 25 1011 61 3000 2.1 320 16:26 29.12.2020
4326 Smoke 25 1010 61 3000 1.5 330 15:46 29.12.2020
4327 Smoke 25 1010 61 3000 2.1 280 15:26 29.12.2020
4328 Smoke 26 1010 57 3000 2.1 280 14:45 29.12.2020
4329 Smoke 26 1010 57 3000 2.1 290 14:27 29.12.2020
4330 Smoke 26 1009 54 3000 3.1 300 13:55 29.12.2020
4331 Smoke 27 1009 54 3500 3.6 290 13:24 29.12.2020
4332 Smoke 28 1009 51 3500 4.1 270 12:45 29.12.2020
4333 Smoke 28 1009 48 3500 3.6 270 12:26 29.12.2020
4334 Smoke 28 1009 42 3500 3.6 290 11:58 29.12.2020
4335 Smoke 28 1009 42 3500 3.6 290 11:32 29.12.2020
4336 Smoke 28 1010 39 3000 5.7 250 10:40 29.12.2020
4337 Smoke 28 1010 42 3000 5.7 240 10:19 29.12.2020
4338 Smoke 28 1010 42 3000 4.6 250 09:39 29.12.2020
4339 Smoke 28 1011 39 3000 3.6 250 09:18 29.12.2020
4340 Smoke 27 1011 39 3000 3.6 250 08:45 29.12.2020
4341 Smoke 27 1012 36 3000 1.5 330 07:35 29.12.2020
4342 Smoke 26 1013 36 2500 1.78 355 06:58 29.12.2020
4343 Smoke 23 1013 46 2200 1.5 180 05:40 29.12.2020
4344 Smoke 20 1010 56 2500 2.95 22 01:46 29.12.2020
4345 Smoke 21 1010 56 3000 3.54 21 00:24 29.12.2020
4346 Smoke 21 1010 56 3000 3.54 21 00:24 29.12.2020
4347 Smoke 20 1010 56 3000 3.54 21 23:37 28.12.2020
4348 Smoke 21 1011 52 3000 3.81 21 22:44 28.12.2020
4349 Smoke 21 1011 52 3000 4.28 15 21:51 28.12.2020
4350 Smoke 21 1011 49 3000 1.5 10 21:30 28.12.2020
4351 Smoke 21 1012 49 3000 2.6 340 20:50 28.12.2020
4352 Smoke 21 1012 49 3000 2.6 340 20:50 28.12.2020
4353 Smoke 21 1012 49 3000 2.6 340 20:31 28.12.2020
4354 Smoke 22 1012 46 3000 2.6 340 19:59 28.12.2020
4355 Smoke 22 1012 46 3000 3.1 350 19:41 28.12.2020
4356 Smoke 22 1012 46 3000 3.1 350 19:21 28.12.2020
4357 Smoke 23 1013 46 3000 1.5 360 18:48 28.12.2020
4358 Smoke 23 1013 43 3000 2.6 350 18:26 28.12.2020
4359 Smoke 23 1013 46 3000 2.6 340 17:41 28.12.2020
4360 Smoke 23 1013 49 3000 2.6 340 17:18 28.12.2020
4361 Smoke 23 1013 49 3000 2.6 340 17:18 28.12.2020
4362 Smoke 24 1012 47 3000 2.1 320 16:32 28.12.2020
4363 Smoke 24 1012 47 3000 2.1 350 15:59 28.12.2020
4364 Smoke 24 1012 47 3000 2.1 350 15:40 28.12.2020
4365 Smoke 25 1010 44 3000 4.1 360 14:47 28.12.2020
4366 Smoke 26 1010 41 4000 4.1 320 13:51 28.12.2020
4367 Smoke 27 1010 39 4000 4.1 310 13:23 28.12.2020
4368 Smoke 27 1010 39 4000 5.1 300 12:38 28.12.2020
4369 Smoke 28 1010 35 4000 4.1 300 12:19 28.12.2020
4370 Smoke 28 1010 34 4000 5.1 320 11:44 28.12.2020
4371 Smoke 28 1010 34 4000 5.7 310 11:18 28.12.2020
4372 Smoke 28 1011 32 4000 5.1 320 10:43 28.12.2020
4373 Smoke 28 1011 32 4000 5.1 320 10:25 28.12.2020
4374 Smoke 29 1012 28 4000 2.6 300 09:45 28.12.2020
4375 Smoke 29 1012 30 4000 2.6 340 09:18 28.12.2020
4376 Smoke 27 1014 34 2500 2.6 40 07:21 28.12.2020
4377 Smoke 26 1014 36 2500 1.5 20 06:43 28.12.2020
4378 Smoke 22 1013 46 2500 2.1 30 04:22 28.12.2020
4379 Smoke 22 1012 49 2500 2.1 40 01:57 28.12.2020
4380 Haze 22 1011 60 2500 5.76 11 00:30 28.12.2020
4381 Haze 22 1011 60 2500 5.76 11 00:30 28.12.2020
4382 Haze 22 1011 60 2500 3.1 10 23:45 27.12.2020
4383 Haze 23 1011 60 2500 2.1 360 23:18 27.12.2020
4384 Haze 24 1012 57 2500 1.5 360 21:57 27.12.2020
4385 Haze 24 1012 57 2500 3.84 352 21:26 27.12.2020
4386 Haze 24 1012 64 3000 1.5 340 20:45 27.12.2020
4387 Haze 25 1012 65 3000 1.5 20 19:25 27.12.2020
4388 Haze 24 1012 69 3000 1.5 10 18:57 27.12.2020
4389 Haze 24 1012 69 3000 1.5 10 18:38 27.12.2020
4390 Haze 25 1012 65 3000 2.6 350 18:18 27.12.2020
4391 Haze 25 1012 65 3000 3.1 340 17:43 27.12.2020
4392 Haze 26 1012 65 3000 3.6 340 17:22 27.12.2020
4393 Haze 26 1012 69 2500 4.6 340 16:32 27.12.2020
4394 Haze 27 1011 65 2500 4.1 330 15:54 27.12.2020
4395 Smoke 28 1011 58 2500 2.1 310 14:59 27.12.2020
4396 Smoke 28 1010 58 2500 2.1 330 14:40 27.12.2020
4397 Smoke 29 1010 54 3000 2.6 310 14:18 27.12.2020
4398 Smoke 29 1010 48 3000 3.6 300 13:22 27.12.2020
4399 Smoke 30 1010 48 3000 4.6 290 12:43 27.12.2020
4400 Smoke 30 1010 51 2500 4.6 290 11:56 27.12.2020
4401 Smoke 30 1010 51 2500 4.6 290 11:35 27.12.2020
4402 Smoke 30 1011 48 2500 5.1 290 10:51 27.12.2020
4403 Smoke 30 1011 48 2500 5.1 290 10:24 27.12.2020
4404 Smoke 30 1012 48 2500 4.6 280 09:46 27.12.2020
4405 Smoke 30 1013 51 2500 3.1 270 08:39 27.12.2020
4406 Smoke 30 1013 48 2500 3.6 280 08:18 27.12.2020
4407 Smoke 29 1014 51 2100 3.6 280 07:26 27.12.2020
4408 Haze 27 1014 61 1800 2.28 12 05:44 27.12.2020
4409 Smoke 25 1013 69 2000 2.25 39 03:33 27.12.2020
4410 Haze 24 1012 69 2500 1.5 50 02:45 27.12.2020
4411 Haze 24 1012 69 2500 1.5 100 01:33 27.12.2020
4412 Haze 25 1011 69 2500 2.93 357 23:57 26.12.2020
4413 Haze 25 1012 73 2500 2.2 7 23:27 26.12.2020
4414 Haze 25 1012 69 2500 2.2 7 22:49 26.12.2020
4415 Haze 25 1012 69 2500 2.1 9 22:21 26.12.2020
4416 Haze 25 1012 69 2500 2.1 9 21:57 26.12.2020
4417 Haze 26 1013 69 2500 2.1 9 21:38 26.12.2020
4418 Haze 26 1013 69 2500 2.1 90 21:19 26.12.2020
4419 Haze 26 1013 69 2500 2.1 5 20:41 26.12.2020
4420 Haze 26 1014 69 2500 2.41 8 20:18 26.12.2020
4421 Haze 27 1014 65 2500 2.1 10 19:26 26.12.2020
4422 Haze 27 1014 69 2500 2.1 360 18:50 26.12.2020
4423 Haze 27 1014 69 2500 2.1 360 18:28 26.12.2020
4424 Haze 27 1014 74 2500 2.6 330 17:41 26.12.2020
4425 Haze 28 1013 69 2500 2.1 320 17:20 26.12.2020
4426 Haze 28 1013 65 2500 2.1 300 16:36 26.12.2020
4427 Smoke 29 1011 51 2500 2.6 300 15:27 26.12.2020
4428 Smoke 29 1011 54 2500 2.6 290 14:51 26.12.2020
4429 Smoke 29 1011 54 2500 2.6 290 14:28 26.12.2020
4430 Smoke 30 1010 45 3500 4.1 270 13:51 26.12.2020
4431 Smoke 30 1010 40 3500 3.1 280 13:31 26.12.2020
4432 Smoke 31 1010 33 3500 4.1 250 12:48 26.12.2020
4433 Smoke 31 1010 33 3500 4.1 250 12:30 26.12.2020
4434 Smoke 31 1010 33 3500 4.1 250 12:30 26.12.2020
4435 Smoke 32 1010 33 3500 4.6 260 11:51 26.12.2020
4436 Smoke 32 1010 33 3000 3.1 240 11:22 26.12.2020
4437 Smoke 32 1010 33 3000 3.1 240 10:55 26.12.2020
4438 Smoke 33 1010 30 3000 3.1 190 10:27 26.12.2020
4439 Smoke 33 1011 31 3000 2.1 150 09:51 26.12.2020
4440 Smoke 33 1011 31 3000 2.1 150 09:31 26.12.2020
4441 Smoke 32 1012 31 2500 3.1 150 08:39 26.12.2020
4442 Smoke 31 1013 38 2500 2.6 110 07:55 26.12.2020
4443 Smoke 29 1014 40 2200 4.6 110 06:47 26.12.2020
4444 Haze 24 1012 69 2200 2.36 81 03:46 26.12.2020
4445 Haze 24 1011 69 2500 2.11 76 01:49 26.12.2020
4446 Haze 25 1010 69 2500 2.25 45 00:27 26.12.2020
4447 Haze 25 1010 69 2500 2.25 45 23:41 25.12.2020
4448 Haze 25 1010 69 2500 2.25 45 23:41 25.12.2020
4449 Haze 25 1010 65 2500 2.23 20 23:23 25.12.2020
4450 Haze 25 1011 69 2500 2.23 20 22:48 25.12.2020
4451 Haze 25 1011 69 2500 1.5 30 22:23 25.12.2020
4452 Haze 25 1011 69 3000 2.04 15 21:35 25.12.2020
4453 Haze 25 1011 65 3000 2.05 12 20:59 25.12.2020
4454 Haze 26 1011 61 3000 1.5 170 20:37 25.12.2020
4455 Haze 26 1011 61 3000 1.5 230 19:50 25.12.2020
4456 Haze 26 1011 61 3000 1.5 230 19:30 25.12.2020
4457 Haze 27 1012 57 3000 2.1 30 18:39 25.12.2020
4458 Haze 27 1012 57 3000 2.1 30 18:39 25.12.2020
4459 Haze 28 1012 58 3000 1.5 340 17:57 25.12.2020
4460 Haze 28 1012 61 3000 1.5 340 17:34 25.12.2020
4461 Smoke 28 1011 58 3000 2.6 330 16:48 25.12.2020
4462 Smoke 29 1011 54 3000 2.6 320 16:20 25.12.2020
4463 Smoke 29 1010 58 3000 1.5 310 15:39 25.12.2020
4464 Smoke 29 1010 54 3000 2.1 290 15:21 25.12.2020
4465 Smoke 28 1009 51 3000 2.6 270 14:31 25.12.2020
4466 Smoke 29 1009 40 3500 2.6 300 13:47 25.12.2020
4467 Smoke 29 1009 40 3500 2.6 300 13:26 25.12.2020
4468 Smoke 30 1008 35 3500 4.1 270 12:49 25.12.2020
4469 Smoke 30 1008 35 3500 4.1 270 12:27 25.12.2020
4470 Smoke 32 1009 28 3500 1.5 80 11:46 25.12.2020
4471 Smoke 32 1009 29 3500 1.5 110 11:23 25.12.2020
4472 Smoke 33 1009 30 3500 2.6 60 10:40 25.12.2020
4473 Smoke 32 1010 31 3000 3.1 110 09:49 25.12.2020
4474 Smoke 31 1011 35 3000 4.1 100 08:53 25.12.2020
4475 Smoke 31 1011 35 3000 4.1 100 08:35 25.12.2020
4476 Smoke 28 1013 39 3000 3.1 100 06:51 25.12.2020
4477 Smoke 26 1013 44 2500 2.6 40 05:38 25.12.2020
4478 Haze 23 1010 69 2500 2.48 69 02:21 25.12.2020
4479 Haze 23 1009 78 2500 2.56 73 00:32 25.12.2020
4480 Haze 23 1009 78 2500 2.56 73 23:32 24.12.2020
4481 Haze 23 1009 78 2500 1.5 110 22:55 24.12.2020
4482 Haze 24 1010 73 2500 2.6 100 22:25 24.12.2020
4483 Haze 24 1010 73 2500 2.33 61 21:52 24.12.2020
4484 Haze 24 1010 69 2500 2.03 33 20:59 24.12.2020
4485 Haze 24 1010 64 2500 1.68 37 19:56 24.12.2020
4486 Smoke 26 1011 57 3000 2.1 230 18:22 24.12.2020
4487 Smoke 26 1011 54 3000 3.93 11 17:42 24.12.2020
4488 Smoke 26 1010 47 3000 2.6 330 17:21 24.12.2020
4489 Smoke 27 1010 54 3000 2.6 340 16:26 24.12.2020
4490 Smoke 27 1009 54 3000 2.6 330 15:49 24.12.2020
4491 Smoke 27 1009 54 3000 2.6 330 15:26 24.12.2020
4492 Smoke 27 1009 54 3000 2.1 330 14:57 24.12.2020
4493 Smoke 26 1008 57 3000 3.1 320 14:38 24.12.2020
4494 Smoke 26 1008 57 3000 3.1 320 14:38 24.12.2020
4495 Smoke 27 1008 54 3000 3.1 300 14:20 24.12.2020
4496 Smoke 27 1008 58 3500 3.6 330 13:39 24.12.2020
4497 Smoke 27 1007 51 3500 4.1 280 13:19 24.12.2020
4498 Smoke 28 1007 45 3500 4.1 280 12:40 24.12.2020
4499 Smoke 29 1007 42 3500 5.1 240 12:19 24.12.2020
4500 Smoke 29 1008 42 3500 3.6 270 11:38 24.12.2020
4501 Smoke 29 1008 43 3500 4.1 240 11:19 24.12.2020
4502 Smoke 30 1008 27 3000 3.1 280 10:46 24.12.2020
4503 Smoke 30 1009 27 3000 1.5 30 10:27 24.12.2020
4504 Smoke 30 1009 27 3000 2.1 20 09:50 24.12.2020
4505 Smoke 30 1010 29 3000 2.6 50 08:58 24.12.2020
4506 Smoke 29 1011 30 3000 3.1 50 07:56 24.12.2020
4507 Smoke 29 1011 32 3000 3.6 20 07:37 24.12.2020
4508 Smoke 27 1012 39 3000 4.1 30 06:27 24.12.2020
4509 Smoke 21 1011 60 2500 3.6 50 04:24 24.12.2020
4510 Haze 21 1010 68 3000 3.12 48 01:53 24.12.2020
4511 Haze 21 1010 68 3000 3.12 48 01:53 24.12.2020
4512 Haze 21 1010 68 3000 2.73 55 01:28 24.12.2020
4513 Haze 22 1009 64 3000 2.97 53 00:44 24.12.2020
4514 Haze 21 1009 68 3000 2.81 56 00:19 24.12.2020
4515 Haze 22 1010 68 3000 2.81 56 23:40 23.12.2020
4516 Haze 22 1010 68 3000 2.88 36 23:21 23.12.2020
4517 Haze 23 1010 60 3000 2.1 110 22:48 23.12.2020
4518 Haze 23 1010 64 3000 2.46 31 22:27 23.12.2020
4519 Haze 23 1010 64 3000 2.46 31 21:48 23.12.2020
4520 Haze 23 1011 60 3000 2.36 25 21:23 23.12.2020
4521 Smoke 24 1011 57 3000 2.1 130 20:46 23.12.2020
4522 Smoke 24 1011 57 3000 2.19 38 20:28 23.12.2020
4523 Smoke 24 1011 57 3000 2.19 38 19:58 23.12.2020
4524 Smoke 25 1011 53 3000 1.5 120 19:37 23.12.2020
4525 Smoke 25 1012 53 3000 1.5 120 19:19 23.12.2020
4526 Smoke 25 1012 53 3000 1.5 70 18:40 23.12.2020
4527 Smoke 25 1012 53 3000 2.1 40 17:58 23.12.2020
4528 Smoke 26 1011 47 3000 2.6 330 17:36 23.12.2020
4529 Smoke 26 1011 47 3000 2.6 330 17:18 23.12.2020
4530 Smoke 26 1011 50 3000 4.1 340 16:40 23.12.2020
4531 Smoke 27 1011 51 3000 3.1 340 16:22 23.12.2020
4532 Smoke 27 1010 51 3000 3.6 350 15:46 23.12.2020
4533 Smoke 27 1009 51 3000 3.1 330 15:26 23.12.2020
4534 Smoke 27 1009 42 3500 2.1 320 14:58 23.12.2020
4535 Smoke 27 1009 42 3500 2.1 320 14:37 23.12.2020
4536 Smoke 27 1009 37 4000 1.5 310 14:18 23.12.2020
4537 Smoke 27 1009 37 4000 2.6 310 13:42 23.12.2020
4538 Smoke 28 1009 37 4000 2.6 310 13:19 23.12.2020
4539 Smoke 28 1009 35 4000 4.1 280 12:46 23.12.2020
4540 Smoke 28 1008 35 4000 4.1 270 12:21 23.12.2020
4541 Smoke 28 1008 33 4000 3.6 250 11:46 23.12.2020
4542 Smoke 29 1009 31 3000 4.1 270 10:59 23.12.2020
4543 Smoke 29 1009 31 3000 4.1 250 10:41 23.12.2020
4544 Smoke 29 1009 29 3000 2.1 270 10:22 23.12.2020
4545 Smoke 30 1010 24 3000 2.6 50 09:28 23.12.2020
4546 Smoke 31 1011 25 3000 2.6 160 08:44 23.12.2020
4547 Smoke 28 1012 27 3000 2.1 80 08:19 23.12.2020
4548 Smoke 27 1013 30 2500 2.6 140 07:27 23.12.2020
4549 Smoke 26 1013 36 2500 1.5 0 06:39 23.12.2020
4550 Smoke 23 1013 44 2500 2.1 110 05:26 23.12.2020
4551 Smoke 23 1013 44 2500 2.1 110 04:56 23.12.2020
4552 Haze 20 1010 72 3000 2.66 29 00:34 23.12.2020
4553 Haze 21 1010 68 3000 2.06 48 23:49 22.12.2020
4554 Haze 21 1010 68 3000 2.06 48 23:30 22.12.2020
4555 Haze 22 1011 68 3000 2.59 54 22:44 22.12.2020
4556 Haze 22 1011 68 3000 2.42 44 22:25 22.12.2020
4557 Haze 23 1011 56 3000 2.42 44 21:59 22.12.2020
4558 Haze 22 1011 68 3000 2.42 44 21:38 22.12.2020
4559 Smoke 23 1012 64 3000 2.72 38 21:19 22.12.2020
4560 Smoke 24 1012 57 3000 2.72 38 20:48 22.12.2020
4561 Smoke 24 1012 53 3000 2.89 16 20:21 22.12.2020
4562 Smoke 24 1012 53 3000 2.89 16 19:44 22.12.2020
4563 Smoke 24 1013 50 3000 1.5 150 19:22 22.12.2020
4564 Smoke 25 1013 50 3000 2.92 14 18:55 22.12.2020
4565 Smoke 25 1013 57 3000 3.25 360 18:30 22.12.2020
4566 Smoke 25 1013 57 3000 3.25 360 17:59 22.12.2020
4567 Smoke 25 1012 61 3000 3.25 360 17:36 22.12.2020
4568 Smoke 25 1012 61 3000 3.21 352 17:18 22.12.2020
4569 Smoke 26 1012 61 3000 2.6 330 16:42 22.12.2020
4570 Smoke 26 1012 57 3000 1.5 310 16:19 22.12.2020
4571 Smoke 27 1011 54 3000 1.5 330 15:43 22.12.2020
4572 Smoke 27 1011 54 3000 1.5 330 15:24 22.12.2020
4573 Smoke 27 1010 34 3000 2.1 300 14:45 22.12.2020
4574 Smoke 27 1010 30 4000 2.1 300 14:27 22.12.2020
4575 Smoke 27 1010 30 4000 2.1 300 13:53 22.12.2020
4576 Smoke 28 1010 42 4000 3.6 270 13:20 22.12.2020
4577 Smoke 28 1010 42 4000 3.1 270 12:59 22.12.2020
4578 Smoke 28 1010 42 4000 3.1 270 12:40 22.12.2020
4579 Smoke 28 1010 37 4000 4.1 270 12:19 22.12.2020
4580 Smoke 29 1010 29 4000 5.1 290 11:43 22.12.2020
4581 Smoke 30 1010 19 4000 3.1 280 11:23 22.12.2020
4582 Smoke 31 1010 19 3000 2.1 360 10:56 22.12.2020
4583 Smoke 31 1010 19 3000 2.1 360 10:28 22.12.2020
4584 Smoke 31 1011 21 3000 2.1 70 09:59 22.12.2020
4585 Smoke 31 1011 21 3000 2.1 130 09:40 22.12.2020
4586 Smoke 31 1012 22 3000 2.6 80 09:20 22.12.2020
4587 Smoke 30 1013 23 3000 3.6 60 08:43 22.12.2020
4588 Smoke 29 1013 25 3000 3.6 90 08:20 22.12.2020
4589 Smoke 29 1014 26 3000 3.6 90 07:47 22.12.2020
4590 Smoke 28 1014 25 3000 3.6 70 06:37 22.12.2020
4591 Smoke 25 1014 34 2500 1.5 60 05:39 22.12.2020
4592 Haze 21 1012 56 2500 3.57 86 02:36 22.12.2020
4593 Haze 22 1011 53 2500 2.6 90 00:44 22.12.2020
4594 Smoke 22 1011 60 2500 3.26 65 23:52 21.12.2020
4595 Smoke 22 1012 60 2500 1.5 100 23:24 21.12.2020
4596 Smoke 23 1012 56 2500 2.99 70 22:37 21.12.2020
4597 Smoke 23 1012 60 2500 2.1 150 22:19 21.12.2020
4598 Smoke 23 1012 60 2500 2.51 85 21:48 21.12.2020
4599 Smoke 23 1012 60 2500 2.51 85 21:30 21.12.2020
4600 Smoke 24 1013 57 3000 2.48 95 20:46 21.12.2020
4601 Smoke 24 1013 57 3000 2.28 58 20:25 21.12.2020
4602 Smoke 24 1013 57 3000 2.28 58 19:55 21.12.2020
4603 Smoke 24 1013 57 3000 2.28 58 19:37 21.12.2020
4604 Smoke 25 1013 50 3000 3.19 20 19:18 21.12.2020
4605 Smoke 25 1013 53 3000 2.6 90 18:49 21.12.2020
4606 Smoke 25 1013 53 3000 2.6 90 18:31 21.12.2020
4607 Smoke 26 1013 54 3000 2.6 40 17:43 21.12.2020
4608 Smoke 26 1013 54 3000 2.6 40 17:24 21.12.2020
4609 Smoke 27 1013 47 3000 3.1 330 16:46 21.12.2020
4610 Smoke 27 1013 54 3000 3.1 340 16:25 21.12.2020
4611 Smoke 27 1012 54 3000 3.6 340 15:45 21.12.2020
4612 Smoke 28 1012 45 3000 3.6 340 15:26 21.12.2020
4613 Smoke 29 1011 32 3000 3.6 330 14:56 21.12.2020
4614 Smoke 29 1011 32 3000 3.6 330 14:56 21.12.2020
4615 Smoke 31 1011 25 5000 2.6 340 14:20 21.12.2020
4616 Smoke 30 1011 25 5500 3.1 340 13:42 21.12.2020
4617 Clouds 31 1010 24 6000 3.1 10 13:22 21.12.2020
4618 Clouds 31 1010 22 6000 3.6 30 12:43 21.12.2020
4619 Clouds 31 1010 21 6000 2.6 330 12:24 21.12.2020
4620 Clouds 31 1011 21 6000 3.1 50 11:43 21.12.2020
4621 Smoke 32 1011 21 5000 1.5 90 11:23 21.12.2020
4622 Smoke 32 1011 21 5000 1.5 90 10:58 21.12.2020
4623 Smoke 31 1011 22 5000 1.5 70 10:40 21.12.2020
4624 Smoke 31 1012 22 5000 2.6 90 10:18 21.12.2020
4625 Smoke 30 1013 22 5000 3.1 50 09:42 21.12.2020
4626 Smoke 30 1013 22 5000 3.1 80 09:24 21.12.2020
4627 Smoke 29 1013 27 5000 5.1 90 08:47 21.12.2020
4628 Smoke 28 1015 28 4000 5.1 80 07:48 21.12.2020
4629 Smoke 26 1016 34 3000 4.6 70 06:21 21.12.2020
4630 Smoke 22 1015 53 2200 2.6 70 04:31 21.12.2020
4631 Haze 23 1013 69 3000 2.1 60 01:22 21.12.2020
4632 Haze 23 1013 64 3000 2.1 70 00:31 21.12.2020
4633 Haze 23 1014 64 3000 2.1 170 23:34 20.12.2020
4634 Haze 23 1014 69 3000 2.1 130 22:58 20.12.2020
4635 Haze 24 1014 64 3000 2.6 110 22:39 20.12.2020
4636 Haze 24 1014 64 3000 3 96 22:21 20.12.2020
4637 Haze 24 1014 64 3000 2.1 110 21:39 20.12.2020
4638 Haze 24 1014 64 3000 2.1 100 21:20 20.12.2020
4639 Haze 24 1014 69 3000 2.1 80 20:48 20.12.2020
4640 Haze 25 1015 65 3000 2.47 104 20:23 20.12.2020
4641 Haze 25 1015 65 3000 2.47 104 19:46 20.12.2020
4642 Haze 25 1015 65 3000 2.11 58 19:26 20.12.2020
4643 Haze 26 1015 57 3000 3.1 20 18:57 20.12.2020
4644 Haze 26 1015 57 3000 3.1 20 18:38 20.12.2020
4645 Haze 26 1015 61 3000 3.6 20 18:19 20.12.2020
4646 Haze 26 1015 69 3000 2.6 350 17:43 20.12.2020
4647 Haze 26 1015 65 3000 2.6 20 17:22 20.12.2020
4648 Smoke 26 1015 65 3000 2.6 330 16:44 20.12.2020
4649 Smoke 27 1014 57 3000 3.1 330 16:25 20.12.2020
4650 Smoke 27 1014 54 3000 4.6 340 15:45 20.12.2020
4651 Smoke 29 1014 45 3000 4.6 10 15:24 20.12.2020
4652 Smoke 27 1013 54 3000 5.1 340 14:49 20.12.2020
4653 Smoke 27 1013 54 3000 5.1 340 14:30 20.12.2020
4654 Smoke 27 1013 54 3000 5.1 340 14:30 20.12.2020
4655 Smoke 28 1012 30 3500 2.1 310 13:46 20.12.2020
4656 Smoke 29 1012 31 4000 2.6 300 13:24 20.12.2020
4657 Smoke 29 1012 31 4000 2.6 300 12:57 20.12.2020
4658 Smoke 29 1012 31 4000 2.6 280 12:38 20.12.2020
4659 Smoke 30 1012 33 4000 3.1 280 12:18 20.12.2020
4660 Smoke 30 1012 33 4000 3.1 270 11:42 20.12.2020
4661 Smoke 31 1013 27 4000 2.6 290 10:57 20.12.2020
4662 Smoke 31 1013 27 4000 2.6 290 10:38 20.12.2020
4663 Smoke 31 1013 29 3500 2.1 320 10:19 20.12.2020
4664 Smoke 30 1014 29 3500 1.5 0 09:45 20.12.2020
4665 Smoke 30 1014 29 3500 1.5 0 09:27 20.12.2020
4666 Smoke 30 1015 33 3000 3.1 120 08:52 20.12.2020
4667 Smoke 30 1015 33 3000 3.1 120 08:33 20.12.2020
4668 Smoke 28 1016 37 2800 3.1 80 07:23 20.12.2020
4669 Smoke 26 1017 44 2200 3.1 90 05:44 20.12.2020
4670 Smoke 24 1014 57 2500 1.5 60 01:33 20.12.2020
4671 Smoke 24 1014 57 2500 1.5 60 01:33 20.12.2020
4672 Smoke 25 1014 53 2500 3.6 40 00:32 20.12.2020
4673 Haze 25 1014 61 2500 2.1 50 23:19 19.12.2020
4674 Haze 25 1014 61 2500 2.1 50 22:56 19.12.2020
4675 Haze 25 1014 61 2500 1.5 60 22:37 19.12.2020
4676 Haze 26 1014 61 2500 3.15 67 22:18 19.12.2020
4677 Haze 26 1015 57 2500 3.15 67 21:41 19.12.2020
4678 Haze 26 1015 61 2500 3.11 57 21:23 19.12.2020
4679 Haze 26 1015 57 2500 2.1 120 20:44 19.12.2020
4680 Haze 26 1015 65 2500 1.5 40 20:21 19.12.2020
4681 Haze 26 1015 61 2500 3.1 50 19:51 19.12.2020
4682 Haze 26 1015 61 2500 3.1 50 19:33 19.12.2020
4683 Smoke 27 1016 57 2500 1.5 70 18:42 19.12.2020
4684 Smoke 27 1016 57 2500 1.5 40 18:24 19.12.2020
4685 Haze 28 1015 54 2500 2.1 320 17:48 19.12.2020
4686 Haze 28 1015 58 2500 2.6 340 17:25 19.12.2020
4687 Haze 28 1015 58 2500 2.6 340 16:55 19.12.2020
4688 Smoke 28 1015 58 2500 2.1 340 16:36 19.12.2020
4689 Smoke 28 1014 61 2500 3.1 340 16:18 19.12.2020
4690 Smoke 28 1014 61 2500 3.6 340 15:47 19.12.2020
4691 Smoke 28 1013 54 2500 3.1 340 14:49 19.12.2020
4692 Smoke 29 1012 38 2500 3.6 340 14:24 19.12.2020
4693 Smoke 30 1012 33 3000 3.6 30 13:42 19.12.2020
4694 Smoke 31 1012 33 4000 3.6 20 13:21 19.12.2020
4695 Smoke 31 1012 33 4000 3.6 30 12:55 19.12.2020
4696 Smoke 31 1012 33 4000 3.6 30 12:37 19.12.2020
4697 Smoke 32 1012 31 4000 4.1 340 12:18 19.12.2020
4698 Smoke 32 1012 31 3000 4.6 30 11:41 19.12.2020
4699 Smoke 32 1012 27 3000 2.6 130 10:48 19.12.2020
4700 Smoke 32 1012 27 3000 2.6 130 10:28 19.12.2020
4701 Smoke 32 1013 31 3000 3.1 130 09:59 19.12.2020
4702 Smoke 32 1013 31 3000 3.1 130 09:59 19.12.2020
4703 Smoke 32 1013 35 3000 4.1 50 09:39 19.12.2020
4704 Smoke 31 1014 35 3000 4.1 100 08:56 19.12.2020
4705 Smoke 30 1015 40 3000 4.6 80 08:18 19.12.2020
4706 Smoke 29 1016 45 3000 4.6 70 07:19 19.12.2020
4707 Smoke 28 1016 45 3000 3.6 90 06:44 19.12.2020
4708 Smoke 26 1016 51 2500 2.6 90 05:20 19.12.2020
4709 Haze 24 1014 64 2200 1.5 120 03:40 19.12.2020
4710 Haze 25 1012 65 2500 3.13 57 00:41 19.12.2020
4711 Haze 25 1012 69 2500 3.2 56 00:21 19.12.2020
4712 Haze 25 1012 69 2500 3.2 56 23:49 18.12.2020
4713 Haze 25 1012 73 2500 2.1 100 23:25 18.12.2020
4714 Haze 25 1013 73 2500 1.5 130 22:57 18.12.2020
4715 Haze 25 1013 73 2500 1.5 130 22:38 18.12.2020
4716 Haze 25 1013 73 2500 3.19 36 22:19 18.12.2020
4717 Haze 25 1013 73 2500 3.19 36 21:41 18.12.2020
4718 Haze 26 1013 69 2500 1.5 90 21:22 18.12.2020
4719 Haze 26 1014 65 2500 4.19 19 20:25 18.12.2020
4720 Haze 27 1014 61 2500 2.6 20 19:49 18.12.2020
4721 Haze 27 1014 61 2500 2.6 20 19:23 18.12.2020
4722 Haze 27 1014 61 2500 2.1 40 18:46 18.12.2020
4723 Haze 27 1014 61 2500 2.1 40 18:28 18.12.2020
4724 Haze 27 1014 69 2100 2.1 40 17:52 18.12.2020
4725 Haze 27 1014 74 2100 2.1 340 17:20 18.12.2020
4726 Haze 27 1014 74 2100 1.5 340 16:45 18.12.2020
4727 Haze 27 1014 74 2100 2.6 290 16:21 18.12.2020
4728 Haze 28 1013 69 2100 2.6 330 15:54 18.12.2020
4729 Haze 28 1013 69 2100 2.6 330 15:34 18.12.2020
4730 Smoke 28 1013 62 2500 4.1 330 14:57 18.12.2020
4731 Smoke 28 1012 55 2500 3.1 330 14:26 18.12.2020
4732 Smoke 28 1012 55 2500 3.1 330 13:59 18.12.2020
4733 Smoke 28 1012 58 2500 3.1 310 13:40 18.12.2020
4734 Smoke 29 1012 55 2500 2.1 310 13:21 18.12.2020
4735 Smoke 29 1012 55 3000 3.1 270 12:42 18.12.2020
4736 Smoke 29 1012 52 3000 3.6 270 11:29 18.12.2020
4737 Smoke 30 1012 52 3000 4.1 260 10:58 18.12.2020
4738 Smoke 30 1012 52 3000 4.1 260 10:37 18.12.2020
4739 Smoke 30 1012 46 3000 4.6 270 10:19 18.12.2020
4740 Smoke 31 1013 33 3000 2.6 180 09:38 18.12.2020
4741 Smoke 32 1013 36 3000 3.1 130 09:19 18.12.2020
4742 Smoke 31 1014 43 2500 3.1 40 08:50 18.12.2020
4743 Smoke 31 1014 45 2500 5.1 80 08:21 18.12.2020
4744 Smoke 29 1015 48 2500 3.6 100 07:20 18.12.2020
4745 Smoke 29 1015 48 2500 3.6 100 06:59 18.12.2020
4746 Haze 26 1015 61 2200 2.6 40 05:45 18.12.2020
4747 Haze 25 1015 69 2100 2.6 30 05:26 18.12.2020
4748 Haze 24 1014 73 2100 2.1 50 04:42 18.12.2020
4749 Haze 25 1012 73 2500 3.1 60 01:47 18.12.2020
4750 Haze 25 1012 73 2500 3.1 60 01:47 18.12.2020
4751 Haze 25 1012 73 2500 3.1 60 01:47 18.12.2020
4752 Haze 24 1012 83 2100 4.6 90 00:38 18.12.2020
4753 Haze 24 1012 83 2100 1.5 120 23:54 17.12.2020
4754 Haze 24 1012 88 2100 3.76 34 23:25 17.12.2020
4755 Haze 24 1012 88 2100 3.76 34 23:25 17.12.2020
4756 Haze 25 1012 83 2100 1.5 350 22:49 17.12.2020
4757 Haze 25 1012 88 2100 1.5 360 22:28 17.12.2020
4758 Haze 25 1013 88 2100 3.33 32 21:47 17.12.2020
4759 Haze 25 1013 88 2100 2.87 36 21:25 17.12.2020
4760 Haze 25 1013 88 2100 2.87 36 20:55 17.12.2020
4761 Haze 25 1013 88 2100 2.87 36 20:37 17.12.2020
4762 Haze 25 1013 88 2100 3.09 24 20:18 17.12.2020
4763 Haze 25 1013 88 2100 3.09 24 19:44 17.12.2020
4764 Haze 26 1014 83 2100 2.1 350 19:22 17.12.2020
4765 Haze 26 1014 83 2200 1.5 350 18:41 17.12.2020
4766 Haze 26 1014 83 2500 4.67 6 18:22 17.12.2020
4767 Haze 26 1014 83 2500 4.67 6 18:22 17.12.2020
4768 Haze 26 1014 83 2500 4.67 6 17:51 17.12.2020
4769 Haze 26 1014 83 2500 4.67 6 17:32 17.12.2020
4770 Haze 26 1014 83 2500 4.67 6 17:32 17.12.2020
4771 Haze 26 1013 83 2500 2.6 330 16:44 17.12.2020
4772 Haze 27 1013 78 2500 2.1 310 16:24 17.12.2020
4773 Haze 27 1013 78 2500 2.1 310 15:52 17.12.2020
4774 Haze 27 1012 74 2500 3.1 320 15:31 17.12.2020
4775 Haze 26 1012 74 2500 3.1 320 14:55 17.12.2020
4776 Haze 26 1012 69 2500 3.1 330 14:31 17.12.2020
4777 Haze 27 1012 69 2500 4.1 320 13:52 17.12.2020
4778 Haze 27 1012 69 2500 4.1 320 13:33 17.12.2020
4779 Smoke 28 1012 66 2500 4.1 290 12:48 17.12.2020
4780 Smoke 28 1012 58 2500 3.6 290 12:25 17.12.2020
4781 Smoke 29 1012 58 2500 3.6 310 11:45 17.12.2020
4782 Smoke 29 1012 58 2500 4.1 290 11:25 17.12.2020
4783 Smoke 29 1012 55 3000 3.1 290 10:56 17.12.2020
4784 Smoke 29 1013 58 3000 3.1 310 10:21 17.12.2020
4785 Smoke 29 1013 62 3000 4.6 260 09:29 17.12.2020
4786 Smoke 30 1015 48 2500 2.6 80 07:55 17.12.2020
4787 Smoke 30 1015 48 2500 2.6 80 07:35 17.12.2020
4788 Haze 28 1016 58 2500 4.6 20 06:54 17.12.2020
4789 Haze 27 1016 61 2500 3.6 60 06:33 17.12.2020
4790 Haze 27 1016 61 2500 3.6 60 05:59 17.12.2020
4791 Mist 24 1013 88 2200 1.5 340 00:55 17.12.2020
4792 Mist 24 1013 88 2200 4.06 30 23:57 16.12.2020
4793 Mist 24 1013 88 2200 4.29 23 23:22 16.12.2020
4794 Mist 24 1013 88 2200 4.29 23 23:22 16.12.2020
4795 Mist 25 1013 83 2200 4.29 23 22:57 16.12.2020
4796 Mist 25 1013 83 2200 4.29 23 22:36 16.12.2020
4797 Mist 25 1013 83 2200 4.73 15 21:54 16.12.2020
4798 Mist 25 1013 83 2200 4.73 15 21:36 16.12.2020
4799 Mist 25 1014 83 2200 4.84 12 20:56 16.12.2020
4800 Mist 25 1014 83 2200 4.84 12 20:37 16.12.2020
4801 Mist 25 1014 83 2200 4.72 8 20:18 16.12.2020
4802 Mist 26 1014 78 2200 4.37 10 19:20 16.12.2020
4803 Haze 26 1014 78 2200 2.1 320 18:57 16.12.2020
4804 Haze 26 1014 78 2200 2.1 320 18:31 16.12.2020
4805 Haze 26 1014 78 2200 2.6 10 17:57 16.12.2020
4806 Haze 26 1014 78 2200 2.6 10 17:31 16.12.2020
4807 Haze 27 1014 74 2200 2.1 10 16:42 16.12.2020
4808 Haze 27 1013 78 2200 2.6 340 16:22 16.12.2020
4809 Haze 27 1013 78 2200 2.6 340 15:51 16.12.2020
4810 Haze 27 1012 78 2500 2.1 310 15:30 16.12.2020
4811 Haze 26 1012 74 2500 2.6 320 14:51 16.12.2020
4812 Haze 26 1012 74 2500 2.6 320 14:29 16.12.2020
4813 Haze 27 1012 69 3000 4.1 310 13:50 16.12.2020
4814 Haze 27 1012 69 3000 4.1 310 13:31 16.12.2020
4815 Smoke 28 1012 66 3000 3.6 300 12:56 16.12.2020
4816 Smoke 28 1012 62 3000 4.1 300 12:37 16.12.2020
4817 Smoke 29 1012 62 2500 3.1 300 11:43 16.12.2020
4818 Smoke 29 1012 62 2500 3.6 280 11:22 16.12.2020
4819 Smoke 29 1012 62 2500 3.1 280 10:50 16.12.2020
4820 Smoke 29 1012 62 2500 3.1 280 10:27 16.12.2020
4821 Smoke 29 1013 62 2500 4.1 250 09:49 16.12.2020
4822 Smoke 29 1013 62 2500 3.6 240 09:18 16.12.2020
4823 Smoke 28 1015 55 2500 2.1 190 07:59 16.12.2020
4824 Haze 27 1015 62 2500 1.5 80 07:39 16.12.2020
4825 Haze 26 1016 69 2500 2.1 30 06:57 16.12.2020
4826 Mist 24 1014 88 1400 3.24 37 03:28 16.12.2020
4827 Mist 24 1013 83 2200 2.6 20 01:30 16.12.2020
4828 Mist 24 1013 88 1500 1.5 350 23:46 15.12.2020
4829 Mist 24 1013 88 1500 2.1 340 22:56 15.12.2020
4830 Mist 24 1013 88 1500 2.1 340 22:38 15.12.2020
4831 Mist 24 1013 88 1800 1.5 350 22:18 15.12.2020
4832 Mist 24 1013 88 1800 2.6 340 21:40 15.12.2020
4833 Mist 25 1014 83 2200 2.1 350 21:21 15.12.2020
4834 Mist 25 1014 83 2200 2.1 340 20:44 15.12.2020
4835 Mist 25 1014 83 2200 3.1 340 20:26 15.12.2020
4836 Mist 25 1014 83 2200 3.1 340 19:52 15.12.2020
4837 Haze 25 1015 83 2500 3.1 340 19:26 15.12.2020
4838 Haze 26 1015 78 2500 2.6 330 18:39 15.12.2020
4839 Haze 26 1014 78 2500 5.15 3 18:21 15.12.2020
4840 Haze 26 1014 78 2500 2.1 360 17:45 15.12.2020
4841 Haze 27 1014 74 2500 3.1 350 17:27 15.12.2020
4842 Haze 27 1014 78 2500 2.6 340 16:46 15.12.2020
4843 Haze 27 1014 78 2500 3.1 340 16:27 15.12.2020
4844 Haze 27 1013 74 2500 3.1 330 15:42 15.12.2020
4845 Haze 27 1012 74 2500 2.6 320 15:24 15.12.2020
4846 Haze 26 1012 74 2500 3.6 320 14:42 15.12.2020
4847 Haze 26 1012 74 2500 3.1 310 14:20 15.12.2020
4848 Haze 26 1011 69 3000 3.6 320 13:51 15.12.2020
4849 Haze 27 1011 69 3000 3.6 310 13:26 15.12.2020
4850 Haze 28 1011 70 3000 5.1 290 12:46 15.12.2020
4851 Haze 28 1011 66 3000 4.1 300 12:20 15.12.2020
4852 Haze 29 1011 66 2500 2.6 320 11:52 15.12.2020
4853 Haze 29 1011 66 2500 4.6 290 11:25 15.12.2020
4854 Haze 29 1011 66 2500 3.6 290 10:52 15.12.2020
4855 Haze 29 1012 66 2500 4.6 290 10:21 15.12.2020
4856 Haze 28 1012 62 2500 3.6 300 09:45 15.12.2020
4857 Haze 28 1012 66 2500 3.1 310 09:27 15.12.2020
4858 Haze 28 1013 70 2500 3.6 300 08:47 15.12.2020
4859 Haze 28 1013 70 2200 3.6 290 08:24 15.12.2020
4860 Haze 27 1013 70 2200 4.6 260 07:49 15.12.2020
4861 Haze 27 1013 66 2200 1.5 340 07:23 15.12.2020
4862 Haze 26 1014 74 1800 1.5 340 06:27 15.12.2020
4863 Haze 23 1011 88 2100 3.19 24 01:27 15.12.2020
4864 Haze 23 1010 94 2200 3.84 15 00:34 15.12.2020
4865 Mist 24 1011 88 2200 3.65 11 23:23 14.12.2020
4866 Mist 24 1011 88 2000 3.65 11 22:48 14.12.2020
4867 Mist 24 1011 88 1800 1.5 20 22:27 14.12.2020
4868 Mist 24 1011 88 1700 2.1 10 21:44 14.12.2020
4869 Mist 24 1012 94 1800 1.5 360 21:22 14.12.2020
4870 Mist 24 1012 94 2200 2.1 10 20:51 14.12.2020
4871 Mist 24 1012 94 2200 2.1 10 20:51 14.12.2020
4872 Mist 24 1012 94 2200 2.1 10 20:29 14.12.2020
4873 Haze 25 1012 88 2500 3.46 4 19:53 14.12.2020
4874 Haze 25 1012 88 2500 3.07 4 19:29 14.12.2020
4875 Haze 25 1012 83 2500 2.6 350 18:44 14.12.2020
4876 Haze 25 1012 83 2500 2.1 20 18:25 14.12.2020
4877 Haze 25 1013 83 2500 1.5 0 17:46 14.12.2020
4878 Haze 25 1012 83 2500 2.1 10 17:23 14.12.2020
4879 Haze 25 1012 83 2500 2.1 10 16:50 14.12.2020
4880 Haze 25 1012 83 3000 2.6 330 16:29 14.12.2020
4881 Haze 25 1011 83 3000 2.6 330 15:39 14.12.2020
4882 Haze 26 1011 78 3000 2.1 330 15:20 14.12.2020
4883 Haze 24 1011 78 3000 2.1 340 14:42 14.12.2020
4884 Haze 24 1011 78 3000 2.1 340 14:42 14.12.2020
4885 Haze 25 1010 83 3000 3.1 330 14:23 14.12.2020
4886 Smoke 26 1010 74 3000 2.1 360 13:42 14.12.2020
4887 Smoke 26 1010 74 3000 3.1 50 13:19 14.12.2020
4888 Smoke 26 1010 74 3000 3.1 60 12:52 14.12.2020
4889 Smoke 25 1010 74 3000 2.1 40 12:24 14.12.2020
4890 Haze 25 1010 73 3000 3.1 50 11:35 14.12.2020
4891 Smoke 26 1010 74 3000 2.6 90 10:38 14.12.2020
4892 Haze 26 1011 74 2500 2.6 70 10:19 14.12.2020
4893 Haze 26 1011 83 2500 2.6 50 09:43 14.12.2020
4894 Haze 24 1013 83 2500 3.6 40 08:47 14.12.2020
4895 Clouds 24 1013 83 2200 3.6 70 08:29 14.12.2020
4896 Clouds 24 1013 88 2200 3.6 80 07:44 14.12.2020
4897 Clouds 23 1014 94 2200 2.6 60 06:47 14.12.2020
4898 Drizzle 23 1014 88 2200 2.6 40 05:35 14.12.2020
4899 Clouds 23 1010 100 2200 4.1 340 02:26 14.12.2020
4900 Drizzle 24 1010 94 2500 2.6 340 00:56 14.12.2020
4901 Drizzle 24 1009 94 2500 2.6 340 00:33 14.12.2020
4902 Haze 24 1009 88 2500 3.45 6 23:57 13.12.2020
4903 Haze 23 1009 94 2500 2.1 360 23:36 13.12.2020
4904 Clouds 24 1009 88 1800 3.1 50 22:48 13.12.2020
4905 Clouds 23 1010 94 1600 3.6 90 22:20 13.12.2020
4906 Drizzle 24 1010 83 2200 3.6 120 21:47 13.12.2020
4907 Drizzle 24 1010 83 2200 3.6 120 21:27 13.12.2020
4908 Haze 25 1010 73 2500 2.6 70 20:38 13.12.2020
4909 Haze 25 1010 78 2500 2.1 40 20:20 13.12.2020
4910 Haze 25 1011 73 2500 2.6 40 19:42 13.12.2020
4911 Haze 25 1011 73 2500 2.1 20 19:20 13.12.2020
4912 Haze 25 1011 78 2500 2.6 30 18:43 13.12.2020
4913 Haze 25 1011 78 2500 2.6 30 18:21 13.12.2020
4914 Haze 25 1011 73 2500 2.6 90 17:47 13.12.2020
4915 Haze 25 1011 73 2500 2.6 90 17:47 13.12.2020
4916 Haze 25 1010 73 2500 3.1 80 17:21 13.12.2020
4917 Haze 25 1010 73 2500 3.1 80 16:58 13.12.2020
4918 Haze 25 1010 73 2500 3.6 110 16:38 13.12.2020
4919 Haze 25 1010 73 2500 2.6 70 16:19 13.12.2020
4920 Haze 25 1010 73 2500 3.1 40 15:40 13.12.2020
4921 Haze 25 1010 73 2500 3.6 80 15:22 13.12.2020
4922 Haze 24 1009 73 2500 3.1 60 14:44 13.12.2020
4923 Drizzle 24 1009 78 2500 2.6 50 14:21 13.12.2020
4924 Haze 24 1009 78 2500 4.6 360 13:44 13.12.2020
4925 Haze 24 1009 78 2500 4.6 360 13:25 13.12.2020
4926 Haze 25 1009 74 3000 4.1 330 12:49 13.12.2020
4927 Haze 26 1009 65 3000 3.6 10 12:23 13.12.2020
4928 Haze 26 1010 65 3000 3.6 350 11:42 13.12.2020
4929 Haze 26 1010 69 3000 3.1 340 10:56 13.12.2020
4930 Haze 26 1010 69 3000 2.1 40 10:38 13.12.2020
4931 Haze 26 1010 69 3000 2.1 30 09:57 13.12.2020
4932 Haze 26 1011 69 3000 2.6 30 09:27 13.12.2020
4933 Haze 26 1012 69 2500 2.6 40 08:35 13.12.2020
4934 Haze 25 1013 74 2500 3.1 20 07:51 13.12.2020
4935 Haze 24 1012 78 2500 1.5 330 04:48 13.12.2020
4936 Haze 26 1011 74 2500 4.22 32 02:42 13.12.2020
4937 Haze 26 1010 65 2500 2.1 50 01:58 13.12.2020
4938 Haze 26 1010 65 2500 2.6 40 00:51 13.12.2020
4939 Haze 26 1010 65 2500 2.6 40 00:51 13.12.2020
4940 Haze 26 1010 69 2500 1.5 70 00:33 13.12.2020
4941 Haze 25 1010 73 2500 3.6 30 23:33 12.12.2020
4942 Haze 26 1010 69 2500 2.6 20 22:56 12.12.2020
4943 Haze 26 1011 69 2500 1.5 100 22:20 12.12.2020
4944 Haze 26 1011 69 2500 2.6 70 21:44 12.12.2020
4945 Haze 26 1011 69 2500 2.6 60 21:18 12.12.2020
4946 Haze 26 1012 69 2500 2.1 40 20:41 12.12.2020
4947 Haze 26 1012 69 2500 2.1 30 20:19 12.12.2020
4948 Haze 26 1012 69 2500 2.6 40 19:46 12.12.2020
4949 Haze 26 1012 74 2500 2.1 10 19:28 12.12.2020
4950 Haze 26 1012 74 2500 2.1 10 18:47 12.12.2020
4951 Haze 26 1012 74 2500 2.1 10 18:29 12.12.2020
4952 Haze 26 1012 74 2500 2.1 10 17:47 12.12.2020
4953 Drizzle 26 1012 74 2500 1.5 50 17:28 12.12.2020
4954 Haze 27 1012 69 2500 2.6 330 16:24 12.12.2020
4955 Drizzle 27 1011 69 2500 2.6 340 15:52 12.12.2020
4956 Drizzle 27 1011 69 2500 2.6 340 15:34 12.12.2020
4957 Drizzle 27 1011 65 2500 2.6 350 14:50 12.12.2020
4958 Haze 27 1010 65 3000 3.6 360 13:58 12.12.2020
4959 Haze 27 1010 65 3000 3.6 360 13:38 12.12.2020
4960 Haze 27 1010 65 3000 3.1 320 13:19 12.12.2020
4961 Haze 27 1010 62 3000 3.6 330 12:29 12.12.2020
4962 Haze 29 1010 55 3000 2.1 10 10:56 12.12.2020
4963 Haze 28 1011 62 3000 4.11 12 09:50 12.12.2020
4964 Haze 28 1011 66 3000 4.06 25 08:57 12.12.2020
4965 Haze 25 1012 78 2100 2.1 50 03:33 12.12.2020
4966 Rain 25 1010 83 3000 3.1 350 00:28 12.12.2020
4967 Haze 26 1011 78 2500 3.1 340 22:47 11.12.2020
4968 Haze 27 1012 74 2500 3.6 330 20:52 11.12.2020
4969 Haze 27 1012 69 3000 1.5 320 18:56 11.12.2020
4970 Haze 27 1012 69 2500 2.1 30 16:45 11.12.2020
4971 Haze 26 1011 69 2500 2.6 70 14:19 11.12.2020
4972 Haze 27 1010 65 3000 3.1 10 13:25 11.12.2020
4973 Haze 27 1010 65 3000 3.1 30 12:21 11.12.2020
4974 Haze 27 1011 61 3000 3.1 20 11:52 11.12.2020
4975 Haze 27 1011 61 3000 3.1 60 11:24 11.12.2020
4976 Haze 26 1011 65 3000 4.1 20 09:58 11.12.2020
4977 Rain 24 1015 78 2200 2.6 360 06:26 11.12.2020
4978 Rain 25 1015 78 2200 3.63 17 05:20 11.12.2020
4979 Haze 26 1012 74 2500 3.5 1 02:58 11.12.2020
4980 Haze 26 1011 78 2500 2.1 350 00:40 11.12.2020
4981 Haze 27 1011 74 2500 2.6 20 23:25 10.12.2020
4982 Haze 27 1012 74 2500 2.1 290 21:37 10.12.2020
4983 Haze 27 1012 78 2500 1.5 310 20:50 10.12.2020
4984 Haze 28 1012 78 2500 4.1 280 19:52 10.12.2020
4985 Haze 28 1013 74 2500 2.6 330 19:21 10.12.2020
4986 Haze 28 1013 74 2500 3.1 290 18:44 10.12.2020
4987 Haze 29 1012 70 2500 2.1 320 16:56 10.12.2020
4988 Haze 29 1011 66 2500 2.6 270 15:52 10.12.2020
4989 Haze 28 1010 58 2500 2.1 260 14:59 10.12.2020
4990 Haze 28 1010 62 2500 1.5 300 14:39 10.12.2020
4991 Haze 29 1009 58 3000 2.1 280 13:26 10.12.2020
4992 Smoke 30 1009 49 3000 3.6 260 11:51 10.12.2020
4993 Smoke 30 1010 52 3000 4.1 250 10:29 10.12.2020
4994 Smoke 31 1012 40 3000 1.5 340 08:20 10.12.2020
4995 Smoke 31 1013 43 2500 3.1 30 06:59 10.12.2020
4996 Smoke 28 1013 58 2500 3.6 40 05:26 10.12.2020
4997 Haze 27 1011 69 3000 1.5 60 02:31 10.12.2020
4998 Haze 28 1010 61 3000 1.5 40 01:25 10.12.2020
4999 Haze 28 1010 65 3000 2.6 10 23:37 09.12.2020
5000 Drizzle 28 1012 65 3000 2.6 180 20:37 09.12.2020
5001 Drizzle 29 1012 51 3000 1.56 350 19:40 09.12.2020
5002 Drizzle 30 1012 48 3000 2.1 210 18:36 09.12.2020
5003 Drizzle 30 1011 48 3000 3.1 340 16:57 09.12.2020
5004 Smoke 30 1011 48 3000 2.1 270 16:26 09.12.2020
5005 Smoke 30 1011 48 3000 2.6 340 15:44 09.12.2020
5006 Smoke 29 1010 51 3000 2.6 320 14:50 09.12.2020
5007 Smoke 29 1010 51 3000 3.1 320 14:26 09.12.2020
5008 Smoke 29 1009 52 3500 3.6 300 13:19 09.12.2020
5009 Smoke 29 1009 52 3500 3.6 300 12:58 09.12.2020
5010 Smoke 32 1009 38 5000 5.1 240 12:23 09.12.2020
5011 Smoke 33 1009 34 5000 5.1 220 11:33 09.12.2020
5012 Smoke 34 1011 34 3000 3.1 90 09:51 09.12.2020
5013 Smoke 32 1012 33 3000 3.6 160 08:35 09.12.2020
5014 Smoke 30 1014 38 3000 1.5 140 06:38 09.12.2020
5015 Smoke 27 1013 45 2500 3.1 90 05:27 09.12.2020
5016 Smoke 26 1012 54 3000 1.5 60 02:31 09.12.2020
5017 Haze 25 1012 65 3000 2.6 100 00:24 09.12.2020
5018 Haze 26 1012 61 3000 1.5 350 23:33 08.12.2020
5019 Haze 26 1012 65 3000 2.63 60 21:56 08.12.2020
5020 Smoke 27 1013 57 3000 2.76 48 20:24 08.12.2020
5021 Smoke 26 1014 65 3000 3.04 35 19:29 08.12.2020
5022 Smoke 26 1014 65 3000 2.75 36 18:35 08.12.2020
5023 Smoke 28 1014 54 3000 2.1 310 16:39 08.12.2020
5024 Smoke 29 1013 51 3000 2.6 290 15:18 08.12.2020
5025 Smoke 29 1012 40 4000 3.1 320 13:49 08.12.2020
5026 Smoke 31 1011 38 4000 4.1 300 12:38 08.12.2020
5027 Smoke 32 1011 36 4000 4.6 260 11:52 08.12.2020
5028 Smoke 33 1011 26 4000 4.6 280 10:54 08.12.2020
5029 Smoke 33 1011 26 4000 4.6 280 10:34 08.12.2020
5030 Smoke 34 1012 30 4000 3.1 110 09:38 08.12.2020
5031 Smoke 32 1015 31 4000 3.1 120 07:35 08.12.2020
5032 Smoke 26 1014 36 2500 2.1 140 04:42 08.12.2020
5033 Smoke 24 1013 50 3000 1.5 140 02:24 08.12.2020
5034 Smoke 24 1012 53 2500 3.38 74 00:44 08.12.2020
5035 Haze 24 1012 60 2500 1.5 60 23:18 07.12.2020
5036 Smoke 25 1013 53 2500 2.7 76 22:20 07.12.2020
5037 Smoke 26 1014 54 2500 1.5 60 20:57 07.12.2020
5038 Smoke 28 1014 45 3500 2.1 80 18:58 07.12.2020
5039 Smoke 28 1014 45 3500 1.5 160 17:55 07.12.2020
5040 Smoke 29 1014 37 3500 2.1 30 17:19 07.12.2020
5041 Smoke 29 1013 45 3000 3.1 350 16:28 07.12.2020
5042 Smoke 30 1013 42 3000 2.1 330 15:24 07.12.2020
5043 Smoke 29 1012 42 3000 2.6 350 14:28 07.12.2020
5044 Smoke 31 1012 24 4000 3.1 340 13:35 07.12.2020
5045 Smoke 32 1011 26 4000 2.6 10 12:28 07.12.2020
5046 Smoke 33 1012 23 4000 4.1 360 11:42 07.12.2020
5047 Smoke 33 1012 21 4000 2.1 360 10:32 07.12.2020
5048 Smoke 32 1013 27 3000 4.6 90 08:57 07.12.2020
5049 Smoke 31 1015 29 3000 3.6 100 07:38 07.12.2020
5050 Smoke 28 1016 34 3000 3.1 90 05:27 07.12.2020
5051 Smoke 24 1014 47 3000 4.56 76 03:45 07.12.2020
5052 Haze 23 1012 60 3000 4.15 55 00:49 07.12.2020
5053 Smoke 25 1012 53 3000 1.5 100 22:52 06.12.2020
5054 Smoke 24 1013 57 3000 1.5 120 21:44 06.12.2020
5055 Smoke 26 1013 47 3000 2.1 100 20:43 06.12.2020
5056 Smoke 26 1013 50 3000 1.5 120 20:22 06.12.2020
5057 Smoke 27 1014 42 3000 1.5 70 19:26 06.12.2020
5058 Smoke 28 1013 37 3000 2.1 10 17:39 06.12.2020
5059 Smoke 28 1013 45 3000 5.28 351 16:34 06.12.2020
5060 Smoke 28 1012 48 3500 4.1 330 14:49 06.12.2020
5061 Smoke 29 1011 38 5000 3.6 280 13:23 06.12.2020
5062 Smoke 30 1010 31 5000 4.6 270 12:33 06.12.2020
5063 Smoke 31 1010 31 5000 3.6 280 11:53 06.12.2020
5064 Smoke 31 1010 33 5000 4.6 260 11:25 06.12.2020
5065 Smoke 32 1011 18 5000 2.6 120 10:35 06.12.2020
5066 Smoke 33 1011 21 4000 3.1 140 09:23 06.12.2020
5067 Smoke 31 1014 24 4000 3.6 110 07:41 06.12.2020
5068 Smoke 26 1013 34 4000 1.5 120 04:51 06.12.2020
5069 Smoke 24 1010 53 3000 3.26 71 00:46 06.12.2020
5070 Smoke 24 1010 53 3000 3.02 69 00:26 06.12.2020
5071 Haze 22 1010 64 3000 1.5 110 23:56 05.12.2020
5072 Haze 24 1011 60 3000 2.79 77 22:25 05.12.2020
5073 Haze 24 1011 60 3000 2.79 77 21:55 05.12.2020
5074 Haze 25 1011 57 3000 2.1 90 21:30 05.12.2020
5075 Haze 26 1012 61 3000 3.1 120 19:54 05.12.2020
5076 Haze 26 1012 65 3000 2.3 50 18:46 05.12.2020
5077 Smoke 28 1012 54 3000 1.5 30 17:55 05.12.2020
5078 Smoke 28 1012 54 3000 2.6 350 16:45 05.12.2020
5079 Smoke 28 1012 54 3000 2.6 350 16:26 05.12.2020
5080 Smoke 29 1010 42 3000 2.6 310 14:52 05.12.2020
5081 Smoke 31 1009 43 3000 3.1 280 13:25 05.12.2020
5082 Smoke 32 1009 46 3000 5.1 270 11:50 05.12.2020
5083 Smoke 35 1009 19 3000 3.1 170 10:35 05.12.2020
5084 Smoke 34 1011 24 3000 3.6 100 08:54 05.12.2020
5085 Smoke 32 1012 31 2500 3.6 120 07:48 05.12.2020
5086 Smoke 29 1013 42 2500 2.1 130 05:34 05.12.2020
5087 Smoke 24 1010 60 3000 2.66 64 00:40 05.12.2020
5088 Smoke 24 1010 60 3000 2.58 68 23:36 04.12.2020
5089 Smoke 25 1010 61 3000 1.71 46 21:35 04.12.2020
5090 Smoke 26 1012 50 3000 1.43 39 19:22 04.12.2020
5091 Smoke 27 1012 47 3000 1.5 30 18:40 04.12.2020
5092 Smoke 28 1011 48 3000 2 15 17:47 04.12.2020
5093 Smoke 28 1011 48 3000 2.6 340 16:37 04.12.2020
5094 Smoke 29 1010 42 3000 2.1 300 15:25 04.12.2020
5095 Smoke 29 1009 42 3000 3.6 280 13:37 04.12.2020
5096 Smoke 29 1008 40 3000 4.1 280 13:18 04.12.2020
5097 Smoke 30 1008 38 3000 3.6 290 12:26 04.12.2020
5098 Smoke 31 1009 31 3000 4.6 250 10:37 04.12.2020
5099 Smoke 31 1011 26 3000 3.1 130 09:25 04.12.2020
5100 Smoke 29 1013 39 2500 3.1 100 06:40 04.12.2020
5101 Haze 25 1012 57 2100 1.5 90 04:53 04.12.2020
5102 Haze 24 1010 64 2500 1.5 100 01:54 04.12.2020
5103 Haze 25 1010 65 2500 1.5 40 22:51 03.12.2020
5104 Haze 26 1010 61 3000 2.67 35 21:38 03.12.2020
5105 Haze 26 1011 61 3000 2.53 28 20:47 03.12.2020
5106 Haze 26 1012 61 3000 2.06 27 19:25 03.12.2020
5107 Smoke 27 1012 51 3000 2.06 27 18:48 03.12.2020
5108 Smoke 28 1012 54 3000 2.1 30 17:21 03.12.2020
5109 Smoke 28 1012 54 3000 3.1 340 16:45 03.12.2020
5110 Smoke 29 1011 51 3000 2.6 340 15:33 03.12.2020
5111 Smoke 28 1010 48 3000 2.6 300 14:50 03.12.2020
5112 Smoke 28 1010 48 3000 4.6 310 14:19 03.12.2020
5113 Smoke 29 1010 45 3000 4.1 270 12:55 03.12.2020
5114 Smoke 30 1010 43 3000 4.6 280 12:25 03.12.2020
5115 Smoke 30 1010 43 3000 4.6 280 11:22 03.12.2020
5116 Smoke 32 1012 33 3000 1.5 0 08:49 03.12.2020
5117 Smoke 26 1013 54 2800 3.6 110 04:24 03.12.2020
5118 Haze 25 1011 57 3000 3.1 90 02:22 03.12.2020
5119 Haze 26 1010 57 3000 3.6 100 00:42 03.12.2020
5120 Haze 26 1010 61 3000 3.24 90 22:47 02.12.2020
5121 Haze 27 1010 57 3000 2.62 72 21:58 02.12.2020
5122 Haze 27 1010 61 3000 1.5 100 20:52 02.12.2020
5123 Haze 27 1011 61 3000 2.6 100 20:34 02.12.2020
5124 Haze 27 1011 69 3000 3.1 120 19:58 02.12.2020
5125 Haze 28 1012 65 3000 2.1 350 17:54 02.12.2020
5126 Haze 29 1011 62 3000 2.6 320 17:35 02.12.2020
5127 Haze 29 1011 62 3000 2.6 320 16:59 02.12.2020
5128 Smoke 29 1010 55 3000 3.1 320 14:49 02.12.2020
5129 Smoke 30 1009 55 3000 3.6 300 11:34 02.12.2020
5130 Smoke 31 1010 49 3000 4.6 280 10:28 02.12.2020
5131 Smoke 32 1012 43 2500 2.6 360 08:36 02.12.2020
5132 Haze 26 1013 74 2200 2.1 90 03:57 02.12.2020
5133 Haze 28 1013 65 2200 2.28 359 22:21 01.12.2020
5134 Haze 29 1013 62 2500 2.1 360 20:49 01.12.2020
5135 Smoke 29 1014 58 2500 2.1 340 19:35 01.12.2020
5136 Smoke 30 1014 51 2500 2.6 340 17:49 01.12.2020
5137 Smoke 30 1013 55 2500 3.1 340 16:35 01.12.2020
5138 Haze 29 1011 58 2500 3.6 290 13:38 01.12.2020
5139 Haze 30 1011 62 2500 4.1 280 12:25 01.12.2020
5140 Smoke 32 1011 59 2500 5.1 270 11:27 01.12.2020
5141 Smoke 33 1011 52 2500 5.1 280 10:39 01.12.2020
5142 Smoke 33 1014 44 3000 3.1 100 08:21 01.12.2020
5143 Smoke 31 1015 52 2500 3.1 100 06:48 01.12.2020
5144 Haze 28 1012 61 3000 1.5 60 01:53 01.12.2020
5145 Haze 28 1012 61 3000 1.5 30 00:56 01.12.2020
5146 Haze 28 1012 69 3000 1.07 15 23:21 30.11.2020
5147 Haze 28 1012 65 3000 1.07 15 22:45 30.11.2020
5148 Haze 28 1013 69 3000 1.55 14 22:25 30.11.2020
5149 Haze 28 1013 65 3000 1.9 6 20:57 30.11.2020
5150 Smoke 29 1014 58 3000 1.97 8 19:42 30.11.2020
5151 Smoke 30 1014 55 3000 1.5 10 18:24 30.11.2020
5152 Smoke 30 1014 55 3000 2.6 10 17:48 30.11.2020
5153 Smoke 30 1014 55 3000 1.5 60 16:58 30.11.2020
5154 Smoke 30 1013 55 3000 2.6 340 16:38 30.11.2020
5155 Smoke 29 1012 55 3000 2.1 320 14:47 30.11.2020
5156 Smoke 29 1011 52 3500 2.6 310 13:53 30.11.2020
5157 Smoke 29 1012 55 3000 2.6 310 13:53 30.11.2020
5158 Smoke 30 1011 52 3500 2.6 280 12:27 30.11.2020
5159 Smoke 30 1011 55 3500 4.1 290 11:58 30.11.2020
5160 Smoke 30 1012 52 3500 4.6 280 10:30 30.11.2020
5161 Smoke 30 1012 52 3500 4.6 290 09:51 30.11.2020
5162 Smoke 31 1015 46 3500 2.6 120 07:26 30.11.2020
5163 Haze 26 1012 69 3000 3.09 13 00:54 30.11.2020
5164 Haze 27 1013 61 3000 1.5 30 22:19 29.11.2020
5165 Haze 27 1013 69 3000 2.77 12 21:42 29.11.2020
5166 Haze 27 1013 69 3000 2.92 10 21:24 29.11.2020
5167 Haze 28 1014 65 3000 2.6 10 17:48 29.11.2020
5168 Haze 28 1014 65 3000 1.5 340 16:57 29.11.2020
5169 Smoke 29 1011 51 4000 3.6 270 13:35 29.11.2020
5170 Smoke 30 1011 48 4000 4.1 260 12:34 29.11.2020
5171 Smoke 30 1011 55 5000 5.1 270 11:22 29.11.2020
5172 Smoke 32 1013 38 5000 3.6 110 08:52 29.11.2020
5173 Smoke 31 1014 43 4000 4.1 130 08:34 29.11.2020
5174 Haze 26 1013 69 3500 3.99 86 02:31 29.11.2020
5175 Smoke 27 1012 61 3500 1.5 110 22:58 28.11.2020
5176 Smoke 29 1013 54 3500 2.1 90 21:20 28.11.2020
5177 Smoke 29 1013 54 3000 2.1 90 19:54 28.11.2020
5178 Smoke 29 1013 58 3000 3.1 80 19:27 28.11.2020
5179 Smoke 29 1013 58 3000 2.1 70 18:52 28.11.2020
5180 Smoke 29 1013 54 3000 2.1 110 17:52 28.11.2020
5181 Haze 30 1013 51 3000 1.88 87 16:52 28.11.2020
5182 Haze 28 1012 62 3000 2.1 210 14:58 28.11.2020
5183 Smoke 28 1011 65 2500 1 310 13:31 28.11.2020
5184 Smoke 30 1010 40 4000 4.6 360 11:24 28.11.2020
5185 Smoke 28 1013 42 4000 4.6 10 08:18 28.11.2020
5186 Smoke 26 1014 47 2700 4.1 30 03:38 28.11.2020
5187 Smoke 26 1013 44 3000 2.6 30 01:52 28.11.2020
5188 Smoke 26 1013 41 3500 1.5 10 23:19 27.11.2020
5189 Smoke 26 1014 39 4000 2.6 20 21:57 27.11.2020
5190 Smoke 27 1014 36 4000 2.6 30 20:38 27.11.2020
5191 Smoke 28 1015 37 4000 2.6 30 19:31 27.11.2020
5192 Smoke 28 1015 37 4000 2.1 30 18:51 27.11.2020
5193 Smoke 29 1013 37 3000 1.5 360 15:50 27.11.2020
5194 Smoke 29 1012 35 3000 2.1 20 14:22 27.11.2020
5195 Smoke 31 1011 29 4000 3.6 70 12:48 27.11.2020
5196 Smoke 31 1011 27 4000 3.6 40 12:20 27.11.2020
5197 Smoke 32 1011 29 4000 4.1 60 10:51 27.11.2020
5198 Smoke 32 1011 29 4000 4.1 60 10:28 27.11.2020
5199 Clear 29 1014 54 10000 1.85 55 07:39 27.11.2020
5200 Clear 26 1012 51 10000 3.64 47 22:59 26.11.2020
5201 Clear 26 1012 51 10000 4.03 38 22:22 26.11.2020
5202 Smoke 27 1011 51 2500 4.03 38 21:39 26.11.2020
5203 Smoke 28 1012 48 2500 3.96 56 20:39 26.11.2020
5204 Smoke 28 1012 54 2500 2.6 20 18:36 26.11.2020
5205 Smoke 28 1012 58 2500 3.6 10 17:20 26.11.2020
5206 Smoke 28 1010 51 3500 3.1 320 13:44 26.11.2020
5207 Smoke 29 1009 51 3500 5.1 300 12:56 26.11.2020
5208 Smoke 30 1009 48 3500 4.6 320 12:29 26.11.2020
5209 Smoke 32 1009 28 3000 2.1 20 10:40 26.11.2020
5210 Smoke 31 1010 29 3000 2.6 360 10:18 26.11.2020
5211 Smoke 32 1010 29 3000 4.1 20 09:34 26.11.2020
5212 Smoke 31 1012 33 3000 3.1 10 08:47 26.11.2020
5213 Smoke 31 1012 33 3000 3.1 10 08:28 26.11.2020
5214 Haze 25 1011 69 2500 2.1 60 02:18 26.11.2020
5215 Haze 26 1010 69 2500 2.6 340 21:54 25.11.2020
5216 Haze 26 1011 61 3000 1.72 31 20:32 25.11.2020
5217 Smoke 27 1012 57 3000 1.8 31 18:59 25.11.2020
5218 Smoke 28 1012 51 3000 2.38 8 17:29 25.11.2020
5219 Smoke 29 1011 48 3000 2.6 330 15:44 25.11.2020
5220 Smoke 28 1010 45 3000 3.6 340 14:58 25.11.2020
5221 Smoke 29 1009 45 3000 3.6 310 13:46 25.11.2020
5222 Smoke 29 1009 45 3000 3.6 310 12:57 25.11.2020
5223 Smoke 30 1009 43 2500 4.1 290 11:24 25.11.2020
5224 Smoke 31 1010 31 2500 3.1 260 09:21 25.11.2020
5225 Smoke 31 1010 31 2500 3.1 260 08:50 25.11.2020
5226 Smoke 30 1012 38 2500 2.1 130 07:41 25.11.2020
5227 Haze 26 1011 69 2100 2.52 72 03:52 25.11.2020
5228 Haze 26 1010 65 2500 1.83 69 01:49 25.11.2020
5229 Haze 27 1010 61 2500 1.5 30 00:21 25.11.2020
5230 Haze 27 1010 61 2500 1.5 20 23:35 24.11.2020
5231 Haze 26 1010 65 2500 2.34 37 22:41 24.11.2020
5232 Haze 27 1011 61 2500 2.29 18 21:44 24.11.2020
5233 Haze 27 1011 61 2500 2.53 355 21:26 24.11.2020
5234 Smoke 28 1011 51 2500 2.93 340 19:48 24.11.2020
5235 Smoke 29 1012 48 3000 1.89 347 17:47 24.11.2020
5236 Smoke 29 1012 48 3000 2.1 310 17:27 24.11.2020
5237 Smoke 29 1011 48 3000 2.1 300 16:38 24.11.2020
5238 Smoke 29 1011 48 3000 2.6 310 15:56 24.11.2020
5239 Smoke 29 1010 37 3500 2.6 290 15:20 24.11.2020
5240 Smoke 28 1010 30 3500 2.6 300 14:45 24.11.2020
5241 Smoke 29 1009 40 3500 3.1 280 13:56 24.11.2020
5242 Smoke 30 1009 43 3500 3.1 260 12:40 24.11.2020
5243 Smoke 30 1009 40 3000 4.6 260 12:20 24.11.2020
5244 Smoke 30 1009 43 3000 5.1 250 11:33 24.11.2020
5245 Smoke 30 1009 40 3000 4.6 250 10:25 24.11.2020
5246 Smoke 30 1010 43 3000 5.1 260 09:40 24.11.2020
5247 Smoke 30 1011 43 2500 4.1 250 08:59 24.11.2020
5248 Smoke 29 1013 45 2500 1.74 87 06:42 24.11.2020
5249 Haze 24 1012 73 2500 3.45 16 01:24 24.11.2020
5250 Haze 25 1012 73 2500 2.72 9 22:25 23.11.2020
5251 Haze 25 1012 73 2500 2.72 9 22:25 23.11.2020
5252 Haze 26 1012 65 3000 2.1 10 21:33 23.11.2020
5253 Haze 27 1013 61 3000 2.1 350 20:36 23.11.2020
5254 Haze 27 1013 57 3000 2.71 20 20:18 23.11.2020
5255 Smoke 27 1013 57 3000 2.6 340 17:58 23.11.2020
5256 Smoke 28 1013 51 3000 2.1 320 17:19 23.11.2020
5257 Smoke 29 1012 42 4000 3.6 310 15:44 23.11.2020
5258 Smoke 28 1012 39 4000 3.6 310 14:46 23.11.2020
5259 Clear 31 1011 24 6000 4.6 310 12:42 23.11.2020
5260 Clear 31 1011 24 6000 4.6 310 12:21 23.11.2020
5261 Clear 32 1011 21 6000 5.1 330 11:43 23.11.2020
5262 Clear 32 1012 22 6000 5.7 310 10:47 23.11.2020
5263 Clear 32 1012 22 6000 4.1 300 09:31 23.11.2020
5264 Smoke 31 1013 31 3000 4.6 280 08:39 23.11.2020
5265 Smoke 30 1014 38 3000 0.7 294 06:57 23.11.2020
5266 Haze 24 1012 78 3000 1.56 29 00:25 23.11.2020
5267 Haze 25 1012 69 3000 2.1 40 23:18 22.11.2020
5268 Haze 25 1012 69 3000 1.73 30 21:59 22.11.2020
5269 Haze 26 1013 65 3000 1.55 37 20:53 22.11.2020
5270 Haze 26 1013 69 3000 1.5 10 19:53 22.11.2020
5271 Haze 28 1014 58 2500 1.72 7 18:40 22.11.2020
5272 Haze 28 1013 61 2500 2.1 360 16:52 22.11.2020
5273 Haze 29 1012 62 2500 2.6 330 15:44 22.11.2020
5274 Haze 28 1012 62 2500 3.1 310 14:34 22.11.2020
5275 Smoke 30 1011 55 2500 4.1 280 12:50 22.11.2020
5276 Smoke 30 1011 52 2500 3.1 310 11:57 22.11.2020
5277 Smoke 32 1011 52 2500 3.6 270 11:20 22.11.2020
5278 Smoke 30 1011 55 2500 4.1 280 10:45 22.11.2020
5279 Smoke 30 1012 52 2500 5.1 240 09:32 22.11.2020
5280 Haze 25 1011 69 2500 1.5 100 01:48 22.11.2020
5281 Haze 25 1011 73 2500 2.22 59 23:39 21.11.2020
5282 Haze 26 1011 65 3000 2.1 100 22:18 21.11.2020
5283 Haze 26 1012 74 3000 1.26 47 21:30 21.11.2020
5284 Haze 26 1012 74 3000 1.5 360 20:35 21.11.2020
5285 Haze 26 1012 74 3000 1.55 34 19:54 21.11.2020
5286 Haze 26 1013 74 3000 1.5 40 19:33 21.11.2020
5287 Haze 27 1013 69 3000 3.1 330 18:28 21.11.2020
5288 Haze 28 1012 65 3000 3.1 320 17:26 21.11.2020
5289 Haze 28 1012 65 3000 2.6 300 16:39 21.11.2020
5290 Smoke 29 1011 58 3000 2.6 310 15:22 21.11.2020
5291 Smoke 28 1010 51 3000 3.1 320 14:43 21.11.2020
5292 Smoke 28 1010 45 4000 2.6 310 14:21 21.11.2020
5293 Smoke 30 1009 46 4000 4.1 290 12:36 21.11.2020
5294 Smoke 30 1009 49 4000 4.1 300 12:18 21.11.2020
5295 Smoke 31 1010 46 3000 5.1 290 10:51 21.11.2020
5296 Smoke 31 1010 46 3000 5.1 280 10:26 21.11.2020
5297 Smoke 31 1011 49 3000 4.6 250 08:51 21.11.2020
5298 Smoke 29 1014 48 2500 1.77 343 06:35 21.11.2020
5299 Haze 27 1014 57 2200 2.1 180 04:39 21.11.2020
5300 Haze 25 1011 61 3000 1.5 30 01:32 21.11.2020
5301 Haze 26 1011 61 3000 2.1 20 23:59 20.11.2020
5302 Haze 26 1011 61 3000 2.1 360 22:26 20.11.2020
5303 Haze 27 1012 57 3000 2.33 9 21:42 20.11.2020
5304 Haze 27 1012 61 3000 1.5 340 21:21 20.11.2020
5305 Haze 27 1012 65 3000 1.65 46 19:46 20.11.2020
5306 Smoke 28 1012 58 3000 2.6 340 18:38 20.11.2020
5307 Smoke 28 1012 58 3000 2.1 330 17:53 20.11.2020
5308 Smoke 29 1012 54 3000 3.1 360 17:27 20.11.2020
5309 Smoke 29 1012 54 3000 1.5 310 16:39 20.11.2020
5310 Smoke 29 1011 54 3000 2.6 330 15:58 20.11.2020
5311 Smoke 29 1011 54 3000 1.5 50 15:26 20.11.2020
5312 Smoke 29 1010 51 4000 2.6 300 13:46 20.11.2020
5313 Smoke 29 1009 48 4000 4.1 320 13:18 20.11.2020
5314 Smoke 31 1009 48 4000 3.6 310 12:36 20.11.2020
5315 Smoke 32 1009 49 3500 5.1 290 11:45 20.11.2020
5316 Smoke 31 1009 49 3500 5.1 310 10:59 20.11.2020
5317 Smoke 32 1011 49 3000 4.6 270 08:54 20.11.2020
5318 Smoke 31 1011 49 3000 2.6 300 08:25 20.11.2020
5319 Smoke 31 1012 48 3000 2.1 20 07:32 20.11.2020
5320 Haze 26 1012 57 2500 2.1 80 03:44 20.11.2020
5321 Smoke 27 1010 57 3000 3.13 14 22:42 19.11.2020
5322 Haze 27 1010 61 2500 2.78 20 21:56 19.11.2020
5323 Smoke 27 1011 57 2500 2.78 20 21:36 19.11.2020
5324 Smoke 27 1011 61 3000 2.1 20 20:32 19.11.2020
5325 Smoke 28 1011 58 3000 2.6 340 19:49 19.11.2020
5326 Smoke 28 1011 58 3000 2.6 50 19:24 19.11.2020
5327 Smoke 29 1011 54 3000 2.6 340 17:40 19.11.2020
5328 Smoke 30 1010 51 3000 2.6 350 16:54 19.11.2020
5329 Smoke 30 1009 51 3000 2.1 330 15:40 19.11.2020
5330 Smoke 30 1009 51 3000 2.1 340 15:18 19.11.2020
5331 Smoke 31 1008 52 3000 3.1 290 13:46 19.11.2020
5332 Smoke 31 1007 52 3000 3.1 320 13:19 19.11.2020
5333 Smoke 31 1007 52 3000 3.1 320 12:35 19.11.2020
5334 Smoke 32 1008 52 3000 3.6 300 11:50 19.11.2020
5335 Smoke 32 1008 52 3000 3.6 300 11:32 19.11.2020
5336 Smoke 32 1008 52 3000 3.6 340 10:53 19.11.2020
5337 Smoke 32 1009 52 2500 4.1 320 10:18 19.11.2020
5338 Smoke 31 1009 58 2500 6.2 280 09:42 19.11.2020
5339 Smoke 32 1009 55 2500 5.1 300 09:24 19.11.2020
5340 Smoke 32 1011 55 2500 3.6 280 08:19 19.11.2020
5341 Haze 28 1010 65 3000 1.5 50 02:44 19.11.2020
5342 Haze 28 1009 65 3000 2.63 27 01:45 19.11.2020
5343 Haze 28 1009 65 3000 2.1 60 23:52 18.11.2020
5344 Haze 28 1009 65 3000 1.5 50 23:24 18.11.2020
5345 Haze 28 1009 61 3000 2.1 60 22:36 18.11.2020
5346 Haze 28 1009 61 3000 2.1 40 22:18 18.11.2020
5347 Rain 28 1009 65 3000 1.5 40 21:38 18.11.2020
5348 Haze 28 1010 65 3000 2.6 50 21:19 18.11.2020
5349 Haze 29 1010 66 3000 2.1 50 19:46 18.11.2020
5350 Haze 29 1010 66 3000 2.1 50 19:25 18.11.2020
5351 Haze 29 1011 62 3000 2.1 40 18:49 18.11.2020
5352 Haze 29 1011 66 3000 2.1 50 17:59 18.11.2020
5353 Haze 29 1011 66 3000 2.1 60 17:35 18.11.2020
5354 Haze 29 1010 62 3000 2.6 340 16:23 18.11.2020
5355 Haze 29 1009 66 3000 4.1 340 15:21 18.11.2020
5356 Haze 30 1009 58 3000 3.1 320 14:40 18.11.2020
5357 Smoke 30 1008 62 3000 3.6 320 13:42 18.11.2020
5358 Smoke 31 1008 58 3000 4.1 310 12:54 18.11.2020
5359 Smoke 31 1008 58 3000 4.1 310 12:27 18.11.2020
5360 Smoke 32 1008 59 3000 5.7 260 11:28 18.11.2020
5361 Smoke 33 1008 55 2700 4.6 260 10:31 18.11.2020
5362 Smoke 33 1009 55 3000 5.7 250 09:41 18.11.2020
5363 Smoke 32 1011 49 3000 1.5 150 07:37 18.11.2020
5364 Smoke 32 1011 49 2500 1.5 120 06:29 18.11.2020
5365 Haze 27 1008 74 3000 2.55 33 00:23 18.11.2020
5366 Haze 28 1008 69 3000 2.55 33 23:31 17.11.2020
5367 Haze 28 1008 74 3000 1.5 50 22:46 17.11.2020
5368 Haze 28 1008 74 3000 1.5 50 22:28 17.11.2020
5369 Haze 29 1009 66 3000 1.5 70 21:49 17.11.2020
5370 Haze 29 1009 66 3000 1.5 70 21:29 17.11.2020
5371 Haze 29 1009 66 3000 2.25 22 20:44 17.11.2020
5372 Haze 29 1009 66 3000 2.37 19 20:24 17.11.2020
5373 Haze 29 1009 66 3000 1.5 20 19:50 17.11.2020
5374 Smoke 30 1010 62 3000 2.6 340 18:24 17.11.2020
5375 Smoke 30 1010 66 3000 2.1 340 17:33 17.11.2020
5376 Smoke 31 1009 58 3000 2.6 330 16:49 17.11.2020
5377 Smoke 31 1009 58 3000 3.1 330 16:18 17.11.2020
5378 Smoke 31 1008 58 3000 3.1 320 15:38 17.11.2020
5379 Smoke 31 1008 58 3000 3.1 320 15:20 17.11.2020
5380 Smoke 31 1008 58 3000 2.6 330 14:30 17.11.2020
5381 Smoke 32 1007 55 3000 3.1 310 13:45 17.11.2020
5382 Smoke 33 1007 52 4000 4.1 330 13:22 17.11.2020
5383 Smoke 33 1007 52 4000 5.1 310 12:42 17.11.2020
5384 Smoke 33 1007 52 4000 5.1 320 11:45 17.11.2020
5385 Smoke 35 1007 41 4000 4.1 20 11:21 17.11.2020
5386 Smoke 34 1007 41 4000 3.6 40 10:39 17.11.2020
5387 Smoke 34 1008 41 4000 3.1 340 09:57 17.11.2020
5388 Smoke 34 1008 41 4000 3.1 340 09:36 17.11.2020
5389 Smoke 34 1009 46 3000 3.1 50 08:43 17.11.2020
5390 Smoke 34 1010 46 3000 4.1 100 07:59 17.11.2020
5391 Smoke 34 1011 44 3000 3.1 80 07:28 17.11.2020
5392 Haze 29 1012 54 2500 2.6 50 04:30 17.11.2020
5393 Haze 28 1011 58 2500 1.5 40 03:25 17.11.2020
5394 Haze 28 1010 61 2500 3.6 20 02:29 17.11.2020
5395 Haze 27 1009 69 3000 2.82 53 00:56 17.11.2020
5396 Haze 28 1010 65 3000 2.82 44 23:53 16.11.2020
5397 Smoke 28 1010 61 3000 2.74 28 23:31 16.11.2020
5398 Smoke 28 1010 61 3000 2.74 28 22:55 16.11.2020
5399 Smoke 29 1010 62 3000 2.2 16 22:23 16.11.2020
5400 Smoke 29 1010 62 3000 2.2 16 21:56 16.11.2020
5401 Smoke 29 1011 62 3000 2.2 16 21:37 16.11.2020
5402 Smoke 29 1011 62 3000 2.1 30 21:18 16.11.2020
5403 Smoke 30 1011 55 3000 2.58 19 20:26 16.11.2020
5404 Smoke 29 1012 62 3000 2.58 19 19:50 16.11.2020
5405 Smoke 29 1012 62 3000 2.71 38 19:28 16.11.2020
5406 Smoke 30 1012 62 3000 1.5 340 18:48 16.11.2020
5407 Smoke 30 1012 62 3000 2.6 350 17:57 16.11.2020
5408 Haze 30 1011 66 3000 3.6 340 17:26 16.11.2020
5409 Haze 31 1011 62 2500 2.6 280 16:57 16.11.2020
5410 Haze 31 1011 62 2500 2.6 280 16:38 16.11.2020
5411 Smoke 31 1010 58 2500 2.6 280 16:18 16.11.2020
5412 Smoke 31 1010 58 2500 3.6 340 15:41 16.11.2020
5413 Smoke 31 1010 58 2500 4.1 340 15:22 16.11.2020
5414 Smoke 31 1009 58 3000 2.6 330 14:47 16.11.2020
5415 Smoke 32 1009 55 3000 3.1 320 13:37 16.11.2020
5416 Smoke 33 1009 49 4000 4.6 300 12:45 16.11.2020
5417 Smoke 33 1009 49 4000 4.6 300 12:45 16.11.2020
5418 Smoke 33 1009 49 4000 4.6 300 12:23 16.11.2020
5419 Smoke 33 1009 49 4000 6.2 280 11:38 16.11.2020
5420 Smoke 34 1009 44 4000 5.7 260 11:19 16.11.2020
5421 Smoke 34 1009 44 3000 4.6 260 10:41 16.11.2020
5422 Smoke 34 1009 44 3000 4.6 260 10:22 16.11.2020
5423 Smoke 34 1010 39 3000 3.1 30 09:43 16.11.2020
5424 Smoke 34 1011 41 3000 1 130 09:19 16.11.2020
5425 Smoke 34 1011 44 3000 2.6 50 08:38 16.11.2020
5426 Smoke 34 1012 41 3000 3.6 100 07:44 16.11.2020
5427 Smoke 33 1013 46 2500 4.1 90 06:49 16.11.2020
5428 Smoke 32 1013 52 2500 4.1 90 05:57 16.11.2020
5429 Haze 28 1012 65 2100 4.6 50 04:37 16.11.2020
5430 Haze 27 1011 69 2500 1.5 300 02:29 16.11.2020
5431 Haze 27 1010 69 3000 1.5 90 01:41 16.11.2020
5432 Haze 28 1010 69 3000 2.1 350 23:54 15.11.2020
5433 Haze 28 1010 74 3000 2.6 280 23:22 15.11.2020
5434 Haze 29 1010 58 3000 2.88 52 22:50 15.11.2020
5435 Haze 29 1010 58 3000 2.52 38 22:22 15.11.2020
5436 Haze 29 1011 54 3000 3.1 10 21:45 15.11.2020
5437 Haze 28 1011 65 3000 2.1 90 21:24 15.11.2020
5438 Haze 29 1011 58 3000 2.1 90 20:41 15.11.2020
5439 Haze 29 1011 58 3000 2.1 80 20:21 15.11.2020
5440 Haze 29 1011 66 3000 2.6 100 19:48 15.11.2020
5441 Haze 29 1011 66 3000 2.6 100 19:22 15.11.2020
5442 Haze 29 1011 66 3000 2.1 50 18:57 15.11.2020
5443 Haze 30 1011 62 3000 2.49 23 18:39 15.11.2020
5444 Haze 29 1011 66 3000 2.1 80 18:19 15.11.2020
5445 Smoke 30 1011 62 3000 2.98 17 17:45 15.11.2020
5446 Haze 30 1011 62 3000 2.6 20 17:24 15.11.2020
5447 Haze 30 1010 62 3000 3.1 340 16:48 15.11.2020
5448 Haze 30 1010 62 3000 2.6 330 16:21 15.11.2020
5449 Haze 30 1010 62 3000 2.6 330 15:54 15.11.2020
5450 Haze 30 1010 62 3000 3.1 330 15:29 15.11.2020
5451 Haze 31 1010 62 3000 3.1 320 14:58 15.11.2020
5452 Haze 31 1009 66 3000 3.1 340 14:31 15.11.2020
5453 Smoke 31 1009 62 4000 3.6 290 13:57 15.11.2020
5454 Smoke 31 1009 62 4000 3.6 290 13:36 15.11.2020
5455 Smoke 32 1009 55 4000 3.1 310 12:52 15.11.2020
5456 Smoke 33 1008 52 4000 3.1 290 12:25 15.11.2020
5457 Smoke 33 1008 52 4000 4.6 250 11:47 15.11.2020
5458 Smoke 33 1009 52 4000 4.1 250 11:21 15.11.2020
5459 Smoke 33 1009 52 4000 4.1 250 10:54 15.11.2020
5460 Smoke 33 1009 52 4000 5.1 250 10:33 15.11.2020
5461 Smoke 33 1009 55 3500 3.6 260 09:59 15.11.2020
5462 Smoke 33 1010 52 3000 4.6 240 09:40 15.11.2020
5463 Smoke 33 1010 55 3000 4.6 260 09:19 15.11.2020
5464 Smoke 33 1010 55 3000 4.6 260 08:50 15.11.2020
5465 Smoke 33 1011 46 3000 2.1 110 08:22 15.11.2020
5466 Smoke 33 1012 49 3000 2.6 140 07:38 15.11.2020
5467 Haze 29 1012 66 2500 1.5 100 04:58 15.11.2020
5468 Haze 27 1011 74 2500 3.08 43 02:55 15.11.2020
5469 Haze 27 1009 74 3000 1.5 90 00:48 15.11.2020
5470 Haze 27 1009 74 3000 1.5 90 00:26 15.11.2020
5471 Haze 28 1009 65 4000 2.1 300 23:36 14.11.2020
5472 Haze 28 1010 65 4000 2.73 19 22:50 14.11.2020
5473 Haze 28 1010 65 4000 2.67 1 22:29 14.11.2020
5474 Haze 29 1010 62 4000 2.67 1 21:42 14.11.2020
5475 Haze 29 1010 62 4000 2.68 356 21:22 14.11.2020
5476 Haze 29 1011 62 4000 2.68 356 20:50 14.11.2020
5477 Haze 29 1011 62 4000 2.32 358 20:27 14.11.2020
5478 Haze 29 1011 62 4000 2.1 340 19:51 14.11.2020
5479 Haze 29 1011 62 4000 2.1 340 19:30 14.11.2020
5480 Haze 29 1011 66 4000 2.1 40 18:43 14.11.2020
5481 Haze 29 1011 66 4000 1.5 60 18:24 14.11.2020
5482 Haze 29 1011 66 4000 2.1 40 18:24 14.11.2020
5483 Haze 29 1011 70 4000 2.1 40 17:51 14.11.2020
5484 Haze 29 1011 70 4000 2.1 40 17:33 14.11.2020
5485 Haze 30 1010 62 4000 2.6 360 16:57 14.11.2020
5486 Haze 30 1010 62 4000 2.6 360 16:36 14.11.2020
5487 Haze 30 1009 62 4000 2.6 310 16:18 14.11.2020
5488 Haze 30 1009 62 4000 3.1 300 15:51 14.11.2020
5489 Haze 30 1009 62 4000 3.1 300 15:25 14.11.2020
5490 Smoke 30 1008 62 4000 4.1 290 14:41 14.11.2020
5491 Smoke 30 1008 62 4000 4.1 290 14:23 14.11.2020
5492 Smoke 31 1008 58 5000 4.6 280 13:41 14.11.2020
5493 Smoke 32 1008 52 5000 4.6 280 13:22 14.11.2020
5494 Smoke 32 1007 52 5000 5.1 280 12:46 14.11.2020
5495 Smoke 32 1007 52 5000 5.1 280 12:27 14.11.2020
5496 Haze 33 1008 44 5000 5.7 290 11:43 14.11.2020
5497 Haze 33 1008 44 5000 5.7 290 11:24 14.11.2020
5498 Haze 34 1008 46 5000 5.1 280 10:43 14.11.2020
5499 Haze 34 1008 46 5000 5.1 280 10:25 14.11.2020
5500 Haze 34 1009 41 5000 2.6 150 09:47 14.11.2020
5501 Haze 34 1009 41 5000 2.6 150 09:28 14.11.2020
5502 Haze 35 1010 41 4000 3.6 120 08:49 14.11.2020
5503 Haze 35 1010 41 4000 3.6 120 08:29 14.11.2020
5504 Haze 34 1012 44 4000 3.1 120 07:50 14.11.2020
5505 Haze 34 1012 44 4000 3.1 120 07:26 14.11.2020
5506 Smoke 32 1013 52 3000 4.1 90 06:32 14.11.2020
5507 Smoke 30 1013 58 3000 4.6 70 05:33 14.11.2020
5508 Haze 28 1012 61 2500 2.1 30 04:18 14.11.2020
5509 Haze 26 1009 65 3000 1.5 150 00:59 14.11.2020
5510 Haze 27 1010 61 3000 2.49 51 23:47 13.11.2020
5511 Haze 27 1010 61 3000 2.42 49 23:25 13.11.2020
5512 Haze 27 1010 61 3000 2.42 49 22:55 13.11.2020
5513 Haze 27 1010 61 3000 2.35 43 22:28 13.11.2020
5514 Haze 27 1011 65 3000 2.35 43 21:56 13.11.2020
5515 Haze 27 1011 61 3000 2.35 43 21:37 13.11.2020
5516 Haze 27 1011 65 3000 2.35 43 21:19 13.11.2020
5517 Haze 27 1011 65 3000 2.35 43 20:42 13.11.2020
5518 Smoke 28 1011 61 3000 1.5 130 20:22 13.11.2020
5519 Smoke 29 1012 51 3000 2.52 46 19:46 13.11.2020
5520 Smoke 29 1012 51 3000 1.5 30 19:23 13.11.2020
5521 Smoke 29 1012 51 3000 1.5 30 19:23 13.11.2020
5522 Smoke 29 1012 51 3000 1.5 30 18:56 13.11.2020
5523 Smoke 30 1012 48 3000 2.6 60 18:23 13.11.2020
5524 Smoke 30 1012 48 3000 2.6 30 17:41 13.11.2020
5525 Smoke 30 1012 55 3000 3.6 350 17:19 13.11.2020
5526 Smoke 30 1012 58 3000 3.1 340 16:49 13.11.2020
5527 Smoke 30 1012 58 3000 3.1 340 16:24 13.11.2020
5528 Smoke 30 1011 58 3000 3.6 340 15:49 13.11.2020
5529 Smoke 30 1011 58 3000 3.6 340 15:27 13.11.2020
5530 Smoke 30 1010 58 3000 4.1 340 14:48 13.11.2020
5531 Smoke 31 1010 55 4000 3.1 320 14:24 13.11.2020
5532 Smoke 31 1010 52 4000 3.1 310 13:47 13.11.2020
5533 Smoke 31 1010 52 4000 3.1 310 13:25 13.11.2020
5534 Smoke 32 1009 52 4000 5.1 300 12:47 13.11.2020
5535 Smoke 33 1009 49 4000 4.6 290 12:24 13.11.2020
5536 Smoke 33 1010 49 4000 5.7 270 11:49 13.11.2020
5537 Smoke 33 1010 49 4000 5.7 270 11:29 13.11.2020
5538 Smoke 33 1010 52 4000 5.7 250 10:57 13.11.2020
5539 Smoke 34 1010 36 4000 2.6 50 10:39 13.11.2020
5540 Smoke 34 1011 41 4000 3.1 30 10:21 13.11.2020
5541 Smoke 34 1011 44 4000 3.1 20 09:42 13.11.2020
5542 Smoke 34 1012 41 4000 2.6 60 09:20 13.11.2020
5543 Smoke 33 1012 43 3000 2.6 110 08:50 13.11.2020
5544 Smoke 33 1013 43 3000 4.1 60 08:20 13.11.2020
5545 Smoke 32 1013 43 3000 3.6 80 07:44 13.11.2020
5546 Smoke 32 1013 43 3000 3.6 80 07:26 13.11.2020
5547 Smoke 32 1014 40 2500 3.6 40 06:49 13.11.2020
5548 Smoke 31 1014 40 2500 3.1 30 05:58 13.11.2020
5549 Smoke 30 1014 42 2500 2.1 60 05:30 13.11.2020
5550 Haze 24 1011 60 2500 2.1 130 01:46 13.11.2020
5551 Haze 24 1011 60 2500 1.5 110 00:53 13.11.2020
5552 Haze 24 1011 64 2500 1.5 130 00:32 13.11.2020
5553 Haze 24 1011 64 2500 3.79 53 23:38 12.11.2020
5554 Haze 25 1011 57 2500 3.4 57 23:19 12.11.2020
5555 Smoke 25 1012 57 2500 3.4 57 22:50 12.11.2020
5556 Smoke 25 1012 57 2500 3.4 57 22:32 12.11.2020
5557 Smoke 25 1012 57 2500 3.23 58 21:56 12.11.2020
5558 Smoke 25 1012 61 2500 3.23 58 21:37 12.11.2020
5559 Smoke 25 1012 61 2500 3.23 58 21:37 12.11.2020
5560 Smoke 26 1012 57 2500 2.77 48 21:18 12.11.2020
5561 Smoke 25 1013 61 2500 2.1 200 20:39 12.11.2020
5562 Smoke 26 1013 57 3000 2.77 42 20:21 12.11.2020
5563 Smoke 27 1013 51 3000 1.5 100 19:49 12.11.2020
5564 Smoke 27 1013 51 3000 1.5 100 19:31 12.11.2020
5565 Smoke 27 1013 51 3000 2.84 45 18:52 12.11.2020
5566 Smoke 27 1013 47 3000 3.88 20 18:24 12.11.2020
5567 Smoke 28 1013 48 3000 2.6 340 17:55 12.11.2020
5568 Smoke 28 1013 48 3000 2.6 340 17:30 12.11.2020
5569 Smoke 28 1013 51 3000 2.6 20 16:58 12.11.2020
5570 Smoke 28 1013 51 3000 2.6 360 16:39 12.11.2020
5571 Smoke 29 1012 45 3000 3.6 340 16:21 12.11.2020
5572 Smoke 29 1012 42 3000 4.1 340 15:42 12.11.2020
5573 Smoke 29 1011 51 3000 3.1 350 15:23 12.11.2020
5574 Smoke 29 1011 51 3500 3.1 340 14:46 12.11.2020
5575 Smoke 29 1011 51 3500 3.1 340 14:26 12.11.2020
5576 Smoke 30 1011 48 3500 3.1 330 13:55 12.11.2020
5577 Smoke 30 1011 48 3500 3.1 310 13:37 12.11.2020
5578 Smoke 30 1010 45 3500 3.1 300 13:18 12.11.2020
5579 Smoke 31 1010 43 3500 3.1 300 12:42 12.11.2020
5580 Smoke 32 1010 33 3500 3.1 320 12:20 12.11.2020
5581 Smoke 32 1010 33 3500 4.1 280 11:47 12.11.2020
5582 Smoke 32 1010 33 3500 4.1 280 11:28 12.11.2020
5583 Smoke 32 1011 33 3500 5.1 270 10:43 12.11.2020
5584 Smoke 32 1012 33 3000 4.1 290 10:25 12.11.2020
5585 Smoke 33 1012 27 3000 1.5 0 09:48 12.11.2020
5586 Smoke 33 1012 27 3000 1.5 0 09:23 12.11.2020
5587 Smoke 33 1013 27 3000 2.1 60 08:57 12.11.2020
5588 Smoke 33 1013 27 3000 2.1 60 08:57 12.11.2020
5589 Smoke 33 1013 27 2500 3.1 80 08:39 12.11.2020
5590 Smoke 32 1014 29 2500 2.1 80 08:19 12.11.2020
5591 Smoke 31 1015 29 2500 3.6 80 07:48 12.11.2020
5592 Smoke 31 1015 29 2500 3.6 80 07:22 12.11.2020
5593 Smoke 29 1015 32 2500 3.1 80 06:49 12.11.2020
5594 Smoke 29 1015 32 2500 2.6 100 05:35 12.11.2020
5595 Smoke 24 1014 38 3000 3.79 74 03:23 12.11.2020
5596 Smoke 25 1013 36 3000 1.5 50 02:41 12.11.2020
5597 Smoke 26 1012 29 3000 2.6 60 23:59 11.11.2020
5598 Smoke 26 1012 31 3000 3.1 70 23:26 11.11.2020
5599 Smoke 26 1012 31 3000 3.1 70 22:59 11.11.2020
5600 Smoke 26 1012 31 3000 3.6 60 22:40 11.11.2020
5601 Smoke 27 1012 30 3000 4.1 40 22:21 11.11.2020
5602 Smoke 27 1012 30 3000 4.1 40 21:54 11.11.2020
5603 Smoke 27 1013 32 3000 3.6 40 21:36 11.11.2020
5604 Smoke 27 1013 34 3000 3.1 40 21:18 11.11.2020
5605 Smoke 27 1013 36 3000 4.6 40 20:41 11.11.2020
5606 Smoke 27 1013 36 3000 3.1 40 20:21 11.11.2020
5607 Smoke 27 1013 39 3000 3.6 40 19:49 11.11.2020
5608 Smoke 27 1013 39 3000 3.6 40 19:49 11.11.2020
5609 Smoke 27 1013 39 3000 3.6 40 19:31 11.11.2020
5610 Smoke 27 1013 42 3000 3.1 50 18:55 11.11.2020
5611 Smoke 27 1013 44 3000 3.1 40 18:35 11.11.2020
5612 Smoke 27 1013 47 3000 2.84 38 17:43 11.11.2020
5613 Smoke 28 1013 45 3000 1.5 50 17:23 11.11.2020
5614 Smoke 28 1013 45 3000 1.5 50 16:56 11.11.2020
5615 Smoke 28 1012 45 3000 2.6 360 16:35 11.11.2020
5616 Smoke 29 1012 45 3000 2.6 340 15:56 11.11.2020
5617 Smoke 29 1012 42 3000 3.1 330 15:37 11.11.2020
5618 Smoke 29 1011 45 3000 4.6 330 15:18 11.11.2020
5619 Smoke 29 1011 42 3000 3.6 330 14:43 11.11.2020
5620 Smoke 29 1011 42 3000 3.6 330 14:23 11.11.2020
5621 Smoke 30 1010 42 3000 5.1 340 13:44 11.11.2020
5622 Smoke 31 1010 24 3000 3.1 10 12:59 11.11.2020
5623 Smoke 33 1009 22 3000 4.6 40 12:21 11.11.2020
5624 Smoke 33 1009 22 3000 4.6 40 11:51 11.11.2020
5625 Smoke 33 1009 22 3000 4.1 20 11:33 11.11.2020
5626 Smoke 33 1010 19 3000 3.6 90 10:45 11.11.2020
5627 Smoke 33 1010 19 3000 3.6 90 10:27 11.11.2020
5628 Smoke 33 1010 19 3000 4.1 40 09:55 11.11.2020
5629 Smoke 32 1011 21 3000 5.1 80 09:37 11.11.2020
5630 Smoke 32 1011 22 3000 5.1 80 09:19 11.11.2020
5631 Smoke 32 1012 22 3000 4.1 90 08:43 11.11.2020
5632 Smoke 31 1013 22 3000 5.1 110 08:24 11.11.2020
5633 Smoke 31 1013 23 3000 5.1 110 07:43 11.11.2020
5634 Smoke 29 1014 30 2500 4.6 110 06:31 11.11.2020
5635 Smoke 28 1014 32 2500 5.1 80 05:36 11.11.2020
5636 Smoke 24 1011 47 3000 2.1 70 01:37 11.11.2020
5637 Smoke 23 1011 49 2500 2.1 100 00:57 11.11.2020
5638 Smoke 24 1010 47 2500 1.5 70 00:24 11.11.2020
5639 Smoke 24 1010 50 2500 2.1 100 23:38 10.11.2020
5640 Smoke 24 1010 57 2500 2.1 90 23:20 10.11.2020
5641 Smoke 25 1011 53 2500 3.61 72 22:43 10.11.2020
5642 Smoke 25 1011 53 2500 2.92 89 22:24 10.11.2020
5643 Smoke 25 1011 53 2500 2.92 89 21:41 10.11.2020
5644 Smoke 25 1011 53 2500 1.5 110 21:23 10.11.2020
5645 Smoke 25 1011 53 2500 1.5 110 20:56 10.11.2020
5646 Smoke 25 1011 53 2500 2.6 100 20:38 10.11.2020
5647 Smoke 26 1012 54 2500 2.6 120 20:19 10.11.2020
5648 Smoke 26 1012 54 2500 2.12 74 19:44 10.11.2020
5649 Smoke 26 1012 54 2500 2.46 40 19:24 10.11.2020
5650 Smoke 26 1012 54 2500 2.1 120 18:55 10.11.2020
5651 Smoke 27 1012 51 2500 1.5 150 18:36 10.11.2020
5652 Smoke 28 1012 42 3000 2.1 60 18:18 10.11.2020
5653 Smoke 28 1012 48 3000 1.5 60 17:41 10.11.2020
5654 Smoke 28 1012 51 3000 4.1 60 17:22 10.11.2020
5655 Smoke 28 1011 51 3000 2.6 350 16:41 10.11.2020
5656 Smoke 29 1011 51 3000 3.6 340 16:22 10.11.2020
5657 Smoke 29 1011 51 3000 4.6 350 15:54 10.11.2020
5658 Smoke 29 1011 51 3000 4.6 350 15:36 10.11.2020
5659 Smoke 29 1010 48 3000 3.6 340 15:18 10.11.2020
5660 Smoke 30 1010 45 3000 2.1 300 14:39 10.11.2020
5661 Smoke 30 1009 48 3000 2.6 300 14:18 10.11.2020
5662 Smoke 30 1009 51 3000 3.6 270 13:38 10.11.2020
5663 Smoke 31 1009 38 3000 4.1 270 13:20 10.11.2020
5664 Smoke 32 1008 31 3000 4.6 270 12:46 10.11.2020
5665 Smoke 32 1008 31 3000 4.6 270 12:27 10.11.2020
5666 Smoke 32 1008 35 3500 4.1 200 11:43 10.11.2020
5667 Smoke 32 1008 35 3500 4.1 200 11:43 10.11.2020
5668 Smoke 34 1009 16 3500 3.6 40 11:22 10.11.2020
5669 Smoke 34 1009 16 3500 3.6 40 10:58 10.11.2020
5670 Smoke 34 1009 18 3500 4.1 20 10:39 10.11.2020
5671 Smoke 34 1009 20 3000 3.6 90 10:21 10.11.2020
5672 Smoke 34 1010 20 3000 4.6 100 09:46 10.11.2020
5673 Smoke 34 1010 20 3000 4.6 100 09:25 10.11.2020
5674 Smoke 33 1010 22 3000 4.1 100 08:55 10.11.2020
5675 Smoke 33 1011 24 3000 5.7 100 08:29 10.11.2020
5676 Smoke 32 1012 25 2500 6.2 90 07:45 10.11.2020
5677 Smoke 32 1012 25 2500 6.2 90 07:25 10.11.2020
5678 Smoke 30 1013 33 2500 4.6 90 06:41 10.11.2020
5679 Smoke 28 1013 39 2500 4.1 80 05:49 10.11.2020
5680 Smoke 27 1013 47 2500 3.1 110 04:59 10.11.2020
5681 Haze 24 1011 57 2500 1.5 110 02:37 10.11.2020
5682 Haze 25 1011 57 3000 2.6 110 01:31 10.11.2020
5683 Smoke 25 1011 65 3000 3.67 77 00:22 10.11.2020
5684 Smoke 26 1011 57 3000 1.5 50 23:36 09.11.2020
5685 Smoke 25 1011 65 3000 3.6 90 22:49 09.11.2020
5686 Smoke 25 1011 65 3000 3.6 90 22:25 09.11.2020
5687 Smoke 26 1011 57 3000 2.86 86 21:59 09.11.2020
5688 Smoke 26 1011 57 3000 2.86 86 21:38 09.11.2020
5689 Smoke 27 1012 54 3000 2.1 90 21:19 09.11.2020
5690 Smoke 27 1012 54 3000 2.6 90 20:39 09.11.2020
5691 Smoke 27 1012 54 3000 1.5 160 20:20 09.11.2020
5692 Smoke 27 1012 54 3000 1.5 90 19:42 09.11.2020
5693 Smoke 27 1012 54 3000 1.5 90 19:22 09.11.2020
5694 Smoke 28 1013 51 3000 2.25 55 18:42 09.11.2020
5695 Smoke 29 1013 48 3000 1.5 40 18:21 09.11.2020
5696 Smoke 29 1013 48 3000 1.5 40 17:57 09.11.2020
5697 Smoke 29 1013 51 3000 2.1 350 17:38 09.11.2020
5698 Smoke 29 1013 54 3000 2.1 10 17:20 09.11.2020
5699 Smoke 29 1013 54 3000 3.85 351 16:37 09.11.2020
5700 Smoke 30 1013 48 3000 2.1 340 16:18 09.11.2020
5701 Smoke 30 1012 42 3000 2.6 350 15:42 09.11.2020
5702 Smoke 31 1012 38 3500 3.1 340 15:23 09.11.2020
5703 Smoke 31 1012 38 3500 2.6 20 14:44 09.11.2020
5704 Smoke 31 1012 38 3500 2.6 20 14:26 09.11.2020
5705 Smoke 33 1011 29 5000 3.1 10 13:48 09.11.2020
5706 Smoke 33 1011 29 5000 4.1 20 13:20 09.11.2020
5707 Smoke 33 1011 29 5000 3.6 30 12:47 09.11.2020
5708 Smoke 33 1011 29 5000 3.6 30 12:26 09.11.2020
5709 Smoke 34 1011 28 5000 4.1 30 11:57 09.11.2020
5710 Smoke 34 1011 26 5000 3.6 30 11:38 09.11.2020
5711 Smoke 34 1011 28 4000 4.6 20 11:19 09.11.2020
5712 Smoke 34 1012 28 4000 3.1 20 10:42 09.11.2020
5713 Smoke 34 1012 28 4000 3.1 20 10:23 09.11.2020
5714 Smoke 34 1013 24 3000 3.1 50 09:45 09.11.2020
5715 Smoke 34 1013 24 3000 3.1 50 09:23 09.11.2020
5716 Smoke 34 1014 28 3000 3.1 90 08:39 09.11.2020
5717 Smoke 33 1014 31 3000 3.1 90 08:19 09.11.2020
5718 Smoke 32 1015 35 3000 3.6 110 07:39 09.11.2020
5719 Smoke 32 1015 35 3000 3.6 100 07:19 09.11.2020
5720 Smoke 31 1016 38 2500 3.1 80 06:23 09.11.2020
5721 Haze 25 1014 57 2500 2.6 100 03:22 09.11.2020
5722 Haze 26 1013 57 2500 1.5 110 01:43 09.11.2020
5723 Haze 25 1013 61 2500 1.5 100 00:58 09.11.2020
5724 Haze 26 1013 65 2500 2.1 100 23:53 08.11.2020
5725 Haze 26 1013 61 2500 2.84 66 23:30 08.11.2020
5726 Haze 26 1013 65 2500 3.6 80 22:46 08.11.2020
5727 Haze 26 1013 65 2500 3.6 80 22:23 08.11.2020
5728 Haze 27 1013 57 2500 4.1 110 21:55 08.11.2020
5729 Haze 27 1014 57 2500 2.1 140 21:37 08.11.2020
5730 Haze 28 1014 54 2500 2.16 64 21:18 08.11.2020
5731 Haze 27 1014 61 2500 2.16 64 20:39 08.11.2020
5732 Haze 27 1014 61 2500 2.16 64 20:39 08.11.2020
5733 Haze 27 1014 61 2500 2.16 64 20:39 08.11.2020
5734 Smoke 28 1014 58 2500 2.41 50 20:20 08.11.2020
5735 Smoke 28 1014 58 2500 2.41 50 20:20 08.11.2020
5736 Smoke 28 1014 58 2500 2.41 50 19:56 08.11.2020
5737 Smoke 28 1014 58 2500 1.5 10 19:37 08.11.2020
5738 Smoke 28 1014 58 2500 2.6 80 19:18 08.11.2020
5739 Smoke 29 1014 51 2500 2.1 110 18:45 08.11.2020
5740 Smoke 29 1014 58 3000 2.1 10 18:21 08.11.2020
5741 Smoke 29 1014 58 3000 2.1 10 17:57 08.11.2020
5742 Smoke 30 1015 55 3000 4.01 354 17:37 08.11.2020
5743 Smoke 30 1014 51 3000 2.1 340 17:18 08.11.2020
5744 Smoke 31 1014 45 3000 1.5 340 16:46 08.11.2020
5745 Smoke 31 1014 43 3000 2.1 330 16:21 08.11.2020
5746 Smoke 32 1014 40 3000 2.6 330 15:50 08.11.2020
5747 Smoke 31 1013 45 3000 5.47 338 15:28 08.11.2020
5748 Smoke 31 1013 45 3000 5.47 338 14:59 08.11.2020
5749 Smoke 32 1013 43 3000 5.47 338 14:38 08.11.2020
5750 Smoke 32 1013 43 4000 4.41 332 14:20 08.11.2020
5751 Smoke 33 1013 36 4000 2.6 30 13:41 08.11.2020
5752 Smoke 33 1012 36 4000 2.6 40 13:20 08.11.2020
5753 Smoke 34 1012 32 4000 2.6 210 12:42 08.11.2020
5754 Smoke 34 1012 41 4000 4.1 290 12:24 08.11.2020
5755 Smoke 34 1012 41 4000 4.1 290 11:57 08.11.2020
5756 Smoke 34 1012 32 4000 2.1 100 11:38 08.11.2020
5757 Smoke 35 1012 32 4000 2.1 140 11:20 08.11.2020
5758 Smoke 35 1012 32 4000 3.6 160 10:49 08.11.2020
5759 Smoke 35 1013 32 4000 2.6 110 10:18 08.11.2020
5760 Smoke 35 1013 32 4000 2.6 120 09:42 08.11.2020
5761 Smoke 35 1013 32 4000 2.6 120 09:24 08.11.2020
5762 Smoke 34 1013 34 4000 3.6 90 08:55 08.11.2020
5763 Smoke 34 1014 34 3000 4.1 90 08:36 08.11.2020
5764 Smoke 33 1015 36 3000 3.1 130 07:58 08.11.2020
5765 Smoke 32 1015 38 3000 4.6 110 07:39 08.11.2020
5766 Smoke 32 1016 38 3000 4.6 100 07:18 08.11.2020
5767 Smoke 31 1016 38 3000 4.6 80 05:55 08.11.2020
5768 Smoke 30 1016 40 3000 3.6 70 05:26 08.11.2020
5769 Smoke 28 1015 42 2500 3.6 40 03:56 08.11.2020
5770 Smoke 26 1013 54 3000 3.65 76 01:49 08.11.2020
5771 Smoke 26 1013 54 3000 3.66 75 01:18 08.11.2020
5772 Smoke 26 1013 54 3000 2.6 150 00:26 08.11.2020
5773 Smoke 26 1013 57 3000 2.1 110 23:46 07.11.2020
5774 Smoke 26 1013 57 3000 2.1 110 23:28 07.11.2020
5775 Smoke 27 1013 54 3000 2.6 40 22:42 07.11.2020
5776 Smoke 27 1013 54 3000 2.6 40 22:24 07.11.2020
5777 Smoke 27 1013 57 3000 2.5 80 22:23 07.11.2020
5778 Smoke 27 1013 61 3000 2.5 80 21:46 07.11.2020
5779 Smoke 28 1013 54 3000 2.25 84 21:22 07.11.2020
5780 Smoke 28 1013 54 3000 2.25 84 21:22 07.11.2020
5781 Smoke 28 1013 54 3000 2.25 84 20:55 07.11.2020
5782 Smoke 27 1013 61 3000 2.25 84 20:36 07.11.2020
5783 Smoke 28 1014 58 3000 1.8 78 20:18 07.11.2020
5784 Smoke 28 1014 58 3000 3.1 80 19:39 07.11.2020
5785 Smoke 28 1014 58 3000 1.85 56 19:20 07.11.2020
5786 Smoke 29 1014 54 3000 2.24 70 18:39 07.11.2020
5787 Smoke 29 1014 54 3000 2.26 47 18:21 07.11.2020
5788 Smoke 30 1014 48 3000 2.6 10 17:46 07.11.2020
5789 Smoke 30 1014 55 3000 3.1 10 17:26 07.11.2020
5790 Smoke 30 1014 58 3000 2.6 20 16:44 07.11.2020
5791 Smoke 30 1014 58 3000 2.6 20 16:24 07.11.2020
5792 Smoke 30 1013 58 3000 1.5 300 15:48 07.11.2020
5793 Smoke 31 1013 55 3000 1.5 340 15:24 07.11.2020
5794 Smoke 31 1013 55 3000 1.5 340 14:58 07.11.2020
5795 Smoke 31 1013 58 3000 2.6 290 14:40 07.11.2020
5796 Smoke 31 1013 58 3000 2.6 310 14:19 07.11.2020
5797 Smoke 31 1012 52 3500 3.1 310 13:39 07.11.2020
5798 Smoke 31 1012 52 3500 3.1 310 13:39 07.11.2020
5799 Smoke 32 1012 49 4000 3.1 290 13:21 07.11.2020
5800 Smoke 33 1012 38 4000 3.1 290 12:35 07.11.2020
5801 Smoke 34 1012 36 4000 4.1 260 11:46 07.11.2020
5802 Smoke 34 1012 36 4000 4.1 260 11:25 07.11.2020
5803 Smoke 34 1012 34 4000 3.1 60 10:57 07.11.2020
5804 Smoke 35 1012 32 4000 3.1 140 10:39 07.11.2020
5805 Smoke 35 1013 34 4000 3.6 100 10:20 07.11.2020
5806 Smoke 35 1013 32 4000 4.6 80 09:47 07.11.2020
5807 Smoke 34 1014 32 4000 3.1 30 09:21 07.11.2020
5808 Smoke 34 1014 32 3000 4.6 110 08:47 07.11.2020
5809 Smoke 34 1014 32 3000 4.6 110 08:28 07.11.2020
5810 Smoke 32 1015 35 3000 5.1 60 07:48 07.11.2020
5811 Smoke 31 1016 35 3000 4.6 80 06:50 07.11.2020
5812 Smoke 29 1016 42 2500 3.6 80 05:48 07.11.2020
5813 Smoke 25 1015 57 2500 3.84 76 03:26 07.11.2020
5814 Smoke 25 1014 53 2500 3.84 76 02:38 07.11.2020
5815 Haze 25 1013 53 2500 3.1 100 01:27 07.11.2020
5816 Haze 25 1013 61 2500 1.5 130 00:34 07.11.2020
5817 Haze 25 1013 61 2500 1.5 120 23:39 06.11.2020
5818 Haze 25 1013 65 2500 2.1 180 23:18 06.11.2020
5819 Haze 26 1013 57 2500 2.1 100 22:40 06.11.2020
5820 Haze 26 1013 61 2500 1.5 90 22:18 06.11.2020
5821 Haze 26 1014 61 2500 1.5 140 21:42 06.11.2020
5822 Haze 26 1014 61 2500 2.95 53 21:20 06.11.2020
5823 Haze 26 1014 65 2500 1.5 130 20:45 06.11.2020
5824 Haze 27 1014 61 2500 1.5 80 20:20 06.11.2020
5825 Haze 27 1015 61 2500 2.1 140 19:45 06.11.2020
5826 Haze 27 1015 61 2500 2.1 140 19:27 06.11.2020
5827 Smoke 27 1015 61 3000 1.5 120 18:56 06.11.2020
5828 Smoke 28 1015 54 3000 1.5 100 18:38 06.11.2020
5829 Smoke 28 1015 54 3000 2.1 80 18:19 06.11.2020
5830 Smoke 29 1015 51 3000 2.77 47 17:46 06.11.2020
5831 Smoke 29 1015 51 3000 2.6 340 17:24 06.11.2020
5832 Smoke 29 1014 54 3500 3.1 10 16:43 06.11.2020
5833 Smoke 30 1014 48 3500 1.5 320 16:22 06.11.2020
5834 Smoke 30 1013 48 3500 4.1 340 15:47 06.11.2020
5835 Smoke 30 1013 48 3500 4.1 340 15:26 06.11.2020
5836 Smoke 31 1013 55 3500 5.1 330 14:50 06.11.2020
5837 Smoke 31 1013 55 3500 5.1 330 14:23 06.11.2020
5838 Smoke 33 1012 31 4000 3.6 360 13:44 06.11.2020
5839 Smoke 33 1012 29 4000 3.6 340 13:21 06.11.2020
5840 Smoke 34 1012 28 5000 4.6 10 12:44 06.11.2020
5841 Smoke 34 1012 28 5000 4.6 10 12:23 06.11.2020
5842 Smoke 34 1012 26 5000 5.1 40 11:40 06.11.2020
5843 Smoke 35 1012 26 5000 4.1 40 11:21 06.11.2020
5844 Smoke 34 1012 24 4000 5.1 80 10:38 06.11.2020
5845 Smoke 34 1013 28 4000 2.6 30 10:19 06.11.2020
5846 Smoke 34 1013 28 4000 4.6 70 09:46 06.11.2020
5847 Smoke 34 1013 28 4000 4.1 60 09:21 06.11.2020
5848 Smoke 34 1014 30 4000 3.6 80 08:49 06.11.2020
5849 Smoke 34 1014 30 4000 3.6 80 08:28 06.11.2020
5850 Smoke 33 1015 31 3000 4.1 40 07:48 06.11.2020
5851 Smoke 33 1015 31 3000 4.1 40 07:29 06.11.2020
5852 Smoke 31 1016 38 2500 3.6 80 06:51 06.11.2020
5853 Smoke 32 1016 33 2500 3.6 70 06:51 06.11.2020
5854 Smoke 29 1016 45 2500 4.6 90 05:42 06.11.2020
5855 Smoke 26 1014 50 3000 2.6 80 03:46 06.11.2020
5856 Smoke 27 1012 47 3000 2.6 70 00:48 06.11.2020
5857 Smoke 25 1012 61 3000 2.1 120 00:19 06.11.2020
5858 Smoke 26 1012 57 2500 2.6 120 23:30 05.11.2020
5859 Smoke 26 1012 54 2500 3.03 58 22:57 05.11.2020
5860 Smoke 26 1012 54 2500 3.03 58 22:37 05.11.2020
5861 Smoke 26 1012 54 2500 2.81 63 22:18 05.11.2020
5862 Smoke 27 1013 47 2500 2.81 63 21:43 05.11.2020
5863 Smoke 27 1013 47 2500 2.81 63 21:43 05.11.2020
5864 Smoke 27 1013 47 2500 2.72 65 21:21 05.11.2020
5865 Smoke 27 1013 47 2500 2.72 65 20:48 05.11.2020
5866 Smoke 27 1013 47 2500 2.46 60 20:29 05.11.2020
5867 Smoke 27 1013 51 2500 2.1 120 19:59 05.11.2020
5868 Smoke 28 1013 45 2500 2.46 60 19:40 05.11.2020
5869 Smoke 28 1013 45 2500 1.5 110 19:22 05.11.2020
5870 Smoke 28 1013 48 3000 2.1 100 18:45 05.11.2020
5871 Smoke 29 1013 37 3000 3.24 10 18:26 05.11.2020
5872 Smoke 30 1013 30 3000 3.1 30 17:52 05.11.2020
5873 Smoke 30 1013 35 3000 3.1 20 17:29 05.11.2020
5874 Smoke 30 1013 35 3000 3.1 20 16:59 05.11.2020
5875 Smoke 30 1013 37 3000 3.1 10 16:40 05.11.2020
5876 Smoke 31 1012 45 3000 3.1 20 16:19 05.11.2020
5877 Smoke 31 1012 45 3000 3.1 20 15:44 05.11.2020
5878 Smoke 32 1012 43 3000 3.1 350 15:22 05.11.2020
5879 Smoke 32 1012 43 3000 3.1 350 14:46 05.11.2020
5880 Smoke 32 1012 43 3000 3.1 350 14:26 05.11.2020
5881 Smoke 32 1011 46 3000 3.1 320 13:45 05.11.2020
5882 Smoke 32 1011 46 3000 3.1 320 13:26 05.11.2020
5883 Smoke 34 1011 30 3000 4.1 20 12:53 05.11.2020
5884 Smoke 34 1011 30 3000 4.1 20 12:27 05.11.2020
5885 Smoke 34 1011 30 3000 4.6 350 11:55 05.11.2020
5886 Smoke 34 1011 26 3000 2.6 60 11:30 05.11.2020
5887 Smoke 34 1011 26 3000 2.6 60 10:58 05.11.2020
5888 Smoke 35 1011 28 3000 2.6 60 10:39 05.11.2020
5889 Smoke 34 1011 32 3000 1.5 30 10:21 05.11.2020
5890 Smoke 34 1012 32 3000 3.1 360 09:44 05.11.2020
5891 Smoke 34 1012 32 3000 2.6 20 09:21 05.11.2020
5892 Smoke 34 1012 32 3000 2.6 20 09:21 05.11.2020
5893 Smoke 34 1012 32 3000 3.1 90 08:44 05.11.2020
5894 Smoke 34 1012 32 3000 3.1 90 08:25 05.11.2020
5895 Smoke 33 1013 36 2500 4.1 130 07:40 05.11.2020
5896 Smoke 32 1014 40 2500 3.1 60 07:20 05.11.2020
5897 Smoke 31 1014 43 2500 2.6 90 06:34 05.11.2020
5898 Smoke 31 1014 43 2500 2.6 90 06:34 05.11.2020
5899 Smoke 29 1014 51 2500 3.6 40 05:23 05.11.2020
5900 Haze 26 1011 65 2500 2.85 77 01:24 05.11.2020
5901 Haze 26 1011 65 2500 2.6 100 00:32 05.11.2020
5902 Haze 27 1010 61 2500 2.6 110 23:44 04.11.2020
5903 Haze 27 1010 61 2500 2.6 110 23:26 04.11.2020
5904 Haze 27 1010 61 2500 2.6 120 22:52 04.11.2020
5905 Haze 27 1010 61 2500 2.6 120 22:26 04.11.2020
5906 Haze 28 1011 61 2500 2.6 110 21:57 04.11.2020
5907 Haze 28 1011 58 2500 2.73 65 21:37 04.11.2020
5908 Haze 28 1011 61 2500 2.5 71 21:18 04.11.2020
5909 Haze 28 1011 61 2500 2.5 71 20:42 04.11.2020
5910 Haze 28 1011 61 2500 2.37 67 20:24 04.11.2020
5911 Haze 28 1012 61 2500 2.37 67 19:48 04.11.2020
5912 Haze 28 1012 61 2500 2.4 53 19:29 04.11.2020
5913 Smoke 29 1012 58 3000 1.78 37 18:45 04.11.2020
5914 Smoke 29 1012 58 3000 2.27 6 18:27 04.11.2020
5915 Smoke 29 1012 58 3000 1.5 110 17:59 04.11.2020
5916 Smoke 30 1012 55 3000 2.6 10 17:40 04.11.2020
5917 Smoke 30 1011 58 3000 2.1 40 17:20 04.11.2020
5918 Smoke 30 1011 55 3000 1.5 340 16:38 04.11.2020
5919 Smoke 31 1011 52 3000 2.6 340 16:20 04.11.2020
5920 Smoke 31 1011 48 3000 2.6 330 15:47 04.11.2020
5921 Smoke 31 1010 55 3000 1.5 300 15:25 04.11.2020
5922 Smoke 31 1010 55 3000 1.5 300 14:57 04.11.2020
5923 Smoke 31 1010 52 3000 2.1 300 14:39 04.11.2020
5924 Smoke 32 1010 43 3000 3.1 300 14:19 04.11.2020
5925 Smoke 33 1010 36 3000 2.6 310 13:42 04.11.2020
5926 Smoke 33 1009 38 3000 2.6 300 13:20 04.11.2020
5927 Smoke 33 1009 38 3000 2.6 300 12:51 04.11.2020
5928 Smoke 34 1009 32 3000 3.1 290 12:27 04.11.2020
5929 Smoke 34 1009 34 2500 3.6 290 11:56 04.11.2020
5930 Smoke 34 1009 34 2500 3.6 290 11:56 04.11.2020
5931 Smoke 34 1009 34 2500 3.6 290 11:37 04.11.2020
5932 Smoke 34 1010 36 2500 4.1 260 11:19 04.11.2020
5933 Smoke 34 1010 36 2500 3.6 270 10:46 04.11.2020
5934 Smoke 34 1010 36 2200 3.6 280 10:22 04.11.2020
5935 Smoke 34 1010 36 2200 3.6 280 09:51 04.11.2020
5936 Smoke 34 1011 38 2500 3.6 270 09:23 04.11.2020
5937 Smoke 35 1012 32 2500 2.6 100 08:46 04.11.2020
5938 Smoke 34 1012 32 2500 2.1 170 08:20 04.11.2020
5939 Smoke 34 1012 32 2500 2.1 170 07:50 04.11.2020
5940 Smoke 34 1013 34 2500 2.6 140 07:27 04.11.2020
5941 Smoke 32 1014 38 2500 2.1 130 06:46 04.11.2020
5942 Smoke 32 1014 38 2500 2.1 130 06:27 04.11.2020
5943 Haze 27 1013 69 2200 3.31 82 03:46 04.11.2020
5944 Haze 27 1011 69 2500 3.25 76 02:20 04.11.2020
5945 Haze 27 1011 69 3000 2.94 67 00:43 04.11.2020
5946 Haze 26 1011 78 3000 2.6 110 23:44 03.11.2020
5947 Haze 26 1011 78 3000 2.6 110 23:23 03.11.2020
5948 Haze 28 1011 69 3000 2.84 53 22:41 03.11.2020
5949 Haze 28 1011 74 3000 2.64 56 22:21 03.11.2020
5950 Haze 28 1011 74 3000 2.64 56 21:56 03.11.2020
5951 Haze 28 1012 74 3000 2.64 56 21:38 03.11.2020
5952 Haze 28 1012 69 3000 2.5 63 21:20 03.11.2020
5953 Haze 28 1012 69 3000 2.5 63 20:44 03.11.2020
5954 Haze 28 1012 69 3000 2.39 53 20:23 03.11.2020
5955 Haze 29 1012 66 3000 2.39 53 19:44 03.11.2020
5956 Haze 29 1012 66 3000 2.39 53 19:44 03.11.2020
5957 Smoke 29 1012 62 3000 2.43 29 19:23 03.11.2020
5958 Smoke 29 1013 66 3000 2.5 26 18:45 03.11.2020
5959 Smoke 29 1013 66 3000 1.5 0 18:21 03.11.2020
5960 Smoke 29 1013 66 3000 1.5 0 17:59 03.11.2020
5961 Smoke 30 1012 62 3000 2.1 350 17:41 03.11.2020
5962 Smoke 30 1012 62 3000 3.48 355 17:22 03.11.2020
5963 Smoke 30 1012 58 3000 1.5 310 16:45 03.11.2020
5964 Smoke 30 1012 58 3000 1.5 310 16:23 03.11.2020
5965 Smoke 31 1011 55 2500 3.6 330 15:46 03.11.2020
5966 Smoke 31 1011 52 2500 2.6 330 15:25 03.11.2020
5967 Smoke 31 1011 52 2500 2.6 330 14:52 03.11.2020
5968 Smoke 31 1011 55 2500 3.6 330 14:33 03.11.2020
5969 Haze 31 1010 62 3000 2.6 290 13:46 03.11.2020
5970 Haze 31 1010 62 3000 2.6 290 13:23 03.11.2020
5971 Smoke 32 1010 55 3500 3.1 310 12:59 03.11.2020
5972 Smoke 32 1010 55 3500 3.6 270 12:38 03.11.2020
5973 Smoke 33 1010 49 3500 3.6 280 12:19 03.11.2020
5974 Smoke 33 1010 49 3500 4.1 260 11:42 03.11.2020
5975 Smoke 33 1010 49 3500 5.7 250 11:20 03.11.2020
5976 Smoke 33 1010 46 3000 4.1 250 10:40 03.11.2020
5977 Smoke 33 1010 46 3000 4.1 270 10:21 03.11.2020
5978 Smoke 33 1010 46 3000 4.1 270 09:52 03.11.2020
5979 Smoke 33 1011 49 3000 5.1 260 09:33 03.11.2020
5980 Smoke 34 1011 34 3000 1.01 341 08:56 03.11.2020
5981 Smoke 34 1012 36 3000 2.6 330 08:36 03.11.2020
5982 Smoke 33 1012 34 3000 2.6 140 07:57 03.11.2020
5983 Smoke 33 1013 41 3000 1.5 210 07:35 03.11.2020
5984 Smoke 33 1013 41 3000 3.1 120 06:52 03.11.2020
5985 Smoke 31 1013 45 2500 3.1 110 05:50 03.11.2020
5986 Haze 27 1013 74 2100 1.5 50 03:26 03.11.2020
5987 Haze 27 1011 69 2500 1.5 130 00:42 03.11.2020
5988 Haze 27 1011 74 2500 2.1 70 23:59 02.11.2020
5989 Haze 28 1011 65 2500 2.1 40 23:40 02.11.2020
5990 Haze 28 1011 65 2500 1.5 30 22:56 02.11.2020
5991 Haze 29 1012 62 2500 1.5 50 22:37 02.11.2020
5992 Haze 28 1012 65 2500 2.3 81 22:19 02.11.2020
5993 Haze 29 1012 62 2500 2.3 81 21:38 02.11.2020
5994 Haze 29 1012 62 2500 1.5 80 21:20 02.11.2020
5995 Haze 29 1012 62 2500 2.25 63 20:41 02.11.2020
5996 Haze 29 1013 62 2500 1.5 100 20:20 02.11.2020
5997 Haze 29 1013 62 2500 1.5 100 19:58 02.11.2020
5998 Haze 29 1013 66 2500 1.5 40 19:40 02.11.2020
5999 Haze 29 1013 66 2500 1.5 70 19:21 02.11.2020
6000 Haze 29 1013 74 2500 1.5 60 18:39 02.11.2020
6001 Haze 29 1013 74 2500 1.5 30 18:21 02.11.2020
6002 Haze 29 1013 74 2500 1.5 30 17:56 02.11.2020
6003 Haze 29 1013 74 2500 1.5 350 17:36 02.11.2020
6004 Haze 30 1013 70 2500 2.1 320 17:18 02.11.2020
6005 Haze 30 1013 74 2500 2.6 320 16:38 02.11.2020
6006 Haze 30 1012 70 2500 1.5 310 16:20 02.11.2020
6007 Haze 30 1012 70 2500 2.6 300 15:39 02.11.2020
6008 Haze 30 1011 74 2500 2.1 300 15:20 02.11.2020
6009 Haze 30 1011 74 2500 2.1 300 14:53 02.11.2020
6010 Smoke 31 1011 55 3000 2.1 290 14:20 02.11.2020
6011 Smoke 32 1010 43 3000 2.6 300 13:52 02.11.2020
6012 Smoke 32 1010 43 3000 2.6 300 13:23 02.11.2020
6013 Smoke 32 1010 43 4000 4.1 280 12:55 02.11.2020
6014 Smoke 33 1010 46 4000 3.1 290 12:30 02.11.2020
6015 Smoke 33 1010 49 4000 4.6 270 11:56 02.11.2020
6016 Smoke 33 1010 49 4000 4.6 270 11:37 02.11.2020
6017 Smoke 34 1010 46 3500 4.1 260 11:18 02.11.2020
6018 Smoke 34 1010 44 3500 2.1 250 10:41 02.11.2020
6019 Smoke 34 1011 34 3000 3.1 190 10:18 02.11.2020
6020 Smoke 34 1011 34 3000 3.1 120 09:48 02.11.2020
6021 Smoke 34 1011 34 3000 3.1 120 09:23 02.11.2020
6022 Smoke 34 1012 34 3000 2.1 130 08:40 02.11.2020
6023 Smoke 34 1013 34 3000 3.6 170 08:20 02.11.2020
6024 Smoke 34 1013 34 3000 3.6 170 08:20 02.11.2020
6025 Smoke 34 1013 34 3000 3.6 170 07:49 02.11.2020
6026 Smoke 32 1014 49 2500 3.1 80 06:49 02.11.2020
6027 Smoke 32 1014 49 2500 3.1 80 06:24 02.11.2020
6028 Haze 27 1011 65 3000 2.6 120 01:40 02.11.2020
6029 Haze 27 1011 65 3000 3.1 110 01:22 02.11.2020
6030 Smoke 27 1011 65 3000 3.1 90 00:33 02.11.2020
6031 Smoke 28 1011 58 3000 2.27 44 23:41 01.11.2020
6032 Smoke 28 1011 61 3000 2.42 32 23:23 01.11.2020
6033 Smoke 28 1011 61 3000 1.5 240 22:46 01.11.2020
6034 Smoke 28 1011 61 3000 1.5 240 22:25 01.11.2020
6035 Smoke 28 1011 61 3000 2.05 33 21:58 01.11.2020
6036 Smoke 28 1012 58 3000 2.05 33 21:38 01.11.2020
6037 Smoke 27 1012 61 3000 1.33 29 21:20 01.11.2020
6038 Smoke 28 1012 58 3000 1.5 320 20:40 01.11.2020
6039 Smoke 28 1012 58 3000 1.21 1 20:20 01.11.2020
6040 Haze 29 1012 58 3000 1.5 60 19:41 01.11.2020
6041 Haze 29 1012 58 3000 1.5 60 19:23 01.11.2020
6042 Haze 29 1012 58 3000 1.05 354 18:42 01.11.2020
6043 Haze 29 1012 58 3000 1.19 14 18:42 01.11.2020
6044 Haze 29 1013 58 3000 1.5 340 18:20 01.11.2020
6045 Haze 29 1013 58 3000 1.5 340 18:20 01.11.2020
6046 Haze 29 1013 58 3000 1.5 340 17:58 01.11.2020
6047 Haze 29 1013 66 3000 2.1 350 17:40 01.11.2020
6048 Haze 30 1012 58 3000 1.5 350 17:21 01.11.2020
6049 Smoke 30 1012 58 3000 2.1 350 16:40 01.11.2020
6050 Smoke 30 1011 55 3000 2.6 330 16:19 01.11.2020
6051 Smoke 30 1011 55 3000 1.5 300 15:41 01.11.2020
6052 Smoke 30 1011 51 3000 2.1 310 15:22 01.11.2020
6053 Smoke 30 1011 51 3000 2.1 310 14:58 01.11.2020
6054 Smoke 30 1010 51 3500 2.6 310 14:39 01.11.2020
6055 Smoke 31 1010 45 3500 2.6 310 14:18 01.11.2020
6056 Smoke 31 1010 38 4000 2.6 310 13:47 01.11.2020
6057 Smoke 31 1010 38 4000 2.6 310 13:28 01.11.2020
6058 Smoke 33 1010 27 4000 4.1 320 12:43 01.11.2020
6059 Smoke 33 1010 27 4000 4.1 320 12:23 01.11.2020
6060 Smoke 33 1010 31 4000 4.6 310 11:51 01.11.2020
6061 Smoke 33 1010 36 3000 3.6 310 11:19 01.11.2020
6062 Smoke 33 1010 46 3000 4.1 290 10:43 01.11.2020
6063 Smoke 33 1010 46 3000 4.1 290 10:43 01.11.2020
6064 Smoke 33 1010 41 3000 4.1 290 10:24 01.11.2020
6065 Smoke 33 1010 41 3000 4.1 290 09:57 01.11.2020
6066 Smoke 33 1011 38 3000 3.6 270 09:39 01.11.2020
6067 Smoke 33 1012 41 3000 3.6 260 08:47 01.11.2020
6068 Smoke 33 1012 41 3000 3.6 260 08:23 01.11.2020
6069 Smoke 33 1013 36 3000 2.1 180 07:40 01.11.2020
6070 Haze 28 1013 61 2500 1.23 48 04:31 01.11.2020
6071 Haze 26 1011 65 3000 1.71 44 01:51 01.11.2020
6072 Haze 27 1011 57 3000 1.5 20 00:43 01.11.2020
6073 Haze 27 1011 57 3000 1.5 20 00:43 01.11.2020
6074 Haze 26 1011 65 3000 1.87 59 23:26 31.10.2020
6075 Smoke 26 1011 61 3000 1.87 59 22:58 31.10.2020
6076 Smoke 27 1011 57 3000 1.87 59 22:39 31.10.2020
6077 Smoke 27 1011 57 3000 1.91 49 22:21 31.10.2020
6078 Smoke 27 1011 57 3000 1.91 49 21:44 31.10.2020
6079 Smoke 27 1011 57 3000 1.95 28 21:20 31.10.2020
6080 Smoke 27 1011 57 3000 1.95 28 20:38 31.10.2020
6081 Smoke 27 1012 54 3000 1.5 100 20:18 31.10.2020
6082 Smoke 28 1012 51 3000 2.1 80 19:41 31.10.2020
6083 Smoke 28 1012 51 3000 2.1 80 19:23 31.10.2020
6084 Smoke 29 1012 54 3000 2.1 40 18:47 31.10.2020
6085 Smoke 29 1012 54 3000 2.1 40 18:28 31.10.2020
6086 Smoke 29 1012 54 3000 2.1 20 17:41 31.10.2020
6087 Smoke 29 1012 58 3000 2.1 340 17:22 31.10.2020
6088 Smoke 29 1011 58 3000 3.1 340 16:46 31.10.2020
6089 Smoke 29 1011 58 3000 3.1 340 16:27 31.10.2020
6090 Smoke 30 1011 58 3000 3.6 320 15:45 31.10.2020
6091 Smoke 30 1011 58 3000 3.6 320 15:25 31.10.2020
6092 Smoke 31 1010 48 3500 2.6 340 14:52 31.10.2020
6093 Smoke 31 1010 48 3500 2.6 320 14:31 31.10.2020
6094 Smoke 31 1010 46 4000 3.1 330 13:51 31.10.2020
6095 Smoke 31 1009 40 4000 4.1 320 13:28 31.10.2020
6096 Smoke 33 1009 34 5000 4.6 310 12:45 31.10.2020
6097 Smoke 34 1009 36 5000 5.1 300 12:21 31.10.2020
6098 Smoke 34 1009 30 5000 4.6 310 11:40 31.10.2020
6099 Smoke 34 1009 32 5000 5.1 310 11:21 31.10.2020
6100 Smoke 34 1009 26 4000 3.6 330 10:40 31.10.2020
6101 Smoke 33 1010 46 4000 5.1 260 09:56 31.10.2020
6102 Smoke 33 1010 46 4000 5.1 250 09:37 31.10.2020
6103 Smoke 33 1010 46 4000 5.1 260 09:18 31.10.2020
6104 Smoke 33 1011 30 4000 4.6 70 08:22 31.10.2020
6105 Smoke 32 1012 35 3000 4.6 30 07:30 31.10.2020
6106 Smoke 32 1012 35 3000 4.6 30 06:57 31.10.2020
6107 Smoke 31 1013 40 3000 3.6 50 06:36 31.10.2020
6108 Haze 25 1012 65 2200 2.03 48 03:48 31.10.2020
6109 Haze 25 1011 73 2500 2.27 60 02:39 31.10.2020
6110 Haze 26 1010 74 3000 2.1 100 00:52 31.10.2020
6111 Haze 26 1010 74 3000 2.08 51 23:54 30.10.2020
6112 Haze 26 1010 74 3000 1.96 32 23:31 30.10.2020
6113 Haze 26 1010 74 3000 1.96 32 23:30 30.10.2020
6114 Haze 26 1010 74 3000 1.96 32 22:59 30.10.2020
6115 Haze 26 1010 74 3000 1.96 32 22:38 30.10.2020
6116 Haze 27 1010 69 3000 1.5 10 22:20 30.10.2020
6117 Haze 27 1010 69 3000 1.5 90 21:48 30.10.2020
6118 Haze 28 1011 61 3000 2.1 90 21:26 30.10.2020
6119 Haze 28 1011 65 3000 1.46 40 20:45 30.10.2020
6120 Haze 28 1011 65 3000 2 60 20:27 30.10.2020
6121 Haze 29 1011 62 3000 1.5 40 19:59 30.10.2020
6122 Haze 29 1011 62 3000 2 60 19:39 30.10.2020
6123 Haze 29 1011 66 3000 2.75 41 19:18 30.10.2020
6124 Haze 28 1012 69 3000 2.67 39 18:41 30.10.2020
6125 Smoke 29 1011 62 3000 2.1 290 18:22 30.10.2020
6126 Smoke 30 1011 58 3000 3.47 18 17:46 30.10.2020
6127 Smoke 30 1011 62 3000 4.24 355 17:21 30.10.2020
6128 Smoke 30 1011 62 3000 4.24 355 16:50 30.10.2020
6129 Smoke 30 1011 62 3000 4.71 335 16:25 30.10.2020
6130 Clear 29 1012 63 10000 4.71 335 15:45 30.10.2020
6131 Clear 29 1012 63 10000 4.66 320 15:27 30.10.2020
6132 Clear 29 1012 63 10000 4.66 320 14:58 30.10.2020
6133 Clear 29 1012 63 10000 4.66 320 14:40 30.10.2020
6134 Clear 29 1011 63 10000 4.54 319 14:21 30.10.2020
6135 Clear 29 1011 63 10000 4.54 319 13:42 30.10.2020
6136 Clear 29 1010 63 10000 4.41 317 13:20 30.10.2020
6137 Clear 29 1010 62 10000 4.23 316 12:47 30.10.2020
6138 Clear 29 1010 60 10000 4 313 12:22 30.10.2020
6139 Clear 29 1010 60 10000 4 313 11:56 30.10.2020
6140 Clear 30 1010 55 10000 3.46 305 11:21 30.10.2020
6141 Clear 30 1010 55 10000 3.46 305 10:50 30.10.2020
6142 Clear 30 1010 53 10000 2.98 298 10:25 30.10.2020
6143 Clear 30 1010 53 10000 2.98 298 09:48 30.10.2020
6144 Smoke 35 1010 28 3000 2.6 30 09:25 30.10.2020
6145 Smoke 35 1010 28 3000 2.6 30 08:59 30.10.2020
6146 Smoke 35 1010 28 3000 2.6 30 08:31 30.10.2020
6147 Smoke 34 1012 38 2500 3.1 60 07:53 30.10.2020
6148 Smoke 33 1012 43 2500 3.1 40 07:35 30.10.2020
6149 Smoke 32 1012 49 2500 2.6 40 06:50 30.10.2020
6150 Smoke 32 1013 55 2500 2.6 80 05:53 30.10.2020
6151 Haze 27 1011 74 2500 2.6 50 02:53 30.10.2020
6152 Haze 27 1010 74 2500 1.9 77 01:20 30.10.2020
6153 Haze 26 1010 83 2500 1.5 90 23:59 29.10.2020
6154 Haze 26 1010 83 2500 1.5 100 23:41 29.10.2020
6155 Haze 27 1010 78 2500 1.33 100 23:21 29.10.2020
6156 Haze 27 1011 78 2500 2.1 80 22:44 29.10.2020
6157 Haze 28 1011 83 2500 2.1 90 22:25 29.10.2020
6158 Haze 28 1011 83 2500 2.1 90 21:44 29.10.2020
6159 Haze 28 1012 88 2200 1.74 83 21:24 29.10.2020
6160 Haze 28 1012 88 2200 1.74 83 20:43 29.10.2020
6161 Clear 28 1012 65 10000 1.51 41 20:23 29.10.2020
6162 Clear 28 1012 65 10000 1.51 41 19:56 29.10.2020
6163 Clear 28 1012 65 10000 1.51 41 19:38 29.10.2020
6164 Clear 28 1013 66 10000 1.73 350 19:18 29.10.2020
6165 Clear 28 1013 66 10000 1.73 350 18:45 29.10.2020
6166 Clear 28 1012 68 10000 1.87 334 18:25 29.10.2020
6167 Clear 28 1012 68 10000 1.87 334 17:42 29.10.2020
6168 Clear 28 1013 67 10000 2.13 328 17:22 29.10.2020
6169 Clear 28 1013 67 10000 2.13 328 16:52 29.10.2020
6170 Clear 28 1013 66 10000 2.4 327 16:23 29.10.2020
6171 Clear 28 1013 66 10000 2.4 327 15:58 29.10.2020
6172 Clear 28 1013 66 10000 2.4 327 15:40 29.10.2020
6173 Clear 28 1012 64 10000 2.86 325 15:22 29.10.2020
6174 Clear 28 1012 64 10000 2.86 325 14:47 29.10.2020
6175 Clear 28 1011 64 10000 3.3 318 14:24 29.10.2020
6176 Clear 28 1011 64 10000 3.3 318 13:59 29.10.2020
6177 Clear 28 1011 64 10000 3.3 318 13:40 29.10.2020
6178 Clear 29 1011 65 10000 3.39 306 13:21 29.10.2020
6179 Clear 29 1010 66 10000 3.64 303 12:40 29.10.2020
6180 Clear 29 1010 64 10000 3.88 294 12:19 29.10.2020
6181 Haze 32 1010 62 3000 5.1 290 11:47 29.10.2020
6182 Haze 32 1010 62 3000 5.1 290 11:25 29.10.2020
6183 Haze 33 1010 59 2500 4.6 280 10:38 29.10.2020
6184 Smoke 32 1010 62 2500 4.6 270 10:20 29.10.2020
6185 Smoke 32 1010 62 2500 4.6 270 09:53 29.10.2020
6186 Smoke 33 1011 55 3000 4.1 250 09:28 29.10.2020
6187 Smoke 33 1011 55 3000 4.1 250 08:58 29.10.2020
6188 Smoke 33 1011 55 3000 4.1 250 08:38 29.10.2020
6189 Smoke 33 1012 46 3000 1.5 160 07:58 29.10.2020
6190 Smoke 33 1012 46 3000 1.5 160 07:39 29.10.2020
6191 Clear 29 1013 53 10000 1.47 138 06:58 29.10.2020
6192 Clear 28 1013 56 10000 2.25 104 06:21 29.10.2020
6193 Haze 28 1012 74 2100 2.6 40 04:46 29.10.2020
6194 Clear 27 1011 68 10000 2.45 98 01:25 29.10.2020
6195 Clear 26 1011 67 10000 2.91 106 00:31 29.10.2020
6196 Clear 27 1010 69 10000 2.96 110 23:49 28.10.2020
6197 Clear 27 1010 68 10000 2.7 105 23:22 28.10.2020
6198 Haze 28 1010 74 4000 1.5 60 22:45 28.10.2020
6199 Haze 28 1010 74 4000 1.5 60 22:27 28.10.2020
6200 Haze 28 1010 74 4000 1.5 60 22:27 28.10.2020
6201 Haze 28 1010 74 4000 1.5 60 21:59 28.10.2020
6202 Haze 28 1010 74 4000 1.5 60 21:40 28.10.2020
6203 Haze 28 1011 69 4000 2.6 100 21:20 28.10.2020
6204 Haze 28 1011 69 4000 2.6 100 20:42 28.10.2020
6205 Haze 29 1011 66 4000 2.35 30 20:22 28.10.2020
6206 Haze 29 1011 66 4000 2.35 30 19:51 28.10.2020
6207 Haze 29 1011 66 4000 2.87 3 19:29 28.10.2020
6208 Clear 28 1012 68 10000 2.14 358 18:49 28.10.2020
6209 Clear 28 1012 68 10000 2.7 332 18:22 28.10.2020
6210 Clear 28 1012 68 10000 2.7 332 17:57 28.10.2020
6211 Clear 28 1012 68 10000 2.7 332 17:39 28.10.2020
6212 Clear 29 1012 65 10000 3 327 17:18 28.10.2020
6213 Clear 29 1012 65 10000 3 327 16:44 28.10.2020
6214 Clear 29 1012 64 10000 3.34 325 16:22 28.10.2020
6215 Haze 31 1010 58 4000 2.1 310 15:38 28.10.2020
6216 Clear 29 1011 63 10000 3.76 320 15:19 28.10.2020
6217 Smoke 30 1009 62 4000 3.6 330 14:43 28.10.2020
6218 Smoke 30 1009 62 4000 3.6 330 14:24 28.10.2020
6219 Clear 29 1010 62 10000 3.68 311 12:49 28.10.2020
6220 Clear 30 1009 60 10000 3.85 306 12:27 28.10.2020
6221 Clear 30 1009 60 10000 3.85 306 11:58 28.10.2020
6222 Clear 30 1009 60 10000 3.85 306 11:39 28.10.2020
6223 Clear 30 1009 55 10000 3.56 296 11:19 28.10.2020
6224 Smoke 33 1009 52 3500 5.7 290 10:48 28.10.2020
6225 Smoke 33 1009 52 3500 5.7 290 10:29 28.10.2020
6226 Smoke 32 1010 55 3000 4.1 290 09:45 28.10.2020
6227 Smoke 32 1010 55 3000 4.1 290 09:24 28.10.2020
6228 Smoke 32 1010 55 3000 4.1 290 08:51 28.10.2020
6229 Smoke 33 1010 52 3000 4.6 300 08:32 28.10.2020
6230 Smoke 34 1012 46 3000 2.1 70 07:54 28.10.2020
6231 Smoke 34 1012 46 3000 2.1 70 07:31 28.10.2020
6232 Smoke 34 1012 46 3000 2.6 80 06:57 28.10.2020
6233 Smoke 33 1012 49 3000 2.6 170 06:38 28.10.2020
6234 Clear 29 1013 57 10000 1.94 78 05:44 28.10.2020
6235 Clear 28 1013 60 10000 2.3 71 04:50 28.10.2020
6236 Clear 28 1013 63 10000 2.43 68 03:53 28.10.2020
6237 Haze 27 1010 74 3000 1.5 40 01:56 28.10.2020
6238 Haze 27 1010 74 3000 2.1 80 00:33 28.10.2020
6239 Haze 27 1010 69 3000 1.5 90 23:47 27.10.2020
6240 Haze 28 1010 69 3000 1.91 92 23:22 27.10.2020
6241 Haze 28 1010 69 3000 2.6 100 22:45 27.10.2020
6242 Haze 29 1010 62 3000 2.6 130 22:22 27.10.2020
6243 Haze 29 1010 62 3000 2.6 130 21:57 27.10.2020
6244 Haze 29 1010 66 3000 2.6 80 21:38 27.10.2020
6245 Clear 28 1011 69 10000 2.58 87 21:20 27.10.2020
6246 Clear 28 1011 69 10000 2.58 87 20:50 27.10.2020
6247 Clear 28 1011 69 10000 2.41 84 20:25 27.10.2020
6248 Clear 28 1011 69 10000 2.41 84 19:58 27.10.2020
6249 Clear 28 1011 69 10000 2.41 84 19:38 27.10.2020
6250 Clear 29 1012 69 10000 2.07 54 19:19 27.10.2020
6251 Haze 30 1011 66 3000 2.23 26 18:45 27.10.2020
6252 Haze 30 1011 66 3000 2.23 26 18:45 27.10.2020
6253 Haze 30 1011 66 3000 2.83 3 18:27 27.10.2020
6254 Haze 30 1011 66 3000 2.83 3 17:59 27.10.2020
6255 Smoke 30 1011 66 3000 1.5 360 17:40 27.10.2020
6256 Smoke 30 1011 66 4000 2.6 340 17:19 27.10.2020
6257 Smoke 31 1011 62 4000 2.6 340 16:44 27.10.2020
6258 Smoke 31 1010 62 4000 1.5 330 16:23 27.10.2020
6259 Smoke 31 1010 58 4000 1.5 310 15:42 27.10.2020
6260 Smoke 31 1010 52 4000 2.1 310 15:24 27.10.2020
6261 Smoke 31 1009 49 4000 2.6 320 14:51 27.10.2020
6262 Smoke 31 1009 49 4000 2.6 320 14:32 27.10.2020
6263 Smoke 31 1008 49 4000 2.6 300 13:59 27.10.2020
6264 Smoke 32 1009 46 5000 4.1 290 13:32 27.10.2020
6265 Smoke 33 1008 46 5000 2.6 290 12:54 27.10.2020
6266 Smoke 33 1008 43 5000 3.6 280 12:36 27.10.2020
6267 Smoke 33 1008 46 5000 4.1 320 12:18 27.10.2020
6268 Smoke 33 1008 43 5000 3.6 310 11:42 27.10.2020
6269 Smoke 34 1008 41 4000 4.6 280 11:21 27.10.2020
6270 Smoke 34 1009 41 4000 4.1 280 10:46 27.10.2020
6271 Smoke 33 1009 46 4000 5.1 270 10:22 27.10.2020
6272 Smoke 34 1009 44 4000 4.6 250 09:42 27.10.2020
6273 Smoke 34 1009 32 4000 1.5 300 09:23 27.10.2020
6274 Smoke 34 1010 32 4000 2.1 340 08:36 27.10.2020
6275 Smoke 34 1011 34 4000 3.6 20 08:18 27.10.2020
6276 Smoke 34 1011 34 3000 3.1 20 07:42 27.10.2020
6277 Smoke 34 1012 36 3000 3.6 100 07:24 27.10.2020
6278 Smoke 32 1012 40 3000 2.6 60 06:21 27.10.2020
6279 Smoke 31 1012 43 3000 4.1 30 05:51 27.10.2020
6280 Smoke 31 1012 43 3000 4.1 30 05:32 27.10.2020
6281 Smoke 29 1011 45 3500 2.6 50 04:43 27.10.2020
6282 Haze 26 1009 69 3500 2.82 75 01:32 27.10.2020
6283 Haze 27 1009 69 3500 2.1 80 00:48 27.10.2020
6284 Haze 28 1009 65 3500 2.35 83 23:41 26.10.2020
6285 Haze 29 1009 51 3500 1.5 40 23:19 26.10.2020
6286 Haze 28 1009 69 3500 2.46 81 22:46 26.10.2020
6287 Haze 28 1010 61 3500 2.77 76 22:21 26.10.2020
6288 Haze 27 1010 65 3500 2.77 76 21:43 26.10.2020
6289 Haze 28 1010 65 3500 2.81 61 21:20 26.10.2020
6290 Haze 28 1010 65 3500 2.81 61 20:57 26.10.2020
6291 Haze 29 1011 58 3500 2.81 61 20:38 26.10.2020
6292 Haze 29 1011 62 3500 2.9 43 20:18 26.10.2020
6293 Haze 29 1011 62 3500 2.9 43 19:46 26.10.2020
6294 Haze 29 1011 62 3500 2.56 41 19:22 26.10.2020
6295 Haze 30 1011 55 3500 2.56 41 18:44 26.10.2020
6296 Haze 30 1011 62 3000 2.1 40 18:23 26.10.2020
6297 Haze 30 1011 62 3000 2.1 40 17:55 26.10.2020
6298 Haze 30 1011 70 3000 2.1 10 17:37 26.10.2020
6299 Haze 30 1011 70 3000 1.5 10 17:19 26.10.2020
6300 Haze 30 1011 70 3000 2.1 30 16:40 26.10.2020
6301 Haze 31 1011 66 3000 2.6 360 16:21 26.10.2020
6302 Haze 31 1010 62 3000 3.1 350 15:41 26.10.2020
6303 Haze 31 1010 62 3000 3.6 340 15:20 26.10.2020
6304 Haze 31 1010 70 3000 3.1 330 14:52 26.10.2020
6305 Haze 31 1010 70 3000 3.1 330 14:30 26.10.2020
6306 Haze 32 1009 70 3000 3.6 320 13:43 26.10.2020
6307 Haze 32 1009 70 3000 3.6 320 13:24 26.10.2020
6308 Haze 33 1009 66 3000 3.1 310 12:49 26.10.2020
6309 Haze 33 1009 66 3000 3.1 310 12:27 26.10.2020
6310 Haze 33 1009 59 3000 4.1 310 11:57 26.10.2020
6311 Haze 33 1009 63 3000 4.6 320 11:37 26.10.2020
6312 Smoke 34 1009 46 3000 1.5 20 11:19 26.10.2020
6313 Smoke 34 1010 44 3000 2.6 30 10:46 26.10.2020
6314 Smoke 34 1010 44 3000 2.6 30 10:25 26.10.2020
6315 Smoke 34 1010 46 3000 2.6 30 09:51 26.10.2020
6316 Haze 34 1010 49 3000 2.6 30 09:26 26.10.2020
6317 Haze 33 1011 59 3000 2.1 110 08:48 26.10.2020
6318 Haze 32 1012 62 2500 2.1 60 08:22 26.10.2020
6319 Haze 32 1012 66 2500 2.6 90 07:38 26.10.2020
6320 Haze 31 1013 74 2500 3.1 120 07:18 26.10.2020
6321 Haze 29 1013 79 2500 2.85 84 05:30 26.10.2020
6322 Mist 27 1013 83 2500 2.79 88 04:18 26.10.2020
6323 Haze 27 1012 83 3000 2.1 100 03:20 26.10.2020
6324 Haze 27 1012 83 3000 2.1 100 03:20 26.10.2020
6325 Haze 27 1012 83 3000 2.1 100 03:20 26.10.2020
6326 Haze 27 1012 83 3000 2.1 100 03:20 26.10.2020
6327 Haze 27 1010 83 3500 2.04 136 01:34 26.10.2020
6328 Haze 27 1010 83 3500 1.5 90 00:33 26.10.2020
6329 Haze 27 1010 83 3500 3.3 120 23:45 25.10.2020
6330 Haze 28 1010 78 3500 3.15 125 23:24 25.10.2020
6331 Haze 28 1010 78 3500 3.15 125 22:45 25.10.2020
6332 Haze 27 1010 83 3500 2.4 124 22:26 25.10.2020
6333 Haze 27 1011 83 3500 2.4 124 21:49 25.10.2020
6334 Haze 27 1011 83 3500 2.4 124 21:30 25.10.2020
6335 Haze 27 1011 83 3500 1.52 108 20:58 25.10.2020
6336 Haze 28 1011 78 3500 2.6 160 20:39 25.10.2020
6337 Haze 27 1012 83 3500 3.6 160 20:19 25.10.2020
6338 Haze 28 1012 88 3500 2.1 170 19:49 25.10.2020
6339 Haze 28 1012 88 3500 2.1 170 19:26 25.10.2020
6340 Haze 29 1012 83 3500 3.6 120 18:59 25.10.2020
6341 Haze 30 1011 79 3500 1.86 250 18:40 25.10.2020
6342 Haze 30 1011 79 3500 1.78 269 18:21 25.10.2020
6343 Haze 30 1011 79 3500 1.78 269 17:55 25.10.2020
6344 Haze 30 1011 84 3500 1.5 310 17:36 25.10.2020
6345 Haze 30 1011 84 3500 2.1 310 17:18 25.10.2020
6346 Haze 30 1010 84 3500 2.1 290 16:43 25.10.2020
6347 Haze 30 1010 84 3500 2.1 290 16:23 25.10.2020
6348 Haze 30 1009 79 4000 3.1 300 15:47 25.10.2020
6349 Haze 30 1009 79 4000 3.1 300 15:26 25.10.2020
6350 Haze 30 1009 79 3000 3.6 290 14:52 25.10.2020
6351 Haze 30 1009 79 3000 3.6 300 14:29 25.10.2020
6352 Smoke 31 1008 74 3000 4.6 310 13:44 25.10.2020
6353 Smoke 31 1008 74 3000 4.6 310 13:24 25.10.2020
6354 Smoke 31 1008 74 3000 5.1 280 12:56 25.10.2020
6355 Smoke 32 1007 70 3000 4.6 290 12:38 25.10.2020
6356 Smoke 32 1007 70 3000 5.1 260 12:18 25.10.2020
6357 Smoke 32 1007 70 3000 4.6 260 11:42 25.10.2020
6358 Smoke 32 1008 70 3000 4.6 260 11:19 25.10.2020
6359 Smoke 32 1008 70 2800 4.6 240 10:46 25.10.2020
6360 Smoke 32 1008 70 2800 4.6 240 10:26 25.10.2020
6361 Smoke 32 1009 70 2800 5.1 250 09:52 25.10.2020
6362 Smoke 32 1009 70 2200 5.1 250 09:22 25.10.2020
6363 Smoke 32 1009 70 2200 5.1 250 08:59 25.10.2020
6364 Smoke 31 1010 74 2200 3.6 260 08:40 25.10.2020
6365 Smoke 32 1010 59 2800 2.1 10 08:22 25.10.2020
6366 Smoke 32 1011 63 2500 3.1 20 07:44 25.10.2020
6367 Haze 32 1011 66 2500 2.6 110 06:53 25.10.2020
6368 Haze 31 1012 74 2500 1.5 83 06:30 25.10.2020
6369 Haze 30 1012 84 2200 1.56 83 05:22 25.10.2020
6370 Haze 28 1012 88 2200 2.1 130 04:50 25.10.2020
6371 Haze 27 1010 94 2200 2.06 125 02:38 25.10.2020
6372 Haze 28 1009 94 3000 2.84 142 01:32 25.10.2020
6373 Haze 28 1009 94 3000 2.02 132 00:48 25.10.2020
6374 Haze 28 1009 94 3000 1.48 131 00:19 25.10.2020
6375 Haze 28 1009 94 3000 1.48 131 23:52 24.10.2020
6376 Haze 28 1009 94 3000 2.1 110 23:25 24.10.2020
6377 Haze 28 1010 94 3000 1.5 140 22:43 24.10.2020
6378 Haze 28 1010 94 3000 1.5 140 22:24 24.10.2020
6379 Haze 29 1010 89 3000 2.1 170 21:59 24.10.2020
6380 Haze 29 1010 89 3000 2.1 170 21:39 24.10.2020
6381 Haze 29 1010 89 3000 2.6 180 21:20 24.10.2020
6382 Haze 29 1010 89 3000 2.1 200 20:47 24.10.2020
6383 Haze 29 1010 89 3000 2.1 200 20:22 24.10.2020
6384 Haze 29 1010 89 3000 2.1 200 19:47 24.10.2020
6385 Haze 29 1010 89 3000 2.1 200 19:28 24.10.2020
6386 Haze 29 1010 89 3000 1.5 150 18:57 24.10.2020
6387 Haze 29 1010 89 3000 2.1 240 18:39 24.10.2020
6388 Haze 29 1010 89 3000 1.5 230 18:20 24.10.2020
6389 Haze 29 1009 89 3000 2.1 230 17:38 24.10.2020
6390 Haze 29 1009 89 3000 2.6 220 17:20 24.10.2020
6391 Haze 30 1008 84 3000 3.1 240 16:44 24.10.2020
6392 Haze 30 1008 84 3000 2.6 240 16:21 24.10.2020
6393 Haze 30 1008 84 3000 3.1 230 15:39 24.10.2020
6394 Haze 30 1007 84 3000 4.1 240 15:19 24.10.2020
6395 Haze 30 1007 84 3000 3.6 240 14:46 24.10.2020
6396 Haze 30 1007 84 3000 3.6 240 14:27 24.10.2020
6397 Haze 30 1007 79 2500 4.1 260 13:46 24.10.2020
6398 Haze 30 1007 79 2500 4.1 260 13:24 24.10.2020
6399 Haze 30 1006 79 2500 4.6 240 12:46 24.10.2020
6400 Haze 30 1007 74 2500 4.1 250 12:21 24.10.2020
6401 Haze 30 1007 74 2500 4.1 250 11:53 24.10.2020
6402 Haze 31 1007 79 2500 4.1 220 11:35 24.10.2020
6403 Haze 31 1007 79 2500 5.7 250 10:54 24.10.2020
6404 Haze 32 1007 75 2500 6.2 220 10:33 24.10.2020
6405 Haze 31 1008 79 2100 5.1 250 09:50 24.10.2020
6406 Haze 31 1008 79 2100 5.1 250 09:32 24.10.2020
6407 Haze 31 1008 79 2100 5.1 240 08:59 24.10.2020
6408 Haze 31 1009 79 2100 3.6 180 08:20 24.10.2020
6409 Haze 31 1009 79 2100 3.6 180 07:54 24.10.2020
6410 Haze 31 1009 79 2100 3.1 190 07:25 24.10.2020
6411 Haze 30 1009 84 2000 2.6 200 06:53 24.10.2020
6412 Haze 30 1009 89 2000 1.1 19 06:23 24.10.2020
6413 Mist 28 1007 94 2100 1.5 120 03:36 24.10.2020
6414 Mist 28 1007 94 2500 2.1 70 02:18 24.10.2020
6415 Haze 28 1006 94 3000 1.91 133 00:42 24.10.2020
6416 Haze 29 1006 89 3000 1.56 124 00:22 24.10.2020
6417 Haze 29 1007 89 3000 1.56 124 23:49 23.10.2020
6418 Haze 29 1007 89 3000 0.9 131 23:26 23.10.2020
6419 Haze 29 1007 89 3000 1.5 100 22:58 23.10.2020
6420 Haze 29 1007 89 3000 1.5 100 22:58 23.10.2020
6421 Haze 29 1007 89 3000 0.9 131 22:39 23.10.2020
6422 Haze 30 1007 84 3000 0.2 229 22:20 23.10.2020
6423 Haze 29 1007 89 3000 0.2 229 21:46 23.10.2020
6424 Haze 29 1007 89 3000 1 280 21:25 23.10.2020
6425 Haze 30 1007 84 3000 1 280 20:41 23.10.2020
6426 Haze 30 1007 84 3000 2.01 285 20:23 23.10.2020
6427 Haze 30 1008 84 3000 1.5 320 19:54 23.10.2020
6428 Haze 30 1008 84 3000 1.5 320 19:33 23.10.2020
6429 Haze 30 1008 79 3000 1.35 257 18:57 23.10.2020
6430 Haze 30 1008 79 3000 1.35 257 18:37 23.10.2020
6431 Haze 30 1008 79 3000 1.45 250 18:19 23.10.2020
6432 Haze 30 1007 79 3000 2.1 320 17:42 23.10.2020
6433 Haze 30 1007 79 3000 2.1 320 17:20 23.10.2020
6434 Haze 30 1006 79 3500 2.1 300 16:39 23.10.2020
6435 Haze 31 1006 74 3500 2.1 320 16:21 23.10.2020
6436 Haze 31 1006 74 3500 3.1 310 15:43 23.10.2020
6437 Haze 31 1005 74 3500 2.6 310 15:24 23.10.2020
6438 Haze 31 1005 74 3500 2.6 310 14:53 23.10.2020
6439 Haze 31 1005 74 3500 3.6 310 14:35 23.10.2020
6440 Haze 32 1004 70 4000 4.6 280 13:56 23.10.2020
6441 Haze 32 1004 70 4000 4.6 270 13:37 23.10.2020
6442 Haze 32 1004 70 4000 4.6 270 13:19 23.10.2020
6443 Haze 32 1004 70 3500 5.1 270 12:43 23.10.2020
6444 Haze 32 1005 70 3500 5.1 260 12:24 23.10.2020
6445 Haze 32 1005 70 3000 4.6 270 11:46 23.10.2020
6446 Haze 32 1005 70 3000 4.6 250 11:21 23.10.2020
6447 Haze 32 1006 75 3000 4.6 260 10:43 23.10.2020
6448 Haze 33 1006 66 2500 2.6 250 10:25 23.10.2020
6449 Haze 32 1007 70 2500 3.6 260 09:45 23.10.2020
6450 Haze 32 1007 70 2500 3.6 260 09:26 23.10.2020
6451 Haze 32 1007 70 2500 2.6 260 08:52 23.10.2020
6452 Haze 32 1008 66 2500 2.6 40 08:32 23.10.2020
6453 Haze 31 1008 70 2500 2.1 200 07:38 23.10.2020
6454 Haze 30 1008 74 2500 1.53 128 07:19 23.10.2020
6455 Haze 28 1008 83 2500 2.6 110 06:20 23.10.2020
6456 Haze 28 1008 83 2500 2.1 130 05:34 23.10.2020
6457 Haze 27 1005 83 4000 1.63 98 02:32 23.10.2020
6458 Haze 27 1005 88 4000 1.45 74 01:30 23.10.2020
6459 Haze 27 1005 83 4000 2.1 40 00:47 23.10.2020
6460 Haze 26 1006 88 4000 0.91 60 23:48 22.10.2020
6461 Haze 26 1006 88 4000 0.45 134 23:26 22.10.2020
6462 Haze 26 1006 88 4000 2.1 130 22:49 22.10.2020
6463 Haze 26 1006 88 4000 2.1 130 22:27 22.10.2020
6464 Haze 27 1006 83 4000 2.1 100 21:59 22.10.2020
6465 Haze 27 1007 88 4000 2.1 90 21:41 22.10.2020
6466 Haze 27 1007 88 4000 2.1 60 21:23 22.10.2020
6467 Haze 27 1007 88 4000 3.1 30 20:45 22.10.2020
6468 Haze 27 1007 88 4000 3.1 30 20:26 22.10.2020
6469 Haze 27 1008 88 4000 3.1 60 19:59 22.10.2020
6470 Rain 27 1008 88 4000 3.1 60 19:40 22.10.2020
6471 Haze 26 1008 94 4000 2.1 90 19:18 22.10.2020
6472 Haze 26 1008 94 3000 3.1 100 18:42 22.10.2020
6473 Haze 27 1008 88 3000 3.1 110 18:20 22.10.2020
6474 Haze 27 1007 88 3000 2.1 340 17:45 22.10.2020
6475 Rain 26 1007 88 2500 1.5 0 17:22 22.10.2020
6476 Rain 26 1007 94 2500 5.1 120 16:54 22.10.2020
6477 Rain 26 1007 94 2500 5.1 120 16:36 22.10.2020
6478 Rain 29 1007 79 2500 5.1 90 16:18 22.10.2020
6479 Rain 30 1006 84 2500 2.1 340 15:40 22.10.2020
6480 Rain 30 1005 79 3000 3.1 320 15:22 22.10.2020
6481 Haze 30 1004 79 3000 5.7 330 14:45 22.10.2020
6482 Rain 30 1004 79 3000 5.7 330 14:24 22.10.2020
6483 Haze 31 1004 79 3000 4.6 300 13:48 22.10.2020
6484 Haze 31 1004 79 3000 5.1 300 13:24 22.10.2020
6485 Haze 31 1004 79 3000 5.1 300 12:47 22.10.2020
6486 Haze 31 1004 79 3000 5.7 280 12:23 22.10.2020
6487 Haze 30 1005 84 3000 3.6 280 11:50 22.10.2020
6488 Haze 31 1005 89 3000 5.7 250 11:20 22.10.2020
6489 Haze 31 1005 84 2500 5.1 250 10:51 22.10.2020
6490 Haze 31 1005 84 2500 5.1 250 10:28 22.10.2020
6491 Haze 31 1006 84 2500 4.6 260 09:52 22.10.2020
6492 Haze 32 1006 70 2500 1.5 110 09:33 22.10.2020
6493 Haze 33 1006 70 2500 2.6 40 08:51 22.10.2020
6494 Haze 32 1007 75 2500 1.5 30 08:30 22.10.2020
6495 Haze 32 1008 75 2500 1.5 350 07:57 22.10.2020
6496 Haze 32 1008 75 2500 0.87 160 07:34 22.10.2020
6497 Haze 31 1008 79 2500 1.87 118 06:58 22.10.2020
6498 Haze 30 1008 84 2500 3.1 70 06:26 22.10.2020
6499 Haze 29 1008 89 2500 2.6 70 05:40 22.10.2020
6500 Haze 28 1007 94 2500 2.38 89 04:40 22.10.2020
6501 Haze 28 1006 88 2500 1.99 14 01:46 22.10.2020
6502 Haze 28 1006 88 2500 3.16 348 00:26 22.10.2020
6503 Haze 28 1006 88 2500 1.5 50 23:50 21.10.2020
6504 Haze 28 1006 88 2500 1.5 50 23:32 21.10.2020
6505 Haze 28 1007 88 2500 1.5 130 22:43 21.10.2020
6506 Haze 28 1007 88 2500 2.1 120 22:19 21.10.2020
6507 Haze 28 1007 88 2500 2.1 120 21:56 21.10.2020
6508 Haze 28 1007 83 2500 1.5 120 21:37 21.10.2020
6509 Haze 28 1007 88 2500 2.6 120 21:18 21.10.2020
6510 Rain 28 1008 88 2500 1.5 30 20:47 21.10.2020
6511 Rain 28 1008 88 2500 2.1 90 20:19 21.10.2020
6512 Rain 28 1008 88 2500 2.1 90 19:45 21.10.2020
6513 Haze 28 1008 88 2500 2.1 90 19:26 21.10.2020
6514 Rain 28 1008 88 2500 2.1 90 19:26 21.10.2020
6515 Haze 27 1008 94 2500 3.1 90 18:54 21.10.2020
6516 Rain 28 1008 94 2500 2.6 110 18:33 21.10.2020
6517 Rain 28 1008 94 2100 3.1 120 17:57 21.10.2020
6518 Rain 28 1008 94 2100 3.1 120 17:39 21.10.2020
6519 Rain 28 1007 100 2300 2.6 328 17:19 21.10.2020
6520 Rain 28 1007 94 3000 2.6 110 16:40 21.10.2020
6521 Thunderstorm 28 1007 94 3000 2.6 110 16:21 21.10.2020
6522 Rain 30 1007 89 3000 2.8 319 15:55 21.10.2020
6523 Rain 30 1007 89 3000 3.1 90 15:36 21.10.2020
6524 Thunderstorm 31 1006 74 3000 4.6 70 15:18 21.10.2020
6525 Rain 32 1005 70 4000 4.1 310 14:42 21.10.2020
6526 Rain 32 1005 70 4000 4.1 310 14:22 21.10.2020
6527 Haze 32 1004 75 4000 4.6 300 13:42 21.10.2020
6528 Haze 32 1004 75 4000 4.6 300 13:23 21.10.2020
6529 Haze 32 1005 75 4000 5.1 280 12:43 21.10.2020
6530 Haze 32 1005 75 4000 5.1 280 12:23 21.10.2020
6531 Haze 32 1005 75 3000 6.2 260 11:56 21.10.2020
6532 Haze 32 1005 70 3000 5.1 270 11:37 21.10.2020
6533 Haze 32 1005 70 3000 5.1 270 11:18 21.10.2020
6534 Haze 33 1006 63 3000 5.1 270 10:40 21.10.2020
6535 Haze 33 1006 63 3000 5.1 270 10:21 21.10.2020
6536 Haze 33 1007 66 3000 4.6 260 09:51 21.10.2020
6537 Haze 33 1007 66 2500 4.1 260 09:28 21.10.2020
6538 Haze 32 1008 70 2500 4.1 260 08:42 21.10.2020
6539 Haze 32 1008 70 2500 4.1 260 08:24 21.10.2020
6540 Haze 33 1009 70 2500 0.36 168 07:56 21.10.2020
6541 Haze 32 1009 70 2500 1.5 70 07:24 21.10.2020
6542 Haze 31 1009 79 2500 2.1 40 06:47 21.10.2020
6543 Haze 31 1009 79 2500 2.1 40 06:25 21.10.2020
6544 Haze 28 1007 83 2500 2.1 290 03:48 21.10.2020
6545 Thunderstorm 29 1007 89 2500 1.5 90 00:50 21.10.2020
6546 Mist 29 1007 94 2500 2.1 10 23:37 20.10.2020
6547 Haze 29 1008 94 3000 1.5 340 22:49 20.10.2020
6548 Haze 29 1008 94 3000 1.5 340 22:25 20.10.2020
6549 Haze 29 1008 94 3000 1.12 3 21:48 20.10.2020
6550 Haze 29 1008 94 3000 1.54 334 21:20 20.10.2020
6551 Haze 29 1009 94 3000 1.5 320 20:44 20.10.2020
6552 Haze 29 1009 94 3000 1.5 320 20:25 20.10.2020
6553 Haze 30 1009 89 3000 1.5 300 19:57 20.10.2020
6554 Haze 30 1009 89 3000 2.1 300 19:39 20.10.2020
6555 Haze 30 1009 89 3000 1.5 300 19:20 20.10.2020
6556 Haze 30 1009 89 3000 1.5 310 18:45 20.10.2020
6557 Haze 30 1008 89 3000 1.5 310 18:26 20.10.2020
6558 Haze 30 1008 89 3000 2.6 290 17:42 20.10.2020
6559 Haze 30 1008 89 3000 3.1 300 17:23 20.10.2020
6560 Haze 30 1007 89 3000 3.6 280 16:47 20.10.2020
6561 Haze 30 1007 89 3000 3.6 280 16:26 20.10.2020
6562 Rain 30 1007 84 3000 4.1 280 15:50 20.10.2020
6563 Haze 30 1007 84 4000 3.1 320 15:31 20.10.2020
6564 Haze 30 1006 84 4000 4.6 280 14:55 20.10.2020
6565 Haze 30 1005 84 4000 3.6 310 14:37 20.10.2020
6566 Haze 30 1005 84 4000 3.6 310 14:37 20.10.2020
6567 Haze 30 1005 84 4000 3.6 310 14:19 20.10.2020
6568 Haze 31 1004 79 3000 5.1 280 13:42 20.10.2020
6569 Haze 31 1004 79 3000 5.1 280 13:21 20.10.2020
6570 Haze 31 1004 79 3000 4.1 290 12:54 20.10.2020
6571 Haze 31 1004 79 3000 4.1 290 12:36 20.10.2020
6572 Haze 32 1005 70 3000 4.6 320 12:18 20.10.2020
6573 Haze 32 1005 75 3000 5.7 280 11:36 20.10.2020
6574 Rain 32 1005 75 3000 5.7 280 11:18 20.10.2020
6575 Haze 32 1006 75 3000 4.1 280 10:29 20.10.2020
6576 Haze 32 1006 75 2500 4.1 280 09:50 20.10.2020
6577 Haze 32 1006 75 2500 4.1 270 09:21 20.10.2020
6578 Haze 32 1007 75 2500 3.1 260 08:58 20.10.2020
6579 Haze 31 1008 79 2500 3.1 250 08:31 20.10.2020
6580 Haze 31 1008 74 2500 1.5 320 07:51 20.10.2020
6581 Haze 31 1008 74 2500 1.5 50 07:25 20.10.2020
6582 Haze 30 1008 79 2500 2.1 10 06:29 20.10.2020
6583 Haze 29 1008 83 2500 1.43 118 05:22 20.10.2020
6584 Haze 28 1007 94 2500 1.23 108 03:55 20.10.2020
6585 Haze 28 1006 88 3000 0.44 111 02:18 20.10.2020
6586 Haze 28 1006 94 3000 0.22 135 00:58 20.10.2020
6587 Haze 28 1006 94 3000 0.22 135 00:39 20.10.2020
6588 Haze 28 1006 94 3500 0.41 227 00:19 20.10.2020
6589 Haze 28 1006 94 3500 0.41 227 23:41 19.10.2020
6590 Haze 28 1006 94 3500 0.79 230 23:21 19.10.2020
6591 Haze 28 1007 88 3500 2.1 110 22:43 19.10.2020
6592 Haze 28 1007 88 3500 2.1 110 22:21 19.10.2020
6593 Haze 29 1008 83 3500 1.05 226 21:43 19.10.2020
6594 Haze 29 1008 83 3500 1.5 350 21:22 19.10.2020
6595 Haze 29 1008 83 3500 0.95 219 20:46 19.10.2020
6596 Haze 29 1008 83 3500 0.81 250 20:27 19.10.2020
6597 Haze 29 1008 89 3500 1.5 340 19:50 19.10.2020
6598 Haze 29 1008 89 4000 1.29 265 19:24 19.10.2020
6599 Haze 29 1009 89 4000 1.29 265 18:54 19.10.2020
6600 Haze 29 1008 89 4000 1.29 265 18:36 19.10.2020
6601 Rain 29 1008 89 4000 2.1 270 18:18 19.10.2020
6602 Haze 29 1008 83 3500 1.4 300 17:43 19.10.2020
6603 Haze 29 1008 83 3500 2.12 316 17:23 19.10.2020
6604 Haze 29 1007 83 3000 2.6 290 16:43 19.10.2020
6605 Haze 29 1007 83 3000 2.6 290 16:24 19.10.2020
6606 Clouds 28 1008 79 10000 2.89 312 15:43 19.10.2020
6607 Rain 28 1007 79 10000 3.55 305 15:24 19.10.2020
6608 Clouds 28 1007 79 10000 3.55 305 14:51 19.10.2020
6609 Rain 28 1007 79 10000 4.01 294 14:26 19.10.2020
6610 Clouds 28 1007 76 10000 3.27 279 13:52 19.10.2020
6611 Clouds 28 1007 76 10000 3.27 279 13:33 19.10.2020
6612 Clouds 28 1006 76 10000 3.74 270 12:52 19.10.2020
6613 Clouds 28 1006 76 10000 4.19 265 12:33 19.10.2020
6614 Clouds 28 1006 76 10000 4.19 265 11:51 19.10.2020
6615 Haze 30 1007 79 3000 4.1 260 11:26 19.10.2020
6616 Haze 30 1007 79 3000 4.1 260 10:59 19.10.2020
6617 Haze 30 1007 79 3000 4.1 260 10:39 19.10.2020
6618 Haze 30 1008 79 3000 4.1 270 10:20 19.10.2020
6619 Haze 30 1008 79 3000 3.6 250 09:43 19.10.2020
6620 Haze 30 1009 79 2500 2.1 250 09:19 19.10.2020
6621 Haze 29 1009 83 2500 4.1 240 08:48 19.10.2020
6622 Haze 29 1009 83 2500 4.1 240 08:23 19.10.2020
6623 Haze 30 1010 79 2500 3.6 270 07:44 19.10.2020
6624 Haze 30 1010 79 2500 2.6 190 07:19 19.10.2020
6625 Haze 28 1009 88 2500 1.5 90 06:19 19.10.2020
6626 Haze 28 1009 88 2500 1.5 90 06:19 19.10.2020
6627 Haze 28 1008 88 2500 0.7 7 03:49 19.10.2020
6628 Haze 28 1007 88 2000 0.07 39 02:28 19.10.2020
6629 Haze 28 1007 88 3000 2.1 110 00:57 19.10.2020
6630 Haze 28 1007 83 3000 2.12 196 00:24 19.10.2020
6631 Haze 28 1007 83 3000 1.5 210 23:47 18.10.2020
6632 Haze 28 1007 83 3000 1.5 210 23:25 18.10.2020
6633 Haze 28 1007 83 3000 1.48 214 22:52 18.10.2020
6634 Haze 28 1008 83 3000 1.61 217 22:22 18.10.2020
6635 Haze 28 1008 83 3000 1.61 217 21:55 18.10.2020
6636 Haze 28 1008 83 3000 1.61 217 21:36 18.10.2020
6637 Haze 28 1008 83 3000 1.5 220 21:18 18.10.2020
6638 Haze 29 1009 79 3000 1.5 200 20:40 18.10.2020
6639 Haze 28 1009 88 3000 2.6 230 20:19 18.10.2020
6640 Haze 28 1009 88 3000 2.6 240 19:43 18.10.2020
6641 Haze 28 1009 88 3000 2.6 240 19:25 18.10.2020
6642 Rain 28 1009 88 3000 2.1 240 18:48 18.10.2020
6643 Haze 28 1009 88 3000 2.1 240 18:27 18.10.2020
6644 Haze 29 1008 83 3000 3.6 240 17:44 18.10.2020
6645 Haze 29 1008 83 3000 3.6 240 17:25 18.10.2020
6646 Haze 28 1007 88 4000 3.6 240 16:46 18.10.2020
6647 Haze 28 1007 88 4000 3.6 230 16:27 18.10.2020
6648 Haze 28 1007 88 4000 3.6 230 15:59 18.10.2020
6649 Haze 29 1007 79 4000 3.6 240 15:41 18.10.2020
6650 Haze 29 1006 79 4000 4.1 250 15:19 18.10.2020
6651 Haze 29 1006 79 4000 4.1 250 14:53 18.10.2020
6652 Haze 29 1006 79 5000 3.6 240 14:28 18.10.2020
6653 Haze 30 1006 70 5000 4.6 240 13:56 18.10.2020
6654 Haze 30 1006 70 5000 5.1 240 13:37 18.10.2020
6655 Haze 30 1006 74 5000 4.6 260 13:19 18.10.2020
6656 Haze 31 1006 66 4000 5.1 230 12:41 18.10.2020
6657 Haze 31 1006 66 4000 4.6 220 12:21 18.10.2020
6658 Haze 31 1006 66 4000 6.2 250 11:42 18.10.2020
6659 Haze 31 1006 66 4000 6.2 250 11:23 18.10.2020
6660 Haze 32 1007 59 4000 3.1 210 10:41 18.10.2020
6661 Haze 32 1007 62 4000 2.6 160 10:21 18.10.2020
6662 Haze 32 1007 62 4000 2.6 160 10:21 18.10.2020
6663 Haze 32 1007 62 4000 2.6 160 09:52 18.10.2020
6664 Haze 31 1008 66 4000 3.6 160 09:25 18.10.2020
6665 Haze 31 1008 66 4000 3.6 160 08:58 18.10.2020
6666 Haze 31 1008 66 4000 3.6 160 08:39 18.10.2020
6667 Haze 30 1009 70 4000 5.7 200 08:20 18.10.2020
6668 Haze 30 1009 70 4000 5.7 200 07:30 18.10.2020
6669 Haze 27 1008 88 3000 2.6 120 05:33 18.10.2020
6670 Haze 27 1007 83 3000 2.6 120 02:56 18.10.2020
6671 Rain 27 1006 83 3000 2.6 140 01:41 18.10.2020
6672 Haze 27 1006 83 3000 2.1 160 00:52 18.10.2020
6673 Haze 27 1006 83 3000 2.1 160 00:34 18.10.2020
6674 Haze 27 1006 83 3000 2.6 100 23:56 17.10.2020
6675 Haze 27 1006 88 3000 2.1 120 23:37 17.10.2020
6676 Haze 27 1006 83 3000 2.6 110 23:19 17.10.2020
6677 Haze 27 1007 83 3000 2.1 100 22:41 17.10.2020
6678 Haze 27 1007 83 3000 6.05 175 22:20 17.10.2020
6679 Haze 27 1007 83 3000 6.05 175 22:20 17.10.2020
6680 Haze 27 1007 83 3000 6.05 175 21:56 17.10.2020
6681 Haze 28 1007 78 3000 1.5 130 21:38 17.10.2020
6682 Haze 28 1007 83 3000 2.6 130 21:19 17.10.2020
6683 Haze 28 1007 78 3000 1.5 150 20:40 17.10.2020
6684 Haze 28 1007 78 3000 2.1 180 20:18 17.10.2020
6685 Haze 28 1007 78 3000 4.1 170 19:42 17.10.2020
6686 Haze 28 1007 78 3000 3.1 170 19:18 17.10.2020
6687 Haze 28 1007 78 3000 4.1 170 18:43 17.10.2020
6688 Haze 29 1007 74 3000 3.6 180 18:24 17.10.2020
6689 Haze 29 1007 74 3000 3.6 190 17:45 17.10.2020
6690 Haze 29 1006 79 3000 3.1 190 17:23 17.10.2020
6691 Haze 29 1006 74 3000 3.6 160 16:49 17.10.2020
6692 Haze 29 1005 79 4000 4.6 170 16:23 17.10.2020
6693 Haze 29 1005 79 4000 4.6 170 15:56 17.10.2020
6694 Haze 30 1005 79 4000 3.1 180 15:38 17.10.2020
6695 Haze 30 1005 70 4000 5.1 180 15:20 17.10.2020
6696 Haze 30 1005 70 4000 5.1 180 15:20 17.10.2020
6697 Haze 30 1004 66 4000 6.2 200 14:40 17.10.2020
6698 Haze 31 1004 62 4000 5.7 190 14:22 17.10.2020
6699 Haze 31 1004 62 4000 5.7 190 13:56 17.10.2020
6700 Haze 31 1004 66 4000 5.1 190 13:38 17.10.2020
6701 Haze 32 1004 59 4000 5.1 190 13:19 17.10.2020
6702 Haze 32 1004 66 4000 4.6 180 12:40 17.10.2020
6703 Haze 31 1004 70 4000 5.7 180 12:19 17.10.2020
6704 Haze 31 1004 70 4000 5.7 180 11:54 17.10.2020
6705 Haze 31 1005 70 4000 6.2 180 11:28 17.10.2020
6706 Haze 31 1005 70 4000 4.6 170 10:36 17.10.2020
6707 Haze 31 1006 70 4000 4.6 160 10:18 17.10.2020
6708 Haze 31 1006 70 4000 3.6 130 09:40 17.10.2020
6709 Haze 32 1006 70 4000 4.1 130 09:21 17.10.2020
6710 Haze 31 1006 66 4000 3.6 170 08:37 17.10.2020
6711 Haze 30 1007 70 4000 4.1 130 08:18 17.10.2020
6712 Haze 31 1007 66 4000 5.7 120 07:28 17.10.2020
6713 Smoke 30 1006 66 3000 4.6 150 06:42 17.10.2020
6714 Haze 28 1004 74 3000 3.1 110 03:57 17.10.2020
6715 Haze 27 1003 78 4000 3.1 110 02:29 17.10.2020
6716 Haze 28 1003 74 4000 3.6 140 00:55 17.10.2020
6717 Haze 28 1003 74 4000 4.1 150 00:33 17.10.2020
6718 Haze 28 1003 74 4000 4.1 160 23:38 16.10.2020
6719 Haze 28 1003 74 4000 4.1 150 23:19 16.10.2020
6720 Haze 28 1003 74 4000 4.6 160 22:41 16.10.2020
6721 Haze 28 1003 78 4000 4.6 160 22:22 16.10.2020
6722 Haze 28 1003 78 4000 3.1 160 21:47 16.10.2020
6723 Haze 29 1004 74 4000 4.1 150 21:25 16.10.2020